/* DATA DESCRIPTION:
Citation:	Saito, Atsushi (2026): Radiosonde measurements from station Tateno (2025-11) [dataset]. Aerological Observatory, Japan Meteorological Agency, PANGAEA, https://doi.org/10.1594/PANGAEA.988438
Other version:	Saito, Atsushi (2026): BSRN Station-to-archive file for station Tateno (2025-11) [dataset]. ftp://ftp.bsrn.awi.de/tat/tat1125.dat.gz
Project(s):	Baseline Surface Radiation Network (BSRN) (URI: https://bsrn.awi.de/)
Coverage:	LATITUDE: 36.058100 * LONGITUDE: 140.125800
	DATE/TIME START: 2025-11-01T00:00:00 * DATE/TIME END: 2025-11-30T23:59:00
	MINIMUM ALTITUDE: 26 m * MAXIMUM ALTITUDE: 33736 m
Event(s):	TAT (Tateno) * LATITUDE: 36.058100 * LONGITUDE: 140.125800 * DATE/TIME: 1996-02-01T00:00:00 * ELEVATION: 25.0 m * STATION INFO: https://hdl.handle.net/10013/epic.44630.d027, update 2022: https://download.pangaea.de/reference/115429/attachments/Tateno.pdf * LOCATION: Japan * METHOD/DEVICE: Monitoring station (MONS) * COMMENT: BSRN station no: 16; Surface type: grass; Topography type: flat, urban; Horizon: doi:10.1594/PANGAEA.669527; Station scientist: Atsushi Saito (saito-atsushi@met.kishou.go.jp)
Parameter(s):	DATE/TIME (Date/Time) * GEOCODE * PI: Saito, Atsushi (saito-atsushi@met.kishou.go.jp)
	ALTITUDE [m] (Altitude) * GEOCODE * PI: Saito, Atsushi (saito-atsushi@met.kishou.go.jp)
	Pressure, at given altitude [hPa] (PPPP) * PI: Saito, Atsushi (saito-atsushi@met.kishou.go.jp) * METHOD/DEVICE: Radiosonde, Meisei, iMS
	Temperature, air [°C] (TTT) * PI: Saito, Atsushi (saito-atsushi@met.kishou.go.jp) * METHOD/DEVICE: Radiosonde, Meisei, iMS
	Dew/frost point [°C] (TdTdTd) * PI: Saito, Atsushi (saito-atsushi@met.kishou.go.jp) * METHOD/DEVICE: Radiosonde, Meisei, iMS
	Wind direction [deg] (dd) * PI: Saito, Atsushi (saito-atsushi@met.kishou.go.jp) * METHOD/DEVICE: Radiosonde, Meisei, iMS
	Wind speed [m/s] (ff) * PI: Saito, Atsushi (saito-atsushi@met.kishou.go.jp) * METHOD/DEVICE: Radiosonde, Meisei, iMS
License:	Baseline Surface Radiation Network License 1.0 (BSRN-1.0) (URI: https://bsrn.awi.de/data/conditions-of-data-release/)
Status:	Curation Level: Enhanced curation (URI: https://wiki.pangaea.de/wiki/Curation_levels)
Size:	29171 data points
*/
Date/Time	Altitude [m]	PPPP [hPa]	TTT [°C]	TdTdTd [°C]	dd [deg]	ff [m/s]
2025-11-01T00:00	9573	289			243	73
2025-11-01T00:00	9738	282	-40.0	-44.1		
2025-11-01T00:00	9758	281			244	73
2025-11-01T00:01	10116	267			245	74
2025-11-01T00:02	10330	259			244	74
2025-11-01T00:02	10514	252			246	72
2025-11-01T00:02	10610	248	-46.6			
2025-11-01T00:03	10856	239			244	62
2025-11-01T00:04	11222	226	-46.8			
2025-11-01T00:04	11274	224			233	60
2025-11-01T00:04	11479	217			229	64
2025-11-01T00:05	11864	205			226	66
2025-11-01T00:06	12009	201	-52.7			
2025-11-01T00:06	12240	193			232	68
2025-11-01T00:07	12609	183			235	67
2025-11-01T00:08	12986	172			240	62
2025-11-01T00:09	13024	171	-58.4			
2025-11-01T00:09	13319	163			238	55
2025-11-01T00:10	13429	160	-59.1			
2025-11-01T00:10	13598	156			234	51
2025-11-01T00:11	13904	149			229	50
2025-11-01T00:12	13983	147	-59.7			
2025-11-01T00:12	14076	145			224	50
2025-11-01T00:12	14241	141			221	53
2025-11-01T00:13	14498	135			225	55
2025-11-01T00:13	14543	134	-64.0			
2025-11-01T00:14	14795	129			229	56
2025-11-01T00:14	14902	126	-64.9			
2025-11-01T00:15	15102	122			237	51
2025-11-01T00:16	15396	117			236	44
2025-11-01T00:16	15485	115	-65.3			
2025-11-01T00:17	15681	111			236	47
2025-11-01T00:17	15766	110	-66.4			
2025-11-01T00:18	15914	107	-66.0			
2025-11-01T00:18	15931	107			241	46
2025-11-01T00:18	15988	106	-64.7			
2025-11-01T00:18	16040	105			236	40
2025-11-01T00:19	16233	102	-63.9			
2025-11-01T00:19	16318	100			231	40
2025-11-01T00:19	16445	98	-64.7			
2025-11-01T00:20	16525	97	-64.5			
2025-11-01T00:20	16562	96			239	42
2025-11-01T00:21	16866	92			244	30
2025-11-01T00:21	16941	91	-61.0			
2025-11-01T00:22	17156	87	-61.3			
2025-11-01T00:22	17169	87			241	32
2025-11-01T00:22	17395	84	-60.9			
2025-11-01T00:23	17485	83			235	27
2025-11-01T00:24	17813	79			234	27
2025-11-01T00:24	18043	76	-63.3			
2025-11-01T00:25	18135	75			253	25
2025-11-01T00:25	18143	75	-61.0			
2025-11-01T00:25	18347	72	-59.2			
2025-11-01T00:26	18426	71			240	20
2025-11-01T00:26	18489	71	-59.3			
2025-11-01T00:27	18779	67			227	14
2025-11-01T00:28	19133	64			211	19
2025-11-01T00:28	19183	63	-58.8			
2025-11-01T00:29	19467	60	-60.2			
2025-11-01T00:29	19488	60			219	23
2025-11-01T00:29	19730	58	-58.5			
2025-11-01T00:30	19838	57			217	20
2025-11-01T00:30	19962	56	-58.8			
2025-11-01T00:30	20091	55	-57.8			
2025-11-01T00:31	20182	54			226	18
2025-11-01T00:32	20533	51			241	17
2025-11-01T00:32	20657	50	-59.0			
2025-11-01T00:33	20861	48			238	17
2025-11-01T00:34	21208	46			240	11
2025-11-01T00:34	21433	44	-58.5			
2025-11-01T00:35	21550	43			249	12
2025-11-01T00:35	21784	42	-57.6			
2025-11-01T00:35	21802	42			224	11
2025-11-01T00:36	22130	40			249	11
2025-11-01T00:37	22369	38	-57.8			
2025-11-01T00:37	22486	37			231	11
2025-11-01T00:38	22590	37	-56.9			
2025-11-01T00:38	22675	36			252	10
2025-11-01T00:38	22732	36	-56.1			
2025-11-01T00:38	22820	35	-54.2			
2025-11-01T00:38	22839	35			216	9
2025-11-01T00:39	23115	34			231	10
2025-11-01T00:40	23423	32			243	8
2025-11-01T00:40	23603	31			242	6
2025-11-01T00:40	23626	31	-55.8			
2025-11-01T00:41	23748	31			228	6
2025-11-01T00:41	23984	30			215	7
2025-11-01T00:42	24205	29			248	7
2025-11-01T00:42	24295	28			260	5
2025-11-01T00:43	24415	28	-52.1			
2025-11-01T00:43	24484	27			217	7
2025-11-01T00:44	24873	26			191	7
2025-11-01T00:45	25256	24			201	10
2025-11-01T00:45	25363	24	-52.9			
2025-11-01T00:46	25587	23			219	9
2025-11-01T00:46	25785	22			219	6
2025-11-01T00:47	26112	21			218	6
2025-11-01T00:48	26302	21	-50.6			
2025-11-01T00:48	26431	20			273	5
2025-11-01T00:49	26626	20			294	3
2025-11-01T00:49	26758	19			324	6
2025-11-01T00:49	26860	19	-51.8		315	5
2025-11-01T11:33	26	1004	13.1	12.9	340	1
2025-11-01T11:33	32	1003	13.6	12.5	0	0
2025-11-01T11:33	68	999	16.6	14.4		
2025-11-01T11:33	105	995	17.5	14.4		
2025-11-01T11:33	126	992	17.1	14.0		
2025-11-01T11:33	136	991			265	5
2025-11-01T11:34	208	983	17.6	13.7		
2025-11-01T11:34	307	971	17.4	12.7		
2025-11-01T11:34	405	960			232	7
2025-11-01T11:34	474	953	17.0	10.4		
2025-11-01T11:35	626	936			256	8
2025-11-01T11:35	754	922	14.7	8.2		
2025-11-01T11:35	888	907	13.9	6.3		
2025-11-01T11:35	919	904			274	6
2025-11-01T11:36	1103	885			277	8
2025-11-01T11:36	1223	872	10.8	4.3		
2025-11-01T11:36	1278	866			287	7
2025-11-01T11:37	1296	864	10.2	3.9		
2025-11-01T11:37	1419	852			284	8
2025-11-01T11:38	1675	825	6.6	2.3		
2025-11-01T11:38	1754	818			283	10
2025-11-01T11:38	1873	806	5.3	0.7		
2025-11-01T11:38	1994	794			272	9
2025-11-01T11:38	2007	793	4.7	0.1		
2025-11-01T11:39	2136	780	4.3	0.3		
2025-11-01T11:39	2329	762			243	9
2025-11-01T11:39	2335	761	2.6	-0.3		
2025-11-01T11:40	2497	746	1.3	-1.6		
2025-11-01T11:40	2547	742	1.2	-3.3		
2025-11-01T11:40	2667	731			254	9
2025-11-01T11:41	2726	725	-0.1	-5.1		
2025-11-01T11:41	2879	712			270	14
2025-11-01T11:41	2955	705	-1.2	-10.3		
2025-11-01T11:42	3147	688	-1.8	-13.0		
2025-11-01T11:42	3216	682			275	15
2025-11-01T11:42	3278	677	-2.3	-15.4		
2025-11-01T11:42	3381	668	-2.7	-19.1		
2025-11-01T11:43	3558	653			271	18
2025-11-01T11:44	3848	630			264	16
2025-11-01T11:44	4088	611	-6.8	-32.4		
2025-11-01T11:45	4223	600			259	18
2025-11-01T11:45	4409	586	-9.6	-33.8		
2025-11-01T11:46	4524	577	-10.2	-34.3		
2025-11-01T11:46	4624	570			273	21
2025-11-01T11:46	4686	565	-10.8	-40.1		
2025-11-01T11:46	4897	550	-11.5	-45.8		
2025-11-01T11:47	4965	545			262	26
2025-11-01T11:47	5104	535	-13.0	-46.9		
2025-11-01T11:48	5350	518			265	24
2025-11-01T11:49	5706	494			264	25
2025-11-01T11:50	6059	471			264	26
2025-11-01T11:50	6100	468	-21.6	-47.2		
2025-11-01T11:50	6304	455			258	26
2025-11-01T11:51	6448	447	-24.0	-50.2		
2025-11-01T11:51	6670	433			257	34
2025-11-01T11:52	6775	427	-25.9	-53.0		
2025-11-01T11:52	6813	425			253	35
2025-11-01T11:52	6968	416			255	35
2025-11-01T11:52	7033	412	-27.9	-54.5		
2025-11-01T11:53	7245	400			256	35
2025-11-01T11:53	7329	395	-29.7	-57.4		
2025-11-01T11:53	7360	393			257	38
2025-11-01T11:54	7516	385			252	38
2025-11-01T11:54	7786	370			249	42
2025-11-01T11:55	8118	353	-33.6	-62.1		
2025-11-01T11:55	8161	351			248	41
2025-11-01T11:56	8266	346	-34.5	-62.8		
2025-11-01T11:56	8427	338	-35.2	-63.3		
2025-11-01T11:56	8543	333			241	46
2025-11-01T11:57	8747	323	-37.8	-67.3		
2025-11-01T11:57	8881	317	-37.9	-67.4		
2025-11-01T11:57	8900	316			239	51
2025-11-01T11:58	8999	311	-38.6	-65.8		
2025-11-01T11:58	9025	310			239	54
2025-11-01T11:58	9175	303			238	57
2025-11-01T11:59	9520	289	-40.0	-65.3		
2025-11-01T11:59	9590	286			235	59
2025-11-01T12:00	9988	269			237	64
2025-11-01T12:00	10115	264	-43.6			
2025-11-01T12:01	10318	256	-44.2			
2025-11-01T12:01	10370	254			236	64
2025-11-01T12:02	10679	243			237	65
2025-11-01T12:02	10872	236			239	68
2025-11-01T12:03	11018	231	-47.0			
2025-11-01T12:03	11038	230			239	64
2025-11-01T12:04	11325	220			239	63
2025-11-01T12:04	11426	217	-48.5			
2025-11-01T12:04	11656	210			238	65
2025-11-01T12:05	11811	205	-51.2			
2025-11-01T12:05	11979	199			239	63
2025-11-01T12:06	12348	188			241	62
2025-11-01T12:07	12575	182			242	62
2025-11-01T12:08	12758	177	-54.4			
2025-11-01T12:08	12876	173			242	62
2025-11-01T12:09	13178	165			239	62
2025-11-01T12:10	13373	160	-57.5			
2025-11-01T12:10	13510	157			240	63
2025-11-01T12:11	13776	150	-59.6			
2025-11-01T12:11	13866	148			244	61
2025-11-01T12:12	14078	143	-59.8			
2025-11-01T12:12	14191	141			247	55
2025-11-01T12:12	14249	139	-59.4			
2025-11-01T12:13	14458	135	-58.9			
2025-11-01T12:13	14498	134			246	47
2025-11-01T12:14	14793	128	-58.6			
2025-11-01T12:14	14836	127			244	41
2025-11-01T12:14	15010	123			234	41
2025-11-01T12:15	15403	116			230	46
2025-11-01T12:15	15465	115	-63.8			
2025-11-01T12:16	15573	113	-63.3			
2025-11-01T12:16	15730	110			237	49
2025-11-01T12:17	15890	107	-63.2			
2025-11-01T12:17	15935	106			241	44
2025-11-01T12:18	16236	101			244	40
2025-11-01T12:18	16416	98			237	37
2025-11-01T12:18	16436	98	-62.9			
2025-11-01T12:19	16693	94			240	39
2025-11-01T12:20	16890	91	-63.1			
2025-11-01T12:20	17001	89			253	35
2025-11-01T12:21	17099	88	-60.8			
2025-11-01T12:21	17301	85			238	25
2025-11-01T12:21	17370	84	-59.7			
2025-11-01T12:22	17532	82			236	29
2025-11-01T12:22	17572	82	-59.4			
2025-11-01T12:23	17847	78			227	28
2025-11-01T12:23	17902	77	-61.1			
2025-11-01T12:24	18198	74	-60.3		233	24
2025-11-01T12:24	18292	73	-58.8			
2025-11-01T12:25	18492	70			208	19
2025-11-01T12:26	18814	67			208	21
2025-11-01T12:26	18877	66	-60.8			
2025-11-01T12:27	19156	63			225	24
2025-11-01T12:27	19223	63	-61.8			
2025-11-01T12:28	19423	61	-60.7			
2025-11-01T12:28	19498	60			231	24
2025-11-01T12:28	19686	58	-61.6			
2025-11-01T12:29	19809	57			240	26
2025-11-01T12:29	19908	56	-60.3			
2025-11-01T12:30	20157	54			233	28
2025-11-01T12:30	20311	53	-57.7			
2025-11-01T12:30	20383	52			249	25
2025-11-01T12:31	20554	51	-55.1			
2025-11-01T12:31	20566	50			252	14
2025-11-01T12:31	20787	49			213	11
2025-11-01T12:32	21066	47			200	16
2025-11-01T12:32	21093	46	-56.8			
2025-11-01T12:33	21414	44			202	19
2025-11-01T12:34	21586	43	-59.2			
2025-11-01T12:34	21615	43			211	19
2025-11-01T12:34	21734	42	-57.6			
2025-11-01T12:34	21810	41			208	14
2025-11-01T12:35	22092	40			194	13
2025-11-01T12:36	22255	39			189	10
2025-11-01T12:36	22337	38	-55.2			
2025-11-01T12:37	22628	36			225	9
2025-11-01T12:37	22741	36			224	7
2025-11-01T12:37	22758	36	-51.7			
2025-11-01T12:38	22978	35			185	8
2025-11-01T12:39	23303	33			209	11
2025-11-01T12:39	23363	33	-53.3			
2025-11-01T12:39	23584	31			262	11
2025-11-01T12:40	23836	30	-53.3			
2025-11-01T12:40	23965	30			238	12
2025-11-01T12:41	24142	29	-52.6			
2025-11-01T12:41	24188	29			249	6
2025-11-01T12:41	24279	28			217	4
2025-11-01T12:41	24395	28	-51.6		155	5
2025-11-01T12:42	24587	27			161	9
2025-11-01T12:43	24929	26			238	4
2025-11-01T12:43	25057	25			271	1
2025-11-01T12:43	25191	25			325	3
2025-11-01T12:44	25292	24			358	1
2025-11-01T12:44	25403	24			145	3
2025-11-01T12:44	25511	23			164	2
2025-11-01T12:45	25682	23			195	4
2025-11-01T12:45	25911	22			192	9
2025-11-01T12:46	26124	21			216	4
2025-11-01T12:46	26277	21			277	2
2025-11-01T12:46	26305	21	-52.4			
2025-11-01T12:47	26467	20			215	3
2025-11-01T12:47	26648	20	-52.8		216	8
2025-11-01T23:33	26	1010	12.1	10.7	260	2
2025-11-01T23:33	32	1009	12.0	10.9	0	0
2025-11-01T23:33	94	1002	10.7	10.1		
2025-11-01T23:33	132	997	10.7	9.3		
2025-11-01T23:33	177	992	14.6	7.6		
2025-11-01T23:34	206	988	15.2	7.2		
2025-11-01T23:34	235	985			65	2
2025-11-01T23:34	269	981	15.7	6.2		
2025-11-01T23:34	388	968			61	5
2025-11-01T23:34	427	963	15.4	5.3		
2025-11-01T23:35	593	944			71	4
2025-11-01T23:35	663	936	13.8	5.2		
2025-11-01T23:35	771	925			55	2
2025-11-01T23:35	820	919	12.8	3.2		
2025-11-01T23:36	892	911			325	3
2025-11-01T23:36	1024	897			316	3
2025-11-01T23:36	1138	885			316	3
2025-11-01T23:37	1214	877	10.0	2.6		
2025-11-01T23:37	1290	869			227	3
2025-11-01T23:38	1565	840			217	2
2025-11-01T23:38	1872	810	3.9	3.3		
2025-11-01T23:39	1905	806			170	2
2025-11-01T23:39	1960	801	3.7	3.1		
2025-11-01T23:39	2088	789	3.1	0.7		
2025-11-01T23:39	2150	782	2.8	-1.7		
2025-11-01T23:39	2156	782			182	4
2025-11-01T23:40	2248	773			188	5
2025-11-01T23:40	2331	765	2.5	-5.4		
2025-11-01T23:40	2343	764			211	6
2025-11-01T23:40	2479	751			202	8
2025-11-01T23:41	2680	733	-0.2	-8.2		
2025-11-01T23:41	2703	731			214	10
2025-11-01T23:41	2883	714	-1.0	-12.0		
2025-11-01T23:42	2992	705	-1.0	-16.8		
2025-11-01T23:42	3049	700			242	14
2025-11-01T23:42	3121	693	-1.9	-18.0		
2025-11-01T23:43	3258	681	-2.1	-17.4	254	18
2025-11-01T23:43	3601	653			254	25
2025-11-01T23:44	3665	647	-3.6	-21.8		
2025-11-01T23:44	3949	624	-5.4	-24.3		
2025-11-01T23:45	3955	624			254	26
2025-11-01T23:46	4317	596			246	27
2025-11-01T23:46	4457	585	-8.8	-33.1		
2025-11-01T23:46	4510	581	-8.7	-36.0		
2025-11-01T23:46	4671	569			250	31
2025-11-01T23:47	4862	555	-10.8	-41.5		
2025-11-01T23:47	5021	544			250	32
2025-11-01T23:48	5363	520			249	32
2025-11-01T23:49	5576	505	-15.9	-49.0		
2025-11-01T23:50	5717	496			245	33
2025-11-01T23:50	5856	487			242	35
2025-11-01T23:50	5974	479	-19.0	-46.4		
2025-11-01T23:51	6196	465			239	35
2025-11-01T23:52	6518	445			239	38
2025-11-01T23:53	6778	429	-26.5	-45.4		
2025-11-01T23:53	6883	423	-27.4	-35.1		
2025-11-01T23:53	6902	422			239	37
2025-11-01T23:53	6960	419	-27.8	-31.4		
2025-11-01T23:53	7060	413	-26.2	-28.0		
2025-11-01T23:54	7215	404	-25.4	-27.1		
2025-11-01T23:54	7276	401			244	47
2025-11-01T23:54	7463	390	-26.2	-27.6		
2025-11-01T23:55	7648	381			240	50
2025-11-01T23:55	7759	375	-26.6	-28.0		
2025-11-01T23:56	7926	366			240	53
2025-11-01T23:57	8306	347			238	57
2025-11-01T23:57	8313	347	-30.0	-30.7		
2025-11-01T23:57	8441	341	-30.6	-31.5		
2025-11-01T23:57	8508	338	-30.4	-32.6		
2025-11-01T23:57	8539	336			240	63
2025-11-01T23:58	8735	327	-32.3	-35.4		
2025-11-01T23:58	8896	319			238	63
2025-11-01T23:58	8918	318	-33.6	-36.5		
2025-11-01T23:59	9037	313	-34.7	-38.7		
2025-11-01T23:59	9268	303			239	63
2025-11-02T00:00	9523	292	-38.5	-41.3		
2025-11-02T00:00	9656	286			237	64
2025-11-02T00:00	9723	283	-40.0	-42.1		
2025-11-02T00:01	9960	274			240	64
2025-11-02T00:01	10131	267			239	65
2025-11-02T00:02	10334	259	-45.4			
2025-11-02T00:02	10500	252			241	68
2025-11-02T00:03	10891	238			238	70
2025-11-02T00:04	11251	225			239	71
2025-11-02T00:05	11363	221			240	70
2025-11-02T00:06	11690	210			237	71
2025-11-02T00:06	11966	201			239	71
2025-11-02T00:06	11978	201	-57.7			
2025-11-02T00:07	12317	190			238	65
2025-11-02T00:07	12334	190	-58.2			
2025-11-02T00:08	12570	183	-58.6			
2025-11-02T00:08	12655	180			241	62
2025-11-02T00:09	12999	171			246	61
2025-11-02T00:10	13254	164	-60.0			
2025-11-02T00:10	13324	162			245	59
2025-11-02T00:11	13512	157	-60.1			
2025-11-02T00:11	13616	154			249	56
2025-11-02T00:11	13667	153	-61.0			
2025-11-02T00:12	13915	147			241	56
2025-11-02T00:13	14131	142	-62.6			
2025-11-02T00:13	14211	140			242	60
2025-11-02T00:14	14522	133			247	57
2025-11-02T00:15	14669	130	-63.4			
2025-11-02T00:15	14831	127			239	52
2025-11-02T00:15	14881	126	-62.4			
2025-11-02T00:16	15124	121	-63.3			
2025-11-02T00:16	15129	121			241	51
2025-11-02T00:17	15434	115			246	52
2025-11-02T00:18	15611	112	-63.5			
2025-11-02T00:18	15747	109			247	47
2025-11-02T00:19	16000	105	-61.8			
2025-11-02T00:19	16057	104			239	41
2025-11-02T00:20	16241	101	-62.3			
2025-11-02T00:20	16374	99			235	43
2025-11-02T00:21	16488	97	-63.0			
2025-11-02T00:21	16493	97			239	42
2025-11-02T00:21	16661	94			247	37
2025-11-02T00:22	16801	92			250	35
2025-11-02T00:22	16958	90	-61.8			
2025-11-02T00:22	17018	89			245	29
2025-11-02T00:23	17326	85			247	29
2025-11-02T00:24	17632	81			244	22
2025-11-02T00:25	17817	78			233	23
2025-11-02T00:25	17848	78	-63.7			
2025-11-02T00:26	18018	76			228	23
2025-11-02T00:26	18222	73			216	23
2025-11-02T00:27	18342	72	-64.6			
2025-11-02T00:27	18549	69	-63.6			
2025-11-02T00:27	18558	69			234	25
2025-11-02T00:28	18798	67			244	24
2025-11-02T00:28	18966	65			225	21
2025-11-02T00:29	19064	64	-59.8			
2025-11-02T00:29	19187	63			239	27
2025-11-02T00:30	19443	60			230	25
2025-11-02T00:31	19603	59	-55.9			
2025-11-02T00:31	19769	57			241	21
2025-11-02T00:32	19993	55			234	21
2025-11-02T00:32	20157	54			233	17
2025-11-02T00:32	20197	53	-55.3			
2025-11-02T00:33	20503	51			225	11
2025-11-02T00:33	20554	51	-54.1			
2025-11-02T00:34	20850	48			222	14
2025-11-02T00:35	21187	46			229	15
2025-11-02T00:36	21395	44	-57.7			
2025-11-02T00:36	21481	44			241	14
2025-11-02T00:37	21839	41			221	11
2025-11-02T00:37	21947	41	-60.2			
2025-11-02T00:38	22025	40			217	12
2025-11-02T00:38	22118	39	-56.0			
2025-11-02T00:38	22282	38			227	16
2025-11-02T00:39	22536	37			251	15
2025-11-02T00:40	22857	35			226	9
2025-11-02T00:41	23116	34			242	8
2025-11-02T00:41	23269	33			247	6
2025-11-02T00:42	23425	32			200	9
2025-11-02T00:42	23627	31			185	14
2025-11-02T00:43	23861	30			167	7
2025-11-02T00:43	23900	30	-54.5			
2025-11-02T00:43	24076	29			176	8
2025-11-02T00:44	24253	28	-54.4			
2025-11-02T00:44	24370	28			212	10
2025-11-02T00:45	24535	27			199	4
2025-11-02T00:45	24657	27			144	5
2025-11-02T00:45	24733	26	-52.1			
2025-11-02T00:45	24828	26			170	8
2025-11-02T00:46	25007	25			210	10
2025-11-02T00:46	25137	25	-51.3			
2025-11-02T00:46	25166	25			208	7
2025-11-02T00:47	25298	24			241	8
2025-11-02T00:47	25492	23			230	5
2025-11-02T00:47	25603	23			247	4
2025-11-02T00:48	25689	23	-52.1			
2025-11-02T00:48	25715	23			246	3
2025-11-02T00:48	25801	22			285	4
2025-11-02T00:48	25951	22			273	4
2025-11-02T00:49	26100	21			191	4
2025-11-02T00:49	26222	21			199	5
2025-11-02T00:49	26316	21	-52.3			
2025-11-02T00:50	26541	20			298	5
2025-11-02T00:50	26740	19			321	5
2025-11-02T00:51	26806	19	-51.6			
2025-11-02T00:51	26841	19			315	2
2025-11-02T00:51	26980	19			87	3
2025-11-02T00:52	27303	18			116	5
2025-11-02T00:53	27600	17			94	5
2025-11-02T00:53	27830	16			96	1
2025-11-02T00:54	28110	16			131	2
2025-11-02T00:54	28275	15	-57.4			
2025-11-02T00:55	28401	15			158	6
2025-11-02T00:55	28486	15	-57.0			
2025-11-02T00:56	28799	14			279	8
2025-11-02T00:56	29033	13			293	8
2025-11-02T00:57	29227	13			286	2
2025-11-02T00:57	29327	13			271	4
2025-11-02T00:57	29428	13	-52.2			
2025-11-02T00:58	29535	12			328	8
2025-11-02T00:58	29637	12	-50.2			
2025-11-02T00:58	29748	12			36	7
2025-11-02T00:59	30078	11			135	3
2025-11-02T01:00	30370	11			189	5
2025-11-02T01:00	30551	11			203	2
2025-11-02T01:00	30739	10	-53.3			
2025-11-02T01:01	30802	10			257	3
2025-11-02T01:01	30931	10			0	0
2025-11-02T01:01	31058	10	-51.0			
2025-11-02T01:02	31205	10	-51.6		36	8
2025-11-02T11:33	26	1008	11.5	11.5	90	0
2025-11-02T11:33	32	1007	12.0	12.0	0	0
2025-11-02T11:33	77	1002	16.0	11.4		
2025-11-02T11:33	163	992	16.9	10.5		
2025-11-02T11:34	379	967			216	1
2025-11-02T11:35	554	947			251	3
2025-11-02T11:35	770	923	12.3	7.8		
2025-11-02T11:35	793	920			258	3
2025-11-02T11:35	868	912	12.4	5.6		
2025-11-02T11:36	942	904			298	3
2025-11-02T11:36	1055	892			320	5
2025-11-02T11:36	1156	881	10.5	2.3		
2025-11-02T11:36	1207	876			302	6
2025-11-02T11:37	1409	855	8.5	0.5		
2025-11-02T11:37	1490	847			283	9
2025-11-02T11:38	1605	835	7.5	-0.2		
2025-11-02T11:38	1828	812			249	5
2025-11-02T11:39	1941	801			235	6
2025-11-02T11:39	1947	801	4.8	-0.4		
2025-11-02T11:39	2059	790	4.4	-2.9		
2025-11-02T11:40	2297	767			241	5
2025-11-02T11:40	2468	751	1.2	-6.2		
2025-11-02T11:41	2672	732			270	11
2025-11-02T11:41	2678	731	0.2	-10.1		
2025-11-02T11:41	2833	717			235	10
2025-11-02T11:41	2993	703	-0.6	-13.2		
2025-11-02T11:42	3084	695			249	16
2025-11-02T11:42	3404	668	-2.5	-23.0		
2025-11-02T11:42	3430	666			254	22
2025-11-02T11:43	3635	649	-4.0	-25.5		
2025-11-02T11:43	3704	643			246	24
2025-11-02T11:43	3761	638	-4.5	-28.8		
2025-11-02T11:44	4052	615			243	28
2025-11-02T11:44	4172	606	-7.9	-31.6		
2025-11-02T11:45	4401	588	-9.6	-33.8		
2025-11-02T11:45	4419	587			246	29
2025-11-02T11:45	4489	581	-9.8	-35.8		
2025-11-02T11:46	4786	559			241	30
2025-11-02T11:47	4971	546	-13.4	-40.8		
2025-11-02T11:47	5170	532			236	31
2025-11-02T11:47	5196	530	-15.1	-46.4		
2025-11-02T11:48	5436	513			236	30
2025-11-02T11:49	5826	487			233	33
2025-11-02T11:49	6093	470	-22.6	-44.3		
2025-11-02T11:50	6241	460			232	36
2025-11-02T11:51	6666	434			233	37
2025-11-02T11:51	6912	420	-28.0	-54.6		
2025-11-02T11:52	7023	413	-28.6	-55.1		
2025-11-02T11:52	7068	411			234	40
2025-11-02T11:52	7154	406	-29.4	-55.7		
2025-11-02T11:52	7254	400	-27.9	-57.8		
2025-11-02T11:53	7426	391			245	49
2025-11-02T11:54	7690	376	-29.1	-51.2		
2025-11-02T11:54	7737	374			239	54
2025-11-02T11:54	7887	366	-29.3	-46.1		
2025-11-02T11:55	8006	360	-29.6	-43.0		
2025-11-02T11:55	8048	358			237	66
2025-11-02T11:55	8111	355	-29.0	-47.5		
2025-11-02T11:55	8220	350	-29.4	-54.4		
2025-11-02T11:56	8312	345	-29.9	-54.8		
2025-11-02T11:56	8369	342	-29.7	-55.9		
2025-11-02T11:56	8402	341			233	67
2025-11-02T11:56	8487	337	-29.5	-57.2		
2025-11-02T11:56	8595	332	-29.5	-49.2	230	75
2025-11-02T11:57	8784	323			228	72
2025-11-02T11:57	8919	317	-32.3	-39.6		
2025-11-02T11:57	8980	314			227	74
2025-11-02T11:58	9104	309	-33.8	-41.2		
2025-11-02T11:58	9397	296	-36.6	-43.3		
2025-11-02T11:58	9404	296			226	73
2025-11-02T11:59	9745	281	-39.8	-46.1		
2025-11-02T11:59	9781	280	-40.0	-46.6		
2025-11-02T11:59	9794	279			229	74
2025-11-02T12:00	10127	266			226	71
2025-11-02T12:01	10467	253			228	71
2025-11-02T12:01	10512	251	-45.5			
2025-11-02T12:02	10717	243			225	70
2025-11-02T12:02	10840	239			227	71
2025-11-02T12:03	11152	228			229	73
2025-11-02T12:04	11499	216			232	74
2025-11-02T12:04	11525	215	-52.1			
2025-11-02T12:04	11646	211			234	79
2025-11-02T12:05	11864	204			238	73
2025-11-02T12:05	11978	201	-53.0			
2025-11-02T12:05	12105	197			240	72
2025-11-02T12:06	12353	189	-53.5			
2025-11-02T12:06	12429	187			244	67
2025-11-02T12:07	12602	182			243	64
2025-11-02T12:08	12952	172			242	64
2025-11-02T12:08	12980	172	-55.6			
2025-11-02T12:09	13174	167			246	63
2025-11-02T12:09	13184	166	-55.7			
2025-11-02T12:10	13471	159			243	57
2025-11-02T12:10	13619	155	-56.3			
2025-11-02T12:10	13765	152			239	57
2025-11-02T12:11	14074	145			236	57
2025-11-02T12:12	14419	137			240	58
2025-11-02T12:13	14794	129			248	54
2025-11-02T12:14	14969	125	-62.0			
2025-11-02T12:14	15089	123			245	52
2025-11-02T12:15	15366	117	-63.3			
2025-11-02T12:15	15394	117			247	51
2025-11-02T12:16	15594	113	-63.9			
2025-11-02T12:16	15672	112			248	47
2025-11-02T12:17	15950	107			248	45
2025-11-02T12:17	15993	106	-63.8			
2025-11-02T12:18	16260	101			246	40
2025-11-02T12:18	16315	101	-62.7			
2025-11-02T12:19	16518	97			239	38
2025-11-02T12:20	16828	92			238	35
2025-11-02T12:20	16840	92	-64.2			
2025-11-02T12:21	17160	88			232	30
2025-11-02T12:21	17196	87	-64.9			
2025-11-02T12:21	17333	85			232	31
2025-11-02T12:21	17338	85	-63.9			
2025-11-02T12:22	17589	82	-64.9			
2025-11-02T12:22	17647	81			241	35
2025-11-02T12:23	17708	80	-61.2			
2025-11-02T12:24	17968	77	-61.5		250	31
2025-11-02T12:24	18100	75	-60.1			
2025-11-02T12:24	18175	74			235	25
2025-11-02T12:25	18520	70			228	26
2025-11-02T12:26	18827	67			233	26
2025-11-02T12:26	18979	65	-60.5			
2025-11-02T12:27	19184	63			234	26
2025-11-02T12:28	19403	61	-61.8			
2025-11-02T12:28	19495	60			246	26
2025-11-02T12:28	19556	59	-59.7			
2025-11-02T12:28	19634	59			244	22
2025-11-02T12:28	19656	59	-58.9			
2025-11-02T12:29	19893	56	-60.1			
2025-11-02T12:29	19948	56			247	26
2025-11-02T12:30	20027	55	-58.5			
2025-11-02T12:30	20211	54	-57.4			
2025-11-02T12:30	20260	53			265	23
2025-11-02T12:31	20418	52			262	20
2025-11-02T12:31	20527	51	-57.6			
2025-11-02T12:31	20650	50	-56.7			
2025-11-02T12:32	20665	50			249	17
2025-11-02T12:32	20900	48			245	11
2025-11-02T12:33	21194	46			182	11
2025-11-02T12:33	21222	46	-58.3			
2025-11-02T12:34	21517	44			200	18
2025-11-02T12:35	21784	42	-56.3			
2025-11-02T12:35	21861	41			219	21
2025-11-02T12:36	22066	40			235	17
2025-11-02T12:36	22209	39	-55.9			
2025-11-02T12:36	22323	38			207	14
2025-11-02T12:37	22426	38	-53.6			
2025-11-02T12:37	22636	37			216	17
2025-11-02T12:37	22686	36	-53.5			
2025-11-02T12:38	22995	35			241	12
2025-11-02T12:38	23151	34			256	11
2025-11-02T12:39	23325	33	-52.8			
2025-11-02T12:39	23443	32			277	5
2025-11-02T12:40	23814	30			255	9
2025-11-02T12:41	24030	29	-53.9			
2025-11-02T12:41	24139	29			189	6
2025-11-02T12:42	24318	28			146	6
2025-11-02T12:42	24485	27	-53.7			
2025-11-02T12:43	24699	27			210	8
2025-11-02T12:43	24772	26	-53.5			
2025-11-02T12:43	24821	26			204	8
2025-11-02T12:44	25073	25			180	3
2025-11-02T12:44	25175	25			137	6
2025-11-02T12:44	25306	24			149	7
2025-11-02T12:45	25414	24			170	7
2025-11-02T12:45	25606	23	-52.9			
2025-11-02T12:46	25722	23			159	10
2025-11-02T12:47	26075	21	-53.2			
2025-11-02T12:47	26104	21			174	1
2025-11-02T12:47	26226	21			332	3
2025-11-02T12:47	26381	20			328	6
2025-11-02T12:48	26510	20			344	2
2025-11-02T12:48	26732	19			264	2
2025-11-02T12:49	26866	19			232	5
2025-11-02T12:49	26969	19	-55.5			
2025-11-02T12:49	27037	18			254	7
2025-11-02T12:49	27215	18			287	5
2025-11-02T12:50	27508	17			318	9
2025-11-02T12:51	27696	17			283	7
2025-11-02T12:51	27929	16			319	7
2025-11-02T12:52	28009	16	-55.7			
2025-11-02T12:52	28091	16			297	5
2025-11-02T12:52	28172	15	-55.5			
2025-11-02T12:52	28345	15	-53.9			
2025-11-02T12:53	28514	15			51	10
2025-11-02T12:53	28783	14			82	15
2025-11-02T12:54	28923	14	-54.4			
2025-11-02T12:54	29113	13			82	8
2025-11-02T12:55	29259	13			91	5
2025-11-02T12:55	29355	13	-55.9		109	5
2025-11-02T12:55	29507	13			88	8
2025-11-02T12:56	29716	12			102	4
2025-11-02T12:56	29768	12			78	1
2025-11-02T12:56	29879	12			328	5
2025-11-02T12:57	30102	11			351	13
2025-11-02T12:57	30332	11			46	11
2025-11-02T12:57	30392	11	-50.6			
2025-11-02T12:58	30577	11			47	11
2025-11-02T12:58	30698	10	-50.6		60	9
2025-11-03T00:37	26	1012	15.7	12.1	280	2
2025-11-03T00:37	32	1011	15.6	12.2	356	1
2025-11-03T00:37	91	1004	14.0	11.3		
2025-11-03T00:37	130	999			309	5
2025-11-03T00:38	224	988	13.0	9.6		
2025-11-03T00:38	268	983	13.7	6.6		
2025-11-03T00:38	434	964			337	7
2025-11-03T00:38	476	959	12.4	4.9		
2025-11-03T00:39	747	929			328	9
2025-11-03T00:40	1009	900	7.8	1.6		
2025-11-03T00:40	1077	892			307	11
2025-11-03T00:40	1152	884	7.3	0.9		
2025-11-03T00:41	1314	867			300	8
2025-11-03T00:42	1561	841			298	6
2025-11-03T00:42	1780	819			299	5
2025-11-03T00:43	1916	805	0.1	0.1		
2025-11-03T00:43	1947	802			274	3
2025-11-03T00:43	2002	796	-0.3	-0.6		
2025-11-03T00:43	2045	792			261	6
2025-11-03T00:43	2069	790	-0.5	-2.6		
2025-11-03T00:44	2338	763			270	7
2025-11-03T00:44	2344	763	-2.5	-5.5		
2025-11-03T00:45	2619	737	-4.2	-7.1		
2025-11-03T00:45	2691	730			274	9
2025-11-03T00:46	3058	696			276	10
2025-11-03T00:46	3196	684	-9.6	-9.6		
2025-11-03T00:47	3332	672	-9.9	-11.0		
2025-11-03T00:47	3419	665			258	9
2025-11-03T00:47	3482	659	-10.6	-12.3		
2025-11-03T00:47	3656	645			238	13
2025-11-03T00:48	3673	643	-11.0	-17.0		
2025-11-03T00:48	3783	634	-11.9	-18.7		
2025-11-03T00:48	3845	629	-12.0	-22.1		
2025-11-03T00:48	3994	617			246	24
2025-11-03T00:49	4087	609	-13.0	-29.8		
2025-11-03T00:49	4326	590			241	27
2025-11-03T00:50	4394	585	-15.2	-34.8		
2025-11-03T00:50	4598	570			232	34
2025-11-03T00:50	4609	569	-16.1	-45.5		
2025-11-03T00:50	4665	565	-16.4	-45.8		
2025-11-03T00:51	4737	559			232	35
2025-11-03T00:51	4866	550			231	41
2025-11-03T00:52	5050	536	-17.3	-46.4		
2025-11-03T00:52	5079	534			230	43
2025-11-03T00:52	5179	527	-18.1	-47.0		
2025-11-03T00:53	5379	513			231	46
2025-11-03T00:53	5390	512	-18.9	-49.3		
2025-11-03T00:53	5575	500			236	47
2025-11-03T00:53	5689	492	-20.7	-49.0		
2025-11-03T00:54	5848	482			236	52
2025-11-03T00:54	5985	473	-23.2	-49.6		
2025-11-03T00:55	6184	460			233	52
2025-11-03T00:56	6412	446	-26.3	-50.9		
2025-11-03T00:56	6509	440			234	51
2025-11-03T00:56	6548	438	-26.8	-52.4		
2025-11-03T00:56	6632	433	-26.8	-55.2		
2025-11-03T00:56	6685	429			236	53
2025-11-03T00:57	7008	410			235	53
2025-11-03T00:58	7036	409	-29.5	-57.2		
2025-11-03T00:58	7137	403	-29.7	-57.4		
2025-11-03T00:58	7248	397	-30.6	-58.1		
2025-11-03T00:58	7341	392			232	53
2025-11-03T00:59	7527	382	-30.7	-62.1		
2025-11-03T00:59	7675	374			229	53
2025-11-03T00:59	7686	373	-31.3	-62.6		
2025-11-03T01:00	7786	368			231	54
2025-11-03T01:00	7868	364	-32.7	-63.6		
2025-11-03T01:00	7961	359			232	56
2025-11-03T01:01	8130	350	-33.8	-64.4		
2025-11-03T01:01	8311	341			230	61
2025-11-03T01:02	8613	327	-35.5	-65.6		
2025-11-03T01:02	8632	326			231	60
2025-11-03T01:03	9035	308			231	58
2025-11-03T01:03	9084	305	-38.3	-67.7		
2025-11-03T01:03	9162	302	-38.4	-67.8		
2025-11-03T01:04	9384	292	-40.0	-66.9		
2025-11-03T01:04	9453	289			233	59
2025-11-03T01:05	9673	280	-40.3			
2025-11-03T01:05	9865	272			236	57
2025-11-03T01:06	10277	256			233	56
2025-11-03T01:07	10448	250	-43.9			
2025-11-03T01:07	10705	240			232	56
2025-11-03T01:08	10916	233	-46.7			
2025-11-03T01:08	11136	225			234	59
2025-11-03T01:08	11247	221	-48.0			
2025-11-03T01:09	11392	217			235	58
2025-11-03T01:09	11525	212	-46.3			
2025-11-03T01:09	11649	208			232	58
2025-11-03T01:10	11930	200	-49.0			
2025-11-03T01:10	12027	197			240	59
2025-11-03T01:11	12210	191	-48.8			
2025-11-03T01:11	12397	186			245	55
2025-11-03T01:12	12761	176			246	56
2025-11-03T01:12	12837	174	-50.8			
2025-11-03T01:13	13112	167	-51.9			
2025-11-03T01:13	13172	165			245	55
2025-11-03T01:14	13391	160	-53.2			
2025-11-03T01:14	13552	156			243	49
2025-11-03T01:15	13772	150			246	50
2025-11-03T01:15	13827	149	-54.8			
2025-11-03T01:15	14050	144			250	50
2025-11-03T01:16	14365	137	-56.3			
2025-11-03T01:16	14413	136			251	49
2025-11-03T01:17	14717	130			252	47
2025-11-03T01:18	14762	129	-57.5			
2025-11-03T01:18	14995	124	-58.4			
2025-11-03T01:18	15021	124			252	47
2025-11-03T01:19	15337	117			253	42
2025-11-03T01:20	15542	114	-61.0			
2025-11-03T01:20	15670	111			246	38
2025-11-03T01:21	15987	106	-62.9			
2025-11-03T01:21	16004	105			236	40
2025-11-03T01:22	16282	101			249	37
2025-11-03T01:22	16289	101	-62.9			
2025-11-03T01:23	16635	95			256	29
2025-11-03T01:24	16817	92	-64.7			
2025-11-03T01:24	16857	92			249	27
2025-11-03T01:25	17205	87			238	37
2025-11-03T01:25	17282	86	-65.9			
2025-11-03T01:25	17360	84			244	36
2025-11-03T01:26	17512	82	-63.1			
2025-11-03T01:26	17522	82			248	29
2025-11-03T01:26	17573	82	-61.5			
2025-11-03T01:26	17620	81	-59.7			
2025-11-03T01:27	17691	80	-56.4			
2025-11-03T01:27	17697	80			254	23
2025-11-03T01:27	17809	79	-56.1			
2025-11-03T01:27	17933	77			237	14
2025-11-03T01:28	18347	72			222	20
2025-11-03T01:29	18654	69	-61.5			
2025-11-03T01:29	18747	68			237	18
2025-11-03T01:30	19034	65	-64.0			
2025-11-03T01:30	19072	64			232	21
2025-11-03T01:31	19228	63	-63.7			
2025-11-03T01:31	19337	61			229	23
2025-11-03T01:31	19439	60			209	19
2025-11-03T01:32	19554	59			216	19
2025-11-03T01:32	19639	59	-57.5			
2025-11-03T01:32	19771	57			228	15
2025-11-03T01:33	20008	55	-57.4			
2025-11-03T01:33	20089	55			236	10
2025-11-03T01:34	20333	52	-59.1			
2025-11-03T01:34	20357	52			232	12
2025-11-03T01:35	20690	50	-59.6			
2025-11-03T01:35	20716	49			232	17
2025-11-03T01:36	21110	46			252	16
2025-11-03T01:37	21414	44	-57.8			
2025-11-03T01:37	21442	44			264	16
2025-11-03T01:38	21663	42			260	9
2025-11-03T01:38	21874	41	-59.5			
2025-11-03T01:39	22013	40			233	12
2025-11-03T01:39	22105	40	-58.9			
2025-11-03T01:39	22235	39			230	10
2025-11-03T01:39	22252	39	-56.9			
2025-11-03T01:40	22587	37			231	9
2025-11-03T01:41	22795	35	-59.6			
2025-11-03T01:41	22867	35			211	12
2025-11-03T01:41	22954	35	-56.7			
2025-11-03T01:42	23066	34			191	9
2025-11-03T01:42	23332	33			202	16
2025-11-03T01:43	23391	32	-56.5			
2025-11-03T01:43	23513	32	-54.1			
2025-11-03T01:43	23675	31			215	13
2025-11-03T01:44	23932	30	-53.5			
2025-11-03T01:44	23997	29			222	7
2025-11-03T01:45	24403	28			226	10
2025-11-03T01:46	24543	27	-54.4			
2025-11-03T01:46	24663	26			198	8
2025-11-03T01:46	24836	26			174	6
2025-11-03T01:47	25014	25			232	4
2025-11-03T01:47	25119	25			240	4
2025-11-03T01:47	25146	25	-53.8			
2025-11-03T01:48	25277	24			160	6
2025-11-03T01:48	25416	24			167	4
2025-11-03T01:48	25638	23			229	1
2025-11-03T01:49	25753	22			128	3
2025-11-03T01:49	25837	22			139	3
2025-11-03T01:49	25866	22	-54.7			
2025-11-03T01:49	25897	22			104	5
2025-11-03T01:49	26015	21			124	10
2025-11-03T01:50	26381	20	-55.4		169	8
2025-11-03T01:51	26512	20			181	5
2025-11-03T01:51	26610	20			148	6
2025-11-03T01:51	26642	19	-53.3			
2025-11-03T01:52	26911	19			149	9
2025-11-03T01:52	27120	18			169	8
2025-11-03T01:53	27486	17			165	6
2025-11-03T01:54	27639	17			134	4
2025-11-03T01:54	27834	16			149	4
2025-11-03T01:54	27915	16			136	3
2025-11-03T01:55	27997	16			271	2
2025-11-03T01:55	28118	15			301	4
2025-11-03T01:55	28203	15	-56.4			
2025-11-03T01:55	28242	15			201	2
2025-11-03T01:56	28412	15			196	3
2025-11-03T01:56	28502	15			252	2
2025-11-03T01:56	28586	14			304	3
2025-11-03T01:56	28678	14	-56.6			
2025-11-03T01:56	28722	14			300	9
2025-11-03T01:57	28907	14	-54.3		353	12
2025-11-03T01:57	29145	13			23	11
2025-11-03T01:58	29294	13			58	13
2025-11-03T01:59	29655	12	-54.9			
2025-11-03T01:59	29708	12			47	13
2025-11-03T02:00	29978	12			69	12
2025-11-03T02:00	30034	11	-56.7			
2025-11-03T02:00	30147	11			104	4
2025-11-03T02:00	30205	11			73	4
2025-11-03T02:01	30379	11			68	9
2025-11-03T02:01	30500	11	-49.7			
2025-11-03T02:01	30627	10			88	5
2025-11-03T02:02	30821	10	-48.8			
2025-11-03T02:02	30890	10			102	10
2025-11-03T02:02	31021	10			109	10
2025-11-03T02:02	31090	10	-48.5			
2025-11-03T02:02	31155	10			108	7
2025-11-03T02:03	31340	9	-46.8		85	7
2025-11-03T11:33	26	1021	9.0	3.8	260	0
2025-11-03T11:33	35	1020	9.5	3.9	0	0
2025-11-03T11:33	70	1016			290	3
2025-11-03T11:33	79	1015	11.8	3.3		
2025-11-03T11:33	108	1011			314	8
2025-11-03T11:33	119	1010	12.0	2.5		
2025-11-03T11:34	224	997			357	4
2025-11-03T11:34	328	985			32	3
2025-11-03T11:34	402	976			40	2
2025-11-03T11:35	584	955			6	6
2025-11-03T11:35	596	953	8.3	0.5		
2025-11-03T11:35	711	940	7.5	-0.2		
2025-11-03T11:35	802	930			6	7
2025-11-03T11:36	957	912	6.1	-2.5		
2025-11-03T11:36	979	910	6.6	-2.8		
2025-11-03T11:36	1010	906	6.2	-2.9		
2025-11-03T11:36	1074	899			346	13
2025-11-03T11:37	1189	887	6.5	-8.6		
2025-11-03T11:37	1383	866			355	12
2025-11-03T11:38	1575	846	3.2	-10.8		
2025-11-03T11:38	1748	828			4	12
2025-11-03T11:39	1957	807	0.4	-12.3		
2025-11-03T11:39	2090	793			15	12
2025-11-03T11:39	2134	789	-1.1	-10.0		
2025-11-03T11:40	2217	781			26	8
2025-11-03T11:40	2344	768			14	11
2025-11-03T11:40	2471	756	-3.9	-9.9		
2025-11-03T11:41	2599	744			10	11
2025-11-03T11:41	2728	732	-5.5	-13.6		
2025-11-03T11:41	2762	728	-5.1	-14.7		
2025-11-03T11:42	2936	712			338	11
2025-11-03T11:43	3287	681			341	10
2025-11-03T11:43	3329	677	-10.0	-15.5		
2025-11-03T11:43	3401	671			336	10
2025-11-03T11:43	3522	661	-11.1	-17.1		
2025-11-03T11:44	3580	656			311	10
2025-11-03T11:44	3605	654	-11.0	-20.1		
2025-11-03T11:44	3725	643			291	14
2025-11-03T11:44	3761	640	-12.1	-21.4		
2025-11-03T11:45	3915	628	-13.3	-23.0		
2025-11-03T11:45	3960	624	-12.7	-26.7		
2025-11-03T11:45	4011	620			286	16
2025-11-03T11:46	4235	602			295	15
2025-11-03T11:46	4334	594			297	15
2025-11-03T11:46	4380	590	-16.1	-34.4		
2025-11-03T11:46	4406	588	-15.1	-44.8		
2025-11-03T11:46	4428	587	-14.2	-50.3		
2025-11-03T11:47	4478	583	-13.9	-50.1		
2025-11-03T11:47	4486	582			310	19
2025-11-03T11:47	4519	580	-12.9	-49.4		
2025-11-03T11:47	4597	574			319	22
2025-11-03T11:47	4672	568	-13.1	-53.0		
2025-11-03T11:48	4729	564			321	23
2025-11-03T11:48	4852	555	-11.3	-51.8		
2025-11-03T11:48	4960	547	-11.5	-48.4		
2025-11-03T11:49	5038	541			322	24
2025-11-03T11:49	5204	530			320	21
2025-11-03T11:50	5528	508			317	24
2025-11-03T11:51	5898	483			311	27
2025-11-03T11:51	5946	480	-19.3	-53.9		
2025-11-03T11:52	6240	461			309	25
2025-11-03T11:53	6590	440			303	25
2025-11-03T11:54	6938	419			290	29
2025-11-03T11:55	7189	405	-27.3	-59.7		
2025-11-03T11:55	7301	399			296	30
2025-11-03T11:56	7616	381			285	30
2025-11-03T11:56	7653	379	-30.7	-62.1		
2025-11-03T11:57	7873	368	-31.5	-62.7		
2025-11-03T11:57	7919	365			284	32
2025-11-03T11:58	8256	348			275	33
2025-11-03T11:58	8317	345	-34.8	-63.0		
2025-11-03T11:59	8601	331	-36.8	-62.8		
2025-11-03T11:59	8633	330			281	36
2025-11-03T12:00	8951	315	-38.8	-64.3		
2025-11-03T12:00	9015	312			278	36
2025-11-03T12:00	9164	305			277	35
2025-11-03T12:00	9187	304	-40.0	-65.3		
2025-11-03T12:01	9564	288			276	36
2025-11-03T12:02	9781	279	-43.5			
2025-11-03T12:02	9949	272			277	31
2025-11-03T12:03	10316	257			273	33
2025-11-03T12:04	10538	249	-45.9			
2025-11-03T12:04	10707	243			266	33
2025-11-03T12:05	10878	236	-47.2			
2025-11-03T12:05	11088	229			264	34
2025-11-03T12:06	11474	216			267	36
2025-11-03T12:07	11674	209	-50.3			
2025-11-03T12:07	11710	208			266	35
2025-11-03T12:08	12026	198	-50.3			
2025-11-03T12:08	12052	198			261	36
2025-11-03T12:09	12288	191			258	39
2025-11-03T12:09	12484	185	-52.1			
2025-11-03T12:09	12506	184			264	43
2025-11-03T12:10	12806	176			263	42
2025-11-03T12:11	13145	167			258	42
2025-11-03T12:12	13394	161	-55.3			
2025-11-03T12:12	13522	157			260	46
2025-11-03T12:13	13720	152	-56.4			
2025-11-03T12:13	13895	148			265	43
2025-11-03T12:14	13977	146	-57.3			
2025-11-03T12:14	14199	141			263	42
2025-11-03T12:15	14418	137	-58.4			
2025-11-03T12:15	14492	135			263	42
2025-11-03T12:16	14630	132	-59.2			
2025-11-03T12:16	14763	129			262	40
2025-11-03T12:17	15054	123	-58.8			
2025-11-03T12:17	15077	123			259	40
2025-11-03T12:18	15315	118	-60.4			
2025-11-03T12:18	15346	118			254	41
2025-11-03T12:19	15634	112			262	43
2025-11-03T12:19	15688	111	-61.3			
2025-11-03T12:20	15863	108			274	37
2025-11-03T12:20	16085	105	-59.9			
2025-11-03T12:20	16128	104			274	27
2025-11-03T12:21	16395	99			258	24
2025-11-03T12:22	16461	98	-61.4			
2025-11-03T12:22	16660	95			243	31
2025-11-03T12:22	16712	95	-62.0			
2025-11-03T12:23	17006	90			246	34
2025-11-03T12:24	17246	87			244	39
2025-11-03T12:24	17423	84	-67.2			
2025-11-03T12:25	17578	82			255	39
2025-11-03T12:25	17666	81	-67.4			
2025-11-03T12:26	17893	78	-68.1			
2025-11-03T12:26	17909	78			257	33
2025-11-03T12:27	18122	75	-67.4			
2025-11-03T12:27	18236	74			257	28
2025-11-03T12:27	18301	73	-64.6			
2025-11-03T12:27	18393	72			249	24
2025-11-03T12:27	18404	72	-64.1			
2025-11-03T12:28	18489	71	-64.1			
2025-11-03T12:28	18550	70	-60.7			
2025-11-03T12:28	18711	68			243	24
2025-11-03T12:29	18861	66	-62.3			
2025-11-03T12:29	18926	66			251	24
2025-11-03T12:30	19041	65	-61.3			
2025-11-03T12:30	19118	64			257	21
2025-11-03T12:30	19304	62	-61.0			
2025-11-03T12:30	19315	62			265	20
2025-11-03T12:31	19417	61	-59.7			
2025-11-03T12:31	19479	60			275	16
2025-11-03T12:32	19679	58	-60.0			
2025-11-03T12:32	19713	58			275	18
2025-11-03T12:32	19899	56			280	14
2025-11-03T12:32	19921	56	-60.3			
2025-11-03T12:33	20137	54			238	11
2025-11-03T12:33	20241	53	-59.2			
2025-11-03T12:34	20491	51	-60.5		233	13
2025-11-03T12:34	20615	50	-58.5			
2025-11-03T12:35	20704	49			226	14
2025-11-03T12:35	20977	47	-58.0			
2025-11-03T12:35	20991	47			231	19
2025-11-03T12:36	21182	46			227	11
2025-11-03T12:36	21196	46	-55.8			
2025-11-03T12:36	21349	45			196	9
2025-11-03T12:37	21607	43	-57.5			
2025-11-03T12:37	21666	42			191	14
2025-11-03T12:38	22041	40	-57.7		208	18
2025-11-03T12:39	22279	39			234	18
2025-11-03T12:40	22498	37			269	10
2025-11-03T12:40	22532	37	-53.9			
2025-11-03T12:41	22778	36			262	11
2025-11-03T12:41	22903	35	-54.3			
2025-11-03T12:41	23016	34			264	11
2025-11-03T12:42	23282	33			292	4
2025-11-03T12:42	23437	32			0	0
2025-11-03T12:43	23519	32			127	3
2025-11-03T12:43	23724	31	-55.5			
2025-11-03T12:44	23892	30			171	7
2025-11-03T12:44	23957	30	-56.2			
2025-11-03T12:44	24130	29			217	7
2025-11-03T12:45	24218	28	-53.6			
2025-11-03T12:45	24288	28			182	5
2025-11-03T12:46	24665	27			204	6
2025-11-03T12:46	24783	26			230	5
2025-11-03T12:46	24908	26			211	4
2025-11-03T12:47	25087	25			237	6
2025-11-03T12:47	25244	24	-54.2		263	3
2025-11-03T12:48	25430	24			226	6
2025-11-03T12:48	25540	23			244	4
2025-11-03T12:48	25626	23	-53.3		189	5
2025-11-03T12:49	25857	22			229	3
2025-11-03T12:49	25945	22			280	3
2025-11-03T12:50	26188	21			309	5
2025-11-03T12:50	26342	20			294	3
2025-11-03T12:51	26435	20			149	1
2025-11-03T12:51	26598	20			171	4
2025-11-03T12:51	26696	19			143	3
2025-11-03T12:52	26832	19	-54.9			
2025-11-03T12:52	26866	19			162	7
2025-11-03T12:52	27070	18			165	9
2025-11-03T12:53	27319	18			169	3
2025-11-03T12:53	27505	17			174	3
2025-11-03T12:53	27541	17	-55.7			
2025-11-03T12:54	27616	17			160	3
2025-11-03T12:54	27696	17			197	3
2025-11-03T12:54	27751	16	-54.9		201	3
2025-11-03T23:33	26	1027	11.8	5.9	330	1
2025-11-03T23:33	35	1026	11.6	5.7	52	1
2025-11-03T23:33	95	1018			301	3
2025-11-03T23:33	146	1012			300	2
2025-11-03T23:33	162	1010	10.1	4.0		
2025-11-03T23:34	230	1002			34	3
2025-11-03T23:34	246	1000	9.9	1.8		
2025-11-03T23:34	374	985			37	7
2025-11-03T23:35	615	957			35	8
2025-11-03T23:35	744	942	6.6	-2.0		
2025-11-03T23:35	818	933			35	8
2025-11-03T23:36	984	914			34	5
2025-11-03T23:37	1242	886	2.8	-3.8		
2025-11-03T23:37	1275	882			16	6
2025-11-03T23:37	1379	871	2.4	-4.6		
2025-11-03T23:38	1504	858			25	4
2025-11-03T23:38	1510	857	1.5	-6.8		
2025-11-03T23:38	1650	842	1.8	-17.2		
2025-11-03T23:38	1683	839			44	3
2025-11-03T23:39	1918	814	0.1	-17.6		
2025-11-03T23:39	2013	805	0.3	-23.4		
2025-11-03T23:39	2018	804			97	2
2025-11-03T23:40	2207	785			351	2
2025-11-03T23:40	2229	783	0.8	-29.8		
2025-11-03T23:40	2343	772			308	3
2025-11-03T23:40	2389	768	0.7	-29.9		
2025-11-03T23:41	2472	760			23	3
2025-11-03T23:41	2514	756	0.4	-31.5		
2025-11-03T23:41	2562	751			8	3
2025-11-03T23:41	2646	744	0.4	-35.0		
2025-11-03T23:41	2694	739	1.0	-36.8	337	6
2025-11-03T23:41	2723	736	2.2	-38.8		
2025-11-03T23:41	2813	728			357	4
2025-11-03T23:42	2907	720			64	4
2025-11-03T23:42	3002	712	1.0	-39.6		
2025-11-03T23:42	3013	710			37	3
2025-11-03T23:42	3132	700			17	2
2025-11-03T23:43	3248	690			48	2
2025-11-03T23:43	3293	686	-0.7	-38.0		
2025-11-03T23:43	3350	681			78	2
2025-11-03T23:44	3695	652			354	1
2025-11-03T23:44	3777	646	-4.7	-40.9		
2025-11-03T23:44	3859	639			244	3
2025-11-03T23:45	4138	616			285	6
2025-11-03T23:45	4192	612	-6.8	-42.4		
2025-11-03T23:46	4429	594	-8.4	-41.5		
2025-11-03T23:46	4493	589			282	9
2025-11-03T23:47	4843	563			273	8
2025-11-03T23:48	5202	537	-14.2	-40.3		
2025-11-03T23:48	5215	536			280	8
2025-11-03T23:49	5561	512			276	10
2025-11-03T23:50	5805	495	-18.4	-45.9		
2025-11-03T23:50	5940	487			265	13
2025-11-03T23:50	6010	482	-19.3	-48.0		
2025-11-03T23:51	6314	463			264	18
2025-11-03T23:52	6516	450	-22.9	-49.4		
2025-11-03T23:52	6669	441			266	16
2025-11-03T23:52	6759	435	-24.3	-53.3		
2025-11-03T23:53	6933	425			259	21
2025-11-03T23:54	7193	410			266	19
2025-11-03T23:54	7424	397	-29.7	-57.4		
2025-11-03T23:55	7558	390			263	23
2025-11-03T23:55	7763	378	-31.5	-58.8		
2025-11-03T23:55	7769	378			261	27
2025-11-03T23:56	8141	359			264	28
2025-11-03T23:57	8290	351	-34.8	-61.3		
2025-11-03T23:57	8546	338			266	37
2025-11-03T23:58	8809	326	-37.7	-60.9		
2025-11-03T23:58	8927	320			264	38
2025-11-03T23:59	9055	314	-39.5	-61.3		
2025-11-03T23:59	9154	310			264	40
2025-11-03T23:59	9166	309	-40.0	-62.7		
2025-11-04T00:00	9545	292			263	37
2025-11-04T00:01	9812	281			262	37
2025-11-04T00:01	10038	272	-46.7			
2025-11-04T00:02	10188	265			260	39
2025-11-04T00:03	10545	251			265	42
2025-11-04T00:03	10615	249	-50.2			
2025-11-04T00:04	10891	238			263	44
2025-11-04T00:04	11040	233	-52.1			
2025-11-04T00:04	11148	229			267	43
2025-11-04T00:05	11436	219			268	37
2025-11-04T00:05	11516	216	-53.1			
2025-11-04T00:06	11802	207			259	38
2025-11-04T00:07	12158	196			262	40
2025-11-04T00:07	12242	193	-55.2			
2025-11-04T00:08	12487	186			261	42
2025-11-04T00:08	12527	185	-54.9			
2025-11-04T00:09	12848	176			256	44
2025-11-04T00:10	13104	169	-55.3			
2025-11-04T00:10	13203	166			261	43
2025-11-04T00:10	13251	165	-54.9			
2025-11-04T00:11	13562	157			260	38
2025-11-04T00:12	13918	149			261	37
2025-11-04T00:12	13929	148	-57.6			
2025-11-04T00:12	14081	145			261	35
2025-11-04T00:13	14399	138			252	39
2025-11-04T00:14	14472	136	-59.6			
2025-11-04T00:14	14672	132			254	45
2025-11-04T00:15	14835	128			255	40
2025-11-04T00:15	15047	124	-60.8			
2025-11-04T00:16	15164	122			259	40
2025-11-04T00:17	15409	117	-61.9			
2025-11-04T00:17	15419	117			267	38
2025-11-04T00:17	15563	114			262	34
2025-11-04T00:17	15585	114	-62.0			
2025-11-04T00:18	15752	111			259	34
2025-11-04T00:18	15827	109	-62.7			
2025-11-04T00:19	16060	105			258	38
2025-11-04T00:19	16099	105	-64.1			
2025-11-04T00:19	16319	101			262	31
2025-11-04T00:20	16569	97			240	25
2025-11-04T00:20	16637	96	-63.2			
2025-11-04T00:21	16915	92			257	30
2025-11-04T00:22	17192	87	-64.9			
2025-11-04T00:22	17214	87			250	28
2025-11-04T00:23	17518	83	-64.7			
2025-11-04T00:23	17539	83			249	25
2025-11-04T00:24	17750	80	-64.3			
2025-11-04T00:24	17851	79			261	23
2025-11-04T00:25	18105	75			255	15
2025-11-04T00:25	18123	75	-63.6			
2025-11-04T00:25	18370	72	-64.8			
2025-11-04T00:26	18465	71			217	16
2025-11-04T00:26	18490	71	-63.3			
2025-11-04T00:26	18641	69	-61.5			
2025-11-04T00:27	18769	68			218	23
2025-11-04T00:28	19122	64			232	29
2025-11-04T00:28	19178	63	-63.5			
2025-11-04T00:28	19438	61			239	26
2025-11-04T00:29	19739	58			253	18
2025-11-04T00:30	19814	57	-61.8			
2025-11-04T00:30	19922	56			233	13
2025-11-04T00:30	19991	55	-60.6			
2025-11-04T00:30	20092	55	-60.2			
2025-11-04T00:30	20126	54			242	17
2025-11-04T00:31	20375	52			260	17
2025-11-04T00:32	20476	51	-57.2			
2025-11-04T00:32	20548	51			247	15
2025-11-04T00:33	20881	48			253	18
2025-11-04T00:34	21244	45			257	14
2025-11-04T00:34	21340	45	-60.0			
2025-11-04T00:34	21467	44			248	16
2025-11-04T00:35	21658	43			237	13
2025-11-04T00:35	21823	41	-56.2			
2025-11-04T00:35	21869	41			241	12
2025-11-04T00:36	22220	39			273	11
2025-11-04T00:37	22502	37			208	6
2025-11-04T00:38	22659	36	-56.2			
2025-11-04T00:38	22836	35			182	9
2025-11-04T00:39	23126	34	-57.5			
2025-11-04T00:39	23183	33			226	6
2025-11-04T00:40	23337	33			212	9
2025-11-04T00:40	23638	31	-55.2		247	11
2025-11-04T00:41	23784	30			254	6
2025-11-04T00:41	23999	29			199	3
2025-11-04T00:42	24110	29			183	4
2025-11-04T00:42	24222	28	-54.3			
2025-11-04T00:43	24452	27			246	4
2025-11-04T00:43	24497	27			216	2
2025-11-04T00:43	24545	27			173	3
2025-11-04T00:43	24737	26			189	6
2025-11-04T00:44	24957	25			232	4
2025-11-04T00:44	25039	25			228	3
2025-11-04T00:44	25115	25	-54.8			
2025-11-04T00:44	25141	25			203	5
2025-11-04T00:45	25403	24			275	1
2025-11-04T00:46	25684	23			319	3
2025-11-04T00:46	25798	22			42	3
2025-11-04T00:46	25913	22			184	1
2025-11-04T00:47	26063	21			179	5
2025-11-04T00:47	26277	21			197	2
2025-11-04T00:48	26470	20	-53.5			
2025-11-04T00:48	26534	20			15	2
2025-11-04T00:49	26762	19			28	6
2025-11-04T00:49	26934	19			54	5
2025-11-04T00:49	27072	18			51	6
2025-11-04T00:50	27218	18			79	8
2025-11-04T00:50	27364	17	-54.4			
2025-11-04T00:50	27511	17			110	9
2025-11-04T00:51	27817	16	-56.8		130	8
2025-11-04T00:51	27935	16			110	4
2025-11-04T00:52	28059	16			79	5
2025-11-04T00:52	28223	15			59	8
2025-11-04T00:52	28266	15	-54.0			
2025-11-04T00:52	28312	15			46	8
2025-11-04T00:53	28393	15	-52.2			
2025-11-04T00:53	28483	15			57	12
2025-11-04T00:54	28892	14			70	16
2025-11-04T00:55	29133	13	-53.9			
2025-11-04T00:55	29280	13			119	14
2025-11-04T00:55	29329	13	-52.5			
2025-11-04T00:56	29535	12			117	7
2025-11-04T00:56	29640	12			83	7
2025-11-04T00:57	29966	12	-50.3		90	12
2025-11-04T00:57	30316	11	-50.5		103	4
2025-11-04T00:58	30434	11			108	4
2025-11-04T00:59	30739	10			0	0
2025-11-04T00:59	30805	10			41	3
2025-11-04T00:59	30871	10	-50.8			
2025-11-04T01:00	31134	10			64	11
2025-11-04T01:00	31271	10			85	9
2025-11-04T01:00	31482	9	-48.1		84	8
2025-11-04T01:01	31554	9			88	4
2025-11-04T01:01	31626	9			47	4
2025-11-04T01:01	31853	9			1	6
2025-11-04T01:02	32032	9	-45.2		16	9
2025-11-04T11:33	26	1025	8.8	7.3	50	0
2025-11-04T11:33	32	1025	9.3	7.2	0	0
2025-11-04T11:33	64	1021	12.2	4.2	76	3
2025-11-04T11:33	81	1019	13.4	4.3		
2025-11-04T11:34	250	998	12.5	3.2		
2025-11-04T11:34	405	980			87	3
2025-11-04T11:34	485	971	10.8	-1.6		
2025-11-04T11:35	582	960	9.8	-0.7		
2025-11-04T11:35	663	950			94	3
2025-11-04T11:35	788	936	8.2	-3.0		
2025-11-04T11:36	984	914	6.3	-0.7		
2025-11-04T11:36	1019	910			308	2
2025-11-04T11:37	1242	886			269	4
2025-11-04T11:37	1247	885	4.2	-0.6		
2025-11-04T11:37	1351	874	3.5	-2.9		
2025-11-04T11:37	1433	865	3.2	-7.0		
2025-11-04T11:37	1473	861			314	3
2025-11-04T11:37	1495	858	3.2	-10.1		
2025-11-04T11:37	1539	854	3.8	-11.8		
2025-11-04T11:38	1583	849	3.8	-8.3		
2025-11-04T11:38	1588	849			298	3
2025-11-04T11:38	1678	839			298	3
2025-11-04T11:38	1723	835	3.2	-12.3		
2025-11-04T11:38	1808	826	3.0	-6.7		
2025-11-04T11:38	1825	824			316	3
2025-11-04T11:39	1959	811	2.4	-6.7		
2025-11-04T11:39	2124	794	2.2	-15.8		
2025-11-04T11:39	2178	789			247	3
2025-11-04T11:40	2330	774			266	4
2025-11-04T11:40	2386	769	0.4	-17.4		
2025-11-04T11:40	2442	764	0.7	-25.5		
2025-11-04T11:40	2503	758			280	3
2025-11-04T11:40	2596	749			264	3
2025-11-04T11:41	2671	742	-0.2	-29.4		
2025-11-04T11:41	2721	738			269	5
2025-11-04T11:41	2758	734	0.3	-35.1		
2025-11-04T11:41	2883	723			269	7
2025-11-04T11:41	2945	717	0.8	-36.9		
2025-11-04T11:42	3242	691			294	9
2025-11-04T11:43	3427	675			290	11
2025-11-04T11:43	3499	669	-3.1	-30.5		
2025-11-04T11:43	3579	662			274	11
2025-11-04T11:44	3922	634	-6.2	-28.7		
2025-11-04T11:44	3939	633			274	12
2025-11-04T11:45	4230	610			269	14
2025-11-04T11:45	4343	601	-7.7	-35.2		
2025-11-04T11:46	4443	593			275	14
2025-11-04T11:46	4672	576	-10.6	-27.8		
2025-11-04T11:47	4794	567			278	15
2025-11-04T11:47	5095	545			272	17
2025-11-04T11:47	5119	543	-14.7	-31.3		
2025-11-04T11:48	5214	536	-14.8	-39.7		
2025-11-04T11:48	5276	532	-15.3	-30.9		
2025-11-04T11:48	5456	519			265	19
2025-11-04T11:49	5581	511	-17.9	-30.0		
2025-11-04T11:49	5754	499	-18.5	-34.6		
2025-11-04T11:49	5771	498			262	25
2025-11-04T11:49	5817	495	-18.9	-39.8		
2025-11-04T11:50	5917	488			262	22
2025-11-04T11:50	5989	483	-19.8	-47.0		
2025-11-04T11:50	6082	477	-20.3	-50.3		
2025-11-04T11:50	6149	473	-19.3	-53.9		
2025-11-04T11:51	6278	465	-18.8	-56.9	266	24
2025-11-04T11:51	6358	460	-19.1	-53.8		
2025-11-04T11:52	6640	443			264	22
2025-11-04T11:52	6860	430			264	27
2025-11-04T11:53	6953	424	-22.9	-54.1		
2025-11-04T11:53	7219	409			260	25
2025-11-04T11:54	7532	392			263	28
2025-11-04T11:55	7786	378			260	30
2025-11-04T11:55	7950	370			260	30
2025-11-04T11:55	7968	369	-29.5	-59.0		
2025-11-04T11:56	8092	362	-30.1	-49.1		
2025-11-04T11:56	8165	359			268	35
2025-11-04T11:56	8183	358	-29.9	-47.2		
2025-11-04T11:56	8286	353			265	40
2025-11-04T11:56	8341	350	-30.7	-39.9		
2025-11-04T11:57	8512	342			263	41
2025-11-04T11:57	8523	341	-32.0	-37.5		
2025-11-04T11:58	8857	325			265	44
2025-11-04T11:58	9119	313			259	46
2025-11-04T11:59	9278	306	-38.0	-41.2		
2025-11-04T11:59	9478	297	-39.7	-43.0		
2025-11-04T11:59	9512	296	-40.0	-44.1		
2025-11-04T11:59	9519	296			257	46
2025-11-04T12:00	9909	279			258	47
2025-11-04T12:01	10088	272			258	51
2025-11-04T12:02	10483	256			260	53
2025-11-04T12:03	10770	245			263	57
2025-11-04T12:03	10823	243	-51.3			
2025-11-04T12:03	10924	239			266	55
2025-11-04T12:03	10986	237	-50.5			
2025-11-04T12:03	11079	233			268	59
2025-11-04T12:04	11349	224			266	59
2025-11-04T12:05	11664	213			266	58
2025-11-04T12:06	11955	204			264	53
2025-11-04T12:07	12262	194			262	54
2025-11-04T12:08	12458	188	-57.3			
2025-11-04T12:08	12577	185			263	54
2025-11-04T12:09	12873	176			265	52
2025-11-04T12:10	13010	173	-58.6			
2025-11-04T12:10	13111	170			261	49
2025-11-04T12:10	13147	169	-58.2			
2025-11-04T12:11	13382	163			263	44
2025-11-04T12:11	13414	162	-57.5			
2025-11-04T12:12	13638	156			259	42
2025-11-04T12:12	13648	156	-57.5			
2025-11-04T12:13	13938	149			257	42
2025-11-04T12:13	14066	146	-58.2			
2025-11-04T12:14	14180	143			258	46
2025-11-04T12:14	14364	139	-59.7			
2025-11-04T12:15	14487	136			261	47
2025-11-04T12:16	14781	130	-62.1			
2025-11-04T12:16	14796	130			268	45
2025-11-04T12:17	15068	124			267	40
2025-11-04T12:17	15172	122	-63.1			
2025-11-04T12:17	15295	120			265	38
2025-11-04T12:18	15439	117			261	36
2025-11-04T12:18	15622	113	-63.4			
2025-11-04T12:19	15726	112			263	35
2025-11-04T12:19	15775	111	-63.0			
2025-11-04T12:20	15980	107			251	32
2025-11-04T12:20	16005	107	-63.6			
2025-11-04T12:20	16277	102			253	31
2025-11-04T12:21	16584	97			262	31
2025-11-04T12:22	16781	94	-66.4			
2025-11-04T12:22	16899	92			248	26
2025-11-04T12:23	17153	88			249	32
2025-11-04T12:24	17215	87	-65.5			
2025-11-04T12:24	17467	84			263	33
2025-11-04T12:25	17737	80	-62.2			
2025-11-04T12:25	17792	80			263	28
2025-11-04T12:26	18079	76	-62.7			
2025-11-04T12:26	18135	75			257	27
2025-11-04T12:27	18369	72	-64.3			
2025-11-04T12:27	18462	71			260	27
2025-11-04T12:28	18583	70	-62.5			
2025-11-04T12:28	18782	68			276	18
2025-11-04T12:29	18940	66	-60.6			
2025-11-04T12:29	18970	66			264	10
2025-11-04T12:30	19171	64			243	11
2025-11-04T12:30	19396	61			245	13
2025-11-04T12:30	19489	60	-63.0			
2025-11-04T12:31	19552	60			258	17
2025-11-04T12:31	19676	59	-60.9			
2025-11-04T12:31	19687	59			246	15
2025-11-04T12:31	19772	58	-60.2			
2025-11-04T12:32	19963	56	-57.9			
2025-11-04T12:32	20006	56			237	18
2025-11-04T12:33	20341	53			231	17
2025-11-04T12:33	20459	52	-59.0			
2025-11-04T12:34	20583	51			247	14
2025-11-04T12:34	20597	51	-57.5			
2025-11-04T12:35	20877	48	-57.4			
2025-11-04T12:35	20928	48			225	14
2025-11-04T12:35	21089	47	-57.1			
2025-11-04T12:36	21296	45			233	15
2025-11-04T12:36	21480	44	-57.1			
2025-11-04T12:37	21551	44			255	17
2025-11-04T12:37	21596	43	-54.4			
2025-11-04T12:37	21856	42			234	11
2025-11-04T12:38	22199	39			213	9
2025-11-04T12:39	22496	38			225	10
2025-11-04T12:40	22718	36	-57.0			
2025-11-04T12:40	22808	36			261	9
2025-11-04T12:40	22899	35	-54.1			
2025-11-04T12:41	23083	34			241	9
2025-11-04T12:42	23390	33			274	8
2025-11-04T12:42	23470	32	-54.2			
2025-11-04T12:42	23612	32			339	8
2025-11-04T12:43	23798	31			340	2
2025-11-04T12:43	23945	30			251	3
2025-11-04T12:44	24074	29			268	5
2025-11-04T12:44	24273	28	-56.3			
2025-11-04T12:44	24297	28			275	7
2025-11-04T12:45	24386	28			257	2
2025-11-04T12:45	24455	28			237	3
2025-11-04T12:45	24525	27	-54.1			
2025-11-04T12:45	24667	27			271	2
2025-11-04T12:46	24863	26			224	3
2025-11-04T12:47	25089	25			307	3
2025-11-04T12:47	25273	24			347	3
2025-11-04T12:48	25433	24			317	3
2025-11-04T12:48	25487	24	-53.8			
2025-11-04T12:48	25624	23			79	3
2025-11-04T12:48	25739	23			10	3
2025-11-04T12:49	25825	22	-52.8			
2025-11-04T12:49	25943	22			18	7
2025-11-04T12:49	26121	21			55	6
2025-11-04T12:50	26400	20			127	6
2025-11-04T12:51	26590	20			158	4
2025-11-04T12:51	26718	19			122	4
2025-11-04T12:51	26751	19			131	3
2025-11-04T12:51	26821	19			180	4
2025-11-04T12:51	26886	19	-54.4			
2025-11-04T12:52	26957	19			151	1
2025-11-04T12:52	27060	18			352	3
2025-11-04T12:52	27092	18	-53.8			
2025-11-04T12:53	27417	17			39	6
2025-11-04T12:53	27719	17			66	8
2025-11-04T12:54	27797	16	-55.5			
2025-11-04T12:54	27912	16			66	10
2025-11-04T12:54	28031	16			68	7
2025-11-04T12:55	28114	16			89	8
2025-11-04T12:55	28320	15	-55.7			
2025-11-04T12:55	28368	15			32	5
2025-11-04T12:56	28536	15			48	4
2025-11-04T12:56	28763	14			352	7
2025-11-04T12:56	28851	14	-52.3			
2025-11-04T12:57	29090	13			20	17
2025-11-04T12:58	29387	13			51	14
2025-11-04T12:58	29541	13	-52.6			
2025-11-04T12:58	29643	12			43	8
2025-11-04T12:59	29752	12	-51.2			
2025-11-04T12:59	29912	12			20	15
2025-11-04T12:59	30082	12			29	19
2025-11-04T13:00	30255	11	-48.3			
2025-11-04T13:00	30436	11			56	13
2025-11-04T13:01	30745	10			48	18
2025-11-04T13:02	31236	10	-46.8		59	21
2025-11-04T23:33	26	1024	9.5	6.0	310	1
2025-11-04T23:33	36	1023	9.3	6.0	0	0
2025-11-04T23:33	88	1017			238	3
2025-11-04T23:33	103	1015			238	1
2025-11-04T23:33	116	1013	8.3	5.1		
2025-11-04T23:33	147	1010	11.1	3.4		
2025-11-04T23:34	194	1004	11.5	2.8		
2025-11-04T23:34	374	983	11.5	1.2		
2025-11-04T23:34	421	977			39	2
2025-11-04T23:34	426	976	11.8	-0.4		
2025-11-04T23:35	542	963	11.7	-1.5		
2025-11-04T23:35	599	956	11.7	1.3		
2025-11-04T23:35	753	939	11.0	-0.2		
2025-11-04T23:35	764	938			200	2
2025-11-04T23:35	833	930	10.5	2.1		
2025-11-04T23:35	844	929			188	3
2025-11-04T23:36	933	919	9.8	-0.1		
2025-11-04T23:36	978	914			199	3
2025-11-04T23:36	1006	911	9.3	0.2		
2025-11-04T23:36	1129	898			182	1
2025-11-04T23:36	1200	890	8.3	-6.3	146	3
2025-11-04T23:37	1340	875	7.4	-9.1		
2025-11-04T23:37	1541	854			131	3
2025-11-04T23:38	1558	852	5.8	-7.4		
2025-11-04T23:38	1727	835	4.9	-6.6		
2025-11-04T23:38	1739	833			138	2
2025-11-04T23:39	1936	813			308	3
2025-11-04T23:39	1984	809	3.1	-4.1		
2025-11-04T23:39	2036	803	3.7	-6.9		
2025-11-04T23:39	2093	798			294	6
2025-11-04T23:39	2121	795	3.5	-8.2		
2025-11-04T23:39	2170	790	3.3	-5.4		
2025-11-04T23:39	2234	784	3.5	-12.1		
2025-11-04T23:40	2250	782			268	4
2025-11-04T23:40	2375	771			273	7
2025-11-04T23:40	2412	767	2.1	-10.1		
2025-11-04T23:40	2454	763	2.6	-12.1		
2025-11-04T23:40	2518	757			248	6
2025-11-04T23:41	2634	746			243	6
2025-11-04T23:41	2651	745	2.3	-21.0		
2025-11-04T23:41	2859	726			271	5
2025-11-04T23:42	3184	697			257	5
2025-11-04T23:43	3323	685			244	7
2025-11-04T23:43	3341	683	-3.0	-25.3		
2025-11-04T23:43	3461	673			265	8
2025-11-04T23:44	3809	644			260	11
2025-11-04T23:45	4177	614			271	12
2025-11-04T23:46	4362	599	-8.9	-38.6		
2025-11-04T23:46	4456	592	-9.3	-34.4		
2025-11-04T23:46	4533	586			263	14
2025-11-04T23:46	4551	585	-10.0	-27.7		
2025-11-04T23:47	4709	573	-11.0	-29.6		
2025-11-04T23:47	4796	566			249	14
2025-11-04T23:47	4814	565	-11.2	-43.5		
2025-11-04T23:47	4929	557	-11.4	-45.7		
2025-11-04T23:47	4987	552			270	12
2025-11-04T23:47	5034	549	-10.9	-45.4		
2025-11-04T23:48	5214	536			255	12
2025-11-04T23:49	5508	516			269	12
2025-11-04T23:49	5570	512	-14.2	-44.1		
2025-11-04T23:50	5836	494	-15.9	-45.4		
2025-11-04T23:50	5847	493			260	15
2025-11-04T23:51	6183	472			256	17
2025-11-04T23:51	6421	457	-19.6	-45.6		
2025-11-04T23:52	6514	451			258	19
2025-11-04T23:52	6682	441	-20.8	-28.1		
2025-11-04T23:53	6873	430			266	26
2025-11-04T23:53	6944	426	-22.7	-27.5		
2025-11-04T23:53	6998	423			272	29
2025-11-04T23:53	7107	416	-23.5	-30.2		
2025-11-04T23:53	7141	414			268	29
2025-11-04T23:54	7176	413	-23.8	-32.4		
2025-11-04T23:55	7501	394	-26.5	-34.2	266	29
2025-11-04T23:55	7705	383	-27.9	-32.8		
2025-11-04T23:55	7839	376			263	33
2025-11-04T23:56	7912	372	-29.7	-34.3		
2025-11-04T23:56	8158	360	-31.0	-33.2		
2025-11-04T23:56	8194	358			263	42
2025-11-04T23:57	8474	344			261	44
2025-11-04T23:58	8751	331			255	49
2025-11-04T23:58	8798	329	-34.4	-36.2		
2025-11-04T23:58	8892	324			253	49
2025-11-04T23:59	9012	319			254	53
2025-11-04T23:59	9019	318	-35.6	-37.8		
2025-11-04T23:59	9167	312			258	53
2025-11-04T23:59	9247	308	-37.1	-39.5		
2025-11-04T23:59	9272	307			257	57
2025-11-05T00:00	9504	297			252	57
2025-11-05T00:00	9607	292	-39.2	-41.5		
2025-11-05T00:00	9671	290			255	61
2025-11-05T00:00	9702	288	-40.0	-42.2		
2025-11-05T00:01	9790	285			254	62
2025-11-05T00:01	10008	276			254	64
2025-11-05T00:02	10410	259			254	66
2025-11-05T00:03	10602	252	-48.2			
2025-11-05T00:03	10783	245			255	66
2025-11-05T00:04	11130	232			256	67
2025-11-05T00:05	11369	224	-54.7			
2025-11-05T00:05	11401	223			259	72
2025-11-05T00:05	11554	218	-55.3			
2025-11-05T00:06	11713	212			263	67
2025-11-05T00:06	11900	206			263	64
2025-11-05T00:06	11958	204	-57.3			
2025-11-05T00:07	12124	199			262	61
2025-11-05T00:08	12314	193			262	56
2025-11-05T00:08	12417	190	-58.1			
2025-11-05T00:09	12643	183			265	54
2025-11-05T00:09	12840	177			266	53
2025-11-05T00:09	12889	176	-59.6			
2025-11-05T00:10	13170	168			265	51
2025-11-05T00:10	13213	167	-59.4			
2025-11-05T00:11	13392	162			266	51
2025-11-05T00:12	13706	154			265	47
2025-11-05T00:13	14012	147			259	44
2025-11-05T00:14	14293	141	-61.2			
2025-11-05T00:14	14338	140			265	46
2025-11-05T00:15	14643	133			262	38
2025-11-05T00:16	14959	126			257	38
2025-11-05T00:16	15024	125	-62.3			
2025-11-05T00:16	15142	123	-62.8			
2025-11-05T00:17	15272	120	-63.0			
2025-11-05T00:17	15277	120			254	38
2025-11-05T00:17	15421	117	-63.7			
2025-11-05T00:18	15588	114			255	39
2025-11-05T00:19	15812	110			259	39
2025-11-05T00:19	15848	109	-65.2			
2025-11-05T00:19	16009	106	-65.3			
2025-11-05T00:19	16085	105			257	34
2025-11-05T00:20	16340	101	-67.0			
2025-11-05T00:20	16411	100			254	35
2025-11-05T00:21	16744	94			254	33
2025-11-05T00:21	16791	93	-67.6			
2025-11-05T00:22	16921	91			262	33
2025-11-05T00:23	17149	88			254	29
2025-11-05T00:23	17183	88	-67.4			
2025-11-05T00:24	17452	84			248	29
2025-11-05T00:24	17716	80			249	37
2025-11-05T00:25	17754	80	-67.5			
2025-11-05T00:25	17823	79	-65.3			
2025-11-05T00:25	17831	79			259	36
2025-11-05T00:25	18061	76			273	26
2025-11-05T00:26	18109	75	-62.9			
2025-11-05T00:26	18387	72			271	25
2025-11-05T00:27	18422	71	-62.2			
2025-11-05T00:27	18559	70			277	19
2025-11-05T00:28	18787	67			255	14
2025-11-05T00:28	18803	67	-62.4			
2025-11-05T00:28	18953	66	-62.0			
2025-11-05T00:28	18960	65			255	17
2025-11-05T00:29	19229	63	-63.2			
2025-11-05T00:29	19290	62			241	18
2025-11-05T00:30	19501	60	-62.2			
2025-11-05T00:30	19564	59			253	16
2025-11-05T00:31	19894	56			249	18
2025-11-05T00:31	19951	56	-62.0			
2025-11-05T00:32	20197	54	-61.7			
2025-11-05T00:32	20230	53			259	22
2025-11-05T00:33	20582	50			264	17
2025-11-05T00:33	20594	50	-59.3			
2025-11-05T00:34	20968	47			262	14
2025-11-05T00:34	21098	46			249	15
2025-11-05T00:35	21208	46	-59.1			
2025-11-05T00:35	21248	45			252	17
2025-11-05T00:35	21361	44	-57.7			
2025-11-05T00:36	21493	44			227	10
2025-11-05T00:36	21760	42			244	9
2025-11-05T00:37	21835	41	-57.1			
2025-11-05T00:37	21881	41			246	9
2025-11-05T00:37	22086	40			234	11
2025-11-05T00:38	22212	39	-56.1			
2025-11-05T00:38	22229	39			245	13
2025-11-05T00:38	22362	38			234	10
2025-11-05T00:38	22380	38	-55.5			
2025-11-05T00:38	22515	37			226	9
2025-11-05T00:39	22687	36			244	6
2025-11-05T00:39	22833	35			249	8
2025-11-05T00:39	22852	35	-55.7			
2025-11-05T00:40	22961	35			275	3
2025-11-05T00:40	22997	34	-54.2			
2025-11-05T00:40	23147	34			255	1
2025-11-05T00:41	23280	33			162	3
2025-11-05T00:41	23419	32			179	4
2025-11-05T00:42	23764	30	-56.9		254	6
2025-11-05T00:42	23956	30			232	2
2025-11-05T00:43	24040	29	-54.7			
2025-11-05T00:43	24263	28			246	4
2025-11-05T00:44	24540	27	-56.6			
2025-11-05T00:44	24587	27			292	6
2025-11-05T00:44	24659	26			287	2
2025-11-05T00:45	24806	26			143	3
2025-11-05T00:45	24882	26	-55.4			
2025-11-05T00:46	25111	25			137	2
2025-11-05T00:46	25295	24			188	4
2025-11-05T00:46	25347	24	-56.1			
2025-11-05T00:47	25538	23			244	1
2025-11-05T00:47	25680	23			325	3
2025-11-05T00:47	25821	22			317	4
2025-11-05T00:48	25938	22	-55.7			
2025-11-05T00:48	25998	21			191	3
2025-11-05T00:48	26090	21			225	2
2025-11-05T00:49	26240	21			25	3
2025-11-05T00:49	26400	20	-53.8		89	7
2025-11-05T00:50	26691	19			115	11
2025-11-05T00:51	27036	18			146	12
2025-11-05T00:51	27180	18	-53.7			
2025-11-05T00:51	27215	18			117	6
2025-11-05T00:52	27554	17			71	6
2025-11-05T00:52	27668	17	-52.9			
2025-11-05T00:53	27867	16			93	5
2025-11-05T00:53	28030	16			63	5
2025-11-05T00:53	28155	15			56	11
2025-11-05T00:55	28593	14			100	9
2025-11-05T00:55	28681	14	-51.7		105	6
2025-11-05T00:55	28775	14			34	5
2025-11-05T00:56	28966	14			42	7
2025-11-05T00:56	29312	13			81	15
2025-11-05T00:57	29520	12			102	8
2025-11-05T00:57	29678	12			96	9
2025-11-05T00:57	29730	12	-51.0			
2025-11-05T00:58	29785	12			69	5
2025-11-05T00:58	29898	12			78	9
2025-11-05T00:58	30010	12			88	8
2025-11-05T00:59	30183	11			53	10
2025-11-05T00:59	30245	11	-45.8			
2025-11-05T01:00	30616	11			50	17
2025-11-05T01:01	31007	10			54	18
2025-11-05T01:01	31325	9	-44.2		62	21
2025-11-05T11:33	26	1022	11.1	9.0	0	0
2025-11-05T11:33	33	1021	11.6	9.2	0	0
2025-11-05T11:33	79	1015	14.5	7.8	40	3
2025-11-05T11:33	178	1003			29	5
2025-11-05T11:34	320	987	13.7	7.0	39	7
2025-11-05T11:34	463	970	13.2	0.9		
2025-11-05T11:34	505	965	13.6	-5.5		
2025-11-05T11:35	552	960	13.7	-0.4		
2025-11-05T11:35	583	956			59	3
2025-11-05T11:35	609	954	13.2	4.4		
2025-11-05T11:35	682	945			62	3
2025-11-05T11:35	741	939	11.9	6.6		
2025-11-05T11:35	762	936			74	3
2025-11-05T11:36	889	922	10.7	9.6		
2025-11-05T11:36	895	922			123	3
2025-11-05T11:36	999	910			106	3
2025-11-05T11:36	1026	907	10.4	7.8		
2025-11-05T11:36	1091	900			172	4
2025-11-05T11:37	1328	875	8.5	5.2		
2025-11-05T11:37	1421	865	8.2	2.0	154	8
2025-11-05T11:37	1476	859	7.7	1.5		
2025-11-05T11:38	1526	854	7.5	0.7		
2025-11-05T11:38	1576	849	6.9	2.0		
2025-11-05T11:38	1631	843	6.6	-0.4		
2025-11-05T11:38	1748	831	5.6	0.8		
2025-11-05T11:38	1753	831			157	8
2025-11-05T11:38	1781	828	5.4	0.2		
2025-11-05T11:39	1819	824	5.1	-0.9		
2025-11-05T11:39	1895	816	4.6	0.0		
2025-11-05T11:39	1976	808			152	8
2025-11-05T11:39	2003	806	4.2	-3.8		
2025-11-05T11:39	2107	795	3.6	-6.1		
2025-11-05T11:40	2272	779	2.4	-7.8		
2025-11-05T11:40	2283	778			136	6
2025-11-05T11:40	2329	774	2.6	-9.3		
2025-11-05T11:40	2417	766	1.8	-4.5		
2025-11-05T11:40	2441	763			118	5
2025-11-05T11:40	2470	761	1.9	-6.2		
2025-11-05T11:41	2558	752	1.3	-5.6		
2025-11-05T11:41	2587	750			133	4
2025-11-05T11:41	2622	746	1.3	-9.6		
2025-11-05T11:41	2691	740	0.6	-4.2		
2025-11-05T11:41	2720	737			209	2
2025-11-05T11:41	2737	736	0.2	-3.5		
2025-11-05T11:41	2800	730	0.0	-6.4		
2025-11-05T11:41	2811	729			148	2
2025-11-05T11:42	2882	723	-0.3	-6.3		
2025-11-05T11:42	2915	720	-0.1	-9.3		
2025-11-05T11:42	2920	719			200	5
2025-11-05T11:42	2987	713	-0.5	-8.7		
2025-11-05T11:42	3073	705	-0.9	-11.1		
2025-11-05T11:42	3144	699			205	5
2025-11-05T11:42	3156	698	-1.5	-9.4		
2025-11-05T11:43	3219	693	-1.5	-10.6		
2025-11-05T11:43	3292	686	-2.1	-14.2		
2025-11-05T11:43	3389	678	-3.0	-19.8		
2025-11-05T11:43	3453	673	-3.3	-27.9		
2025-11-05T11:43	3486	670			189	3
2025-11-05T11:44	3611	659			183	3
2025-11-05T11:44	3703	652			114	1
2025-11-05T11:44	3730	649	-4.6	-29.8		
2025-11-05T11:45	3919	634	-5.3	-32.2	250	3
2025-11-05T11:45	4016	626			259	2
2025-11-05T11:45	4084	621	-6.8	-26.0		
2025-11-05T11:45	4140	616	-6.9	-29.2		
2025-11-05T11:45	4162	615			293	5
2025-11-05T11:46	4196	612	-6.6	-42.3		
2025-11-05T11:46	4325	602			287	6
2025-11-05T11:46	4348	600	-6.6	-44.9		
2025-11-05T11:46	4415	595			293	7
2025-11-05T11:46	4500	588			280	8
2025-11-05T11:47	4621	579			284	7
2025-11-05T11:47	4761	569	-9.2	-38.8		
2025-11-05T11:47	4813	565			276	9
2025-11-05T11:48	5020	550			286	7
2025-11-05T11:48	5086	546	-11.5	-34.5		
2025-11-05T11:48	5155	541	-11.8	-27.1		
2025-11-05T11:48	5239	535			274	10
2025-11-05T11:49	5417	522			286	10
2025-11-05T11:49	5535	514			300	10
2025-11-05T11:49	5564	512	-15.8	-23.0		
2025-11-05T11:49	5622	508	-16.4	-20.8		
2025-11-05T11:50	5673	505			290	13
2025-11-05T11:50	5706	503	-16.5	-19.1		
2025-11-05T11:50	5825	495	-15.2	-17.0		
2025-11-05T11:50	5841	494			274	16
2025-11-05T11:51	6173	472			264	16
2025-11-05T11:52	6529	450			267	18
2025-11-05T11:53	6771	436			266	20
2025-11-05T11:53	6832	432	-21.6	-23.6		
2025-11-05T11:53	7000	423			275	27
2025-11-05T11:54	7321	405			269	36
2025-11-05T11:55	7494	395			260	44
2025-11-05T11:55	7556	392	-23.1	-24.8		
2025-11-05T11:56	7863	376			243	44
2025-11-05T11:56	8007	368	-24.8	-27.0		
2025-11-05T11:57	8229	357			237	42
2025-11-05T11:57	8386	350	-27.9	-29.9		
2025-11-05T11:57	8458	346			225	43
2025-11-05T11:58	8676	336	-30.1	-32.4		
2025-11-05T11:58	8788	330			219	48
2025-11-05T11:59	8936	324			221	49
2025-11-05T11:59	9059	318	-32.3	-33.9		
2025-11-05T11:59	9143	314	-32.3	-34.0		
2025-11-05T11:59	9249	310	-32.5	-34.8	226	56
2025-11-05T12:00	9356	305			230	54
2025-11-05T12:00	9451	301			229	57
2025-11-05T12:00	9552	296			231	58
2025-11-05T12:00	9586	295	-35.1	-37.0		
2025-11-05T12:01	9796	286			233	59
2025-11-05T12:01	9966	279	-38.4	-42.1		
2025-11-05T12:02	10092	274	-39.5	-43.9		
2025-11-05T12:02	10139	272	-40.0	-44.2		
2025-11-05T12:02	10213	269			236	59
2025-11-05T12:03	10619	254			234	58
2025-11-05T12:04	11034	238			234	58
2025-11-05T12:05	11467	223			232	59
2025-11-05T12:05	11557	220	-53.5			
2025-11-05T12:06	11858	210			233	61
2025-11-05T12:07	12089	202			230	61
2025-11-05T12:07	12288	196			229	61
2025-11-05T12:08	12435	191			230	58
2025-11-05T12:09	12832	179			236	59
2025-11-05T12:09	12875	178	-65.6			
2025-11-05T12:09	13057	173	-66.6			
2025-11-05T12:10	13254	167			243	60
2025-11-05T12:10	13438	162	-63.3			
2025-11-05T12:11	13635	157			247	56
2025-11-05T12:11	13736	155	-63.6			
2025-11-05T12:12	14038	147			261	53
2025-11-05T12:12	14288	141	-62.8			
2025-11-05T12:13	14430	138	-62.4			
2025-11-05T12:13	14458	138			255	44
2025-11-05T12:13	14710	132	-62.8			
2025-11-05T12:14	14839	129			253	41
2025-11-05T12:14	14852	129	-62.1			
2025-11-05T12:14	15073	124			251	45
2025-11-05T12:14	15127	123	-62.8			
2025-11-05T12:15	15453	117			255	38
2025-11-05T12:15	15513	116	-63.1			
2025-11-05T12:16	15653	113	-63.3			
2025-11-05T12:16	15795	111			250	39
2025-11-05T12:17	15902	109	-64.0			
2025-11-05T12:17	16107	105			254	40
2025-11-05T12:18	16333	101	-65.2			
2025-11-05T12:18	16470	99			259	47
2025-11-05T12:19	16634	96			265	46
2025-11-05T12:19	16776	94	-66.2			
2025-11-05T12:19	16827	93			264	39
2025-11-05T12:20	17044	90			271	36
2025-11-05T12:20	17195	88	-65.2			
2025-11-05T12:20	17236	87			267	33
2025-11-05T12:21	17510	83	-66.9			
2025-11-05T12:21	17526	83			264	35
2025-11-05T12:22	17794	80			272	32
2025-11-05T12:22	17934	78			262	27
2025-11-05T12:23	18038	77	-63.5			
2025-11-05T12:23	18142	75			279	32
2025-11-05T12:24	18452	72			272	20
2025-11-05T12:25	18630	70	-62.0			
2025-11-05T12:25	18708	69			255	19
2025-11-05T12:25	18781	68	-61.9			
2025-11-05T12:26	18948	66			249	21
2025-11-05T12:27	19107	64	-63.0			
2025-11-05T12:27	19117	64			262	24
2025-11-05T12:27	19243	63			269	19
2025-11-05T12:27	19254	63	-61.2			
2025-11-05T12:28	19465	61			275	23
2025-11-05T12:29	19609	59	-60.5			
2025-11-05T12:29	19641	59			277	21
2025-11-05T12:30	19867	57			276	18
2025-11-05T12:30	19955	56	-60.6			
2025-11-05T12:31	20045	55			264	16
2025-11-05T12:32	20204	54			274	13
2025-11-05T12:33	20308	53			269	12
2025-11-05T12:33	20439	52	-59.3			
2025-11-05T12:34	20488	52			250	13
2025-11-05T12:35	20647	50			239	15
2025-11-05T12:35	20684	50	-59.6			
2025-11-05T12:36	20773	49			247	18
2025-11-05T12:37	20864	49			252	20
2025-11-05T12:38	20942	48			256	20
2025-11-05T12:39	21033	47			262	21
2025-11-05T12:40	21118	47	-61.6		261	23
2025-11-05T23:33	26	1017	12.7	10.4	300	2
2025-11-05T23:33	30	1016	13.0	10.4	0	0
2025-11-05T23:33	69	1012			295	3
2025-11-05T23:33	115	1006	12.2	8.9		
2025-11-05T23:33	157	1001	13.2	9.1		
2025-11-05T23:34	232	992	14.1	9.1		
2025-11-05T23:34	261	989			32	9
2025-11-05T23:34	511	960	12.2	8.7		
2025-11-05T23:35	578	952			51	15
2025-11-05T23:35	612	948	12.5	10.0		
2025-11-05T23:35	657	943	13.0	10.5		
2025-11-05T23:35	760	932			60	10
2025-11-05T23:36	956	910			41	8
2025-11-05T23:36	962	909	10.9	9.0		
2025-11-05T23:36	1034	902	10.3	8.7		
2025-11-05T23:36	1110	893			51	7
2025-11-05T23:36	1196	884	9.1	8.3		
2025-11-05T23:37	1284	875	8.7	6.1		
2025-11-05T23:37	1305	873			38	5
2025-11-05T23:37	1449	858	7.4	6.5	52	7
2025-11-05T23:38	1534	849	6.6	5.2		
2025-11-05T23:38	1577	844			70	6
2025-11-05T23:38	1582	844	6.0	6.0		
2025-11-05T23:38	1767	825			68	7
2025-11-05T23:39	1913	810	4.0	4.0		
2025-11-05T23:39	1942	808			75	6
2025-11-05T23:39	2051	797			73	7
2025-11-05T23:40	2210	781			71	7
2025-11-05T23:40	2305	772	2.5	2.5		
2025-11-05T23:41	2533	751			93	5
2025-11-05T23:41	2665	739			91	4
2025-11-05T23:41	2736	732			66	3
2025-11-05T23:41	2824	724			100	4
2025-11-05T23:42	2917	716			79	3
2025-11-05T23:42	2999	708			36	5
2025-11-05T23:42	3058	703	-1.4	-1.4	65	2
2025-11-05T23:43	3247	687			147	4
2025-11-05T23:43	3346	678			161	6
2025-11-05T23:43	3446	670	-3.7	-3.7		
2025-11-05T23:43	3497	665			163	4
2025-11-05T23:44	3595	657			213	2
2025-11-05T23:44	3657	652	-5.7	-6.4		
2025-11-05T23:44	3690	649	-6.0	-10.4		
2025-11-05T23:44	3723	646	-6.4	-18.7		
2025-11-05T23:44	3781	642			18	5
2025-11-05T23:44	3791	641	-7.0	-25.2		
2025-11-05T23:44	3822	638	-6.8	-24.5		
2025-11-05T23:45	3847	636			13	4
2025-11-05T23:45	3916	631	-5.9	-25.9	334	5
2025-11-05T23:45	3940	629	-4.4	-26.5		
2025-11-05T23:45	4098	616			324	4
2025-11-05T23:46	4230	606			12	1
2025-11-05T23:46	4309	600			328	3
2025-11-05T23:47	4454	589			300	3
2025-11-05T23:47	4494	586	-7.5	-34.0		
2025-11-05T23:47	4572	580			285	5
2025-11-05T23:47	4693	571			286	6
2025-11-05T23:48	4816	562	-9.6	-40.6		
2025-11-05T23:48	4884	557			305	8
2025-11-05T23:48	5039	546	-10.5	-45.1		
2025-11-05T23:49	5221	533			301	11
2025-11-05T23:49	5422	519	-13.4	-42.0		
2025-11-05T23:50	5497	514	-14.0	-28.2		
2025-11-05T23:50	5561	510			292	11
2025-11-05T23:50	5625	505	-15.3	-29.4		
2025-11-05T23:50	5690	501	-15.7	-32.6		
2025-11-05T23:51	5911	486			285	11
2025-11-05T23:51	5942	484	-18.1	-23.8		
2025-11-05T23:51	6063	477	-19.2	-20.8		
2025-11-05T23:51	6141	472			266	13
2025-11-05T23:52	6177	469	-19.6	-25.4		
2025-11-05T23:52	6270	464	-19.2	-33.9		
2025-11-05T23:52	6416	454	-19.7	-38.6		
2025-11-05T23:52	6491	450			263	18
2025-11-05T23:53	6819	430			262	19
2025-11-05T23:54	6868	427	-23.5	-38.9		
2025-11-05T23:54	7091	415			246	24
2025-11-05T23:55	7176	410			242	25
2025-11-05T23:55	7187	409	-24.6	-42.2		
2025-11-05T23:55	7248	406	-24.5	-40.6		
2025-11-05T23:55	7271	404			240	28
2025-11-05T23:55	7390	398			233	31
2025-11-05T23:55	7418	396	-24.7	-34.2		
2025-11-05T23:55	7462	394	-25.1	-33.8		
2025-11-05T23:56	7491	392			230	38
2025-11-05T23:56	7514	391	-24.6	-29.8		
2025-11-05T23:56	7637	385			226	38
2025-11-05T23:56	7731	380	-25.3	-28.3		
2025-11-05T23:56	7831	374	-25.7	-28.7		
2025-11-05T23:57	7921	370	-25.4	-28.1		
2025-11-05T23:57	7991	366			209	42
2025-11-05T23:58	8469	343			201	42
2025-11-05T23:58	8516	341	-29.3	-30.2		
2025-11-05T23:59	8921	322			195	44
2025-11-05T23:59	8941	321	-32.4	-32.7		
2025-11-05T23:59	9186	310			196	42
2025-11-06T00:00	9302	305	-35.5	-35.9		
2025-11-06T00:00	9420	299			199	41
2025-11-06T00:00	9458	298	-36.8	-38.5		
2025-11-06T00:01	9576	293	-37.9	-40.7		
2025-11-06T00:01	9706	287	-39.1	-42.6		
2025-11-06T00:01	9775	284	-39.7	-43.6		
2025-11-06T00:01	9796	283			202	43
2025-11-06T00:01	9811	283	-40.0	-43.4		
2025-11-06T00:02	10159	269	-42.5			
2025-11-06T00:02	10223	266			213	45
2025-11-06T00:03	10536	254	-44.8			
2025-11-06T00:03	10632	250			211	47
2025-11-06T00:03	10773	245			214	48
2025-11-06T00:03	10780	245	-46.6			
2025-11-06T00:04	11154	231			212	51
2025-11-06T00:05	11455	221	-50.8			
2025-11-06T00:05	11509	219			212	53
2025-11-06T00:06	11774	210	-52.4			
2025-11-06T00:06	11873	207			220	50
2025-11-06T00:07	12058	201	-53.2			
2025-11-06T00:07	12230	196	-53.1			
2025-11-06T00:07	12248	195			224	45
2025-11-06T00:08	12608	185			230	43
2025-11-06T00:09	12708	182	-55.4			
2025-11-06T00:09	12969	175			230	43
2025-11-06T00:10	13316	165			238	42
2025-11-06T00:11	13345	165	-56.6			
2025-11-06T00:11	13620	158			242	39
2025-11-06T00:12	13857	152			250	44
2025-11-06T00:12	13973	149	-57.2			
2025-11-06T00:12	14032	148			256	45
2025-11-06T00:13	14200	144	-58.0			
2025-11-06T00:13	14357	140			264	45
2025-11-06T00:13	14373	140	-58.0			
2025-11-06T00:14	14681	133			270	43
2025-11-06T00:15	14740	132	-59.0			
2025-11-06T00:15	15004	126	-59.9			
2025-11-06T00:15	15048	126			273	37
2025-11-06T00:16	15400	119	-61.6			
2025-11-06T00:16	15440	118			272	35
2025-11-06T00:17	15574	115	-61.9		265	34
2025-11-06T11:33	26	1014	11.6	10.7	50	1
2025-11-06T11:33	31	1013	12.1	10.7	0	0
2025-11-06T11:33	57	1010			40	3
2025-11-06T11:33	62	1009	15.0	8.9		
2025-11-06T11:33	83	1007	16.6	9.8		
2025-11-06T11:33	117	1003			15	4
2025-11-06T11:34	284	984			14	8
2025-11-06T11:34	339	977	15.2	7.0		
2025-11-06T11:34	506	958			9	9
2025-11-06T11:35	772	928	11.5	4.0		
2025-11-06T11:35	842	921			360	12
2025-11-06T11:36	1126	889			352	12
2025-11-06T11:36	1181	884	8.7	1.8		
2025-11-06T11:37	1348	866	8.2	2.6		
2025-11-06T11:37	1389	862			327	9
2025-11-06T11:37	1526	848			314	9
2025-11-06T11:38	1772	822	5.1	1.2		
2025-11-06T11:38	1863	813			303	11
2025-11-06T11:39	2056	794			302	9
2025-11-06T11:40	2313	769			301	8
2025-11-06T11:40	2342	766	0.1	-1.0		
2025-11-06T11:40	2408	760	-0.1	-1.8		
2025-11-06T11:40	2438	757	0.5	-3.8		
2025-11-06T11:40	2444	757			303	7
2025-11-06T11:40	2474	754	2.2	-9.7		
2025-11-06T11:40	2570	745	2.0	-13.8		
2025-11-06T11:41	2664	736	1.6	-17.9		
2025-11-06T11:41	2676	735			268	3
2025-11-06T11:41	2742	729	1.4	-20.4		
2025-11-06T11:41	2863	718			301	5
2025-11-06T11:42	2991	707	-0.7	-24.2		
2025-11-06T11:42	3078	699			326	8
2025-11-06T11:42	3128	695	-0.6	-37.9		
2025-11-06T11:42	3204	688	-0.2	-37.7		
2025-11-06T11:43	3367	675			312	10
2025-11-06T11:43	3521	662	-2.4	-33.7		
2025-11-06T11:44	3708	646			285	9
2025-11-06T11:45	4012	622			283	10
2025-11-06T11:45	4077	616	-6.6	-33.3		
2025-11-06T11:46	4339	596			286	9
2025-11-06T11:46	4449	588	-9.6	-34.7		
2025-11-06T11:46	4508	583			288	11
2025-11-06T11:47	4893	555			275	13
2025-11-06T11:48	5135	537			282	14
2025-11-06T11:48	5171	535	-14.6	-40.6		
2025-11-06T11:48	5269	528			285	15
2025-11-06T11:49	5640	502			287	16
2025-11-06T11:49	5781	493	-19.1	-42.3		
2025-11-06T11:50	5910	484	-20.3	-33.8		
2025-11-06T11:50	5984	479			272	18
2025-11-06T11:51	6193	466			270	18
2025-11-06T11:52	6532	445			263	17
2025-11-06T11:52	6607	440	-26.7	-35.3		
2025-11-06T11:52	6822	427			270	17
2025-11-06T11:53	6937	420	-28.9	-48.1		
2025-11-06T11:53	7016	416			279	18
2025-11-06T11:54	7386	395	-31.8	-53.3	275	21
2025-11-06T11:55	7743	375			273	21
2025-11-06T11:55	7760	374	-34.3	-60.9		
2025-11-06T11:56	7925	366			271	26
2025-11-06T11:56	8108	356			268	22
2025-11-06T11:56	8244	349	-37.8	-65.2		
2025-11-06T11:56	8251	349			269	28
2025-11-06T11:57	8390	342			267	21
2025-11-06T11:57	8531	335	-40.0	-66.9		
2025-11-06T11:57	8537	335	-40.0	-66.9		
2025-11-06T11:57	8544	334			262	24
2025-11-06T11:58	8699	327	-40.0			
2025-11-06T11:58	8784	323			254	29
2025-11-06T11:58	8798	322	-39.1			
2025-11-06T11:58	9010	312			260	25
2025-11-06T11:59	9168	305	-40.7			
2025-11-06T11:59	9282	300	-41.2			
2025-11-06T11:59	9323	298			271	27
2025-11-06T12:00	9714	281			270	26
2025-11-06T12:01	9996	270	-43.7			
2025-11-06T12:01	10100	266			259	25
2025-11-06T12:01	10128	265	-43.0			
2025-11-06T12:02	10266	259	-42.6			
2025-11-06T12:02	10529	249			253	36
2025-11-06T12:03	10748	241	-44.5			
2025-11-06T12:03	10809	239			263	36
2025-11-06T12:04	11134	228			251	30
2025-11-06T12:04	11324	221	-45.7			
2025-11-06T12:04	11342	221			241	32
2025-11-06T12:05	11432	218	-45.4			
2025-11-06T12:05	11703	209	-46.9			
2025-11-06T12:05	11727	208			236	40
2025-11-06T12:06	11977	201			231	42
2025-11-06T12:06	12106	197	-47.1			
2025-11-06T12:06	12154	195			232	42
2025-11-06T12:07	12346	190	-47.9		233	46
2025-11-06T23:30	26	1016	15.3	9.0	310	2
2025-11-06T23:30	29	1016	14.9	8.4	0	0
2025-11-06T23:30	73	1010			291	3
2025-11-06T23:30	77	1010	14.5	6.1		
2025-11-06T23:31	174	998	14.3	4.9		
2025-11-06T23:31	231	992	14.6	4.3	300	6
2025-11-06T23:31	465	964	13.8	3.6		
2025-11-06T23:31	487	962			285	11
2025-11-06T23:32	626	946	12.9	3.3		
2025-11-06T23:33	838	922			294	7
2025-11-06T23:34	1175	886			299	8
2025-11-06T23:34	1287	874	6.7	2.0		
2025-11-06T23:34	1375	865	6.3	0.6		
2025-11-06T23:34	1380	864			280	5
2025-11-06T23:34	1466	855	6.1	-1.1		
2025-11-06T23:35	1604	841			251	1
2025-11-06T23:36	1819	819	3.6	-4.4		
2025-11-06T23:36	1907	810			296	2
2025-11-06T23:36	1942	806	2.8	-3.8		
2025-11-06T23:36	2033	797	2.3	-3.4		
2025-11-06T23:37	2153	786	2.3	-5.8		
2025-11-06T23:37	2189	782			325	3
2025-11-06T23:37	2352	766	1.0	-7.3		
2025-11-06T23:38	2411	761			314	8
2025-11-06T23:38	2456	757	1.0	-10.8		
2025-11-06T23:38	2646	739	0.9	-16.0		
2025-11-06T23:39	2691	735	1.9	-20.6		
2025-11-06T23:39	2720	732	3.4	-27.8	325	20
2025-11-06T23:39	2822	723	3.3	-32.9		
2025-11-06T23:40	3064	702			322	22
2025-11-06T23:40	3250	686	0.7	-37.0		
2025-11-06T23:41	3430	670			314	21
2025-11-06T23:41	3474	667	0.4	-40.0		
2025-11-06T23:42	3792	641			314	19
2025-11-06T23:42	3833	637	-2.4	-45.7		
2025-11-06T23:43	4145	613			309	17
2025-11-06T23:44	4495	586			295	15
2025-11-06T23:45	4842	560			291	14
2025-11-06T23:45	4872	558	-11.2	-39.1		
2025-11-06T23:46	5191	535			299	15
2025-11-06T23:47	5551	510			292	18
2025-11-06T23:47	5729	498	-18.3	-47.2		
2025-11-06T23:48	5935	485			289	19
2025-11-06T23:48	6092	474	-20.9	-52.7		
2025-11-06T23:48	6227	466	-21.7	-55.7		
2025-11-06T23:49	6318	460			298	24
2025-11-06T23:50	6689	437			301	25
2025-11-06T23:51	7065	415			298	25
2025-11-06T23:52	7408	395			289	26
2025-11-06T23:52	7531	389	-33.0	-63.8		
2025-11-06T23:53	7741	377			288	23
2025-11-06T23:53	7763	376	-34.6	-67.9		
2025-11-06T23:53	7873	370	-34.7	-72.8		
2025-11-06T23:54	8077	359			285	24
2025-11-06T23:54	8175	354	-36.1	-73.8		
2025-11-06T23:54	8362	345	-37.3	-74.6		
2025-11-06T23:54	8391	343			281	23
2025-11-06T23:55	8426	342	-37.1	-74.4		
2025-11-06T23:55	8641	331	-38.4	-75.3		
2025-11-06T23:55	8742	326			278	25
2025-11-06T23:56	8766	325	-38.8	-75.6		
2025-11-06T23:56	8913	318	-40.0	-76.4		
2025-11-06T23:56	8925	318			277	24
2025-11-06T23:57	9302	300			282	23
2025-11-06T23:58	9686	284			282	25
2025-11-06T23:59	10015	270	-48.6			
2025-11-06T23:59	10051	268			279	28
2025-11-06T23:59	10224	261	-48.0			
2025-11-07T00:00	10290	259			280	31
2025-11-07T00:01	10603	247			276	31
2025-11-07T00:02	10898	236			278	31
2025-11-07T00:02	10958	234	-52.4			
2025-11-07T00:03	11177	226			274	30
2025-11-07T00:03	11392	218			276	32
2025-11-07T00:04	11709	208			272	33
2025-11-07T00:05	11846	204	-52.8			
2025-11-07T00:05	11995	199			270	34
2025-11-07T00:06	12238	192	-52.8			
2025-11-07T00:06	12246	191			269	36
2025-11-07T00:07	12492	184			266	36
2025-11-07T00:08	12755	177			269	37
2025-11-07T00:09	12881	173	-52.5			
2025-11-07T00:09	13043	169			273	36
2025-11-07T00:10	13289	163	-52.9			
2025-11-07T00:10	13335	162			272	37
2025-11-07T00:11	13609	155			270	32
2025-11-07T00:12	13867	149			263	30
2025-11-07T00:13	13932	147	-55.8			
2025-11-07T00:13	14143	142			255	35
2025-11-07T00:14	14336	138	-58.1			
2025-11-07T00:14	14442	136			259	36
2025-11-07T00:15	14715	130	-59.0			
2025-11-07T00:15	14772	129			264	41
2025-11-07T00:16	15050	123	-60.4			
2025-11-07T00:16	15079	123			268	45
2025-11-07T00:17	15410	116			272	44
2025-11-07T00:18	15496	115	-61.1			
2025-11-07T00:18	15730	110			274	36
2025-11-07T00:19	16046	105			279	41
2025-11-07T00:20	16131	104	-61.8			
2025-11-07T00:20	16334	100			283	37
2025-11-07T00:20	16403	99	-61.7			
2025-11-07T00:21	16531	97	-60.5		271	27
2025-11-07T00:21	16889	92			251	21
2025-11-07T00:22	16997	90	-63.5			
2025-11-07T00:22	17295	86			243	28
2025-11-07T00:23	17598	82	-66.3			
2025-11-07T00:23	17615	81			247	32
2025-11-07T00:24	17773	79	-64.3			
2025-11-07T00:24	17882	78			260	32
2025-11-07T00:25	18109	75			265	24
2025-11-07T00:25	18126	75	-60.7			
2025-11-07T00:26	18319	73	-59.6			
2025-11-07T00:26	18365	72			262	19
2025-11-07T00:27	18647	69			240	15
2025-11-07T00:27	18730	68	-59.7			
2025-11-07T00:27	18917	66	-60.3			
2025-11-07T00:27	18944	66			246	14
2025-11-07T00:28	19245	63	-61.3			
2025-11-07T00:28	19324	62			208	15
2025-11-07T00:29	19664	58			244	14
2025-11-07T00:30	19802	57	-62.3			
2025-11-07T00:30	19847	57			243	14
2025-11-07T00:30	19898	56	-61.4			
2025-11-07T00:31	20122	54			231	17
2025-11-07T00:31	20238	53	-63.2			
2025-11-07T00:32	20400	52			242	17
2025-11-07T00:32	20535	51	-61.7			
2025-11-07T00:32	20734	49			283	10
2025-11-07T00:33	21056	47			261	12
2025-11-07T00:34	21261	45	-60.3			
2025-11-07T00:34	21359	44			236	6
2025-11-07T00:35	21724	42	-58.5		243	15
2025-11-07T00:36	22095	40			251	16
2025-11-07T00:36	22158	39	-59.8			
2025-11-07T00:37	22321	38			228	12
2025-11-07T00:37	22506	37	-55.5			
2025-11-07T00:37	22523	37			241	12
2025-11-07T00:38	22805	35			232	7
2025-11-07T00:39	23029	34			203	9
2025-11-07T00:39	23049	34	-54.0			
2025-11-07T00:40	23438	32			203	8
2025-11-07T00:41	23739	31			236	9
2025-11-07T00:41	23760	30	-56.1			
2025-11-07T00:42	24104	29			289	6
2025-11-07T00:42	24216	28			259	3
2025-11-07T00:42	24308	28			213	3
2025-11-07T00:42	24330	28	-54.3			
2025-11-07T00:43	24543	27			238	6
2025-11-07T00:43	24760	26	-54.4			
2025-11-07T00:43	24783	26			204	1
2025-11-07T00:44	24908	25			122	3
2025-11-07T00:44	24985	25	-53.5			
2025-11-07T00:45	25300	24			155	2
2025-11-07T00:45	25354	24	-54.8			
2025-11-07T00:46	25715	22			63	7
2025-11-07T00:46	25982	22	-53.9		80	8
2025-11-07T00:47	26286	21			108	6
2025-11-07T00:48	26507	20			129	4
2025-11-07T00:48	26671	19			178	2
2025-11-07T00:49	26869	19	-55.5			
2025-11-07T00:49	26971	18			3	3
2025-11-07T00:49	27184	18			62	5
2025-11-07T00:49	27220	18	-54.5			
2025-11-07T00:50	27557	17			73	5
2025-11-07T00:51	27958	16			24	8
2025-11-07T00:52	28123	15	-50.5			
2025-11-07T00:52	28253	15			61	7
2025-11-07T00:53	28608	14			95	10
2025-11-07T00:53	28792	14			115	12
2025-11-07T00:54	29083	13	-47.5		86	7
2025-11-07T00:55	29497	13			70	11
2025-11-07T00:55	29765	12			68	15
2025-11-07T00:57	30289	11			61	17
2025-11-07T00:57	30470	11	-43.5			
2025-11-07T00:58	30722	10			76	19
2025-11-07T00:58	30991	10	-42.9			
2025-11-07T00:59	31125	10			91	19
2025-11-07T01:00	31480	9	-41.4			
2025-11-07T01:00	31555	9			68	19
2025-11-07T01:01	32012	9			71	22
2025-11-07T01:01	32332	8	-41.9		75	22
2025-11-07T01:02	32679	8	-38.5		61	24
2025-11-07T01:03	33033	7			62	14
2025-11-07T01:04	33271	7	-39.3		66	16
2025-11-07T11:33	26	1018	11.8	2.3	310	2
2025-11-07T11:33	33	1018	12.2	2.1	0	0
2025-11-07T11:33	53	1015	12.9	1.9		
2025-11-07T11:33	76	1012			293	4
2025-11-07T11:33	164	1002	13.7	0.0		
2025-11-07T11:34	230	994			298	10
2025-11-07T11:34	522	960			301	14
2025-11-07T11:35	556	956	11.5	-3.4		
2025-11-07T11:35	794	929			311	10
2025-11-07T11:35	867	921	8.7	-3.5		
2025-11-07T11:36	1097	896			290	7
2025-11-07T11:36	1154	890	6.5	-5.2		
2025-11-07T11:37	1309	873	5.9	-8.8		
2025-11-07T11:37	1432	860	6.0	-11.6		
2025-11-07T11:37	1451	858			257	12
2025-11-07T11:37	1545	848	6.8	-16.6		
2025-11-07T11:38	1677	835			246	9
2025-11-07T11:38	1892	813	4.3	-18.0		
2025-11-07T11:39	2006	801	3.9	-17.7	287	6
2025-11-07T11:39	2097	792			288	4
2025-11-07T11:39	2109	791	3.7	-18.5		
2025-11-07T11:39	2326	770			312	9
2025-11-07T11:40	2493	755	0.9	-28.5		
2025-11-07T11:40	2675	738			306	18
2025-11-07T11:41	2825	724	0.6	-34.9		
2025-11-07T11:41	2848	722			311	22
2025-11-07T11:41	3012	707	-0.5	-26.5		
2025-11-07T11:42	3200	691			308	21
2025-11-07T11:42	3211	690	-0.7	-35.8		
2025-11-07T11:43	3543	662			294	22
2025-11-07T11:43	3726	646	-4.5	-40.7		
2025-11-07T11:44	3914	631			295	23
2025-11-07T11:45	4117	615			297	23
2025-11-07T11:45	4237	605	-8.5	-38.3		
2025-11-07T11:45	4466	588			287	25
2025-11-07T11:46	4687	571	-12.2	-31.7		
2025-11-07T11:46	4766	565			286	30
2025-11-07T11:47	4910	555	-13.9	-29.3		
2025-11-07T11:47	5122	539			278	30
2025-11-07T11:48	5325	525	-17.3	-24.4		
2025-11-07T11:48	5494	513			289	27
2025-11-07T11:49	5631	504	-19.1	-22.0		
2025-11-07T11:49	5786	493	-19.8	-22.8		
2025-11-07T11:49	5838	490			289	28
2025-11-07T11:50	5994	480	-20.8	-24.1		
2025-11-07T11:50	6115	472	-21.2	-25.7		
2025-11-07T11:50	6183	468			281	33
2025-11-07T11:51	6435	452			284	35
2025-11-07T11:51	6521	447	-24.4	-28.3		
2025-11-07T11:52	6764	432	-26.7	-30.5		
2025-11-07T11:52	6808	429			286	33
2025-11-07T11:52	6820	429	-26.8	-33.3		
2025-11-07T11:53	6992	419	-28.0	-40.6		
2025-11-07T11:53	7096	413	-28.6	-44.6		
2025-11-07T11:53	7177	408	-27.9	-56.0		
2025-11-07T11:53	7196	407			293	33
2025-11-07T11:53	7331	399	-27.5	-63.0		
2025-11-07T11:53	7364	397			295	37
2025-11-07T11:54	7483	391			305	35
2025-11-07T11:54	7541	388	-28.7	-63.8		
2025-11-07T11:54	7639	382			306	34
2025-11-07T11:55	7907	368			308	38
2025-11-07T11:56	8263	350			312	40
2025-11-07T11:56	8321	347	-35.5	-59.2		
2025-11-07T11:57	8645	331			311	43
2025-11-07T11:57	8812	323	-39.7	-59.0		
2025-11-07T11:57	8846	322	-40.0	-59.2		
2025-11-07T11:58	9051	312			312	43
2025-11-07T11:58	9141	308	-42.3			
2025-11-07T11:59	9455	294	-44.7			
2025-11-07T11:59	9477	293			310	43
2025-11-07T12:00	9898	275			306	47
2025-11-07T12:00	10080	267			309	43
2025-11-07T12:01	10470	252			304	40
2025-11-07T12:02	10848	237			299	42
2025-11-07T12:02	10867	237	-56.5			
2025-11-07T12:03	11207	224			291	46
2025-11-07T12:04	11493	214	-57.5			
2025-11-07T12:04	11573	212			291	44
2025-11-07T12:04	11603	211	-56.7			
2025-11-07T12:04	11699	207			291	47
2025-11-07T12:05	11853	202	-55.3			
2025-11-07T12:05	11859	202			296	42
2025-11-07T12:05	12027	197			294	46
2025-11-07T12:06	12084	195	-54.8			
2025-11-07T12:06	12325	188			298	43
2025-11-07T12:07	12598	180			294	39
2025-11-07T12:07	12644	179	-54.3			
2025-11-07T12:08	12908	172			289	37
2025-11-07T12:08	12982	170	-54.8			
2025-11-07T12:08	13198	164			285	37
2025-11-07T12:09	13447	158			283	40
2025-11-07T12:09	13553	155	-53.5			
2025-11-07T12:09	13584	154			275	43
2025-11-07T12:10	13683	152	-53.2			
2025-11-07T12:10	13698	152			268	40
2025-11-07T12:10	13832	149			267	42
2025-11-07T12:10	13999	145			263	43
2025-11-07T12:11	14365	137			257	50
2025-11-07T12:11	14372	136	-58.5			
2025-11-07T12:12	14755	128	-59.6		269	56
2025-11-07T12:13	14970	124	-59.8			
2025-11-07T12:13	15051	122	-58.2			
2025-11-07T12:13	15092	122			281	55
2025-11-07T12:14	15153	120	-57.9			
2025-11-07T12:14	15455	115			288	34
2025-11-07T12:14	15489	114	-56.1			
2025-11-07T12:15	15877	107			287	26
2025-11-07T12:15	15921	107	-58.6			
2025-11-07T12:16	16140	103			276	24
2025-11-07T12:16	16165	103	-59.7			
2025-11-07T12:16	16297	100	-59.0			
2025-11-07T12:17	16511	97			258	28
2025-11-07T12:18	16894	91			252	31
2025-11-07T12:18	17044	89	-64.3			
2025-11-07T12:19	17211	87			260	30
2025-11-07T12:20	17497	83	-65.1			
2025-11-07T12:20	17520	82			273	23
2025-11-07T12:21	17708	80	-63.8			
2025-11-07T12:21	17847	78			264	19
2025-11-07T12:21	17978	76	-60.2			
2025-11-07T12:22	18042	76			273	12
2025-11-07T12:23	18387	72			268	7
2025-11-07T12:23	18404	71	-62.7			
2025-11-07T12:23	18616	69	-62.1			
2025-11-07T12:23	18636	69			223	9
2025-11-07T12:24	18780	67			230	12
2025-11-07T12:24	18789	67	-62.2			
2025-11-07T12:24	19024	65			229	17
2025-11-07T12:25	19064	64	-62.7			
2025-11-07T12:25	19260	62			239	19
2025-11-07T12:26	19502	60	-62.0			
2025-11-07T12:26	19531	59			256	23
2025-11-07T12:27	19788	57	-61.6			
2025-11-07T12:27	19842	57			270	22
2025-11-07T12:27	19987	55			266	19
2025-11-07T12:28	20300	53			266	25
2025-11-07T12:28	20386	52	-59.3			
2025-11-07T12:29	20568	50			263	18
2025-11-07T12:30	20914	48			249	19
2025-11-07T12:31	21256	45			243	16
2025-11-07T12:31	21270	45	-57.7			
2025-11-07T12:32	21601	43			270	13
2025-11-07T12:33	21816	41	-56.0			
2025-11-07T12:33	21830	41			246	11
2025-11-07T12:33	22035	40			266	14
2025-11-07T12:33	22052	40	-55.6			
2025-11-07T12:34	22377	38			276	17
2025-11-07T12:35	22637	36			254	10
2025-11-07T12:35	22764	36			251	8
2025-11-07T12:36	23023	34	-55.1			
2025-11-07T12:36	23152	34			292	12
2025-11-07T12:37	23229	33	-55.6			
2025-11-07T12:37	23466	32	-55.5			
2025-11-07T12:37	23548	32			271	9
2025-11-07T12:38	23650	31			268	7
2025-11-07T12:38	23775	30			199	4
2025-11-07T12:38	23841	30	-51.5			
2025-11-07T12:39	24035	29			125	1
2025-11-07T12:40	24422	28			353	2
2025-11-07T12:40	24611	27			28	3
2025-11-07T12:41	24703	26			84	4
2025-11-07T12:41	24802	26			88	4
2025-11-07T12:41	24926	25			148	5
2025-11-07T12:41	24978	25	-56.4			
2025-11-07T12:42	25076	25			170	4
2025-11-07T12:42	25154	25			187	3
2025-11-07T12:42	25287	24			144	6
2025-11-07T12:42	25422	24			164	6
2025-11-07T12:43	25533	23			177	5
2025-11-07T12:43	25673	23	-53.9			
2025-11-07T12:43	25704	23			180	3
2025-11-07T12:44	25848	22			202	6
2025-11-07T12:44	26023	21			288	1
2025-11-07T12:44	26148	21			39	3
2025-11-07T12:45	26305	21			60	2
2025-11-07T12:45	26370	20	-52.3			
2025-11-07T12:45	26402	20			107	4
2025-11-07T12:46	26659	19			84	4
2025-11-07T12:46	26860	19			3	5
2025-11-07T12:47	26966	19			5	4
2025-11-07T12:47	27142	18			12	6
2025-11-07T12:47	27176	18	-53.4			
2025-11-07T12:47	27286	18	-52.0			
2025-11-07T12:48	27547	17			76	7
2025-11-07T12:48	27661	17			100	9
2025-11-07T12:49	27736	16	-54.3			
2025-11-07T12:49	27896	16			44	7
2025-11-07T12:49	28020	16			46	7
2025-11-07T12:49	28102	16			40	7
2025-11-07T12:50	28228	15			70	7
2025-11-07T12:50	28360	15	-50.0			
2025-11-07T12:50	28403	15			68	6
2025-11-07T12:51	28628	14			31	11
2025-11-07T12:52	29004	14	-46.6			
2025-11-07T12:52	29055	13			78	9
2025-11-07T12:52	29207	13			97	10
2025-11-07T12:53	29361	13			81	8
2025-11-07T12:53	29628	12			87	10
2025-11-07T12:53	29684	12	-44.1			
2025-11-07T12:54	30021	12			69	14
2025-11-07T12:55	30255	11			73	14
2025-11-07T12:55	30437	11			65	16
2025-11-07T12:56	30626	11			81	14
2025-11-07T12:56	30820	10			91	14
2025-11-07T12:57	31018	10			70	17
2025-11-07T12:57	31291	10			56	18
2025-11-07T12:58	31578	9			74	19
2025-11-07T12:58	31805	9	-42.8			
2025-11-07T12:59	31882	9			52	19
2025-11-07T12:59	32037	9			56	16
2025-11-07T12:59	32151	9	-41.6		55	20
2025-11-07T23:33	26	1025	12.7	3.6	90	1
2025-11-07T23:33	32	1024	12.2	3.7	0	0
2025-11-07T23:33	122	1013			73	5
2025-11-07T23:34	259	996	11.0	-1.4		
2025-11-07T23:34	450	974			72	5
2025-11-07T23:35	596	957			82	4
2025-11-07T23:35	739	940	7.0	-2.4		
2025-11-07T23:35	745	940			69	4
2025-11-07T23:36	989	912			137	5
2025-11-07T23:36	1119	898	4.3	-2.8		
2025-11-07T23:36	1160	893			172	3
2025-11-07T23:37	1166	892	5.0	-4.8		
2025-11-07T23:37	1286	879	4.7	-7.1		
2025-11-07T23:37	1303	877			283	3
2025-11-07T23:37	1394	868	5.2	-10.2		
2025-11-07T23:37	1453	861	5.3	-7.5		
2025-11-07T23:38	1534	853	4.5	-2.6		
2025-11-07T23:38	1559	850			267	9
2025-11-07T23:38	1584	847	4.0	1.7		
2025-11-07T23:38	1672	838	3.3	2.6		
2025-11-07T23:38	1778	827			260	10
2025-11-07T23:39	2094	795	-0.4	-0.5		
2025-11-07T23:39	2118	793			258	9
2025-11-07T23:39	2135	791	-0.3	-4.0		
2025-11-07T23:40	2182	787	0.2	-15.8		
2025-11-07T23:40	2236	782	0.6	-23.9		
2025-11-07T23:40	2312	774	1.2	-32.5		
2025-11-07T23:40	2388	767			276	12
2025-11-07T23:40	2423	763	0.8	-23.7		
2025-11-07T23:41	2569	750	-0.2	-32.0		
2025-11-07T23:41	2634	743			278	12
2025-11-07T23:41	2793	729	-1.5	-38.6		
2025-11-07T23:41	2866	722			294	13
2025-11-07T23:42	2897	719	-1.9	-38.9		
2025-11-07T23:42	3062	705	-2.4	-45.7		
2025-11-07T23:42	3213	691			306	13
2025-11-07T23:43	3295	684	-2.7	-32.5		
2025-11-07T23:43	3408	675			302	15
2025-11-07T23:43	3489	668	-3.9	-32.2		
2025-11-07T23:44	3733	647			297	15
2025-11-07T23:44	3799	642	-5.5	-36.0		
2025-11-07T23:45	4059	621			305	15
2025-11-07T23:45	4128	615	-7.9	-39.3		
2025-11-07T23:46	4344	598			304	17
2025-11-07T23:47	4673	573			303	15
2025-11-07T23:47	4734	569	-11.8	-46.0		
2025-11-07T23:47	4807	563	-11.7	-43.9		
2025-11-07T23:48	4981	551	-11.9	-38.5		
2025-11-07T23:48	5016	548			302	18
2025-11-07T23:48	5189	536	-13.3	-38.5		
2025-11-07T23:49	5312	527	-13.2	-41.9		
2025-11-07T23:49	5371	523			300	19
2025-11-07T23:50	5644	505	-15.3	-42.3		
2025-11-07T23:50	5723	499			301	22
2025-11-07T23:50	5784	495	-15.8	-38.0		
2025-11-07T23:50	5900	488	-16.4	-30.3		
2025-11-07T23:51	5938	485	-16.5	-27.2		
2025-11-07T23:51	6071	477			298	23
2025-11-07T23:51	6214	468	-18.5	-31.5		
2025-11-07T23:52	6426	455			303	24
2025-11-07T23:52	6492	451	-20.3	-35.7		
2025-11-07T23:52	6636	442			310	25
2025-11-07T23:53	6707	438	-20.8	-45.5		
2025-11-07T23:53	6773	434			320	28
2025-11-07T23:53	6791	433	-20.5	-50.5		
2025-11-07T23:54	7133	413			307	32
2025-11-07T23:54	7174	411	-23.1	-43.3		
2025-11-07T23:54	7329	402			301	32
2025-11-07T23:55	7696	382			298	32
2025-11-07T23:56	7827	375			293	33
2025-11-07T23:56	8040	364			290	33
2025-11-07T23:57	8170	358			289	34
2025-11-07T23:57	8329	350	-33.8	-41.7		
2025-11-07T23:57	8425	345			294	36
2025-11-07T23:58	8800	327			298	38
2025-11-07T23:59	8839	325	-38.5	-43.1		
2025-11-07T23:59	9036	316	-40.0	-46.8		
2025-11-07T23:59	9178	309			298	37
2025-11-08T00:00	9597	290			298	40
2025-11-08T00:02	10015	273			300	40
2025-11-08T00:02	10240	263	-51.0			
2025-11-08T00:02	10414	256			300	39
2025-11-08T00:03	10678	246	-54.0			
2025-11-08T00:03	10704	245			306	41
2025-11-08T00:03	10805	241	-53.3			
2025-11-08T00:04	10850	240			302	44
2025-11-08T00:05	11223	226			301	48
2025-11-08T00:05	11283	224	-54.0			
2025-11-08T00:05	11528	216			301	50
2025-11-08T00:06	11668	211			302	53
2025-11-08T00:07	11922	203			303	55
2025-11-08T00:07	11978	201	-56.5			
2025-11-08T00:07	12237	193			302	55
2025-11-08T00:08	12530	184			302	55
2025-11-08T00:09	12842	175			298	56
2025-11-08T00:10	13197	165			300	58
2025-11-08T00:11	13262	164	-60.4			
2025-11-08T00:12	13524	157			294	59
2025-11-08T00:12	13566	156	-59.7			
2025-11-08T00:12	13756	151	-59.7			
2025-11-08T00:13	13802	150			290	61
2025-11-08T00:13	14073	144			293	60
2025-11-08T00:14	14271	139	-59.9			
2025-11-08T00:14	14349	138			285	61
2025-11-08T00:15	14526	134			285	65
2025-11-08T00:15	14542	133	-60.8			
2025-11-08T00:16	14742	129			284	62
2025-11-08T00:16	14816	128	-62.1			
2025-11-08T00:17	15086	122			291	64
2025-11-08T00:17	15117	122	-62.8			
2025-11-08T00:17	15211	120			295	60
2025-11-08T00:17	15217	120	-61.7			
2025-11-08T00:17	15356	117	-59.4		298	49
2025-11-08T00:18	15637	112	-59.6			
2025-11-08T00:18	15699	111			300	39
2025-11-08T00:19	16053	105			301	36
2025-11-08T00:20	16203	102	-63.6			
2025-11-08T00:20	16416	99			300	32
2025-11-08T00:21	16659	95	-66.0			
2025-11-08T00:21	16666	95			291	29
2025-11-08T00:21	16759	93	-64.6			
2025-11-08T00:21	16790	93			278	29
2025-11-08T00:22	17141	87			273	35
2025-11-08T00:23	17306	85	-67.9			
2025-11-08T00:23	17365	84			281	33
2025-11-08T00:23	17406	84	-65.8			
2025-11-08T00:24	17582	81			277	27
2025-11-08T00:25	17936	77			284	25
2025-11-08T00:25	18186	74	-67.4			
2025-11-08T00:25	18253	73			310	25
2025-11-08T00:26	18319	72	-65.6			
2025-11-08T00:26	18477	70	-65.7			
2025-11-08T00:26	18568	69			284	14
2025-11-08T00:27	18892	65	-66.9		270	17
2025-11-08T00:28	18995	64	-64.0			
2025-11-08T00:28	19228	62			274	22
2025-11-08T00:29	19347	61	-63.3			
2025-11-08T00:29	19500	59			278	22
2025-11-08T00:29	19512	59	-60.9			
2025-11-08T00:30	19619	58	-59.5			
2025-11-08T00:30	19715	57			305	16
2025-11-08T00:30	19884	56	-59.5			
2025-11-08T00:31	19973	55			312	11
2025-11-08T00:31	20062	54	-59.3			
2025-11-08T00:32	20265	52			267	9
2025-11-08T00:32	20449	51	-58.8			
2025-11-08T00:32	20547	50			268	13
2025-11-08T00:33	20882	48			250	12
2025-11-08T00:34	21081	46			254	9
2025-11-08T00:35	21289	45	-59.0		254	9
2025-11-08T00:35	21504	43			216	11
2025-11-08T00:36	21757	41			227	16
2025-11-08T00:36	21788	41	-54.7			
2025-11-08T00:37	22060	39			264	14
2025-11-08T00:37	22190	39	-52.5		254	11
2025-11-08T00:38	22432	37			236	13
2025-11-08T00:38	22642	36			263	12
2025-11-08T00:39	22972	34			260	9
2025-11-08T00:40	23063	34	-54.2			
2025-11-08T00:40	23277	33			312	8
2025-11-08T00:41	23538	31	-55.4			
2025-11-08T00:41	23578	31			349	3
2025-11-08T00:41	23723	30			32	3
2025-11-08T00:42	24062	29			8	3
2025-11-08T00:43	24128	29	-59.0			
2025-11-08T00:43	24194	28			294	3
2025-11-08T00:43	24307	28			267	5
2025-11-08T00:43	24377	27	-58.0			
2025-11-08T00:44	24566	27			256	9
2025-11-08T00:44	24687	26			236	4
2025-11-08T00:44	24760	26	-54.2			
2025-11-08T00:44	24833	26			174	7
2025-11-08T00:45	24935	25			174	6
2025-11-08T00:45	25169	24			223	4
2025-11-08T00:46	25275	24			282	5
2025-11-08T00:46	25303	24	-53.8			
2025-11-08T00:46	25357	24			271	3
2025-11-08T00:46	25467	23			210	5
2025-11-08T00:46	25549	23			226	5
2025-11-08T00:46	25580	23	-53.3			
2025-11-08T00:47	25634	23			310	3
2025-11-08T00:47	25749	22			332	3
2025-11-08T00:47	25837	22			20	3
2025-11-08T00:47	25929	22			2	3
2025-11-08T00:48	26048	21			353	4
2025-11-08T00:48	26295	20			337	6
2025-11-08T00:48	26327	20	-53.8			
2025-11-08T00:49	26488	20			356	8
2025-11-08T00:50	26893	19			20	7
2025-11-08T00:51	27140	18	-54.3			
2025-11-08T00:51	27213	18			6	10
2025-11-08T00:52	27547	17			69	7
2025-11-08T00:52	27667	16	-52.5			
2025-11-08T00:52	27706	16			33	4
2025-11-08T00:53	27949	16			63	9
2025-11-08T00:53	28118	15			27	5
2025-11-08T00:53	28249	15	-49.7		59	7
2025-11-08T00:54	28471	15			42	7
2025-11-08T00:54	28608	14			51	10
2025-11-08T00:54	28654	14	-48.6			
2025-11-08T00:55	28843	14			42	12
2025-11-08T00:55	29039	13	-46.2		64	17
2025-11-08T00:56	29238	13			63	16
2025-11-08T00:56	29291	13	-46.2			
2025-11-08T00:56	29450	13			69	16
2025-11-08T00:57	29556	12			76	16
2025-11-08T00:58	29898	12			77	19
2025-11-08T00:58	29956	12	-41.0			
2025-11-08T00:58	30071	11			66	23
2025-11-08T00:59	30314	11			61	16
2025-11-08T00:59	30500	11			57	16
2025-11-08T00:59	30563	11	-41.4			
2025-11-08T01:00	30693	10			67	18
2025-11-08T01:00	30789	10	-41.5		80	16
2025-11-08T11:33	26	1024	12.2	6.7	60	1
2025-11-08T11:33	34	1023	12.6	7.1	0	0
2025-11-08T11:33	65	1019			198	5
2025-11-08T11:33	93	1016			168	5
2025-11-08T11:33	121	1012			84	3
2025-11-08T11:33	173	1006			66	6
2025-11-08T11:34	200	1003	11.9	5.5		
2025-11-08T11:34	473	971	10.1	4.5		
2025-11-08T11:34	501	967			106	5
2025-11-08T11:35	628	953			160	2
2025-11-08T11:35	680	947	9.3	3.7		
2025-11-08T11:35	789	935	8.8	6.9		
2025-11-08T11:36	868	926			208	4
2025-11-08T11:36	924	919	7.7	5.7		
2025-11-08T11:36	1027	908	6.9	3.3		
2025-11-08T11:36	1178	892	5.3	5.3		
2025-11-08T11:36	1213	888			205	5
2025-11-08T11:37	1426	865			212	9
2025-11-08T11:37	1432	864	3.8	3.8		
2025-11-08T11:37	1474	860	4.4	4.4		
2025-11-08T11:38	1785	827			224	10
2025-11-08T11:39	2137	792	0.6	0.5		
2025-11-08T11:39	2175	788			246	7
2025-11-08T11:39	2304	776	-0.8	-5.0		
2025-11-08T11:40	2375	769			265	8
2025-11-08T11:40	2493	757	-1.4	-11.8		
2025-11-08T11:40	2561	751	-0.5	-15.2	261	7
2025-11-08T11:40	2637	744	-0.1	-17.3		
2025-11-08T11:41	2671	741	1.1	-17.8		
2025-11-08T11:41	2730	735			255	8
2025-11-08T11:41	2867	723	1.2	-14.9		
2025-11-08T11:41	2897	720	1.8	-17.2		
2025-11-08T11:41	2943	716			298	12
2025-11-08T11:42	3272	687			281	12
2025-11-08T11:43	3284	686	-1.5	-15.7		
2025-11-08T11:44	3620	658			278	11
2025-11-08T11:44	3720	649	-5.5	-15.6		
2025-11-08T11:44	3952	630			274	13
2025-11-08T11:45	4186	612	-9.4	-16.1		
2025-11-08T11:45	4192	611			273	15
2025-11-08T11:45	4274	605	-9.4	-15.7		
2025-11-08T11:46	4506	587	-11.3	-16.2		
2025-11-08T11:46	4558	583			263	22
2025-11-08T11:46	4626	578	-12.1	-17.2		
2025-11-08T11:47	4666	575	-8.9	-10.1		
2025-11-08T11:47	4754	568			273	28
2025-11-08T11:47	4776	567	-9.4	-9.8		
2025-11-08T11:48	5068	546	-10.7	-10.7		
2025-11-08T11:48	5085	544			279	26
2025-11-08T11:48	5239	534			283	25
2025-11-08T11:48	5251	533	-11.4	-11.9		
2025-11-08T11:49	5574	511	-12.4	-13.4		
2025-11-08T11:49	5598	509			279	23
2025-11-08T11:50	5789	497	-14.0	-14.5		
2025-11-08T11:50	5819	495			276	25
2025-11-08T11:50	5869	491	-14.1	-15.5		
2025-11-08T11:51	6198	470			264	24
2025-11-08T11:51	6204	470	-16.5	-17.5		
2025-11-08T11:52	6511	451			266	22
2025-11-08T11:52	6592	446	-19.0	-19.4		
2025-11-08T11:52	6725	438			271	22
2025-11-08T11:52	6814	433	-20.2	-21.4		
2025-11-08T11:53	6865	430			282	26
2025-11-08T11:53	6942	426	-21.3	-23.8		
2025-11-08T11:54	7246	409			281	34
2025-11-08T11:54	7291	406	-24.0	-25.8		
2025-11-08T11:54	7419	399			280	32
2025-11-08T11:55	7754	381	-27.9	-28.3		
2025-11-08T11:55	7813	378	-28.4	-29.9	280	32
2025-11-08T11:55	7860	375	-28.7	-35.1		
2025-11-08T11:56	7995	368	-29.9	-38.3		
2025-11-08T11:56	8203	358			287	29
2025-11-08T11:57	8578	339			292	29
2025-11-08T11:57	8661	335	-35.0	-43.9		
2025-11-08T11:58	8956	321			288	31
2025-11-08T11:59	9127	313	-39.0	-45.0		
2025-11-08T11:59	9237	308	-40.0	-45.1		
2025-11-08T11:59	9312	305			283	32
2025-11-08T12:00	9619	291	-42.3			
2025-11-08T12:00	9637	291			291	37
2025-11-08T12:01	9927	278			294	40
2025-11-08T12:01	10201	267			293	47
2025-11-08T12:02	10344	261	-46.9			
2025-11-08T12:02	10483	256	-45.5			
2025-11-08T12:02	10569	253			294	59
2025-11-08T12:03	10808	244			296	61
2025-11-08T12:04	11169	231			298	65
2025-11-08T12:05	11384	223	-49.6			
2025-11-08T12:05	11548	218			293	70
2025-11-08T12:06	11924	206			294	70
2025-11-08T12:07	12289	194			297	70
2025-11-08T12:08	12614	185			296	66
2025-11-08T12:09	12918	176			293	67
2025-11-08T12:10	13100	171	-57.8			
2025-11-08T12:10	13248	167			292	68
2025-11-08T12:11	13495	161	-59.8			
2025-11-08T12:11	13572	159			290	69
2025-11-08T12:12	13884	151			290	69
2025-11-08T12:13	14059	147	-62.3			
2025-11-08T12:13	14214	143			288	70
2025-11-08T12:14	14541	136			287	73
2025-11-08T12:15	14850	129			288	70
2025-11-08T12:15	14915	127	-68.0			
2025-11-08T12:16	15124	123			292	67
2025-11-08T12:17	15330	119	-67.3			
2025-11-08T12:17	15415	117			293	55
2025-11-08T12:17	15448	117	-66.2			
2025-11-08T12:18	15671	112			296	51
2025-11-08T12:18	15899	108			296	44
2025-11-08T12:18	15927	108	-66.7			
2025-11-08T12:19	16211	103			287	37
2025-11-08T12:20	16337	101	-68.8			
2025-11-08T12:20	16430	99	-68.2			
2025-11-08T12:20	16435	99			285	39
2025-11-08T12:21	16724	94			279	34
2025-11-08T12:21	16761	94	-69.6			
2025-11-08T12:22	16978	90	-69.0			
2025-11-08T12:22	17037	90			273	31
2025-11-08T12:23	17358	85			265	32
2025-11-08T12:23	17526	82	-71.4			
2025-11-08T12:24	17659	81	-71.1			
2025-11-08T12:24	17675	80			268	33
2025-11-08T12:24	17883	78	-71.4			
2025-11-08T12:25	17952	77			278	33
2025-11-08T12:25	17998	76	-70.4			
2025-11-08T12:25	18102	75			292	31
2025-11-08T12:25	18182	74	-66.1			
2025-11-08T12:26	18224	73			283	24
2025-11-08T12:27	18549	70			276	23
2025-11-08T12:27	18845	66	-64.3			
2025-11-08T12:28	18890	66			278	23
2025-11-08T12:28	19013	64	-62.6			
2025-11-08T12:29	19189	63	-62.0			
2025-11-08T12:29	19226	62			277	20
2025-11-08T12:29	19400	61	-61.1			
2025-11-08T12:30	19522	59	-60.7			
2025-11-08T12:30	19565	59			287	12
2025-11-08T12:30	19847	56	-61.5			
2025-11-08T12:31	19864	56			257	12
2025-11-08T12:32	20207	53			259	13
2025-11-08T12:33	20544	50			272	18
2025-11-08T12:33	20575	50	-61.8			
2025-11-08T12:33	20808	48			294	13
2025-11-08T12:34	21031	47			300	11
2025-11-08T12:35	21318	44			312	9
2025-11-08T12:35	21502	43	-60.1			
2025-11-08T12:36	21620	42			268	9
2025-11-08T12:36	21860	41			308	13
2025-11-08T12:37	22080	39			328	11
2025-11-08T12:37	22209	39			315	5
2025-11-08T12:38	22411	37			213	7
2025-11-08T12:38	22568	36			208	9
2025-11-08T12:39	22621	36	-57.0			
2025-11-08T12:39	22834	35			268	12
2025-11-08T12:40	23000	34			268	14
2025-11-08T12:40	23134	33			274	12
2025-11-08T12:40	23292	33			275	8
2025-11-08T12:41	23511	31			250	11
2025-11-08T12:41	23575	31	-52.1			
2025-11-08T12:42	23786	30			260	5
2025-11-08T12:42	23983	29			213	1
2025-11-08T12:43	24095	29	-53.6			
2025-11-08T12:43	24299	28			160	3
2025-11-08T12:44	24558	27			202	7
2025-11-08T12:44	24730	26			227	4
2025-11-08T12:44	24777	26	-54.6			
2025-11-08T12:45	24876	25			312	5
2025-11-08T12:45	25056	25			347	7
2025-11-08T12:46	25271	24			360	5
2025-11-08T12:46	25459	23			317	5
2025-11-08T12:47	25657	23			329	9
2025-11-08T12:47	25742	22	-54.2			
2025-11-08T12:48	26068	21			3	9
2025-11-08T12:49	26447	20			77	7
2025-11-08T12:49	26478	20	-53.5			
2025-11-08T12:49	26700	19	-55.1		117	4
2025-11-08T23:33	26	1017	10.4	10.2	310	1
2025-11-08T23:33	28	1017	10.6	9.4	0	0
2025-11-08T23:33	31	1017	11.4	10.8		
2025-11-08T23:33	37	1016	10.2	10.2		
2025-11-08T23:33	59	1013			255	3
2025-11-08T23:34	159	1001			351	4
2025-11-08T23:34	170	1000	10.3	10.0		
2025-11-08T23:34	235	992	10.8	10.0		
2025-11-08T23:34	323	982			9	3
2025-11-08T23:35	469	965	9.4	9.4		
2025-11-08T23:35	578	952	11.2	11.2		
2025-11-08T23:35	646	945			150	5
2025-11-08T23:35	708	938	11.6	11.6		
2025-11-08T23:36	985	907			203	5
2025-11-08T23:36	1072	898	10.2	9.6		
2025-11-08T23:37	1249	879			237	7
2025-11-08T23:37	1321	871	8.3	7.9		
2025-11-08T23:37	1415	862	8.5	6.5		
2025-11-08T23:37	1467	856			243	12
2025-11-08T23:38	1670	835	7.0	5.0		
2025-11-08T23:38	1823	820			251	15
2025-11-08T23:39	2148	788			255	15
2025-11-08T23:40	2424	761	0.7	0.7		
2025-11-08T23:40	2456	758			247	15
2025-11-08T23:41	2592	746			231	17
2025-11-08T23:41	2682	737	-0.5	-0.5		
2025-11-08T23:41	2727	733			238	14
2025-11-08T23:42	2904	717	-0.9	-0.9		
2025-11-08T23:42	2990	709			204	9
2025-11-08T23:43	3261	686			197	14
2025-11-08T23:44	3394	674	-2.8	-2.8		
2025-11-08T23:44	3513	664			196	15
2025-11-08T23:45	3760	643			199	18
2025-11-08T23:46	4027	622			200	20
2025-11-08T23:47	4205	608	-6.3	-6.3		
2025-11-08T23:47	4312	600			202	20
2025-11-08T23:48	4610	577			203	21
2025-11-08T23:49	4746	567	-9.0	-9.0		
2025-11-08T23:49	4916	555			226	24
2025-11-08T23:50	4958	552	-9.2	-9.2		
2025-11-08T23:50	5235	532			239	23
2025-11-08T23:51	5562	510			249	23
2025-11-08T23:52	5885	489	-14.6	-14.7		
2025-11-08T23:52	5890	489			255	22
2025-11-08T23:54	6237	467			251	23
2025-11-08T23:55	6547	448			249	22
2025-11-08T23:55	6728	437			244	24
2025-11-08T23:56	6857	429			244	25
2025-11-08T23:56	6947	424			249	24
2025-11-08T23:56	7054	418			245	26
2025-11-08T23:57	7166	412	-23.4	-24.1		
2025-11-08T23:57	7269	406			249	24
2025-11-08T23:57	7342	402			243	25
2025-11-08T23:58	7435	397			252	30
2025-11-08T23:58	7571	389			252	27
2025-11-08T23:58	7650	385			256	27
2025-11-08T23:59	7732	381			255	32
2025-11-08T23:59	7847	375			248	28
2025-11-09T00:00	8081	363			252	32
2025-11-09T00:00	8187	357			256	36
2025-11-09T00:01	8412	346			259	37
2025-11-09T00:01	8554	339	-32.7	-33.4		
2025-11-09T00:02	8670	334			262	42
2025-11-09T00:02	8857	325			264	42
2025-11-09T00:02	8905	323	-35.3	-35.8		
2025-11-09T00:03	9174	310			262	45
2025-11-09T00:04	9457	298	-40.0	-41.6	261	45
2025-11-09T00:05	9883	280			268	49
2025-11-09T00:06	10075	272			269	53
2025-11-09T00:07	10388	259	-46.4			
2025-11-09T00:07	10405	259			278	58
2025-11-09T00:07	10639	250			281	66
2025-11-09T00:08	10786	244	-46.7			
2025-11-09T00:08	10949	238			283	73
2025-11-09T00:09	11185	230	-49.1			
2025-11-09T00:09	11304	226			284	74
2025-11-09T00:10	11646	214			285	74
2025-11-09T00:11	11943	205	-54.3			
2025-11-09T00:11	11987	203			284	76
2025-11-09T00:12	12160	198	-55.1			
2025-11-09T00:12	12325	193			284	76
2025-11-09T00:13	12656	183			286	78
2025-11-09T00:14	12995	173			285	76
2025-11-09T00:14	13087	171	-59.1			
2025-11-09T00:15	13333	164			281	76
2025-11-09T00:16	13483	160	-61.0			
2025-11-09T00:16	13633	156			282	74
2025-11-09T00:17	13723	154	-61.8			
2025-11-09T00:17	13962	148			281	74
2025-11-09T00:18	14203	143			282	77
2025-11-09T00:19	14433	137	-65.5			
2025-11-09T00:19	14475	136			284	75
2025-11-09T00:19	14626	133	-65.8			
2025-11-09T00:20	14799	129			287	68
2025-11-09T00:20	15004	125	-67.7			
2025-11-09T00:21	15129	122			280	64
2025-11-09T00:21	15264	120	-68.0			
2025-11-09T00:22	15474	116			278	64
2025-11-09T00:23	15797	110	-68.3			
2025-11-09T00:23	15833	109			285	53
2025-11-09T00:23	16058	105	-67.2			
2025-11-09T00:24	16173	103			281	43
2025-11-09T00:24	16264	101	-68.5			
2025-11-09T00:25	16519	97			278	37
2025-11-09T00:25	16594	96	-68.3			
2025-11-09T00:26	16811	93			275	35
2025-11-09T00:26	16972	90			278	37
2025-11-09T00:27	17233	86			270	38
2025-11-09T00:27	17290	85	-71.5			
2025-11-09T00:27	17352	84			276	37
2025-11-09T00:28	17415	84	-68.8			
2025-11-09T00:28	17523	82			270	28
2025-11-09T00:28	17583	81	-67.4			
2025-11-09T00:29	17827	78			273	36
2025-11-09T00:29	17896	77	-67.3			
2025-11-09T00:30	18062	75			292	31
2025-11-09T00:30	18071	75	-66.5			
2025-11-09T00:30	18268	73	-65.2		294	25
2025-11-09T00:31	18455	70			294	25
2025-11-09T00:31	18596	69	-66.0			
2025-11-09T00:31	18693	68			290	19
2025-11-09T00:32	18931	65	-67.5			
2025-11-09T00:32	19007	64	-64.4			
2025-11-09T00:32	19017	64			271	15
2025-11-09T00:33	19212	62	-62.4			
2025-11-09T00:33	19289	61			280	17
2025-11-09T00:33	19299	61	-59.6			
2025-11-09T00:33	19332	61	-59.6		274	15
2025-11-09T11:33	26	1006	11.7	11.7	310	2
2025-11-09T11:33	31	1005	12.1	11.3	0	0
2025-11-09T11:33	41	1004	13.0	12.5		
2025-11-09T11:33	63	1001	11.5	11.5		
2025-11-09T11:33	162	990	11.0	10.5		
2025-11-09T11:33	167	989			297	3
2025-11-09T11:34	198	986	11.9	10.5		
2025-11-09T11:34	254	979			314	1
2025-11-09T11:34	274	977	12.9	11.6		
2025-11-09T11:35	561	944			158	2
2025-11-09T11:35	621	937	10.8	10.8		
2025-11-09T11:35	667	932			183	4
2025-11-09T11:35	706	928	10.9	10.9		
2025-11-09T11:35	767	921			199	5
2025-11-09T11:35	801	917	11.0	11.0		
2025-11-09T11:36	886	908			181	9
2025-11-09T11:36	891	907	11.6	11.6		
2025-11-09T11:36	1149	880			217	10
2025-11-09T11:37	1502	843			219	14
2025-11-09T11:38	1725	821	9.9	9.9		
2025-11-09T11:39	1862	808			230	17
2025-11-09T11:39	2201	775			241	15
2025-11-09T11:40	2218	774	7.5	7.5		
2025-11-09T11:40	2553	743			260	13
2025-11-09T11:41	2752	725			264	14
2025-11-09T11:42	2982	705	3.1	2.4		
2025-11-09T11:42	3124	693			271	17
2025-11-09T11:42	3224	684	1.8	-0.5		
2025-11-09T11:43	3393	670			266	18
2025-11-09T11:43	3424	667	0.4	-0.7		
2025-11-09T11:43	3496	661	0.6	-2.3		
2025-11-09T11:43	3559	656	0.6	-3.7		
2025-11-09T11:43	3615	652			259	20
2025-11-09T11:43	3620	651	0.6	-6.3		
2025-11-09T11:44	3737	642	0.0	-8.0		
2025-11-09T11:44	3804	636	-0.2	-12.5		
2025-11-09T11:44	3950	625			258	23
2025-11-09T11:44	3978	623	-1.1	-15.3		
2025-11-09T11:45	4211	605	-2.5	-18.1		
2025-11-09T11:45	4277	600			262	26
2025-11-09T11:46	4497	583	-5.0	-19.5		
2025-11-09T11:46	4508	582			269	28
2025-11-09T11:46	4626	574			263	30
2025-11-09T11:47	4719	567	-5.1	-25.8		
2025-11-09T11:47	4964	549			254	37
2025-11-09T11:48	5037	544	-5.3	-26.6		
2025-11-09T11:48	5175	535			248	40
2025-11-09T11:49	5450	516			253	37
2025-11-09T11:49	5623	505	-10.6	-27.8		
2025-11-09T11:50	5775	495			255	36
2025-11-09T11:51	6016	479			253	38
2025-11-09T11:52	6340	459			256	36
2025-11-09T11:52	6448	453			255	37
2025-11-09T11:52	6497	450	-18.8	-28.5		
2025-11-09T11:53	6778	433			259	37
2025-11-09T11:53	6783	433	-21.2	-30.2		
2025-11-09T11:54	7009	420			255	39
2025-11-09T11:54	7111	414	-23.2	-33.6		
2025-11-09T11:55	7344	401			259	45
2025-11-09T11:56	7676	383			264	46
2025-11-09T11:56	7733	380	-27.9	-41.9		
2025-11-09T11:56	7847	374	-28.9	-38.3		
2025-11-09T11:56	7921	370			262	46
2025-11-09T11:56	7989	366	-29.3	-40.5		
2025-11-09T11:57	8034	364			266	50
2025-11-09T11:57	8112	360	-29.7	-43.1		
2025-11-09T11:57	8178	357			269	46
2025-11-09T11:57	8252	353	-30.2	-46.9		
2025-11-09T11:58	8345	348			272	56
2025-11-09T11:58	8397	346	-30.1	-51.2		
2025-11-09T11:58	8467	343			270	57
2025-11-09T11:59	8703	331			271	57
2025-11-09T12:00	9056	315			275	56
2025-11-09T12:00	9301	304	-36.2	-54.8		
2025-11-09T12:00	9345	302			275	63
2025-11-09T12:01	9597	291	-36.5	-58.9		
2025-11-09T12:01	9693	287			276	67
2025-11-09T12:02	9830	282			277	68
2025-11-09T12:02	10065	272	-40.0	-58.5		
2025-11-09T12:02	10071	272			278	72
2025-11-09T12:03	10450	257			276	72
2025-11-09T12:04	10752	246			277	72
2025-11-09T12:05	10983	238	-46.6			
2025-11-09T12:05	11097	233			277	70
2025-11-09T12:06	11440	222			278	69
2025-11-09T12:07	11762	211			279	72
2025-11-09T12:08	11886	207	-51.5			
2025-11-09T12:08	12110	200			279	72
2025-11-09T12:09	12442	190			279	70
2025-11-09T12:10	12773	180			278	70
2025-11-09T12:11	13078	172			277	68
2025-11-09T12:11	13129	170	-59.5			
2025-11-09T12:12	13366	164			277	67
2025-11-09T12:13	13669	156			272	66
2025-11-09T12:14	13996	148			270	67
2025-11-09T12:15	14086	146	-65.0			
2025-11-09T12:15	14319	140			271	70
2025-11-09T12:16	14635	133			274	72
2025-11-09T12:17	14948	126			277	73
2025-11-09T12:18	15191	121	-72.2		280	72
2025-11-09T12:18	15310	119			281	68
2025-11-09T12:19	15422	116	-72.4			
2025-11-09T12:19	15554	114	-69.8			
2025-11-09T12:19	15648	112			290	66
2025-11-09T12:19	15659	112	-69.1			
2025-11-09T12:20	15873	108			293	63
2025-11-09T12:20	15915	107	-69.8			
2025-11-09T12:21	16244	101			297	47
2025-11-09T12:22	16555	96			287	36
2025-11-09T12:22	16639	95	-68.7			
2025-11-09T12:23	16882	91			270	36
2025-11-09T12:24	17086	88			273	36
2025-11-09T12:24	17142	87	-68.4			
2025-11-09T12:24	17253	86			275	33
2025-11-09T12:25	17421	83			275	27
2025-11-09T12:25	17561	81	-68.1			
2025-11-09T12:25	17576	81			279	26
2025-11-09T12:26	17794	78	-67.8			
2025-11-09T12:26	17871	77			263	29
2025-11-09T12:27	18076	75			268	33
2025-11-09T12:27	18093	75	-67.6			
2025-11-09T12:27	18231	73	-65.9			
2025-11-09T12:28	18366	71			281	29
2025-11-09T12:28	18391	71	-65.3			
2025-11-09T12:28	18550	69	-62.3			
2025-11-09T12:29	18639	68			273	22
2025-11-09T12:30	18964	65			265	18
2025-11-09T12:30	19097	63	-63.8			
2025-11-09T12:31	19258	62			267	12
2025-11-09T12:31	19359	61	-62.8			
2025-11-09T12:31	19406	60	-61.0			
2025-11-09T12:31	19431	60			265	11
2025-11-09T12:31	19463	60	-57.8			
2025-11-09T12:32	19719	57			265	11
2025-11-09T12:33	19916	55			272	13
2025-11-09T12:33	20042	54	-62.2			
2025-11-09T12:34	20237	53			262	14
2025-11-09T12:34	20415	51	-62.3		272	14
2025-11-09T12:35	20563	50	-62.5			
2025-11-09T12:35	20725	49			267	15
2025-11-09T12:36	20920	47			279	14
2025-11-09T12:36	21080	46			278	11
2025-11-09T12:37	21205	45	-59.6		268	10
2025-11-09T12:37	21318	44	-57.4			
2025-11-09T12:37	21331	44			267	7
2025-11-09T12:38	21643	42			344	4
2025-11-09T12:38	21658	42	-56.3			
2025-11-09T12:39	21858	41			318	2
2025-11-09T12:39	22126	39			238	5
2025-11-09T12:39	22159	39	-58.1			
2025-11-09T12:40	22310	38			273	4
2025-11-09T12:40	22396	37			276	1
2025-11-09T12:40	22413	37	-56.2			
2025-11-09T12:41	22636	36			263	4
2025-11-09T12:41	22869	35			240	5
2025-11-09T12:42	23071	34			226	6
2025-11-09T12:43	23228	33	-56.6			
2025-11-09T12:43	23306	32			285	6
2025-11-09T12:43	23447	32			312	8
2025-11-09T12:43	23548	31	-53.8			
2025-11-09T12:43	23569	31			311	5
2025-11-09T12:44	23798	30			269	5
2025-11-09T12:45	23930	29	-55.5		264	7
2025-11-09T12:45	24085	29			305	6
2025-11-09T12:45	24263	28			312	3
2025-11-09T12:46	24331	28	-54.2			
2025-11-09T12:46	24405	27			215	1
2025-11-09T12:46	24474	27			158	3
2025-11-09T12:47	24766	26			150	2
2025-11-09T12:47	24942	25	-53.1		1	2
2025-11-09T12:47	24967	25			358	3
2025-11-09T12:48	25368	23			338	3
2025-11-09T12:49	25674	22	-55.5		347	6
2025-11-09T12:50	25849	22	-51.4		48	7
2025-11-09T12:50	25938	21			80	6
2025-11-09T12:51	26309	20			19	5
2025-11-09T12:52	26505	20			25	7
2025-11-09T12:52	26639	19	-53.5			
2025-11-09T12:52	26845	19			76	10
2025-11-09T12:53	26913	18	-51.1			
2025-11-09T12:53	27130	18			72	11
2025-11-09T12:54	27390	17			85	8
2025-11-09T12:55	27585	17			115	8
2025-11-09T12:55	27625	17	-50.5			
2025-11-09T12:55	27824	16			55	9
2025-11-09T12:55	27908	16	-47.8			
2025-11-09T12:56	28078	15			78	7
2025-11-09T12:56	28295	15			99	9
2025-11-09T12:57	28566	14			71	15
2025-11-09T12:57	28661	14	-46.1			
2025-11-09T12:58	28901	14			69	16
2025-11-09T12:59	29202	13			62	18
2025-11-09T12:59	29358	13	-45.8			
2025-11-09T12:59	29517	12			40	12
2025-11-09T13:00	29850	12			46	16
2025-11-09T13:00	29907	12	-42.7			
2025-11-09T13:01	30025	12			43	19
2025-11-09T13:01	30262	11			58	18
2025-11-09T13:02	30384	11			49	21
2025-11-09T13:02	30509	11	-43.9			
2025-11-09T13:02	30571	11			67	19
2025-11-09T13:03	30896	10			50	21
2025-11-09T13:03	31099	10			43	17
2025-11-09T13:04	31377	9			51	17
2025-11-09T13:04	31520	9			56	16
2025-11-09T13:05	31671	9			60	19
2025-11-09T13:05	31747	9	-43.0			
2025-11-09T13:05	31822	9			67	14
2025-11-09T13:06	32056	9			52	14
2025-11-09T13:06	32121	8	-41.0		52	16
2025-11-09T23:33	26	1001	11.2	11.2	150	1
2025-11-09T23:33	31	1000	10.7	10.7	0	0
2025-11-09T23:33	105	992	10.6	10.6		
2025-11-09T23:33	159	985	12.7	10.4		
2025-11-09T23:33	183	982	13.9	10.3	183	3
2025-11-09T23:34	310	968	14.0	9.4	158	5
2025-11-09T23:34	393	958			158	4
2025-11-09T23:34	483	948	13.1	8.0		
2025-11-09T23:34	525	943			254	1
2025-11-09T23:35	634	931	12.3	5.5		
2025-11-09T23:35	652	929			315	4
2025-11-09T23:35	664	928	12.4	4.6		
2025-11-09T23:35	774	916	12.1	2.5		
2025-11-09T23:36	1048	886	10.6	1.4		
2025-11-09T23:36	1071	884			292	15
2025-11-09T23:36	1171	873	10.3	-1.1		
2025-11-09T23:36	1271	863			287	21
2025-11-09T23:37	1497	840	8.4	-2.6		
2025-11-09T23:37	1673	822			270	13
2025-11-09T23:38	1833	806			263	11
2025-11-09T23:38	1845	805	5.7	0.9		
2025-11-09T23:38	1916	798	5.1	1.0		
2025-11-09T23:38	1957	794			253	11
2025-11-09T23:38	2003	789	5.3	-1.2		
2025-11-09T23:39	2147	776			263	15
2025-11-09T23:39	2302	761	3.4	-7.7		
2025-11-09T23:40	2456	747	2.3	-10.2		
2025-11-09T23:40	2467	746			266	17
2025-11-09T23:40	2600	734	1.4	-11.7		
2025-11-09T23:40	2776	718	-0.2	-12.5		
2025-11-09T23:41	2812	715			258	16
2025-11-09T23:41	3024	696	-1.6	-19.6		
2025-11-09T23:41	3095	690	-1.7	-20.1		
2025-11-09T23:41	3130	687			255	21
2025-11-09T23:42	3266	675			254	22
2025-11-09T23:42	3491	656			252	25
2025-11-09T23:43	3611	646	-5.2	-21.7		
2025-11-09T23:43	3743	635			258	31
2025-11-09T23:44	3904	622	-6.3	-29.5		
2025-11-09T23:44	4098	607			258	34
2025-11-09T23:45	4430	581			257	37
2025-11-09T23:45	4447	580	-10.3	-38.4		
2025-11-09T23:46	4596	569			256	38
2025-11-09T23:46	4638	566	-11.6	-42.1		
2025-11-09T23:47	4935	544			263	38
2025-11-09T23:47	4952	543	-13.6	-47.3		
2025-11-09T23:47	5121	531	-14.0	-50.2	264	42
2025-11-09T23:48	5343	516			268	51
2025-11-09T23:48	5461	508	-13.5	-40.9		
2025-11-09T23:49	5658	495	-15.0	-37.3		
2025-11-09T23:49	5721	491			261	56
2025-11-09T23:49	5887	480	-15.5	-36.3		
2025-11-09T23:50	6061	469			264	56
2025-11-09T23:50	6270	456	-18.7	-33.1		
2025-11-09T23:50	6276	456			261	57
2025-11-09T23:51	6365	450			260	59
2025-11-09T23:51	6430	446	-19.3	-36.6		
2025-11-09T23:51	6472	444			258	56
2025-11-09T23:52	6805	424	-21.3	-36.5	256	60
2025-11-09T23:52	6976	415	-21.3	-38.8		
2025-11-09T23:53	7036	411			251	66
2025-11-09T23:53	7131	406			252	62
2025-11-09T23:53	7181	403	-22.8	-36.0		
2025-11-09T23:53	7292	397	-23.0	-43.2		
2025-11-09T23:53	7335	395			252	67
2025-11-09T23:54	7481	387			256	65
2025-11-09T23:54	7620	380	-25.0	-51.0		
2025-11-09T23:55	7823	369			258	65
2025-11-09T23:55	7972	362	-27.9	-52.1		
2025-11-09T23:55	7979	361			261	66
2025-11-09T23:55	8163	352			257	75
2025-11-09T23:56	8214	350	-27.9	-52.1		
2025-11-09T23:56	8449	338	-29.5	-49.9		
2025-11-09T23:56	8469	337			256	76
2025-11-09T23:57	8587	332	-30.2	-51.2		
2025-11-09T23:57	8641	329			257	79
2025-11-09T23:57	8746	325	-31.0	-53.6		
2025-11-09T23:58	9004	313			258	79
2025-11-09T23:58	9170	306	-33.2	-57.4		
2025-11-09T23:59	9417	295			262	77
2025-11-09T23:59	9437	294	-34.8	-58.6		
2025-11-10T00:00	9834	278	-37.6	-60.8		
2025-11-10T00:00	9841	277			264	78
2025-11-10T00:00	10127	266			266	80
2025-11-10T00:01	10324	259	-39.2	-63.3		
2025-11-10T00:01	10509	252	-40.0	-63.9		
2025-11-10T00:01	10536	251			267	81
2025-11-10T00:02	10948	236	-43.4			
2025-11-10T00:02	10955	236			268	80
2025-11-10T00:03	11365	222			270	79
2025-11-10T00:04	11780	208			269	77
2025-11-10T00:05	12221	195			269	77
2025-11-10T00:06	12650	182			269	74
2025-11-10T00:07	12785	178	-54.1			
2025-11-10T00:07	13049	171			264	72
2025-11-10T00:07	13089	170	-55.3			
2025-11-10T00:08	13434	161			264	74
2025-11-10T00:09	13810	152			267	75
2025-11-10T00:10	14207	142			266	77
2025-11-10T00:11	14324	139	-65.2			
2025-11-10T00:11	14571	134			270	73
2025-11-10T00:12	14729	130	-66.7			
2025-11-10T00:12	14914	127			273	68
2025-11-10T00:13	15031	124	-67.6			
2025-11-10T00:13	15203	121			273	65
2025-11-10T00:14	15298	119	-68.2			
2025-11-10T00:14	15494	115			280	63
2025-11-10T00:14	15510	115	-68.2			
2025-11-10T00:15	15804	109			278	57
2025-11-10T00:15	15881	108	-69.9			
2025-11-10T00:16	16107	104			276	55
2025-11-10T00:17	16352	99	-69.9			
2025-11-10T00:17	16422	98			277	51
2025-11-10T00:18	16737	93	-71.5			
2025-11-10T00:18	16754	93			272	47
2025-11-10T00:19	17040	89			259	42
2025-11-10T00:19	17117	87	-68.3			
2025-11-10T00:20	17312	85			248	40
2025-11-10T00:20	17487	82	-68.3			
2025-11-10T00:21	17626	80	-67.8			
2025-11-10T00:21	17635	80			251	45
2025-11-10T00:21	17740	79	-66.1			
2025-11-10T00:21	17928	76			265	38
2025-11-10T00:22	18096	74	-64.1			
2025-11-10T00:22	18121	74			267	33
2025-11-10T00:22	18214	73	-61.3			
2025-11-10T00:22	18350	71			272	24
2025-11-10T00:23	18528	69			267	21
2025-11-10T00:23	18636	68	-62.0			
2025-11-10T00:24	18869	66			263	22
2025-11-10T00:24	18904	65	-62.9			
2025-11-10T00:25	19174	62			269	22
2025-11-10T00:25	19214	62	-64.0			
2025-11-10T00:25	19356	61	-62.0			
2025-11-10T00:26	19512	59			290	22
2025-11-10T00:27	19867	56			285	16
2025-11-10T00:27	20054	54			291	13
2025-11-10T00:28	20113	54	-63.5			
2025-11-10T00:28	20338	52			275	11
2025-11-10T00:29	20492	50	-63.7			
2025-11-10T00:29	20589	50	-60.5			
2025-11-10T00:29	20628	49			240	14
2025-11-10T00:30	20900	47			267	21
2025-11-10T00:31	21203	45			264	10
2025-11-10T00:31	21299	44	-57.4			
2025-11-10T00:31	21401	44			239	11
2025-11-10T00:32	21743	41			253	8
2025-11-10T00:33	22010	40			256	7
2025-11-10T00:33	22154	39	-58.3			
2025-11-10T00:34	22236	38			262	7
2025-11-10T00:34	22337	38	-57.1		261	5
2025-11-10T00:34	22455	37			193	5
2025-11-10T00:35	22593	36			176	6
2025-11-10T00:35	22807	35			243	4
2025-11-10T00:36	22991	34	-55.1		262	3
2025-11-10T00:36	23144	33			291	1
2025-11-10T00:36	23261	33			152	3
2025-11-10T00:37	23419	32			166	5
2025-11-10T00:37	23501	31			209	3
2025-11-10T00:37	23541	31	-55.0			
2025-11-10T00:37	23561	31			232	3
2025-11-10T00:38	23686	30			154	1
2025-11-10T00:38	23839	30			250	3
2025-11-10T00:38	23924	29	-52.4			
2025-11-10T00:39	23970	29			248	3
2025-11-10T00:39	24242	28			327	5
2025-11-10T00:40	24475	27			346	8
2025-11-10T00:41	24724	26			46	3
2025-11-10T00:41	24895	25			146	3
2025-11-10T00:41	25077	25			183	4
2025-11-10T00:42	25238	24			184	4
2025-11-10T00:42	25343	24			201	2
2025-11-10T00:42	25399	23	-53.9			
2025-11-10T00:42	25456	23			125	3
2025-11-10T00:43	25624	23			147	1
2025-11-10T00:43	25827	22			301	3
2025-11-10T00:44	25914	22			306	3
2025-11-10T00:44	26003	21	-54.3			
2025-11-10T00:44	26033	21			11	3
2025-11-10T00:45	26283	20	-53.4		55	7
2025-11-10T00:45	26411	20			105	8
2025-11-10T00:45	26578	19			116	7
2025-11-10T00:46	26745	19	-53.9			
2025-11-10T00:46	26815	19			54	6
2025-11-10T00:46	26918	18	-51.0			
2025-11-10T00:46	26987	18			82	6
2025-11-10T00:47	27096	18			65	9
2025-11-10T00:47	27243	18			90	9
2025-11-10T00:48	27432	17			77	13
2025-11-10T00:48	27590	17	-50.0		74	8
2025-11-10T00:48	27749	16			61	9
2025-11-10T00:49	27912	16			75	15
2025-11-10T00:49	28080	15			61	15
2025-11-10T00:50	28261	15			66	15
2025-11-10T00:50	28482	15			59	13
2025-11-10T00:51	28670	14			53	18
2025-11-10T00:51	28716	14	-45.4			
2025-11-10T00:52	29110	13			61	17
2025-11-10T00:52	29264	13			58	20
2025-11-10T00:53	29475	13			74	19
2025-11-10T00:53	29531	12	-42.9			
2025-11-10T00:53	29800	12	-43.6		59	16
2025-11-10T11:33	26	1008	9.7	3.9	320	2
2025-11-10T11:33	34	1007	10.1	4.3	0	0
2025-11-10T11:33	65	1003	10.6	3.9	16	3
2025-11-10T11:33	96	999			318	5
2025-11-10T11:33	140	994	11.7	2.4		
2025-11-10T11:34	228	984			312	8
2025-11-10T11:34	386	965	10.1	1.2		
2025-11-10T11:34	525	949	9.5	-0.1		
2025-11-10T11:35	599	941			290	17
2025-11-10T11:35	739	925			291	17
2025-11-10T11:35	750	924	7.9	-1.6		
2025-11-10T11:36	968	899			293	20
2025-11-10T11:36	1172	877			294	19
2025-11-10T11:37	1301	863	3.9	-4.3		
2025-11-10T11:37	1420	851			299	16
2025-11-10T11:37	1445	848	3.3	-5.9		
2025-11-10T11:37	1596	833	2.4	-7.8		
2025-11-10T11:38	1804	811			304	19
2025-11-10T11:38	1875	804	1.0	-11.4		
2025-11-10T11:38	2022	790	1.1	-15.8		
2025-11-10T11:39	2167	776			313	22
2025-11-10T11:39	2185	774	1.6	-25.8		
2025-11-10T11:40	2386	755	1.3	-32.5		
2025-11-10T11:40	2403	753			310	24
2025-11-10T11:40	2470	747	1.9	-39.0		
2025-11-10T11:40	2570	738			313	21
2025-11-10T11:40	2628	732	1.0	-34.6		
2025-11-10T11:41	2714	725			316	22
2025-11-10T11:41	2869	711	0.0	-35.3		
2025-11-10T11:41	2880	710			308	22
2025-11-10T11:41	2919	706	0.6	-39.9		
2025-11-10T11:42	3047	695	0.5	-33.1		
2025-11-10T11:42	3172	684			305	24
2025-11-10T11:43	3364	668	-2.0	-33.4		
2025-11-10T11:43	3492	657			299	28
2025-11-10T11:43	3695	641			302	25
2025-11-10T11:44	4033	613			298	22
2025-11-10T11:45	4304	592			298	25
2025-11-10T11:45	4362	588	-9.7	-37.9		
2025-11-10T11:46	4632	568			291	27
2025-11-10T11:47	4913	547			294	31
2025-11-10T11:48	5097	534	-15.4	-45.0		
2025-11-10T11:48	5266	522			290	30
2025-11-10T11:49	5499	506			289	34
2025-11-10T11:50	5740	490	-19.4	-51.6		
2025-11-10T11:50	5825	484			288	35
2025-11-10T11:51	6106	466			286	41
2025-11-10T11:52	6445	445			291	46
2025-11-10T11:52	6666	432	-24.4	-53.4		
2025-11-10T11:53	6763	426			290	53
2025-11-10T11:53	7006	412			289	52
2025-11-10T11:53	7018	411	-26.9	-51.3		
2025-11-10T11:54	7175	403			284	53
2025-11-10T11:54	7220	400	-27.0	-53.8		
2025-11-10T11:54	7317	395	-26.5	-55.0	285	60
2025-11-10T11:54	7456	387	-26.7	-57.0		
2025-11-10T11:55	7659	376			284	62
2025-11-10T11:55	7739	372	-27.8	-50.1		
2025-11-10T11:56	7953	361	-29.2	-47.7		
2025-11-10T11:56	7959	361			282	72
2025-11-10T11:56	8038	357	-28.7	-47.3		
2025-11-10T11:57	8276	345	-30.2	-48.5		
2025-11-10T11:57	8323	343			278	72
2025-11-10T11:57	8376	340	-30.5	-50.0		
2025-11-10T11:57	8458	337			278	75
2025-11-10T11:57	8581	331			277	79
2025-11-10T11:58	8697	325	-32.8	-50.7		
2025-11-10T11:58	8822	320	-33.3	-53.0		
2025-11-10T11:58	8903	316			274	77
2025-11-10T11:58	8908	316	-33.3	-55.4		
2025-11-10T11:59	9109	307	-33.5	-57.6		
2025-11-10T11:59	9114	307			274	80
2025-11-10T11:59	9234	301	-34.4	-59.5		
2025-11-10T12:00	9512	290			274	80
2025-11-10T12:01	9899	274			273	80
2025-11-10T12:01	9932	273	-38.2	-65.5		
2025-11-10T12:02	10131	265			273	83
2025-11-10T12:02	10172	263	-40.0	-65.3		
2025-11-10T12:02	10395	255	-40.7			
2025-11-10T12:03	10545	249			273	82
2025-11-10T12:04	10944	235			275	81
2025-11-10T12:04	11073	230	-45.4			
2025-11-10T12:05	11329	222			276	80
2025-11-10T12:06	11712	209			274	80
2025-11-10T12:06	12050	198			275	80
2025-11-10T12:07	12215	193	-52.2			
2025-11-10T12:07	12447	187			274	79
2025-11-10T12:08	12602	182	-54.9			
2025-11-10T12:08	12753	178			274	81
2025-11-10T12:09	12923	173	-56.1			
2025-11-10T12:09	13134	168			274	85
2025-11-10T12:10	13485	158			277	89
2025-11-10T12:11	13646	154	-60.6			
2025-11-10T12:11	13773	151			280	87
2025-11-10T12:12	14083	144			280	82
2025-11-10T12:13	14433	136	-63.8			
2025-11-10T12:13	14439	136			281	79
2025-11-10T12:14	14750	129			282	72
2025-11-10T12:15	14986	124	-64.8			
2025-11-10T12:15	15102	122			285	67
2025-11-10T12:16	15307	118	-65.6			
2025-11-10T12:16	15421	116			286	57
2025-11-10T12:17	15546	113	-65.8			
2025-11-10T12:17	15709	110			279	51
2025-11-10T12:18	15921	106	-67.1			
2025-11-10T12:18	15966	106			274	50
2025-11-10T12:19	16102	103			271	51
2025-11-10T12:19	16283	100	-67.1			
2025-11-10T12:19	16318	100			275	51
2025-11-10T12:20	16440	98			274	46
2025-11-10T12:21	16815	92			279	42
2025-11-10T12:21	16829	92	-64.6			
2025-11-10T12:21	17055	88			276	34
2025-11-10T12:22	17331	84	-64.6			
2025-11-10T12:22	17441	83			282	30
2025-11-10T12:23	17811	78	-67.1			
2025-11-10T12:23	17821	78			268	31
2025-11-10T12:24	18114	74			265	39
2025-11-10T12:25	18253	72	-69.3		269	42
2025-11-11T00:38	26	1013	12.3	4.3	320	3
2025-11-11T00:38	32	1012	12.2	3.9	0	0
2025-11-11T00:38	58	1009			315	4
2025-11-11T00:38	185	994			308	6
2025-11-11T00:39	211	991	10.5	2.1		
2025-11-11T00:39	362	973			325	8
2025-11-11T00:39	368	972	9.7	1.1		
2025-11-11T00:39	529	954	8.4	0.4		
2025-11-11T00:40	606	945	8.4	-0.6		
2025-11-11T00:40	698	934	8.2	-1.6		
2025-11-11T00:40	720	932			307	11
2025-11-11T00:40	799	923	7.4	-2.3		
2025-11-11T00:40	875	915	7.0	-3.0		
2025-11-11T00:41	1055	895			290	9
2025-11-11T00:41	1146	885	5.1	-4.7		
2025-11-11T00:41	1206	878	5.3	-4.0		
2025-11-11T00:42	1264	872			267	12
2025-11-11T00:42	1280	870	4.8	-2.8		
2025-11-11T00:42	1454	852			252	11
2025-11-11T00:43	1676	829	1.6	-1.0		
2025-11-11T00:43	1775	819			238	10
2025-11-11T00:43	1832	813	0.4	-0.5		
2025-11-11T00:44	1891	807	1.1	-3.2		
2025-11-11T00:44	1939	802			248	13
2025-11-11T00:44	1952	801	2.6	-10.6		
2025-11-11T00:44	1990	797	3.4	-16.9		
2025-11-11T00:44	2071	789			259	16
2025-11-11T00:44	2204	776			259	16
2025-11-11T00:44	2243	773	2.9	-23.8		
2025-11-11T00:45	2426	755			259	16
2025-11-11T00:46	2811	720			272	18
2025-11-11T00:46	2893	712	-2.3	-32.2		
2025-11-11T00:47	3083	695	-3.7	-34.6		
2025-11-11T00:47	3166	688			284	24
2025-11-11T00:47	3203	685	-4.0	-34.9		
2025-11-11T00:47	3239	682	-3.8	-32.1		
2025-11-11T00:47	3275	679	-3.2	-31.7		
2025-11-11T00:48	3491	660			278	25
2025-11-11T00:48	3558	655	-4.8	-27.5		
2025-11-11T00:48	3603	651			275	22
2025-11-11T00:49	3854	631	-6.1	-32.9		
2025-11-11T00:49	3910	626			278	28
2025-11-11T00:49	4010	618			278	26
2025-11-11T00:50	4203	603			276	30
2025-11-11T00:51	4346	592			277	28
2025-11-11T00:51	4474	582			277	31
2025-11-11T00:51	4484	581	-10.0	-40.9		
2025-11-11T00:51	4592	573			278	38
2025-11-11T00:52	4674	567	-10.6	-43.1		
2025-11-11T00:52	4685	566			276	35
2025-11-11T00:52	4723	563	-10.9	-31.2		
2025-11-11T00:52	4769	560	-11.2	-22.4		
2025-11-11T00:52	4781	559			272	39
2025-11-11T00:52	4868	553	-12.1	-21.9		
2025-11-11T00:52	4921	549	-12.4	-29.8		
2025-11-11T00:53	5042	541			270	36
2025-11-11T00:53	5115	535	-14.1	-19.6		
2025-11-11T00:53	5165	532	-14.4	-17.4		
2025-11-11T00:53	5313	522	-15.4	-19.3		
2025-11-11T00:54	5381	517			267	32
2025-11-11T00:54	5482	510	-16.5	-18.7		
2025-11-11T00:54	5660	498			268	37
2025-11-11T00:55	5720	494	-17.7	-19.2		
2025-11-11T00:55	5846	486			269	37
2025-11-11T00:55	5967	478			267	36
2025-11-11T00:55	6051	473			271	34
2025-11-11T00:56	6176	465			273	39
2025-11-11T00:56	6302	457			270	36
2025-11-11T00:56	6339	454	-22.0	-23.3		
2025-11-11T00:57	6488	445			271	41
2025-11-11T00:58	6876	422			268	47
2025-11-11T00:58	7032	413	-25.8	-27.0		
2025-11-11T00:59	7286	399			266	48
2025-11-11T01:00	7692	377			265	50
2025-11-11T01:00	7752	374	-31.4	-32.7		
2025-11-11T01:01	8092	356			265	49
2025-11-11T01:01	8239	349	-35.7	-37.2		
2025-11-11T01:02	8445	338	-37.3	-38.2		
2025-11-11T01:02	8484	337			268	53
2025-11-11T01:02	8573	332	-38.3	-39.8		
2025-11-11T01:02	8685	327	-38.0	-50.8		
2025-11-11T01:02	8692	327			274	55
2025-11-11T01:02	8791	322	-37.1	-55.5		
2025-11-11T01:03	8848	319			276	61
2025-11-11T01:03	8906	317	-36.2	-57.7		
2025-11-11T01:03	8950	315			276	65
2025-11-11T01:03	9041	311			276	71
2025-11-11T01:03	9147	306	-35.0	-60.0		
2025-11-11T01:04	9367	296	-35.4	-63.4		
2025-11-11T01:04	9401	295			275	73
2025-11-11T01:05	9808	278			278	82
2025-11-11T01:06	10172	264	-38.1	-70.4		
2025-11-11T01:06	10220	262			278	83
2025-11-11T01:07	10448	253	-40.0	-68.9		
2025-11-11T01:07	10620	247			277	86
2025-11-11T01:07	10805	240	-42.1			
2025-11-11T01:08	11018	233			280	87
2025-11-11T01:09	11404	220			280	87
2025-11-11T01:09	11515	216	-46.0			
2025-11-11T01:09	11626	213			279	85
2025-11-11T01:10	11771	208	-47.0			
2025-11-11T01:11	12027	200			281	87
2025-11-11T01:12	12380	190			280	87
2025-11-11T01:13	12724	180			281	86
2025-11-11T01:13	13035	171	-56.3			
2025-11-11T01:13	13069	170			284	85
2025-11-11T01:14	13356	163			286	84
2025-11-11T01:14	13408	161	-58.4			
2025-11-11T01:15	13679	155			284	77
2025-11-11T01:16	13927	149	-61.1			
2025-11-11T01:16	13961	148			284	76
2025-11-11T01:17	14224	142	-62.6			
2025-11-11T01:17	14256	141			285	75
2025-11-11T01:18	14590	133			284	71
2025-11-11T01:19	14881	127	-66.0			
2025-11-11T01:19	14932	126			284	68
2025-11-11T01:20	15023	124	-66.5			
2025-11-11T01:20	15173	121	-67.3			
2025-11-11T01:20	15184	121			284	62
2025-11-11T01:21	15385	117			281	59
2025-11-11T01:22	15650	112			281	55
2025-11-11T01:22	15785	109	-67.1			
2025-11-11T01:23	15983	106			272	50
2025-11-11T01:23	16041	105	-67.1			
2025-11-11T01:24	16345	100			273	49
2025-11-11T01:25	16705	94			268	48
2025-11-11T01:25	16891	91			263	48
2025-11-11T01:25	16920	91	-71.0			
2025-11-11T01:26	17053	89	-69.1			
2025-11-11T01:26	17062	88			270	48
2025-11-11T01:27	17345	84			273	43
2025-11-11T01:27	17540	82	-68.6			
2025-11-11T01:28	17615	81			270	46
2025-11-11T01:28	17707	79	-70.1		269	47
2025-11-11T11:33	26	1016	5.8	5.1	100	1
2025-11-11T11:33	32	1015	6.3	5.4	0	0
2025-11-11T11:33	48	1013			152	3
2025-11-11T11:33	64	1011	9.2	2.3		
2025-11-11T11:33	76	1010			126	5
2025-11-11T11:33	93	1008	11.7	3.7		
2025-11-11T11:33	135	1003			45	3
2025-11-11T11:34	215	993	11.4	2.2		
2025-11-11T11:34	301	983			45	5
2025-11-11T11:34	387	973	10.4	1.7		
2025-11-11T11:34	423	969			45	3
2025-11-11T11:34	538	955			68	2
2025-11-11T11:35	894	915			140	1
2025-11-11T11:36	1050	898	5.0	0.4		
2025-11-11T11:36	1119	890			274	3
2025-11-11T11:36	1160	886	4.4	-1.0		
2025-11-11T11:36	1217	880			278	4
2025-11-11T11:37	1354	865			264	6
2025-11-11T11:37	1502	849			307	6
2025-11-11T11:37	1529	846	1.3	-3.2		
2025-11-11T11:38	1660	833	0.1	-4.2		
2025-11-11T11:38	1732	825			301	11
2025-11-11T11:38	1769	821	-0.6	-6.6		
2025-11-11T11:38	1902	808	-1.5	-7.8		
2025-11-11T11:38	1917	806			307	14
2025-11-11T11:39	2139	784	-2.2	-13.7		
2025-11-11T11:39	2248	773	-2.6	-16.7		
2025-11-11T11:39	2332	765			297	17
2025-11-11T11:39	2350	764	-2.0	-24.5		
2025-11-11T11:39	2441	755	-1.7	-30.5		
2025-11-11T11:40	2501	749	-0.7	-35.8		
2025-11-11T11:40	2631	737	-0.5	-37.9		
2025-11-11T11:40	2681	733			288	17
2025-11-11T11:41	2821	720	-1.1	-36.1		
2025-11-11T11:41	2911	712			294	19
2025-11-11T11:42	3194	687			297	19
2025-11-11T11:42	3236	683	-4.1	-38.3		
2025-11-11T11:42	3321	676			289	22
2025-11-11T11:42	3387	670	-4.5	-38.6		
2025-11-11T11:42	3475	663			286	23
2025-11-11T11:43	3711	643	-6.7	-42.3		
2025-11-11T11:43	3812	635			291	25
2025-11-11T11:44	3990	620			294	24
2025-11-11T11:44	4013	618	-7.9	-43.2		
2025-11-11T11:45	4239	601	-9.6	-44.4		
2025-11-11T11:45	4349	592			291	25
2025-11-11T11:45	4522	579			287	26
2025-11-11T11:46	4752	562	-12.8	-49.3		
2025-11-11T11:46	4771	560			286	29
2025-11-11T11:47	5005	543			284	30
2025-11-11T11:48	5382	517	-16.8	-52.1		
2025-11-11T11:48	5388	516			286	33
2025-11-11T11:48	5624	500	-18.3	-43.5		
2025-11-11T11:49	5717	494			281	36
2025-11-11T11:49	5881	483			278	38
2025-11-11T11:50	6109	469			278	39
2025-11-11T11:50	6203	463	-23.4	-35.5		
2025-11-11T11:50	6272	458	-23.3	-41.6		
2025-11-11T11:51	6424	449			282	43
2025-11-11T11:51	6468	446	-23.4	-47.5		
2025-11-11T11:51	6593	439	-23.7	-51.3		
2025-11-11T11:52	6745	430			280	45
2025-11-11T11:52	6918	419	-24.5	-53.5		
2025-11-11T11:52	6935	419			278	50
2025-11-11T11:53	7204	403	-26.2	-53.2		
2025-11-11T11:53	7247	401			274	53
2025-11-11T11:54	7419	391	-27.4	-54.2		
2025-11-11T11:54	7513	386	-27.2	-55.5		
2025-11-11T11:54	7531	385			268	57
2025-11-11T11:55	7821	370			266	59
2025-11-11T11:55	7884	367	-30.1	-56.2		
2025-11-11T11:55	7996	361	-30.4	-56.5		
2025-11-11T11:56	8206	350	-29.7	-57.4		
2025-11-11T11:56	8241	349			274	68
2025-11-11T11:56	8365	343	-29.9	-57.5		
2025-11-11T11:56	8515	336	-28.3	-60.4		
2025-11-11T11:56	8614	331	-27.7	-63.1		
2025-11-11T11:57	8645	330			273	75
2025-11-11T11:57	9023	313	-30.3	-61.9		
2025-11-11T11:58	9094	309			273	81
2025-11-11T11:58	9302	301	-31.3	-65.6		
2025-11-11T11:58	9457	294			274	82
2025-11-11T11:59	9577	289	-32.4	-66.4		
2025-11-11T11:59	9746	282	-33.0	-63.8		
2025-11-11T11:59	9847	278			276	85
2025-11-11T12:00	10241	263			275	89
2025-11-11T12:01	10358	259	-36.7	-64.4		
2025-11-11T12:01	10639	248			277	87
2025-11-11T12:02	10807	242	-40.0	-68.9		
2025-11-11T12:02	11028	234			280	88
2025-11-11T12:03	11410	221			279	87
2025-11-11T12:04	11698	212	-46.4			
2025-11-11T12:04	11725	211			279	88
2025-11-11T12:05	12123	199			281	90
2025-11-11T12:06	12517	187			284	89
2025-11-11T12:07	12858	178			286	91
2025-11-11T12:08	13177	169	-56.7			
2025-11-11T12:08	13182	169			288	87
2025-11-11T12:09	13473	161			287	81
2025-11-11T12:10	13761	154			287	76
2025-11-11T12:11	14073	146			287	73
2025-11-11T12:11	14157	144	-61.2			
2025-11-11T12:12	14392	139			291	70
2025-11-11T12:13	14701	132			291	62
2025-11-11T12:14	15009	126			286	55
2025-11-11T12:15	15128	123	-65.8			
2025-11-11T12:15	15320	119			283	53
2025-11-11T12:16	15602	114	-67.5			
2025-11-11T12:16	15640	113			289	51
2025-11-11T12:17	15991	107			278	46
2025-11-11T12:17	16055	106	-69.4			
2025-11-11T12:18	16301	101			271	47
2025-11-11T12:19	16490	98	-71.2			
2025-11-11T12:19	16526	98			269	50
2025-11-11T12:19	16580	97	-69.5			
2025-11-11T12:19	16665	95			268	48
2025-11-11T12:20	16982	90			264	51
2025-11-11T12:20	17002	90	-71.5			
2025-11-11T12:21	17343	85			270	51
2025-11-11T12:21	17441	84	-72.9			
2025-11-11T12:22	17577	82			279	51
2025-11-11T12:22	17613	81	-71.4			
2025-11-11T12:23	17782	79			271	47
2025-11-11T12:23	17926	77	-69.1			
2025-11-11T12:23	18006	76			282	47
2025-11-11T12:23	18061	75	-65.9			
2025-11-11T12:24	18283	73			289	38
2025-11-11T12:24	18300	72	-64.3			
2025-11-11T12:24	18377	72	-59.8			
2025-11-11T12:24	18393	71			285	30
2025-11-11T12:25	18653	68	-60.3			
2025-11-11T12:25	18745	67			275	27
2025-11-11T12:26	19097	64			282	26
2025-11-11T12:27	19106	64	-62.5			
2025-11-11T12:28	19434	60			287	27
2025-11-11T12:28	19692	58			292	25
2025-11-11T12:28	19703	58	-65.8			
2025-11-11T12:29	19895	56			289	20
2025-11-11T12:30	20103	54	-66.6			
2025-11-11T12:30	20235	53			272	19
2025-11-11T12:31	20471	51	-68.5			
2025-11-11T12:31	20531	50			266	20
2025-11-11T12:32	20823	48			287	27
2025-11-11T12:32	20898	47	-66.1			
2025-11-11T12:33	21150	45	-61.6		288	17
2025-11-11T12:34	21473	43			274	16
2025-11-11T12:34	21589	42	-60.8			
2025-11-11T12:34	21709	42	-57.4			
2025-11-11T12:34	21756	41			250	19
2025-11-11T12:35	22039	39	-58.3			
2025-11-11T12:35	22118	39			289	12
2025-11-11T12:36	22185	39	-57.1			
2025-11-11T12:36	22468	37			299	4
2025-11-11T12:37	22574	36			335	2
2025-11-11T12:37	22768	35			222	3
2025-11-11T12:38	22878	35			208	5
2025-11-11T12:38	22990	34			245	7
2025-11-11T12:38	23065	34	-56.2			
2025-11-11T12:39	23315	32	-56.8		219	10
2025-11-11T12:39	23416	32	-52.7			
2025-11-11T12:40	23581	31			266	9
2025-11-11T12:40	23859	30			259	5
2025-11-11T12:41	24015	29			227	4
2025-11-11T12:42	24289	28	-53.6			
2025-11-11T12:42	24311	28			297	5
2025-11-11T12:42	24499	27			303	5
2025-11-11T12:43	24794	26			314	6
2025-11-11T12:43	24868	25			345	3
2025-11-11T12:43	24948	25			46	3
2025-11-11T12:44	25318	24			275	2
2025-11-11T12:45	25484	23	-53.8			
2025-11-11T12:45	25567	23			142	2
2025-11-11T12:46	25916	22			306	6
2025-11-11T12:46	26008	21			347	5
2025-11-11T12:46	26038	21			4	4
2025-11-11T12:46	26070	21	-51.8			
2025-11-11T12:47	26290	20			83	6
2025-11-11T12:47	26417	20			63	2
2025-11-11T12:48	26549	20			311	3
2025-11-11T12:48	26681	19			351	6
2025-11-11T12:48	26817	19	-52.0			
2025-11-11T12:49	26959	18			1	9
2025-11-11T12:49	27210	18			34	7
2025-11-11T12:50	27359	17			360	8
2025-11-11T12:50	27473	17			357	12
2025-11-11T12:50	27513	17	-50.7			
2025-11-11T12:50	27592	17			360	10
2025-11-11T12:51	27792	16			13	8
2025-11-11T12:51	28036	16			25	16
2025-11-11T12:52	28251	15			44	9
2025-11-11T12:52	28337	15	-52.6			
2025-11-11T12:52	28514	14			7	14
2025-11-11T12:53	28560	14	-51.0			
2025-11-11T12:53	28931	14			29	20
2025-11-11T12:54	29029	13			33	23
2025-11-11T12:54	29178	13			31	17
2025-11-11T12:55	29327	13			32	17
2025-11-11T12:55	29483	12	-50.8			
2025-11-11T12:55	29532	12	-50.6		44	16
2025-11-11T23:33	26	1022	10.6	2.7	80	1
2025-11-11T23:33	32	1021	10.4	2.2	0	0
2025-11-11T23:33	71	1017			76	4
2025-11-11T23:33	187	1002			80	2
2025-11-11T23:34	232	997	8.5	-0.8		
2025-11-11T23:34	260	994			70	4
2025-11-11T23:34	323	986	7.9	-1.6		
2025-11-11T23:34	351	983			39	6
2025-11-11T23:34	461	970	7.4	-1.8		
2025-11-11T23:35	541	960			66	5
2025-11-11T23:35	759	935			46	7
2025-11-11T23:35	873	922	4.4	-3.6		
2025-11-11T23:36	932	915			54	4
2025-11-11T23:36	1008	907			59	4
2025-11-11T23:36	1095	897			102	4
2025-11-11T23:36	1219	883	1.9	-4.4		
2025-11-11T23:36	1236	881			130	5
2025-11-11T23:37	1311	873	1.8	-5.6		
2025-11-11T23:37	1352	869			163	6
2025-11-11T23:37	1466	857			145	4
2025-11-11T23:37	1477	855	1.2	-8.6		
2025-11-11T23:38	1621	840			177	3
2025-11-11T23:38	1655	837	0.4	-11.3		
2025-11-11T23:38	1694	833	1.9	-15.1		
2025-11-11T23:38	1706	831			96	3
2025-11-11T23:38	1827	819			156	6
2025-11-11T23:39	1949	807			146	5
2025-11-11T23:39	1972	804	1.0	-19.5		
2025-11-11T23:39	2048	797			230	3
2025-11-11T23:39	2120	790	1.7	-23.0		
2025-11-11T23:39	2137	788			301	4
2025-11-11T23:40	2298	772			320	6
2025-11-11T23:40	2340	768	0.9	-27.4		
2025-11-11T23:40	2445	758	1.2	-34.4		
2025-11-11T23:40	2457	757			309	9
2025-11-11T23:40	2475	756	2.2	-38.8		
2025-11-11T23:40	2592	745	2.7	-38.4		
2025-11-11T23:40	2609	743			322	9
2025-11-11T23:41	2758	729			297	8
2025-11-11T23:41	2791	726	1.6	-39.2		
2025-11-11T23:41	2927	714			311	6
2025-11-11T23:42	3203	690			313	4
2025-11-11T23:43	3283	683			292	2
2025-11-11T23:43	3368	676			306	3
2025-11-11T23:43	3483	666			324	6
2025-11-11T23:44	3713	647	-5.7	-34.8	297	8
2025-11-11T23:45	3983	625			301	12
2025-11-11T23:45	4097	616	-7.9	-36.5		
2025-11-11T23:45	4109	615			286	12
2025-11-11T23:46	4315	599			297	14
2025-11-11T23:46	4577	578			290	14
2025-11-11T23:47	4736	567			291	16
2025-11-11T23:47	4875	556	-14.3	-40.4		
2025-11-11T23:48	5027	545			278	17
2025-11-11T23:49	5346	523			277	17
2025-11-11T23:49	5515	511			279	17
2025-11-11T23:50	5774	493			285	18
2025-11-11T23:50	5791	492	-22.0	-51.6		
2025-11-11T23:50	5882	486			288	21
2025-11-11T23:51	6149	469	-24.8	-50.8		
2025-11-11T23:51	6165	468			286	21
2025-11-11T23:52	6388	453	-26.4	-52.1		
2025-11-11T23:52	6450	449			290	22
2025-11-11T23:52	6475	448	-26.1	-51.8		
2025-11-11T23:52	6575	442	-25.8	-51.6		
2025-11-11T23:52	6623	439	-24.7	-55.5		
2025-11-11T23:53	6672	436			289	31
2025-11-11T23:53	6901	422			291	39
2025-11-11T23:53	6985	418	-25.4	-54.1		
2025-11-11T23:54	7042	414			289	40
2025-11-11T23:54	7125	410	-26.0	-53.1		
2025-11-11T23:54	7188	406			285	45
2025-11-11T23:54	7202	405	-25.0	-53.8		
2025-11-11T23:54	7342	398			282	43
2025-11-11T23:54	7445	392	-26.0	-54.6		
2025-11-11T23:55	7586	384			281	47
2025-11-11T23:55	7648	381	-26.7	-55.1		
2025-11-11T23:55	7758	375			282	52
2025-11-11T23:56	8014	362	-26.3	-56.7		
2025-11-11T23:56	8067	360			281	65
2025-11-11T23:57	8274	349	-27.4	-57.5		
2025-11-11T23:57	8365	345			279	71
2025-11-11T23:57	8439	341	-28.2	-56.3		
2025-11-11T23:57	8572	335	-28.3	-56.3		
2025-11-11T23:58	8643	332			277	80
2025-11-11T23:59	9009	315	-31.7	-55.1		
2025-11-11T23:59	9059	313			279	82
2025-11-11T23:59	9235	305	-32.1	-57.8		
2025-11-12T00:00	9487	295			280	82
2025-11-12T00:00	9841	280			281	80
2025-11-12T00:01	9922	277	-35.9	-62.1		
2025-11-12T00:01	10213	265	-37.2	-63.1		
2025-11-12T00:01	10263	263			280	81
2025-11-12T00:02	10681	248			279	81
2025-11-12T00:03	10722	246	-40.0	-65.3		
2025-11-12T00:03	11105	233			279	81
2025-11-12T00:04	11392	223	-44.6			
2025-11-12T00:04	11528	219			280	82
2025-11-12T00:06	11955	205			283	83
2025-11-12T00:06	12369	192			287	83
2025-11-12T00:07	12683	183	-54.4			
2025-11-12T00:07	12696	183			289	82
2025-11-12T00:08	13081	172			291	80
2025-11-12T00:09	13267	167	-57.6			
2025-11-12T00:09	13457	162			292	73
2025-11-12T00:10	13753	155			293	70
2025-11-12T00:10	13785	154	-60.1			
2025-11-12T00:11	14141	145			284	65
2025-11-12T00:12	14505	137			282	63
2025-11-12T00:12	14549	136	-63.9			
2025-11-12T00:13	14859	129			287	58
2025-11-12T00:14	15046	125			284	55
2025-11-12T00:14	15225	122	-67.5			
2025-11-12T00:15	15349	119			280	55
2025-11-12T00:15	15539	115	-66.8			
2025-11-12T00:16	15695	112			275	53
2025-11-12T00:17	16015	107			273	55
2025-11-12T00:17	16073	106	-70.7			
2025-11-12T00:18	16337	101			279	54
2025-11-12T00:18	16409	100	-70.9			
2025-11-12T00:18	16529	98	-69.4			
2025-11-12T00:19	16668	95			287	43
2025-11-12T00:20	17019	90			287	43
2025-11-12T00:20	17025	90	-71.3			
2025-11-12T00:20	17251	87			289	40
2025-11-12T00:21	17312	86	-71.4			
2025-11-12T00:21	17534	83			282	35
2025-11-12T00:22	17777	79			271	31
2025-11-12T00:22	17919	77	-72.5			
2025-11-12T00:22	18029	76	-71.5			
2025-11-12T00:22	18075	75			265	33
2025-11-12T00:23	18383	71			279	28
2025-11-12T00:23	18441	71	-70.3			
2025-11-12T00:24	18576	69			271	29
2025-11-12T00:24	18691	68	-70.6			
2025-11-12T00:24	18717	68			278	32
2025-11-12T00:25	18915	65			292	20
2025-11-12T00:25	18959	65	-66.3			
2025-11-12T00:26	19237	62			284	18
2025-11-12T00:27	19498	59	-67.7			
2025-11-12T00:27	19537	59			283	25
2025-11-12T00:28	19765	57	-67.6			
2025-11-12T00:28	19848	56	-66.9			
2025-11-12T00:28	19871	56			305	27
2025-11-12T00:29	20176	53			292	21
2025-11-12T00:29	20262	52	-66.5			
2025-11-12T00:30	20468	51			293	21
2025-11-12T00:30	20672	49			279	22
2025-11-12T00:31	20912	47	-67.1			
2025-11-12T00:31	20923	47			283	26
2025-11-12T00:32	21215	45			279	21
2025-11-12T00:32	21243	44	-66.6			
2025-11-12T00:32	21423	43			275	21
2025-11-12T00:32	21437	43	-64.6			
2025-11-12T00:33	21583	42	-59.0			
2025-11-12T00:33	21615	42			298	24
2025-11-12T00:33	21751	41			312	19
2025-11-12T00:34	21844	40	-52.4			
2025-11-12T00:34	21879	40			334	12
2025-11-12T00:35	22155	38			340	7
2025-11-12T00:35	22309	38			340	5
2025-11-12T00:36	22605	36			348	3
2025-11-12T00:36	22802	35	-59.4			
2025-11-12T00:36	22852	34			30	6
2025-11-12T00:37	23021	34			338	2
2025-11-12T00:37	23207	33			280	5
2025-11-12T00:37	23228	32	-60.0			
2025-11-12T00:38	23385	32	-58.1			
2025-11-12T00:38	23547	31			323	6
2025-11-12T00:39	23776	30			323	9
2025-11-12T00:39	23818	30	-57.1			
2025-11-12T00:40	24082	28	-55.7		317	6
2025-11-12T00:41	24404	27			38	7
2025-11-12T00:41	24545	26			57	1
2025-11-12T00:41	24647	26	-55.8			
2025-11-12T00:42	24868	25	-55.8			
2025-11-12T00:42	24946	25			305	1
2025-11-12T00:42	25102	24	-54.8		61	3
2025-11-12T00:43	25210	24			84	4
2025-11-12T00:43	25404	23			344	3
2025-11-12T00:44	25660	22			23	7
2025-11-12T00:44	25717	22	-55.1			
2025-11-12T00:45	26072	21			90	9
2025-11-12T00:45	26232	20	-56.1			
2025-11-12T00:46	26293	20			135	3
2025-11-12T00:46	26423	20			12	3
2025-11-12T00:46	26520	19	-54.0			
2025-11-12T00:47	26655	19			354	3
2025-11-12T00:47	26790	19			170	3
2025-11-12T00:47	26898	18			184	3
2025-11-12T00:47	26931	18	-53.6			
2025-11-12T00:48	27112	18			342	4
2025-11-12T00:48	27335	17			57	1
2025-11-12T00:49	27448	17			109	3
2025-11-12T00:49	27529	17			106	4
2025-11-12T00:49	27687	16			45	8
2025-11-12T00:49	27767	16	-53.1			
2025-11-12T00:50	27972	15			42	16
2025-11-12T00:50	28228	15			40	11
2025-11-12T00:51	28447	14	-53.2			
2025-11-12T00:51	28541	14			14	9
2025-11-12T00:52	28724	14			23	13
2025-11-12T00:52	28917	13	-52.5			
2025-11-12T00:53	29165	13			351	10
2025-11-12T00:53	29480	12			38	15
2025-11-12T00:54	29695	12	-50.1			
2025-11-12T00:54	29750	12			31	14
2025-11-12T00:55	29921	11			35	13
2025-11-12T00:55	30099	11	-47.3			
2025-11-12T00:56	30278	11			26	17
2025-11-12T00:56	30338	11	-46.7		31	16
2025-11-12T11:33	26	1020	6.6	4.9	40	0
2025-11-12T11:33	33	1019	7.1	5.2	0	0
2025-11-12T11:33	81	1013	10.4	2.5		
2025-11-12T11:33	103	1010	12.4	3.6		
2025-11-12T11:33	142	1006			157	3
2025-11-12T11:34	273	990			195	4
2025-11-12T11:34	353	981	10.9	2.2		
2025-11-12T11:34	429	972			172	5
2025-11-12T11:34	463	968	10.1	2.5		
2025-11-12T11:35	607	951			185	7
2025-11-12T11:36	946	912			189	7
2025-11-12T11:36	1034	903	4.8	-0.2		
2025-11-12T11:36	1116	894	4.3	-1.1	209	6
2025-11-12T11:37	1225	882	3.6	-1.2	219	7
2025-11-12T11:37	1274	876	3.6	3.2		
2025-11-12T11:37	1438	859			231	7
2025-11-12T11:37	1496	853	2.0	0.2		
2025-11-12T11:38	1593	843			224	3
2025-11-12T11:38	1633	838	3.1	-21.1		
2025-11-12T11:38	1689	833	3.5	-18.0		
2025-11-12T11:38	1694	832			265	5
2025-11-12T11:38	1772	824	4.1	-19.5		
2025-11-12T11:38	1798	821			236	3
2025-11-12T11:38	1873	814	4.2	-28.7		
2025-11-12T11:39	1984	803			196	6
2025-11-12T11:39	2124	789	4.7	-28.3		
2025-11-12T11:39	2203	782	4.4	-25.8		
2025-11-12T11:40	2249	777			249	8
2025-11-12T11:40	2393	764			251	8
2025-11-12T11:40	2515	752			271	7
2025-11-12T11:41	2716	733	1.1	-24.3		
2025-11-12T11:41	2854	721			264	11
2025-11-12T11:42	3158	694	-1.7	-29.4		
2025-11-12T11:42	3185	692			270	10
2025-11-12T11:43	3508	664			265	10
2025-11-12T11:43	3542	661	-3.8	-38.1		
2025-11-12T11:44	3718	646			264	14
2025-11-12T11:45	3990	624	-7.0	-35.8		
2025-11-12T11:45	4069	618			273	16
2025-11-12T11:45	4180	609	-8.3	-30.4		
2025-11-12T11:45	4223	606	-8.6	-25.6		
2025-11-12T11:46	4277	601			273	16
2025-11-12T11:46	4295	600	-9.0	-28.5		
2025-11-12T11:46	4356	595	-9.3	-27.6		
2025-11-12T11:46	4416	591	-9.8	-21.5		
2025-11-12T11:46	4493	585	-10.4	-20.9		
2025-11-12T11:46	4593	577	-11.2	-20.5		
2025-11-12T11:47	4634	574			273	18
2025-11-12T11:47	4651	573	-11.0	-28.6		
2025-11-12T11:47	4878	556	-10.8	-43.2		
2025-11-12T11:48	4984	548			271	19
2025-11-12T11:48	5217	532			275	22
2025-11-12T11:48	5257	529	-13.3	-32.6		
2025-11-12T11:49	5560	508			272	23
2025-11-12T11:50	5762	495			279	25
2025-11-12T11:50	5882	487	-18.2	-32.3		
2025-11-12T11:50	5912	485			279	29
2025-11-12T11:51	6164	469			284	30
2025-11-12T11:51	6182	468	-19.9	-42.9		
2025-11-12T11:51	6283	462	-19.9	-47.0		
2025-11-12T11:52	6531	446			292	34
2025-11-12T11:52	6543	446	-20.3	-50.3		
2025-11-12T11:53	6906	424			291	36
2025-11-12T11:53	6918	423	-22.4	-50.3		
2025-11-12T11:53	7029	417	-22.5	-52.0		
2025-11-12T11:53	7066	415			290	37
2025-11-12T11:53	7092	413	-21.9	-46.3		
2025-11-12T11:54	7207	407	-22.7	-43.6		
2025-11-12T11:54	7317	401	-23.7	-40.9		
2025-11-12T11:54	7373	398	-24.3	-38.4		
2025-11-12T11:54	7436	395	-24.8	-33.1		
2025-11-12T11:54	7457	393			293	44
2025-11-12T11:55	7709	380	-26.7	-30.8		
2025-11-12T11:55	7852	373			292	55
2025-11-12T11:56	7966	367	-26.6	-29.0		
2025-11-12T11:56	8253	352			280	63
2025-11-12T11:56	8320	349	-26.2	-27.8		
2025-11-12T11:57	8402	345	-24.9	-26.6		
2025-11-12T11:57	8436	344			274	69
2025-11-12T11:57	8739	329	-27.4	-27.4		
2025-11-12T11:58	8810	326			269	73
2025-11-12T11:58	8908	322	-27.8	-28.2		
2025-11-12T11:59	9201	309			271	74
2025-11-12T11:59	9421	299	-31.7	-32.6		
2025-11-12T12:00	9614	291			270	74
2025-11-12T12:00	9661	289	-33.6	-34.1		
2025-11-12T12:00	9849	282	-35.0	-35.9		
2025-11-12T12:01	10018	275			271	75
2025-11-12T12:01	10189	268	-38.0	-39.0		
2025-11-12T12:02	10416	259			271	75
2025-11-12T12:02	10459	258	-40.0	-41.1		
2025-11-12T12:03	10745	247	-41.7			
2025-11-12T12:03	10751	247			273	78
2025-11-12T12:03	10958	240	-42.8			
2025-11-12T12:04	11145	233			277	75
2025-11-12T12:04	11340	226	-45.3			
2025-11-12T12:04	11400	224			281	75
2025-11-12T12:05	11603	218	-46.0			
2025-11-12T12:05	11706	214			282	73
2025-11-12T12:06	12037	204			281	75
2025-11-12T12:06	12112	201	-49.6			
2025-11-12T12:07	12379	193			282	76
2025-11-12T12:08	12711	184			283	73
2025-11-12T12:08	12757	182	-54.3			
2025-11-12T12:09	13027	175			287	70
2025-11-12T12:10	13320	167			287	70
2025-11-12T12:10	13330	167	-57.7			
2025-11-12T12:11	13613	159			287	68
2025-11-12T12:11	13744	156			285	65
2025-11-12T12:12	14001	150			285	64
2025-11-12T12:12	14076	148	-61.4			
2025-11-12T12:13	14201	145			281	58
2025-11-12T12:13	14242	144	-61.6			
2025-11-12T12:14	14510	138			279	58
2025-11-12T12:14	14666	134			274	53
2025-11-12T12:14	14694	134	-63.2			
2025-11-12T12:15	14969	128			274	53
2025-11-12T12:16	15277	122			273	50
2025-11-12T12:17	15599	115			273	50
2025-11-12T12:18	15882	110	-72.3			
2025-11-12T12:18	15918	109			274	48
2025-11-12T12:19	16237	103			280	46
2025-11-12T12:19	16302	102	-73.8			
2025-11-12T12:20	16471	99			282	43
2025-11-12T12:20	16479	99	-73.3			
2025-11-12T12:20	16567	98	-72.1			
2025-11-12T12:21	16745	95			273	40
2025-11-12T12:21	16764	94	-71.4			
2025-11-12T12:21	16945	92			263	38
2025-11-12T12:22	17261	87	-73.0			
2025-11-12T12:22	17267	87			265	42
2025-11-12T12:23	17641	81			275	35
2025-11-12T12:24	17933	77	-74.5			
2025-11-12T12:24	17949	77			277	37
2025-11-12T12:25	18179	74	-74.5			
2025-11-12T12:25	18261	73			290	38
2025-11-12T12:26	18374	72	-70.9			
2025-11-12T12:26	18399	71			292	37
2025-11-12T12:26	18577	69	-69.9			
2025-11-12T12:26	18628	69			296	36
2025-11-12T12:27	18752	67			285	32
2025-11-12T12:27	18844	66	-67.4			
2025-11-12T12:27	18907	66			284	35
2025-11-12T12:28	19161	63			308	32
2025-11-12T12:28	19228	62	-66.1			
2025-11-12T12:29	19427	60			290	23
2025-11-12T12:29	19519	59	-65.1			
2025-11-12T12:30	19666	58			290	27
2025-11-12T12:30	19873	56	-63.8			
2025-11-12T12:31	19894	56			313	24
2025-11-12T12:31	20210	53			305	16
2025-11-12T12:32	20244	53	-63.0			
2025-11-12T12:33	20544	50			291	12
2025-11-12T12:33	20677	49	-63.0			
2025-11-12T12:33	20856	48			281	13
2025-11-12T12:34	20921	47	-62.4			
2025-11-12T12:35	21189	45			260	12
2025-11-12T12:35	21339	44	-62.3		273	13
2025-11-12T12:35	21468	43	-60.2			
2025-11-12T12:36	21689	42			288	13
2025-11-12T12:37	21950	40			307	12
2025-11-12T12:37	22136	39			278	9
2025-11-12T12:37	22232	38	-60.7			
2025-11-12T12:38	22281	38			272	14
2025-11-12T12:38	22434	37	-58.6			
2025-11-12T12:39	22656	36			279	14
2025-11-12T12:40	23036	34			289	13
2025-11-12T12:40	23285	32	-59.1			
2025-11-12T12:41	23400	32			314	14
2025-11-12T12:42	23748	30			334	13
2025-11-12T12:42	23959	29	-57.3			
2025-11-12T12:43	24073	29			339	13
2025-11-12T12:43	24161	28	-56.0			
2025-11-12T12:43	24344	27			315	7
2025-11-12T12:44	24629	26			325	12
2025-11-12T12:45	24802	25			330	11
2025-11-12T12:45	24901	25	-56.0			
2025-11-12T12:46	25136	24			20	6
2025-11-12T12:47	25404	23			342	10
2025-11-12T12:47	25430	23	-55.5			
2025-11-12T12:47	25573	23			344	10
2025-11-12T12:47	25689	22			341	7
2025-11-12T12:48	25834	22			358	10
2025-11-12T12:48	26016	21	-54.2			
2025-11-12T12:49	26202	20			54	6
2025-11-12T12:49	26298	20			63	4
2025-11-12T12:49	26424	20			153	1
2025-11-12T12:49	26489	20	-55.6			
2025-11-12T12:50	26553	19			281	3
2025-11-12T12:50	26789	19			356	5
2025-11-12T12:50	26825	19			2	5
2025-11-12T12:51	27070	18			32	3
2025-11-12T12:52	27284	17	-55.1		7	3
2025-11-12T12:52	27400	17			29	2
2025-11-12T12:52	27477	17			10	5
2025-11-12T12:52	27592	16			17	10
2025-11-12T12:53	27912	16			355	9
2025-11-12T12:54	27995	15	-54.1			
2025-11-12T12:54	28119	15			3	10
2025-11-12T12:54	28337	15			32	11
2025-11-12T12:55	28513	14			67	12
2025-11-12T12:55	28603	14			66	8
2025-11-12T12:56	28743	14			17	11
2025-11-12T12:56	28889	13			36	9
2025-11-12T12:56	28987	13			65	8
2025-11-12T12:57	29387	12			38	13
2025-11-12T12:58	29494	12	-52.8			
2025-11-12T12:58	29547	12			23	14
2025-11-12T12:58	29763	12			24	13
2025-11-12T12:59	29991	11	-50.5			
2025-11-12T12:59	30109	11			37	12
2025-11-12T13:00	30289	11			32	13
2025-11-12T13:00	30597	10			39	12
2025-11-12T13:01	30987	10			30	17
2025-11-12T13:02	31194	9			54	19
2025-11-12T13:02	31333	9	-48.3			
2025-11-12T13:03	31625	9			39	10
2025-11-12T13:04	31856	9	-45.9			
2025-11-12T13:04	31936	8			48	17
2025-11-12T13:04	32177	8			45	13
2025-11-12T13:05	32346	8			46	16
2025-11-12T13:05	32602	8			36	12
2025-11-12T13:06	32781	7			28	16
2025-11-12T13:06	32878	7	-45.0		38	15
2025-11-12T23:33	26	1015	8.8	5.7	300	1
2025-11-12T23:33	32	1015	8.8	6.1	0	0
2025-11-12T23:33	116	1004	7.8	5.3		
2025-11-12T23:33	145	1001	9.4	5.2		
2025-11-12T23:33	172	998	9.5	4.5		
2025-11-12T23:34	228	991	10.6	4.7		
2025-11-12T23:34	355	976			296	3
2025-11-12T23:34	466	963			282	4
2025-11-12T23:35	528	956	9.8	6.5		
2025-11-12T23:35	659	941	8.8	8.8		
2025-11-12T23:35	704	936			242	8
2025-11-12T23:35	803	925	8.4	8.4		
2025-11-12T23:36	962	907			217	13
2025-11-12T23:36	967	907	8.9	8.9		
2025-11-12T23:36	1145	887			211	14
2025-11-12T23:37	1221	879	8.3	8.3		
2025-11-12T23:37	1377	863			216	17
2025-11-12T23:37	1449	855	6.0	5.6		
2025-11-12T23:37	1498	850	5.5	-1.6		
2025-11-12T23:38	1646	835	4.3	-6.0		
2025-11-12T23:38	1663	833	4.1	-8.0		
2025-11-12T23:38	1692	830	5.4	-8.8		
2025-11-12T23:38	1732	826			243	15
2025-11-12T23:38	1812	818	7.4	-9.5		
2025-11-12T23:39	1974	802	6.9	-9.5		
2025-11-12T23:39	2070	793	6.3	-10.4		
2025-11-12T23:39	2082	791			244	15
2025-11-12T23:40	2300	771	4.9	-12.1		
2025-11-12T23:40	2383	763	4.1	-7.7		
2025-11-12T23:40	2436	758			249	14
2025-11-12T23:40	2508	751	3.0	-7.5		
2025-11-12T23:41	2668	736	1.9	-12.7		
2025-11-12T23:41	2722	731	1.6	-17.9		
2025-11-12T23:41	2763	728			254	14
2025-11-12T23:41	2794	725	1.1	-17.3		
2025-11-12T23:41	2899	716	1.0	-18.4		
2025-11-12T23:42	3042	703			266	14
2025-11-12T23:42	3222	687	-1.9	-18.0		
2025-11-12T23:42	3244	685			272	16
2025-11-12T23:43	3340	677	-1.8	-18.8		
2025-11-12T23:43	3436	669	-2.3	-23.4		
2025-11-12T23:43	3572	658			274	16
2025-11-12T23:44	3782	640			273	14
2025-11-12T23:44	3817	637	-5.4	-29.6		
2025-11-12T23:45	4001	623	-5.6	-32.5		
2025-11-12T23:45	4088	616	-5.1	-32.1		
2025-11-12T23:45	4131	612			263	20
2025-11-12T23:46	4361	595	-7.4	-25.5		
2025-11-12T23:46	4494	585			250	25
2025-11-12T23:46	4530	582	-8.6	-15.0		
2025-11-12T23:47	4735	567	-10.1	-15.1		
2025-11-12T23:47	4855	558			254	20
2025-11-12T23:47	5012	547	-11.9	-17.0		
2025-11-12T23:48	5203	533			261	20
2025-11-12T23:49	5559	509			260	20
2025-11-12T23:50	5911	485	-19.8	-21.3		
2025-11-12T23:50	5937	484			276	23
2025-11-12T23:50	6064	475	-20.6	-22.6		
2025-11-12T23:51	6141	470			282	23
2025-11-12T23:51	6380	455	-20.9	-23.0		
2025-11-12T23:51	6455	451			290	30
2025-11-12T23:52	6705	436	-21.9	-24.3		
2025-11-12T23:52	6734	434			291	34
2025-11-12T23:53	6941	422	-22.8	-24.6		
2025-11-12T23:53	7059	415			280	41
2025-11-12T23:54	7376	398	-22.8	-23.7		
2025-11-12T23:54	7401	396			272	47
2025-11-12T23:54	7555	388			267	47
2025-11-12T23:55	7716	380			261	51
2025-11-12T23:55	7821	374	-24.6	-24.9		
2025-11-12T23:56	7984	366			260	52
2025-11-12T23:56	8122	359			257	55
2025-11-12T23:56	8225	354			258	58
2025-11-12T23:56	8258	352	-26.6	-26.9		
2025-11-12T23:57	8357	347			259	61
2025-11-12T23:57	8616	335	-28.6	-28.6		
2025-11-12T23:57	8631	334			262	63
2025-11-12T23:58	8817	326	-30.0	-30.0		
2025-11-12T23:58	8883	323	-29.6	-30.4		
2025-11-12T23:58	9067	315			264	67
2025-11-12T23:59	9350	302			265	69
2025-11-12T23:59	9497	296	-34.6	-35.8		
2025-11-13T00:00	9668	289	-36.1	-37.4		
2025-11-13T00:00	9748	285			264	69
2025-11-13T00:00	9963	277	-38.0	-39.8		
2025-11-13T00:01	10060	273	-38.4	-42.2		
2025-11-13T00:01	10124	270			262	72
2025-11-13T00:01	10149	269	-38.6	-46.9		
2025-11-13T00:01	10350	262	-40.0	-49.6		
2025-11-13T00:02	10528	255			266	73
2025-11-13T00:02	10656	250	-41.7			
2025-11-13T00:02	10736	247			268	73
2025-11-13T00:03	11057	236	-43.5			
2025-11-13T00:03	11117	234			271	75
2025-11-13T00:04	11510	220			269	74
2025-11-13T00:05	11827	210			271	76
2025-11-13T00:06	11990	205	-50.8			
2025-11-13T00:06	12217	198			273	75
2025-11-13T00:07	12408	192	-52.9			
2025-11-13T00:07	12605	186			273	75
2025-11-13T00:08	12726	183	-54.9			
2025-11-13T00:08	12960	176			272	74
2025-11-13T00:09	13314	166			275	73
2025-11-13T00:10	13514	161			278	73
2025-11-13T00:10	13520	161	-60.7			
2025-11-13T00:11	13818	153			281	68
2025-11-13T00:11	13948	150			282	69
2025-11-13T00:11	14037	148	-61.9			
2025-11-13T00:12	14289	142			280	69
2025-11-13T00:13	14602	135			281	68
2025-11-13T00:14	14911	128			284	66
2025-11-13T00:14	14946	128	-68.0			
2025-11-13T00:15	15190	122			287	65
2025-11-13T00:15	15253	121	-68.9			
2025-11-13T00:15	15371	119			287	57
2025-11-13T00:15	15378	119	-68.1			
2025-11-13T00:16	15468	117	-66.3			
2025-11-13T00:16	15531	116			286	49
2025-11-13T00:16	15702	112	-66.1			
2025-11-13T00:16	15808	111			277	41
2025-11-13T00:17	16185	104			267	43
2025-11-13T00:18	16293	102	-69.6			
2025-11-13T00:18	16546	98			265	48
2025-11-13T00:19	16837	93			270	51
2025-11-13T00:19	16845	93	-73.0			
2025-11-13T00:20	16947	91			273	50
2025-11-13T00:20	17166	88			281	44
2025-11-13T00:21	17334	85	-71.2			
2025-11-13T00:21	17393	85			288	42
2025-11-13T00:21	17513	83	-69.4			
2025-11-13T00:22	17622	81			283	31
2025-11-13T00:22	17818	79	-66.1			
2025-11-13T00:23	17941	77			280	30
2025-11-13T00:23	18138	75			277	26
2025-11-13T00:24	18296	73	-65.7			
2025-11-13T00:24	18389	72			261	26
2025-11-13T00:25	18521	70			260	28
2025-11-13T00:25	18650	69	-65.8			
2025-11-13T00:26	18857	66			279	27
2025-11-13T00:26	18926	66	-66.2		283	26
2025-11-13T11:33	26	1010	8.6	7.2	230	1
2025-11-13T11:33	33	1009	9.1	7.2	0	0
2025-11-13T11:33	61	1006	10.7	7.0		
2025-11-13T11:33	67	1005			248	3
2025-11-13T11:33	112	1000	12.6	7.3	279	6
2025-11-13T11:33	177	992	13.6	6.7		
2025-11-13T11:33	189	991			316	2
2025-11-13T11:34	274	981	13.3	7.3		
2025-11-13T11:34	338	973	14.1	6.7		
2025-11-13T11:34	362	970			72	3
2025-11-13T11:34	411	965	14.6	9.6		
2025-11-13T11:34	464	959			48	5
2025-11-13T11:35	586	945	13.5	7.7		
2025-11-13T11:35	788	923	12.2	5.6		
2025-11-13T11:35	811	920			41	7
2025-11-13T11:35	879	913	11.7	3.5		
2025-11-13T11:36	926	908			45	6
2025-11-13T11:36	1028	897	12.4	-6.1		
2025-11-13T11:36	1050	894			27	3
2025-11-13T11:37	1253	873			31	4
2025-11-13T11:37	1292	869	10.8	-10.1		
2025-11-13T11:37	1422	855			336	5
2025-11-13T11:38	1675	830			348	7
2025-11-13T11:38	1715	825	7.5	-10.8		
2025-11-13T11:38	1783	819			310	9
2025-11-13T11:38	1845	813	8.0	-14.3		
2025-11-13T11:38	1900	807			310	8
2025-11-13T11:39	2049	793	7.3	-16.2		
2025-11-13T11:39	2147	783			260	3
2025-11-13T11:39	2233	775			242	5
2025-11-13T11:40	2238	775	6.5	-19.1		
2025-11-13T11:40	2423	757	5.3	-19.3		
2025-11-13T11:40	2455	754			244	8
2025-11-13T11:41	2725	730			281	10
2025-11-13T11:41	2882	716			273	10
2025-11-13T11:42	2990	706			287	11
2025-11-13T11:42	3081	698	-0.9	-21.1		
2025-11-13T11:42	3086	698			289	13
2025-11-13T11:42	3190	689			292	16
2025-11-13T11:43	3253	683	-1.1	-21.8		
2025-11-13T11:43	3331	677	-1.6	-21.1		
2025-11-13T11:43	3491	663	-2.5	-27.2		
2025-11-13T11:43	3508	662			294	17
2025-11-13T11:44	3684	647	-3.3	-28.7		
2025-11-13T11:44	3690	647			274	15
2025-11-13T11:44	3829	635			261	15
2025-11-13T11:44	3866	632	-4.6	-20.8		
2025-11-13T11:45	3929	627			270	12
2025-11-13T11:45	4051	617			266	14
2025-11-13T11:46	4266	601			261	14
2025-11-13T11:46	4486	584	-9.5	-18.7		
2025-11-13T11:46	4545	579			268	16
2025-11-13T11:46	4591	576	-9.8	-21.2		
2025-11-13T11:47	4734	565			259	19
2025-11-13T11:47	4792	561	-10.2	-20.7		
2025-11-13T11:48	5076	541			264	20
2025-11-13T11:48	5201	532	-12.3	-22.3		
2025-11-13T11:49	5364	521	-12.6	-28.6		
2025-11-13T11:49	5413	517			267	23
2025-11-13T11:49	5536	509	-13.0	-35.7		
2025-11-13T11:49	5644	502	-13.4	-32.2		
2025-11-13T11:50	5789	492			270	28
2025-11-13T11:51	6095	473	-17.4	-24.9		
2025-11-13T11:51	6169	468			272	31
2025-11-13T11:51	6259	463			273	35
2025-11-13T11:51	6379	455			277	35
2025-11-13T11:52	6585	443	-21.3	-24.3		
2025-11-13T11:52	6666	438			279	38
2025-11-13T11:53	6896	424	-21.5	-23.5		
2025-11-13T11:53	6954	421	-20.9	-22.8	276	49
2025-11-13T11:53	7082	414	-20.3	-22.2		
2025-11-13T11:53	7144	410	-19.6	-21.3		
2025-11-13T11:53	7164	409			266	55
2025-11-13T11:54	7263	404	-19.7	-21.3		
2025-11-13T11:54	7559	388			253	54
2025-11-13T11:55	7830	374			249	52
2025-11-13T11:55	7904	370	-23.7	-23.8		
2025-11-13T11:55	7950	368			246	53
2025-11-13T11:56	8093	361	-24.3	-24.6		
2025-11-13T11:56	8254	353			249	55
2025-11-13T11:56	8333	349	-25.3	-26.5		
2025-11-13T11:57	8518	340	-25.9	-27.3		
2025-11-13T11:57	8524	340			254	62
2025-11-13T11:58	8839	325			255	64
2025-11-13T11:58	9035	317			254	64
2025-11-13T11:58	9075	315	-30.3	-31.4		
2025-11-13T11:59	9169	311			253	64
2025-11-13T12:00	9565	294			254	65
2025-11-13T12:00	9724	287	-36.0	-37.8		
2025-11-13T12:01	9927	279	-37.6	-39.5		
2025-11-13T12:01	9939	278			256	65
2025-11-13T12:01	10000	276	-38.1	-42.4		
2025-11-13T12:01	10061	273	-37.8	-44.8		
2025-11-13T12:01	10190	268			259	68
2025-11-13T12:02	10545	255	-40.0	-54.0	260	68
2025-11-13T12:03	10913	241			258	68
2025-11-13T12:04	11269	229			258	70
2025-11-13T12:05	11627	217	-47.9		261	69
2025-11-13T12:06	11982	205			264	71
2025-11-13T12:07	12197	199	-51.6			
2025-11-13T12:07	12322	195			265	74
2025-11-13T12:08	12646	185			264	73
2025-11-13T12:09	12845	180	-55.4			
2025-11-13T12:09	12958	177			265	72
2025-11-13T12:10	13281	168			267	73
2025-11-13T12:11	13514	162	-60.6			
2025-11-13T12:11	13630	159			270	70
2025-11-13T12:12	13824	154			272	67
2025-11-13T12:13	14184	145			273	66
2025-11-13T12:13	14250	143	-63.7			
2025-11-13T12:14	14520	137			273	64
2025-11-13T12:14	14530	137	-64.7			
2025-11-13T12:14	14642	134	-64.8			
2025-11-13T12:15	14811	131			274	64
2025-11-13T12:16	15103	125			276	67
2025-11-13T12:16	15142	124	-68.3			
2025-11-13T12:17	15391	119			279	61
2025-11-13T12:18	15712	112	-69.6		281	55
2025-11-13T12:18	15937	108	-68.6			
2025-11-13T12:19	16027	107			273	45
2025-11-13T12:20	16366	101			268	46
2025-11-13T12:20	16464	99	-70.3			
2025-11-13T12:20	16614	97			270	42
2025-11-13T12:21	16894	92	-68.9			
2025-11-13T12:21	16921	92			275	37
2025-11-13T12:22	17216	87			284	34
2025-11-13T12:23	17427	84	-66.8			
2025-11-13T12:23	17563	83			267	27
2025-11-13T12:23	17613	82	-67.1			
2025-11-13T12:24	17837	79			261	30
2025-11-13T12:24	17909	78	-68.6			
2025-11-13T12:24	17945	77			262	36
2025-11-13T12:25	18259	74			262	24
2025-11-13T12:26	18458	71	-63.2			
2025-11-13T12:26	18568	70			244	24
2025-11-13T12:27	18818	67	-65.4			
2025-11-13T12:27	18882	66			250	23
2025-11-13T12:28	19150	64	-65.6			
2025-11-13T12:28	19172	63			241	23
2025-11-13T12:29	19506	60			252	23
2025-11-13T12:30	19577	59	-67.6			
2025-11-13T12:30	19838	57			280	22
2025-11-13T12:31	20098	54			290	21
2025-11-13T12:32	20359	52			297	18
2025-11-13T12:32	20463	51	-67.2			
2025-11-13T12:33	20580	50	-66.8		297	21
2025-11-13T12:33	20754	49	-62.4			
2025-11-13T12:33	20804	48			328	15
2025-11-13T12:34	21040	47			299	7
2025-11-13T12:34	21065	46	-61.9			
2025-11-13T12:35	21285	45			292	7
2025-11-13T12:35	21484	43			250	13
2025-11-13T12:35	21512	43	-60.3			
2025-11-13T12:36	21645	42			267	13
2025-11-13T12:36	21668	42	-59.5		280	11
2025-11-13T23:33	26	1011	12.1	8.0	300	2
2025-11-13T23:33	31	1011	11.9	8.0	0	0
2025-11-13T23:33	103	1002			294	3
2025-11-13T23:33	108	1002	11.0	6.3		
2025-11-13T23:33	175	994	12.5	6.1	23	1
2025-11-13T23:34	197	991	12.8	5.9		
2025-11-13T23:34	218	989			65	4
2025-11-13T23:34	245	985	13.4	5.8		
2025-11-13T23:34	471	959			71	4
2025-11-13T23:35	691	934			51	3
2025-11-13T23:36	895	912	8.9	3.5	30	5
2025-11-13T23:36	1028	897	8.5	2.1		
2025-11-13T23:36	1092	890			42	1
2025-11-13T23:37	1329	865			182	3
2025-11-13T23:37	1461	851			221	3
2025-11-13T23:37	1501	847	4.6	0.2		
2025-11-13T23:37	1535	843			216	3
2025-11-13T23:38	1605	836	5.2	-0.4		
2025-11-13T23:38	1628	834			255	4
2025-11-13T23:38	1754	821			234	3
2025-11-13T23:38	1794	817	4.6	-3.4		
2025-11-13T23:39	1908	806			293	4
2025-11-13T23:39	1930	803	4.3	-3.9		
2025-11-13T23:39	2087	788	3.5	-8.8		
2025-11-13T23:39	2121	785			268	7
2025-11-13T23:40	2271	770			253	8
2025-11-13T23:40	2288	769	2.1	-14.1		
2025-11-13T23:40	2409	757			245	10
2025-11-13T23:40	2460	753	3.1	-17.1		
2025-11-13T23:40	2510	748	3.2	-18.2		
2025-11-13T23:40	2526	746			256	8
2025-11-13T23:41	2655	735			262	9
2025-11-13T23:42	2991	705			262	8
2025-11-13T23:42	3138	692	-1.7	-36.5		
2025-11-13T23:43	3252	682			299	8
2025-11-13T23:44	3588	654			270	10
2025-11-13T23:44	3738	641	-5.1	-41.2		
2025-11-13T23:45	3904	628			267	14
2025-11-13T23:45	4185	605	-7.7	-45.7		
2025-11-13T23:45	4201	604			276	17
2025-11-13T23:46	4341	593			272	20
2025-11-13T23:47	4614	573	-10.1	-37.1		
2025-11-13T23:47	4676	568			270	20
2025-11-13T23:47	4699	566	-10.7	-28.8		
2025-11-13T23:47	4790	560	-11.3	-21.4		
2025-11-13T23:47	4835	557			265	22
2025-11-13T23:48	5004	544			272	25
2025-11-13T23:48	5048	541	-13.6	-20.9		
2025-11-13T23:49	5219	529	-14.1	-18.2		
2025-11-13T23:49	5302	523			262	22
2025-11-13T23:49	5422	515	-15.7	-18.1		
2025-11-13T23:49	5512	509	-15.9	-21.3		
2025-11-13T23:50	5626	501			258	25
2025-11-13T23:50	5698	497	-16.2	-24.0		
2025-11-13T23:50	5766	492			255	29
2025-11-13T23:50	5863	486	-16.4	-26.3		
2025-11-13T23:51	5916	482			254	33
2025-11-13T23:51	5951	480	-16.7	-30.2		
2025-11-13T23:51	6100	471	-17.4	-36.1		
2025-11-13T23:52	6272	460			255	35
2025-11-13T23:52	6466	448			257	37
2025-11-13T23:52	6553	443	-21.6	-33.6		
2025-11-13T23:53	6747	431			258	39
2025-11-13T23:54	7129	409			255	38
2025-11-13T23:54	7249	402	-28.2	-35.2		
2025-11-13T23:54	7273	401			259	41
2025-11-13T23:54	7320	398	-28.1	-38.1		
2025-11-13T23:55	7374	396	-25.6	-51.5		
2025-11-13T23:55	7477	390	-24.9	-55.6		
2025-11-13T23:55	7489	389			255	46
2025-11-13T23:55	7653	381	-24.7	-55.5		
2025-11-13T23:56	7798	373			251	53
2025-11-13T23:56	8105	357	-28.5	-52.6		
2025-11-13T23:57	8124	357			251	57
2025-11-13T23:57	8174	354	-28.0	-54.6		
2025-11-13T23:57	8292	348	-28.1	-56.2	252	59
2025-11-13T23:58	8642	332			253	60
2025-11-13T23:59	8904	320	-31.5	-60.5		
2025-11-13T23:59	8966	317			252	65
2025-11-13T23:59	9053	313	-30.8	-60.0		
2025-11-13T23:59	9103	311			252	66
2025-11-14T00:00	9379	299	-32.5	-61.3		
2025-11-14T00:00	9429	297			256	72
2025-11-14T00:01	9778	282			258	73
2025-11-14T00:02	10090	270	-36.2	-66.2		
2025-11-14T00:02	10107	269			258	73
2025-11-14T00:03	10428	257			257	71
2025-11-14T00:03	10444	256	-38.1	-67.5		
2025-11-14T00:04	10684	247	-40.0	-66.9		
2025-11-14T00:04	10758	245			259	72
2025-11-14T00:05	10981	237	-41.2			
2025-11-14T00:05	11039	235			263	71
2025-11-14T00:06	11310	226			261	71
2025-11-14T00:07	11538	218	-43.5			
2025-11-14T00:07	11580	217			261	69
2025-11-14T00:08	11813	209	-45.3			
2025-11-14T00:08	11898	207			259	70
2025-11-14T00:09	12163	198			259	71
2025-11-14T00:10	12436	190			257	72
2025-11-14T00:11	12705	183			257	70
2025-11-14T00:12	12931	176	-54.6			
2025-11-14T00:12	12977	175			258	70
2025-11-14T00:13	13262	168			259	69
2025-11-14T00:14	13537	160			261	69
2025-11-14T00:15	13643	158	-59.9			
2025-11-14T00:15	13808	154			263	67
2025-11-14T00:16	13978	149			266	67
2025-11-14T00:16	14204	144	-62.5			
2025-11-14T00:17	14281	142			267	66
2025-11-14T00:18	14536	136	-64.7			
2025-11-14T00:18	14573	136			271	67
2025-11-14T00:19	14828	130			274	63
2025-11-14T00:19	15025	126	-66.8			
2025-11-14T00:20	15084	125			272	58
2025-11-14T00:21	15357	119			265	53
2025-11-14T00:21	15398	118	-67.2			
2025-11-14T00:21	15510	116	-66.9			
2025-11-14T00:22	15673	113			264	51
2025-11-14T00:22	15826	110	-68.3			
2025-11-14T00:23	15957	108			270	47
2025-11-14T00:23	16127	105	-68.3			
2025-11-14T00:24	16234	103			267	41
2025-11-14T00:25	16505	99			258	40
2025-11-14T00:25	16587	97	-70.7			
2025-11-14T00:26	16786	94			256	40
2025-11-14T00:27	17072	90	-71.6			
2025-11-14T00:27	17078	89			258	39
2025-11-14T00:27	17257	87	-72.1			
2025-11-14T00:28	17354	85			264	41
2025-11-14T00:28	17439	84	-69.2			
2025-11-14T00:28	17503	83	-67.8			
2025-11-14T00:29	17560	82			265	31
2025-11-14T00:29	17687	81	-65.9			
2025-11-14T00:29	17717	80			273	26
2025-11-14T00:30	17770	80	-64.1			
2025-11-14T00:30	17888	78			267	18
2025-11-14T00:31	18046	76	-63.8			
2025-11-14T00:31	18167	75			276	16
2025-11-14T00:32	18461	71	-66.3			
2025-11-14T00:32	18470	71			276	15
2025-11-14T00:33	18694	68	-64.4			
2025-11-14T00:33	18751	68			264	15
2025-11-14T00:34	19041	65			260	18
2025-11-14T00:34	19069	64	-66.6			
2025-11-14T00:34	19157	63	-65.1			
2025-11-14T00:35	19324	62			267	16
2025-11-14T00:36	19473	60	-66.6			
2025-11-14T00:36	19594	59			280	15
2025-11-14T00:36	19657	58	-63.7			
2025-11-14T00:37	19785	57	-63.2			
2025-11-14T00:37	19874	56			265	13
2025-11-14T00:38	20048	55	-64.4			
2025-11-14T00:38	20162	54			257	9
2025-11-14T00:39	20451	51			252	9
2025-11-14T00:40	20620	50	-65.3			
2025-11-14T00:40	20729	49			267	16
2025-11-14T00:41	20879	48	-65.0			
2025-11-14T00:41	21023	47			267	15
2025-11-14T00:42	21260	45	-66.5			
2025-11-14T00:42	21315	45			266	17
2025-11-14T00:43	21481	43	-65.9			
2025-11-14T00:43	21552	43			264	14
2025-11-14T00:43	21709	42			272	17
2025-11-14T00:44	22011	40			281	21
2025-11-14T00:45	22116	39	-65.3			
2025-11-14T00:45	22326	38			312	21
2025-11-14T00:46	22491	37	-62.8			
2025-11-14T00:46	22524	37			314	15
2025-11-14T00:47	22697	36			289	7
2025-11-14T00:47	22785	35	-59.9			
2025-11-14T00:47	22821	35			234	6
2025-11-14T00:47	22876	35	-57.8			
2025-11-14T00:48	22929	34			215	8
2025-11-14T00:49	23229	33			220	10
2025-11-14T00:49	23464	31	-60.0			
2025-11-14T00:50	23524	31			240	15
2025-11-14T00:51	23810	30	-58.8			
2025-11-14T00:51	23832	30			268	14
2025-11-14T00:51	24093	28			258	5
2025-11-14T00:52	24224	28			194	5
2025-11-14T00:52	24360	27	-58.0			
2025-11-14T00:53	24505	27	-56.3			
2025-11-14T00:53	24528	27			282	6
2025-11-14T00:53	24674	26			327	6
2025-11-14T00:54	24747	26			350	5
2025-11-14T00:54	24798	25	-54.0			
2025-11-14T00:54	24952	25			316	3
2025-11-14T00:55	25081	24			257	2
2025-11-14T00:56	25404	23			17	3
2025-11-14T00:57	25683	22	-58.8		13	1
2025-11-14T00:57	25885	21			217	3
2025-11-14T00:58	26061	21	-59.1		228	5
2025-11-14T00:58	26155	21			301	2
2025-11-14T00:58	26185	20	-57.4			
2025-11-14T00:59	26342	20			353	3
2025-11-14T00:59	26407	20			328	1
2025-11-14T00:59	26501	19			190	3
2025-11-14T01:00	26702	19			239	6
2025-11-14T01:01	26945	18	-56.8		228	10
2025-11-14T01:02	27303	17			292	12
2025-11-14T01:02	27339	17	-56.6			
2025-11-14T01:03	27605	16			302	5
2025-11-14T01:03	27765	16			296	8
2025-11-14T01:04	27968	15			327	15
2025-11-14T01:04	28052	15	-55.3			
2025-11-14T01:05	28223	15			341	8
2025-11-14T01:05	28437	14			5	9
2025-11-14T01:06	28667	14			348	8
2025-11-14T01:06	28851	13			11	10
2025-11-14T01:07	28900	13	-56.9			
2025-11-14T01:07	28995	13			343	4
2025-11-14T01:07	29140	13			300	5
2025-11-14T01:08	29191	13			299	3
2025-11-14T01:08	29294	13			14	3
2025-11-14T01:09	29551	12			60	7
2025-11-14T01:09	29657	12			74	6
2025-11-14T01:09	29819	12			75	3
2025-11-14T01:10	29931	11			100	3
2025-11-14T01:10	29987	11	-56.2		0	0
2025-11-14T01:10	30044	11			261	3
2025-11-14T01:10	30161	11			306	5
2025-11-14T01:11	30281	11			301	2
2025-11-14T01:12	30472	10	-53.8		211	4
2025-11-14T11:30	26	1015	13.6	8.2	80	1
2025-11-14T11:30	29	1014	13.8	7.6	0	0
2025-11-14T11:30	69	1009			67	3
2025-11-14T11:30	121	1003	13.6	5.7		
2025-11-14T11:30	153	999	13.7	5.1		
2025-11-14T11:31	228	990	13.8	5.4		
2025-11-14T11:31	349	976			74	9
2025-11-14T11:32	597	948	10.8	4.7		
2025-11-14T11:32	677	939			84	8
2025-11-14T11:33	906	913	8.1	5.0		
2025-11-14T11:33	1005	902			122	3
2025-11-14T11:33	1068	895	7.1	4.4		
2025-11-14T11:34	1212	880			205	3
2025-11-14T11:34	1455	854			220	5
2025-11-14T11:35	1499	849	3.6	3.2		
2025-11-14T11:35	1773	821			229	2
2025-11-14T11:36	1853	813	1.1	0.1		
2025-11-14T11:36	1934	805			265	4
2025-11-14T11:36	2034	795	0.4	-1.2		
2025-11-14T11:37	2244	774			265	6
2025-11-14T11:37	2357	763	-1.8	-3.7		
2025-11-14T11:38	2521	748	-2.8	-5.6		
2025-11-14T11:38	2577	743			270	8
2025-11-14T11:39	2789	723	-5.2	-6.7		
2025-11-14T11:39	2823	720	-4.7	-9.0		
2025-11-14T11:39	2888	714	-3.1	-17.9		
2025-11-14T11:39	2910	712			268	10
2025-11-14T11:39	2915	712	-2.2	-24.7		
2025-11-14T11:40	3236	683			266	9
2025-11-14T11:41	3478	663	-6.3	-35.3		
2025-11-14T11:41	3551	656			266	11
2025-11-14T11:42	3866	630			269	12
2025-11-14T11:43	4176	605	-11.7	-46.0		
2025-11-14T11:43	4198	603			260	14
2025-11-14T11:44	4537	577			253	18
2025-11-14T11:44	4661	568	-14.7	-46.1		
2025-11-14T11:45	4870	552			266	18
2025-11-14T11:45	4888	551	-16.2	-51.7		
2025-11-14T11:46	5221	527			272	22
2025-11-14T11:46	5279	523	-18.4	-50.8		
2025-11-14T11:47	5555	504			269	20
2025-11-14T11:48	5763	490	-22.4	-47.8		
2025-11-14T11:48	5876	482	-21.5	-58.8		
2025-11-14T11:48	5887	481			271	26
2025-11-14T11:49	6126	466	-22.4	-59.4		
2025-11-14T11:49	6148	465			273	30
2025-11-14T11:50	6410	448			278	33
2025-11-14T11:50	6528	441	-24.1	-60.6		
2025-11-14T11:50	6677	432	-24.3	-57.5		
2025-11-14T11:51	6739	429			270	37
2025-11-14T11:52	7112	407			270	37
2025-11-14T11:52	7221	401	-27.0	-62.6		
2025-11-14T11:53	7488	386			263	39
2025-11-14T11:53	7564	382	-28.8	-63.9		
2025-11-14T11:54	7862	367			270	43
2025-11-14T11:54	7916	364	-30.3	-64.9		
2025-11-14T11:55	8204	349			262	46
2025-11-14T11:55	8220	349	-30.1	-69.8		
2025-11-14T11:56	8503	335	-31.3	-70.6		
2025-11-14T11:56	8525	334			263	50
2025-11-14T11:56	8792	321	-32.4	-66.4		
2025-11-14T11:57	8838	319			262	54
2025-11-14T11:57	8924	316	-33.0	-66.8		
2025-11-14T11:58	9148	306			267	58
2025-11-14T11:58	9154	305	-32.5	-71.4		
2025-11-14T11:58	9307	299			270	59
2025-11-14T11:58	9385	295	-33.0	-71.7		
2025-11-14T11:59	9640	285			266	61
2025-11-14T12:00	9856	276	-34.0	-72.4		
2025-11-14T12:00	9972	272			263	64
2025-11-14T12:01	10264	261	-35.7	-73.5		
2025-11-14T12:01	10291	260			258	65
2025-11-14T12:02	10624	247			257	66
2025-11-14T12:03	10947	236	-39.1	-75.8		
2025-11-14T12:03	10970	235			257	67
2025-11-14T12:03	11042	233	-40.0	-76.4		
2025-11-14T12:04	11341	223			260	71
2025-11-14T12:05	11639	213	-44.3			
2025-11-14T12:05	11739	210			263	70
2025-11-14T12:06	12035	201			263	67
2025-11-14T12:07	12383	191			265	69
2025-11-14T12:07	12490	187	-49.0			
2025-11-14T12:08	12712	181			266	68
2025-11-14T12:09	13065	172			264	64
2025-11-14T12:10	13447	162	-54.1		261	63
2025-11-14T12:11	13820	153			264	62
2025-11-14T12:12	14211	143			266	59
2025-11-14T12:13	14544	136	-60.4			
2025-11-14T12:13	14618	134			263	55
2025-11-14T12:14	14944	127	-63.5			
2025-11-14T12:14	15019	126			258	57
2025-11-14T12:15	15388	119	-65.7			
2025-11-14T12:15	15407	118			264	54
2025-11-14T12:15	15532	116	-65.9			
2025-11-14T12:16	15770	111	-67.0			
2025-11-14T12:16	15785	111			263	51
2025-11-14T12:16	15878	109	-66.8			
2025-11-14T12:16	15994	107	-65.3			
2025-11-14T12:16	16029	107			257	42
2025-11-14T12:17	16294	102	-65.9			
2025-11-14T12:17	16314	102			256	42
2025-11-14T12:17	16400	100	-64.8			
2025-11-14T12:18	16587	97			257	44
2025-11-14T12:19	17034	90			267	42
2025-11-14T12:19	17275	87	-70.4			
2025-11-14T12:20	17421	85	-68.8			
2025-11-14T12:20	17437	84			267	38
2025-11-14T12:21	17750	80			277	35
2025-11-14T12:21	17841	79	-68.4			
2025-11-14T12:21	17965	77			271	26
2025-11-14T12:21	17996	77	-67.4			
2025-11-14T12:22	18204	74	-66.1			
2025-11-14T12:22	18307	73			260	24
2025-11-14T12:22	18341	73	-66.7			
2025-11-14T12:22	18484	71	-65.7			
2025-11-14T12:23	18713	68	-64.6		274	21
2025-11-14T12:23	18848	67			262	18
2025-11-14T12:24	19121	64	-62.3			
2025-11-14T12:24	19270	62			250	11
2025-11-14T12:25	19488	60	-63.7			
2025-11-14T12:25	19634	59			254	17
2025-11-14T12:26	19839	57	-60.3			
2025-11-14T12:26	19856	57			257	16
2025-11-14T12:27	20083	55	-60.2			
2025-11-14T12:27	20219	54			250	9
2025-11-14T12:27	20374	52	-61.5			
2025-11-14T12:28	20468	51			235	6
2025-11-14T12:28	20640	50	-62.5			
2025-11-14T12:28	20776	49			250	9
2025-11-14T12:29	21020	47	-63.0			
2025-11-14T12:29	21140	46			253	10
2025-11-14T12:30	21470	44			262	8
2025-11-14T12:30	21501	44	-61.8			
2025-11-14T12:31	21851	41			215	8
2025-11-14T12:32	22096	40			215	11
2025-11-14T12:33	22351	38	-62.1			
2025-11-14T12:33	22483	37			251	14
2025-11-14T12:34	22895	35	-63.3		263	15
2025-11-14T12:35	23303	33			318	16
2025-11-14T12:36	23514	31	-59.2			
2025-11-14T12:36	23678	31	-59.1		347	12
2025-11-14T12:36	23807	30	-56.1			
2025-11-14T12:37	23976	29			52	3
2025-11-14T12:37	24151	28	-56.1			
2025-11-14T12:37	24174	28			142	3
2025-11-14T12:38	24335	28			195	3
2025-11-14T12:38	24495	27			242	5
2025-11-14T12:39	24683	26	-58.1			
2025-11-14T12:39	24754	26			254	7
2025-11-14T12:39	24929	25			239	8
2025-11-14T12:40	25264	24			270	8
2025-11-14T12:40	25399	23	-57.3			
2025-11-14T12:41	25508	23			268	6
2025-11-14T12:41	25646	22			264	7
2025-11-14T12:41	25732	22	-56.2			
2025-11-14T12:42	26025	21			310	9
2025-11-14T12:42	26208	21			314	8
2025-11-14T12:43	26493	20	-55.4			
2025-11-14T12:43	26557	19			293	7
2025-11-14T12:44	26757	19			311	11
2025-11-14T12:44	26968	18			338	5
2025-11-14T12:45	27038	18			360	4
2025-11-14T12:45	27072	18	-53.7		9	4
2025-11-14T12:45	27294	17			39	4
2025-11-14T12:46	27591	17	-56.0		347	7
2025-11-14T12:47	27949	16			355	8
2025-11-14T12:48	28321	15			314	11
2025-11-14T12:48	28585	14	-58.1		339	8
2025-11-14T12:49	28859	14			322	11
2025-11-14T12:49	29053	13			354	6
2025-11-14T12:50	29351	13			345	11
2025-11-14T12:51	29773	12	-53.4			
2025-11-14T12:51	29827	12			27	9
2025-11-14T12:52	30113	11	-53.7			
2025-11-14T12:52	30170	11			40	4
2025-11-14T12:52	30287	11			94	2
2025-11-14T12:52	30347	11			138	3
2025-11-14T12:52	30471	11			183	3
2025-11-14T12:53	30597	10			267	3
2025-11-14T12:53	30789	10			268	3
2025-11-14T12:54	30984	10			325	6
2025-11-14T12:55	31396	9			350	12
2025-11-14T12:56	31841	9			350	16
2025-11-14T12:56	32157	8	-49.0			
2025-11-14T12:57	32239	8			338	10
2025-11-14T12:57	32402	8			340	13
2025-11-14T12:58	32662	8			352	9
2025-11-14T12:58	32746	7	-48.6		357	10
2025-11-14T23:33	26	1020	13.2	5.6	30	1
2025-11-14T23:33	32	1020	12.9	5.8	0	0
2025-11-14T23:33	57	1016			25	3
2025-11-14T23:33	67	1015	12.1	5.0		
2025-11-14T23:33	88	1013			350	5
2025-11-14T23:34	187	1001			37	3
2025-11-14T23:34	262	992	10.7	4.8		
2025-11-14T23:34	278	990			47	5
2025-11-14T23:34	330	984	10.2	4.6		
2025-11-14T23:34	394	976			73	6
2025-11-14T23:35	501	964	9.2	3.0		
2025-11-14T23:35	561	957			73	4
2025-11-14T23:36	811	928			45	2
2025-11-14T23:36	832	926	6.2	0.9		
2025-11-14T23:36	893	919	6.5	1.8		
2025-11-14T23:36	1009	906	6.0	4.2		
2025-11-14T23:37	1118	894			269	2
2025-11-14T23:37	1395	864	3.0	2.9		
2025-11-14T23:37	1422	861			262	5
2025-11-14T23:38	1507	852	2.7	0.8		
2025-11-14T23:38	1631	839	2.0	-0.7		
2025-11-14T23:38	1748	827			268	7
2025-11-14T23:39	2072	794			276	7
2025-11-14T23:40	2157	786	-1.9	-4.4		
2025-11-14T23:40	2205	781	-1.4	-6.2		
2025-11-14T23:40	2259	776	-0.1	-16.4		
2025-11-14T23:40	2319	770			299	10
2025-11-14T23:40	2358	766	-0.5	-21.3		
2025-11-14T23:41	2594	744			308	10
2025-11-14T23:41	2706	733	-3.0	-23.4		
2025-11-14T23:42	2925	713			291	10
2025-11-14T23:42	3061	701	-4.9	-30.9		
2025-11-14T23:42	3079	699			300	9
2025-11-14T23:43	3418	670			311	9
2025-11-14T23:44	3498	663	-8.1	-20.2		
2025-11-14T23:44	3682	647	-9.3	-22.6		
2025-11-14T23:44	3762	641			295	8
2025-11-14T23:45	4107	612			305	13
2025-11-14T23:46	4374	591			295	11
2025-11-14T23:47	4583	575	-17.9	-21.1		
2025-11-14T23:47	4607	573			291	12
2025-11-14T23:47	4643	570	-16.9	-24.7		
2025-11-14T23:47	4772	561	-14.3	-41.5		
2025-11-14T23:47	4803	558			289	23
2025-11-14T23:48	5010	543	-15.8	-43.9		
2025-11-14T23:48	5107	536			284	23
2025-11-14T23:49	5278	524			284	25
2025-11-14T23:49	5511	508	-19.5	-49.7		
2025-11-14T23:50	5628	500			280	31
2025-11-14T23:50	5755	492			278	33
2025-11-14T23:50	5880	483			282	33
2025-11-14T23:51	5954	479			281	34
2025-11-14T23:51	6012	475	-21.7	-53.3		
2025-11-14T23:51	6070	471			279	41
2025-11-14T23:51	6122	468	-21.1	-55.2		
2025-11-14T23:52	6325	455			280	47
2025-11-14T23:52	6439	448			278	45
2025-11-14T23:52	6559	441	-22.2	-59.3		
2025-11-14T23:53	6658	435			278	48
2025-11-14T23:53	6901	421	-23.8	-57.2		
2025-11-14T23:54	6941	418			281	52
2025-11-14T23:54	7210	403	-24.6	-45.2		
2025-11-14T23:54	7227	402			283	59
2025-11-14T23:55	7574	383			281	61
2025-11-14T23:56	7732	375			281	61
2025-11-14T23:56	7924	365			284	61
2025-11-14T23:57	8022	360			280	61
2025-11-14T23:57	8027	360	-32.3	-41.9		
2025-11-14T23:57	8136	354			282	63
2025-11-14T23:57	8187	352	-33.3	-40.6		
2025-11-14T23:58	8493	337			282	63
2025-11-14T23:58	8638	330	-37.5	-44.7		
2025-11-14T23:59	8762	324	-38.6	-46.7		
2025-11-14T23:59	8847	320			283	62
2025-11-14T23:59	8887	318	-39.1	-49.6		
2025-11-14T23:59	8959	315			278	59
2025-11-14T23:59	8977	314	-38.0	-55.6		
2025-11-15T00:00	9062	310	-36.6	-60.1		
2025-11-15T00:00	9162	305			279	67
2025-11-15T00:00	9260	301	-36.1	-64.0		
2025-11-15T00:01	9548	289			279	68
2025-11-15T00:01	9653	284	-37.8	-65.2		
2025-11-15T00:02	9964	272			280	75
2025-11-15T00:03	10251	261			278	72
2025-11-15T00:03	10393	255	-39.3	-68.4		
2025-11-15T00:03	10435	254			277	76
2025-11-15T00:03	10506	251	-40.0	-68.9		
2025-11-15T00:04	10853	239			278	74
2025-11-15T00:04	10953	235	-41.5			
2025-11-15T00:05	11217	226	-42.4			
2025-11-15T00:05	11242	225			277	70
2025-11-15T00:05	11369	221	-42.7			
2025-11-15T00:06	11600	214			277	68
2025-11-15T00:07	11978	202			275	66
2025-11-15T00:07	11991	202	-46.3			
2025-11-15T00:08	12296	192	-48.4			
2025-11-15T00:08	12369	190			272	66
2025-11-15T00:09	12740	180			271	66
2025-11-15T00:10	13095	170			273	66
2025-11-15T00:11	13477	160			272	66
2025-11-15T00:12	13861	151			270	63
2025-11-15T00:12	13904	150	-58.8			
2025-11-15T00:13	14223	142			267	64
2025-11-15T00:14	14412	138	-62.7			
2025-11-15T00:14	14540	135	-62.9			
2025-11-15T00:14	14545	135			266	65
2025-11-15T00:15	14790	130	-64.3			
2025-11-15T00:15	14863	128			269	67
2025-11-15T00:15	14970	126	-65.0			
2025-11-15T00:16	15077	124	-64.1			
2025-11-15T00:16	15185	122			271	59
2025-11-15T00:16	15277	120	-64.9			
2025-11-15T00:17	15407	117			267	54
2025-11-15T00:17	15444	117	-63.7			
2025-11-15T00:17	15577	114			267	54
2025-11-15T00:18	15782	110	-62.4			
2025-11-15T00:18	15794	110			270	45
2025-11-15T00:18	15905	108	-63.0		271	44
2025-11-15T00:19	16004	106	-61.9			
2025-11-15T00:19	16017	106			275	40
2025-11-15T00:20	16389	100			284	37
2025-11-15T00:20	16487	98	-65.2			
2025-11-15T00:20	16535	98			280	33
2025-11-15T00:21	16730	95			273	33
2025-11-15T00:21	16837	93	-65.2		273	33
2025-11-15T00:21	16934	91	-63.7			
2025-11-15T00:22	17173	88			257	23
2025-11-15T00:22	17368	85			246	24
2025-11-15T00:23	17557	83	-67.0			
2025-11-15T00:23	17636	81			243	26
2025-11-15T00:24	17982	77			256	24
2025-11-15T00:24	18077	76	-68.9			
2025-11-15T00:25	18259	73			258	22
2025-11-15T00:25	18382	72	-70.6			
2025-11-15T00:25	18474	71	-68.9			
2025-11-15T00:26	18593	69			280	24
2025-11-15T00:26	18655	69	-68.9			
2025-11-15T00:26	18814	67	-67.0			
2025-11-15T00:27	18904	66			283	22
2025-11-15T00:27	19118	64			281	18
2025-11-15T00:27	19129	64	-67.1			
2025-11-15T00:28	19430	60	-65.0		269	13
2025-11-15T00:29	19752	57			249	19
2025-11-15T00:30	19845	56	-66.3			
2025-11-15T00:30	19945	56	-65.6			
2025-11-15T00:30	20087	54			264	18
2025-11-15T00:31	20167	54	-64.1			
2025-11-15T00:31	20271	53			256	12
2025-11-15T00:31	20356	52	-62.3			
2025-11-15T00:32	20610	50			257	12
2025-11-15T00:32	20736	49	-61.8			
2025-11-15T00:33	20851	48	-59.6			
2025-11-15T00:33	20863	48			253	9
2025-11-15T00:33	21077	46			221	12
2025-11-15T00:34	21250	45	-60.9		231	13
2025-11-15T11:33	26	1024	8.5	7.6	0	0
2025-11-15T11:33	30	1024	9.0	7.4	0	0
2025-11-15T11:33	51	1021	11.5	6.2		
2025-11-15T11:33	67	1020	13.0	6.8		
2025-11-15T11:33	72	1019			55	3
2025-11-15T11:33	142	1011	13.6	5.7		
2025-11-15T11:33	175	1006			96	5
2025-11-15T11:34	512	967			90	4
2025-11-15T11:35	673	948			100	2
2025-11-15T11:36	910	921	7.6	2.5		
2025-11-15T11:36	1018	909			116	1
2025-11-15T11:36	1184	891			66	3
2025-11-15T11:37	1337	874			62	3
2025-11-15T11:37	1522	855			306	3
2025-11-15T11:38	1648	842	1.8	-2.3		
2025-11-15T11:38	1694	837			292	3
2025-11-15T11:38	1790	827			275	4
2025-11-15T11:39	1929	813	-0.5	-3.4		
2025-11-15T11:39	2049	801	-1.1	-5.9		
2025-11-15T11:39	2078	798			298	8
2025-11-15T11:39	2149	791	-1.8	-3.5		
2025-11-15T11:39	2218	784	-1.5	-5.2		
2025-11-15T11:40	2329	773	-1.8	-5.8		
2025-11-15T11:40	2417	765			275	12
2025-11-15T11:40	2445	762	-2.7	-4.3		
2025-11-15T11:40	2604	747	-1.4	-17.6		
2025-11-15T11:41	2747	734			288	11
2025-11-15T11:41	2820	727	-1.3	-32.8		
2025-11-15T11:41	2948	715	-0.9	-34.1		
2025-11-15T11:42	3087	703			289	11
2025-11-15T11:42	3222	691	-2.7	-32.5		
2025-11-15T11:42	3323	682	-2.4	-42.0		
2025-11-15T11:43	3464	670			295	10
2025-11-15T11:44	3805	642	-5.9	-44.4		
2025-11-15T11:44	3829	640			289	10
2025-11-15T11:44	3980	628			289	13
2025-11-15T11:45	4168	613	-7.5	-49.2		
2025-11-15T11:45	4345	599			292	13
2025-11-15T11:45	4381	596	-8.5	-49.9		
2025-11-15T11:46	4653	576			300	14
2025-11-15T11:46	4757	568	-11.3	-48.2		
2025-11-15T11:47	4914	556			285	14
2025-11-15T11:47	5070	545			286	18
2025-11-15T11:48	5240	533			287	20
2025-11-15T11:48	5304	528	-15.2	-51.0		
2025-11-15T11:49	5591	509			292	24
2025-11-15T11:49	5761	497	-18.2	-53.1		
2025-11-15T11:50	5951	485			291	28
2025-11-15T11:50	6131	473	-19.3	-43.3		
2025-11-15T11:50	6226	467			287	32
2025-11-15T11:51	6238	466	-19.4	-37.8		
2025-11-15T11:51	6594	444			285	33
2025-11-15T11:52	6825	431	-24.9	-35.4		
2025-11-15T11:52	6969	422			278	33
2025-11-15T11:53	7150	412			276	37
2025-11-15T11:53	7260	405	-29.1	-33.0		
2025-11-15T11:54	7392	398	-29.9	-33.9		
2025-11-15T11:54	7497	392			281	37
2025-11-15T11:54	7533	390	-30.9	-35.3		
2025-11-15T11:55	7745	379	-33.0	-36.3		
2025-11-15T11:55	7809	375	-33.1	-40.6		
2025-11-15T11:55	7822	374			282	41
2025-11-15T11:55	7885	371	-33.0	-43.6		
2025-11-15T11:55	8007	365	-32.1	-49.6		
2025-11-15T11:56	8098	360			283	50
2025-11-15T11:56	8418	344	-33.7	-59.0		
2025-11-15T11:57	8457	342			287	50
2025-11-15T11:57	8671	332	-34.8	-55.8		
2025-11-15T11:57	8737	329			283	54
2025-11-15T11:58	8837	324	-35.7	-57.3		
2025-11-15T11:58	8899	321	-35.0	-61.4		
2025-11-15T11:58	9018	316			282	61
2025-11-15T11:58	9145	310	-36.2	-64.0		
2025-11-15T11:59	9261	305			284	59
2025-11-15T11:59	9438	297			282	63
2025-11-15T11:59	9452	297	-37.1	-64.7		
2025-11-15T12:00	9608	290			281	66
2025-11-15T12:00	9944	276			278	69
2025-11-15T12:01	10115	269	-40.0	-65.3		
2025-11-15T12:01	10374	259			277	72
2025-11-15T12:02	10529	253	-42.0			
2025-11-15T12:02	10785	244			277	77
2025-11-15T12:03	10863	241	-43.5			
2025-11-15T12:03	11053	234			276	78
2025-11-15T12:03	11144	231	-45.1			
2025-11-15T12:04	11435	221			277	78
2025-11-15T12:05	11818	209			276	76
2025-11-15T12:06	12146	199			277	72
2025-11-15T12:06	12198	197	-50.3			
2025-11-15T12:07	12528	187			277	69
2025-11-15T12:07	12628	184	-52.7			
2025-11-15T12:08	12904	177			278	66
2025-11-15T12:09	13239	168			279	68
2025-11-15T12:10	13485	161			277	67
2025-11-15T12:10	13687	156	-58.2			
2025-11-15T12:11	13823	153			278	67
2025-11-15T12:11	14150	145			276	62
2025-11-15T12:11	14156	145	-60.1			
2025-11-15T12:12	14510	137			272	64
2025-11-15T12:13	14622	134	-63.5			
2025-11-15T12:13	14717	132			274	62
2025-11-15T12:14	15066	125	-65.3			
2025-11-15T12:14	15084	125			277	58
2025-11-15T12:15	15322	120	-65.6			
2025-11-15T12:15	15341	119			276	57
2025-11-15T12:15	15600	114			276	50
2025-11-15T12:16	15722	112	-65.2			
2025-11-15T12:16	15938	108			270	45
2025-11-15T12:17	16041	106	-66.9			
2025-11-15T12:17	16259	103			269	42
2025-11-15T12:18	16418	100	-69.4			
2025-11-15T12:18	16583	97			264	39
2025-11-15T12:19	16662	96	-68.7			
2025-11-15T12:19	16732	95			270	38
2025-11-15T12:19	16892	92			266	34
2025-11-15T12:20	16932	92	-66.7			
2025-11-15T12:20	17231	87			271	28
2025-11-15T12:20	17237	87	-67.2			
2025-11-15T12:21	17512	83	-66.8			
2025-11-15T12:21	17555	83			274	27
2025-11-15T12:22	17749	80			277	22
2025-11-15T12:23	18074	76			261	21
2025-11-15T12:23	18112	75	-69.7			
2025-11-15T12:24	18249	74	-69.6			
2025-11-15T12:24	18405	72			246	25
2025-11-15T12:24	18531	70	-69.1			
2025-11-15T12:25	18573	70			254	29
2025-11-15T12:25	18652	69	-67.1			
2025-11-15T12:25	18803	67			258	22
2025-11-15T12:25	18849	67	-66.2			
2025-11-15T12:26	19130	64			259	25
2025-11-15T12:26	19167	63	-66.9			
2025-11-15T12:27	19390	61	-67.1			
2025-11-15T12:27	19450	60			269	26
2025-11-15T12:28	19662	58	-66.9			
2025-11-15T12:28	19684	58			274	22
2025-11-15T12:28	19756	57	-65.9			
2025-11-15T12:29	19927	56	-65.9			
2025-11-15T12:29	19961	56			286	25
2025-11-15T12:29	20007	55	-62.7			
2025-11-15T12:29	20162	54			282	13
2025-11-15T12:30	20397	52			271	14
2025-11-15T12:31	20619	50	-61.2			
2025-11-15T12:31	20734	49			277	18
2025-11-15T12:32	20968	47	-57.0			
2025-11-15T12:32	20982	47			284	19
2025-11-15T12:33	21356	44			298	14
2025-11-15T12:33	21571	43			296	7
2025-11-15T12:34	21648	42			297	4
2025-11-15T12:34	21675	42	-58.8			
2025-11-15T12:34	21734	42			329	4
2025-11-15T12:34	21811	41			333	1
2025-11-15T12:35	22056	40			230	2
2025-11-15T12:35	22167	39			257	6
2025-11-15T12:35	22279	38	-60.7			
2025-11-15T12:36	22510	37			263	10
2025-11-15T12:37	22717	36	-59.8			
2025-11-15T12:37	22732	36			279	10
2025-11-15T12:37	22933	35			323	11
2025-11-15T12:37	23021	34	-58.0			
2025-11-15T12:38	23288	33			2	5
2025-11-15T12:38	23406	32			17	3
2025-11-15T12:39	23505	32			72	3
2025-11-15T12:39	23642	31			69	4
2025-11-15T12:39	23746	30			83	3
2025-11-15T12:40	23914	30			165	4
2025-11-15T12:40	24063	29			156	5
2025-11-15T12:40	24106	29	-59.6			
2025-11-15T12:41	24196	28			143	3
2025-11-15T12:41	24307	28			122	1
2025-11-15T12:41	24400	27			294	3
2025-11-15T12:41	24540	27			313	4
2025-11-15T12:42	24655	26			325	6
2025-11-15T12:43	24928	25			312	11
2025-11-15T12:43	25232	24			339	9
2025-11-15T12:44	25337	24	-57.4		349	4
2025-11-15T12:44	25446	23			314	3
2025-11-15T12:45	25726	22			355	4
2025-11-15T12:45	25811	22			14	2
2025-11-15T12:45	25958	21	-56.5		264	3
2025-11-15T12:46	26143	21			322	5
2025-11-15T12:47	26490	20			313	10
2025-11-15T12:47	26523	20	-55.0			
2025-11-15T12:48	26891	18			1	8
2025-11-15T12:48	27067	18			26	8
2025-11-15T12:49	27212	18			353	3
2025-11-15T12:49	27251	17	-55.2			
2025-11-15T12:49	27320	17			333	6
2025-11-15T12:49	27549	17			326	10
2025-11-15T12:50	27943	16			16	7
2025-11-15T12:51	27984	16	-55.6			
2025-11-15T12:51	28069	15			37	10
2025-11-15T12:51	28235	15			37	6
2025-11-15T12:51	28367	15			348	7
2025-11-15T12:52	28588	14	-55.3		330	4
2025-11-15T12:52	28769	14			356	6
2025-11-15T12:53	28865	14			348	4
2025-11-15T12:53	29010	13			0	0
2025-11-15T12:53	29158	13			46	3
2025-11-15T12:54	29308	13			22	9
2025-11-15T12:54	29461	12			44	9
2025-11-15T12:55	29836	12			353	9
2025-11-15T12:56	30005	11			328	9
2025-11-15T12:56	30181	11	-54.0			
2025-11-15T12:57	30415	11			19	9
2025-11-15T12:57	30540	10	-53.3			
2025-11-15T12:58	30857	10			27	14
2025-11-15T12:58	31054	10			40	11
2025-11-15T12:58	31194	9			11	12
2025-11-15T12:59	31479	9	-52.0			
2025-11-15T13:00	31627	9	-52.4		12	16
2025-11-15T23:33	26	1027	9.4	6.3	270	1
2025-11-15T23:33	30	1027	9.3	6.6	0	0
2025-11-15T23:33	56	1023	8.6	6.2		
2025-11-15T23:33	95	1019	8.7	5.8		
2025-11-15T23:33	129	1014	11.5	6.4		
2025-11-15T23:34	228	1003	11.5	6.6		
2025-11-15T23:34	339	989			78	5
2025-11-15T23:34	361	987	11.1	7.0		
2025-11-15T23:34	492	971			83	5
2025-11-15T23:35	647	953			128	3
2025-11-15T23:36	949	919			166	1
2025-11-15T23:36	972	916	6.3	3.5		
2025-11-15T23:36	1018	911	6.2	3.4		
2025-11-15T23:36	1058	907	6.0	2.6		
2025-11-15T23:36	1080	904			258	3
2025-11-15T23:36	1126	899	5.5	2.0		
2025-11-15T23:37	1214	890			249	3
2025-11-15T23:37	1220	889	4.7	1.2		
2025-11-15T23:37	1291	881	4.0	3.3	257	3
2025-11-15T23:37	1378	872			234	4
2025-11-15T23:37	1416	868	3.6	1.8		
2025-11-15T23:37	1473	862	3.7	-0.9		
2025-11-15T23:38	1523	856	3.3	0.2		
2025-11-15T23:38	1596	849	2.9	1.9		
2025-11-15T23:38	1714	837			247	10
2025-11-15T23:39	1871	820			246	11
2025-11-15T23:39	2147	792	-1.3	-1.4		
2025-11-15T23:39	2203	787			240	14
2025-11-15T23:40	2304	777	-0.8	-2.2		
2025-11-15T23:40	2363	771	-1.2	-2.6		
2025-11-15T23:40	2376	770			232	18
2025-11-15T23:40	2428	765	-0.9	-9.0		
2025-11-15T23:41	2587	750	-2.0	-13.8		
2025-11-15T23:41	2725	737	-2.0	-18.5		
2025-11-15T23:41	2749	735			253	11
2025-11-15T23:41	2813	729	-2.3	-20.7		
2025-11-15T23:42	2964	715	-2.7	-23.2		
2025-11-15T23:42	3108	702			265	12
2025-11-15T23:43	3341	682	-5.2	-25.3		
2025-11-15T23:43	3363	680			268	15
2025-11-15T23:44	3683	653			276	15
2025-11-15T23:44	3774	645	-7.6	-32.2		
2025-11-15T23:44	3811	642			272	17
2025-11-15T23:44	3826	641	-7.0	-35.8		
2025-11-15T23:45	3938	632			276	17
2025-11-15T23:45	4018	625	-6.3	-34.1		
2025-11-15T23:45	4091	619	-6.8	-20.1		
2025-11-15T23:45	4144	615			278	21
2025-11-15T23:45	4165	614	-7.3	-19.5		
2025-11-15T23:45	4212	610	-7.3	-17.0		
2025-11-15T23:45	4239	608			280	24
2025-11-15T23:45	4250	607	-7.5	-15.4		
2025-11-15T23:46	4523	586	-9.3	-15.6		
2025-11-15T23:46	4561	583			268	21
2025-11-15T23:47	4610	579	-10.0	-15.9		
2025-11-15T23:47	4773	567	-10.7	-14.6		
2025-11-15T23:47	4899	558			275	25
2025-11-15T23:48	5050	547	-12.6	-18.8		
2025-11-15T23:48	5162	539	-13.3	-19.8		
2025-11-15T23:48	5236	534	-13.8	-19.9		
2025-11-15T23:48	5242	533			274	26
2025-11-15T23:49	5329	527	-14.4	-18.2		
2025-11-15T23:49	5471	518			268	30
2025-11-15T23:49	5558	512	-15.9	-19.9		
2025-11-15T23:50	5752	499	-17.6	-21.3		
2025-11-15T23:50	5820	494			266	31
2025-11-15T23:51	6000	482	-19.7	-21.8		
2025-11-15T23:51	6077	477	-20.3	-24.4		
2025-11-15T23:51	6122	474	-20.0	-33.2		
2025-11-15T23:51	6168	471			277	32
2025-11-15T23:51	6253	466	-20.6	-38.3		
2025-11-15T23:52	6463	453			280	36
2025-11-15T23:52	6581	446	-23.0	-37.6		
2025-11-15T23:52	6618	443			281	37
2025-11-15T23:52	6649	442	-22.2	-45.6		
2025-11-15T23:53	6760	435	-21.6	-53.2		
2025-11-15T23:53	6832	431			283	44
2025-11-15T23:53	6927	425	-22.6	-36.5		
2025-11-15T23:54	7174	411			281	45
2025-11-15T23:54	7205	409	-24.4	-35.2		
2025-11-15T23:55	7558	390			283	44
2025-11-15T23:55	7708	382	-28.9	-37.8		
2025-11-15T23:56	7940	370			281	43
2025-11-15T23:57	8282	352	-34.4	-39.3		
2025-11-15T23:57	8350	349			283	43
2025-11-15T23:57	8397	346	-34.9	-43.8		
2025-11-15T23:57	8489	342			280	45
2025-11-15T23:57	8516	340	-34.8	-46.6		
2025-11-15T23:58	8608	336			278	51
2025-11-15T23:58	8615	336	-35.0	-47.4		
2025-11-15T23:58	8753	329	-35.6	-49.8		
2025-11-15T23:58	8759	329			279	55
2025-11-15T23:58	8839	325	-34.7	-55.7		
2025-11-15T23:59	9092	313			279	63
2025-11-15T23:59	9137	311	-35.2	-59.0		
2025-11-16T00:00	9428	299			279	64
2025-11-16T00:00	9468	297	-36.9	-61.5		
2025-11-16T00:01	9725	286			278	67
2025-11-16T00:02	9948	277	-39.6	-62.4		
2025-11-16T00:02	9993	275	-40.0	-62.7		
2025-11-16T00:02	10053	273			276	68
2025-11-16T00:03	10375	260			275	68
2025-11-16T00:04	10615	251	-44.1			
2025-11-16T00:04	10685	248			273	69
2025-11-16T00:05	10991	237			273	69
2025-11-16T00:05	11075	234	-46.5			
2025-11-16T00:06	11305	226			274	70
2025-11-16T00:07	11605	216			276	68
2025-11-16T00:07	11744	212	-49.2			
2025-11-16T00:08	11877	207			274	67
2025-11-16T00:09	12190	198			273	69
2025-11-16T00:09	12305	194	-53.1			
2025-11-16T00:10	12506	188			272	69
2025-11-16T00:10	12639	184	-54.5			
2025-11-16T00:11	12793	180			275	67
2025-11-16T00:11	12815	179	-55.2			
2025-11-16T00:12	13050	173			275	68
2025-11-16T00:13	13312	166			276	65
2025-11-16T00:13	13394	164	-57.9			
2025-11-16T00:14	13576	159			275	65
2025-11-16T00:15	13857	152			275	60
2025-11-16T00:15	13861	152	-59.3			
2025-11-16T00:16	14180	144			270	58
2025-11-16T00:16	14363	140	-61.4			
2025-11-16T00:17	14529	136			268	58
2025-11-16T00:17	14617	135	-62.5			
2025-11-16T00:18	14840	130			268	58
2025-11-16T00:19	15128	124			270	58
2025-11-16T00:20	15349	119	-68.5			
2025-11-16T00:20	15416	118			272	57
2025-11-16T00:20	15595	114	-68.7			
2025-11-16T00:21	15644	113			270	53
2025-11-16T00:21	15804	110	-68.3		270	49
2025-11-16T00:22	16019	107			270	47
2025-11-16T00:22	16033	106	-69.2			
2025-11-16T00:22	16127	105	-67.9			
2025-11-16T00:22	16143	104			264	44
2025-11-16T00:23	16295	102			268	43
2025-11-16T00:23	16300	102	-67.9			
2025-11-16T00:24	16555	97	-67.9			
2025-11-16T00:24	16592	97			264	37
2025-11-16T00:25	16917	92	-70.3			
2025-11-16T00:25	16933	91			274	36
2025-11-16T00:26	17245	87			267	33
2025-11-16T00:27	17437	84	-72.4			
2025-11-16T00:27	17516	83			279	34
2025-11-16T00:27	17646	81	-71.6			
2025-11-16T00:28	17824	79			274	30
2025-11-16T00:28	17832	79	-70.6			
2025-11-16T00:29	18049	76	-68.0			
2025-11-16T00:29	18129	75			276	26
2025-11-16T00:29	18136	75	-66.4			
2025-11-16T00:30	18401	71	-65.9			
2025-11-16T00:30	18427	71			283	26
2025-11-16T00:31	18728	68			278	17
2025-11-16T00:31	18808	67	-65.9			
2025-11-16T00:32	18936	65	-64.6			
2025-11-16T00:32	19013	65			262	21
2025-11-16T00:33	19213	63			271	20
2025-11-16T00:33	19361	61	-64.0			
2025-11-16T00:34	19527	59			274	12
2025-11-16T00:34	19537	59	-60.5			
2025-11-16T00:34	19772	57			244	13
2025-11-16T00:35	20050	55	-61.8			
2025-11-16T00:35	20084	54			225	18
2025-11-16T00:36	20395	52	-63.8			
2025-11-16T00:36	20409	52			236	20
2025-11-16T00:37	20727	49			275	14
2025-11-16T00:37	20754	49	-61.8			
2025-11-16T00:38	20972	47			312	10
2025-11-16T00:39	21132	46			324	10
2025-11-16T00:39	21353	44			303	13
2025-11-16T00:39	21396	44	-60.9			
2025-11-16T00:40	21612	42			314	9
2025-11-16T00:40	21684	42	-60.2			
2025-11-16T00:40	21714	42			297	2
2025-11-16T00:41	21944	40			246	3
2025-11-16T00:42	22130	39	-60.4			
2025-11-16T00:42	22179	39			277	10
2025-11-16T00:42	22325	38			307	4
2025-11-16T00:43	22479	37			323	8
2025-11-16T00:43	22563	36	-57.8			
2025-11-16T00:43	22635	36			305	3
2025-11-16T00:43	22720	36			234	3
2025-11-16T00:44	23030	34			287	6
2025-11-16T00:45	23143	33	-59.2			
2025-11-16T00:45	23239	33			277	6
2025-11-16T00:46	23527	31	-61.1			
2025-11-16T00:46	23547	31			295	6
2025-11-16T00:46	23689	30			298	6
2025-11-16T00:47	23984	29	-58.0			
2025-11-16T00:47	24027	29			343	7
2025-11-16T00:48	24294	28			8	7
2025-11-16T00:49	24599	26			29	6
2025-11-16T00:50	24769	26	-57.3			
2025-11-16T00:50	24847	25			42	2
2025-11-16T00:50	25020	25			284	3
2025-11-16T00:51	25150	24			281	4
2025-11-16T00:51	25388	23			299	5
2025-11-16T00:51	25469	23	-59.1			
2025-11-16T00:52	25551	23			325	4
2025-11-16T00:52	25665	22			292	3
2025-11-16T00:52	25748	22			321	5
2025-11-16T00:53	25894	21			336	8
2025-11-16T00:53	25956	21	-57.9			
2025-11-16T00:53	26106	21			348	3
2025-11-16T00:54	26390	20			179	1
2025-11-16T00:55	26586	19			284	3
2025-11-16T00:55	26687	19			280	4
2025-11-16T00:55	26824	19	-54.8			
2025-11-16T00:56	27067	18			360	5
2025-11-16T00:56	27101	18			12	5
2025-11-16T00:56	27249	17			34	4
2025-11-16T00:57	27398	17			311	3
2025-11-16T00:57	27587	16			304	6
2025-11-16T00:58	27985	15			6	9
2025-11-16T00:59	28158	15	-56.5			
2025-11-16T00:59	28197	15			357	7
2025-11-16T01:00	28459	14			14	6
2025-11-16T01:00	28595	14			40	10
2025-11-16T01:01	28780	14			25	10
2025-11-16T01:01	28829	14	-53.0			
2025-11-16T01:02	29175	13	-53.7		61	9
2025-11-16T01:03	29533	12			68	7
2025-11-16T01:03	29643	12	-53.4			
2025-11-16T01:03	29697	12			75	4
2025-11-16T01:03	29749	12			97	4
2025-11-16T01:03	29805	12			69	3
2025-11-16T01:04	29862	12			20	5
2025-11-16T01:04	30088	11	-54.4		26	10
2025-11-16T01:05	30266	11			19	14
2025-11-16T01:05	30443	11	-55.3			
2025-11-16T01:05	30506	10			35	10
2025-11-16T01:06	30679	10	-54.3		17	9
2025-11-16T11:33	26	1024	12.2	9.2	350	1
2025-11-16T11:33	31	1023	12.6	9.2	0	0
2025-11-16T11:33	41	1022	13.5	9.4		
2025-11-16T11:33	78	1017			39	3
2025-11-16T11:33	89	1016	13.9	8.3		
2025-11-16T11:33	145	1009	14.5	8.0		
2025-11-16T11:33	173	1006			67	5
2025-11-16T11:34	504	967			135	7
2025-11-16T11:35	697	945	11.4	9.1		
2025-11-16T11:35	832	930			166	8
2025-11-16T11:36	1154	895			197	7
2025-11-16T11:37	1203	890	7.3	6.1		
2025-11-16T11:37	1369	872			214	6
2025-11-16T11:37	1431	865	5.8	3.1		
2025-11-16T11:37	1481	860			224	5
2025-11-16T11:38	1622	845			220	5
2025-11-16T11:38	1746	833			239	3
2025-11-16T11:38	1841	823			208	4
2025-11-16T11:39	1940	813	0.9	0.9		
2025-11-16T11:39	1957	811			219	5
2025-11-16T11:39	2115	795	-0.1	-0.4		
2025-11-16T11:39	2137	793			220	6
2025-11-16T11:40	2197	787	2.0	-4.5		
2025-11-16T11:40	2230	784	2.7	-6.4		
2025-11-16T11:40	2235	783			262	10
2025-11-16T11:40	2470	761	1.2	-11.2		
2025-11-16T11:41	2571	751			256	10
2025-11-16T11:41	2777	732			267	10
2025-11-16T11:41	2851	726	-1.7	-19.6		
2025-11-16T11:42	2950	717			282	13
2025-11-16T11:42	2967	715	-0.8	-24.3		
2025-11-16T11:43	3232	692			280	11
2025-11-16T11:43	3282	687	-2.0	-23.8		
2025-11-16T11:43	3338	683			269	13
2025-11-16T11:43	3361	681	-2.3	-13.2		
2025-11-16T11:43	3493	669			274	14
2025-11-16T11:43	3505	668	-2.8	-13.1		
2025-11-16T11:44	3658	655			276	16
2025-11-16T11:44	3718	650	-3.8	-15.4		
2025-11-16T11:44	3740	649			267	15
2025-11-16T11:44	3821	642			274	15
2025-11-16T11:45	3932	633			270	18
2025-11-16T11:45	4082	621	-6.7	-12.2		
2025-11-16T11:45	4185	613	-7.1	-11.8		
2025-11-16T11:46	4292	605			278	21
2025-11-16T11:46	4444	593	-8.7	-14.3		
2025-11-16T11:46	4483	590			275	26
2025-11-16T11:47	4644	578			273	21
2025-11-16T11:47	4760	569	-11.2	-15.1		
2025-11-16T11:47	4795	567			270	23
2025-11-16T11:48	4983	553			271	24
2025-11-16T11:48	5059	547	-13.4	-16.9		
2025-11-16T11:49	5283	531	-14.5	-20.2		
2025-11-16T11:49	5330	528			257	25
2025-11-16T11:49	5365	526	-15.2	-21.4		
2025-11-16T11:49	5460	519	-15.6	-25.6		
2025-11-16T11:49	5520	515	-15.5	-29.9		
2025-11-16T11:49	5600	510			268	26
2025-11-16T11:50	5814	495	-18.0	-29.5	270	26
2025-11-16T11:50	5899	490	-18.6	-28.1		
2025-11-16T11:51	6038	481	-19.8	-29.2		
2025-11-16T11:51	6183	471			266	27
2025-11-16T11:51	6279	465	-21.3	-22.0		
2025-11-16T11:52	6435	455			258	29
2025-11-16T11:52	6483	452	-23.0	-23.0		
2025-11-16T11:52	6634	443	-23.8	-24.4		
2025-11-16T11:53	6803	433			268	31
2025-11-16T11:53	6859	430	-25.8	-27.3		
2025-11-16T11:53	6986	422			266	34
2025-11-16T11:54	7115	415	-28.3	-28.9		
2025-11-16T11:54	7162	412	-28.6	-31.2		
2025-11-16T11:54	7191	410	-28.0	-37.7		
2025-11-16T11:54	7208	409	-27.6	-44.7		
2025-11-16T11:54	7243	407	-27.6	-51.9		
2025-11-16T11:54	7310	404			275	32
2025-11-16T11:55	7564	389			277	34
2025-11-16T11:55	7643	385	-29.9	-53.7		
2025-11-16T11:55	7703	382			277	38
2025-11-16T11:56	7844	374	-30.4	-57.9		
2025-11-16T11:56	7949	369			277	41
2025-11-16T11:56	8056	363	-31.3	-58.6		
2025-11-16T11:57	8213	355			276	48
2025-11-16T11:57	8341	349	-31.3	-60.4		
2025-11-16T11:57	8347	349			274	54
2025-11-16T11:57	8510	341	-31.8	-56.3		
2025-11-16T11:58	8585	337			273	56
2025-11-16T11:58	8747	330	-32.4	-59.4		
2025-11-16T11:58	8789	328			276	58
2025-11-16T11:59	8985	319			274	60
2025-11-16T11:59	9105	313	-35.1	-61.5		
2025-11-16T12:00	9344	302			271	61
2025-11-16T12:00	9546	294			272	61
2025-11-16T12:01	9647	289	-39.6	-62.4		
2025-11-16T12:01	9731	286	-40.0	-62.7		
2025-11-16T12:01	9750	285			271	64
2025-11-16T12:02	10013	274			271	64
2025-11-16T12:03	10416	258			271	63
2025-11-16T12:04	10820	243			271	68
2025-11-16T12:04	10840	242	-47.7			
2025-11-16T12:05	11213	229			271	70
2025-11-16T12:05	11438	221	-50.8			
2025-11-16T12:06	11612	215			272	71
2025-11-16T12:07	12014	202			273	72
2025-11-16T12:07	12080	200	-53.6			
2025-11-16T12:07	12246	195	-54.6			
2025-11-16T12:08	12356	192	-54.6			
2025-11-16T12:08	12402	190			271	73
2025-11-16T12:09	12814	178			274	73
2025-11-16T12:09	12877	177	-58.5			
2025-11-16T12:09	13180	168			274	68
2025-11-16T12:10	13328	164	-59.6			
2025-11-16T12:10	13602	157			274	65
2025-11-16T12:11	13902	150	-62.8			
2025-11-16T12:11	14006	147			272	62
2025-11-16T12:12	14423	138			267	62
2025-11-16T12:12	14438	137	-64.9			
2025-11-16T12:13	14706	131	-64.9			
2025-11-16T12:13	14849	128			267	61
2025-11-16T12:14	14926	127	-64.7			
2025-11-16T12:15	15204	121			266	58
2025-11-16T12:15	15511	115			268	61
2025-11-16T12:16	15675	112	-69.6			
2025-11-16T12:16	15822	109			271	61
2025-11-16T12:17	15869	108	-70.0			
2025-11-16T12:17	16134	104			272	51
2025-11-16T12:18	16348	100	-69.3			
2025-11-16T12:18	16433	99			267	48
2025-11-16T12:19	16621	96	-67.2			
2025-11-16T12:19	16748	94			281	42
2025-11-16T12:20	17068	89			279	33
2025-11-16T12:21	17309	85	-68.4			
2025-11-16T12:21	17401	84			264	32
2025-11-16T12:22	17545	82	-68.1			
2025-11-16T12:22	17597	81			250	29
2025-11-16T12:22	17618	81	-65.4			
2025-11-16T12:23	17841	78			257	27
2025-11-16T12:24	18161	74			260	27
2025-11-16T12:24	18179	74	-65.6			
2025-11-16T12:25	18466	71			263	22
2025-11-16T12:25	18632	69	-63.1			
2025-11-16T12:25	18659	68			264	24
2025-11-16T12:26	18899	66			276	24
2025-11-16T12:27	19136	63	-63.0			
2025-11-16T12:27	19176	63			268	22
2025-11-16T12:28	19437	60	-62.3		281	22
2025-11-16T23:33	26	1016	12.6	8.1	260	3
2025-11-16T23:33	32	1015	12.4	8.1	0	0
2025-11-16T23:33	63	1011	11.2	7.5		
2025-11-16T23:33	73	1010			288	3
2025-11-16T23:34	207	994	10.3	6.8		
2025-11-16T23:34	243	989	11.3	6.8	264	6
2025-11-16T23:34	270	986	12.3	7.6		
2025-11-16T23:34	339	978			225	7
2025-11-16T23:34	386	973	12.5	9.7		
2025-11-16T23:35	498	960	13.3	11.2		
2025-11-16T23:35	513	958			213	13
2025-11-16T23:35	615	946	12.8	10.0		
2025-11-16T23:35	703	937	12.2	10.8		
2025-11-16T23:35	764	930	12.0	7.9		
2025-11-16T23:35	820	923			210	14
2025-11-16T23:36	898	915	11.2	6.9		
2025-11-16T23:36	938	910			209	18
2025-11-16T23:36	1002	904	11.3	1.8		
2025-11-16T23:36	1071	896	10.9	3.9		
2025-11-16T23:36	1112	892	11.4	-4.7		
2025-11-16T23:37	1247	877	10.7	-12.7		
2025-11-16T23:37	1288	873			207	20
2025-11-16T23:37	1391	862	10.0	-19.2		
2025-11-16T23:38	1516	849	9.9	-14.8		
2025-11-16T23:38	1581	843	10.3	-10.5		
2025-11-16T23:38	1624	838			226	17
2025-11-16T23:39	1929	808			234	15
2025-11-16T23:39	2055	796	7.1	-13.8		
2025-11-16T23:40	2198	782			236	17
2025-11-16T23:40	2330	769	5.4	-15.8		
2025-11-16T23:40	2451	758			248	15
2025-11-16T23:41	2759	730			258	17
2025-11-16T23:42	2838	723	1.7	-17.2		
2025-11-16T23:42	3098	700			258	20
2025-11-16T23:43	3226	688	-1.5	-23.4		
2025-11-16T23:43	3343	678	-2.3	-22.8		
2025-11-16T23:43	3446	670			252	20
2025-11-16T23:43	3468	668	-3.4	-16.3		
2025-11-16T23:44	3722	647			249	23
2025-11-16T23:44	3748	644	-5.9	-15.7		
2025-11-16T23:45	3902	632	-5.1	-39.0		
2025-11-16T23:45	4038	621			259	20
2025-11-16T23:46	4194	609			266	22
2025-11-16T23:46	4227	606	-5.7	-37.7		
2025-11-16T23:47	4536	583			265	21
2025-11-16T23:47	4775	565	-10.2	-32.7		
2025-11-16T23:48	4888	557			263	22
2025-11-16T23:48	5137	539			266	23
2025-11-16T23:49	5306	527	-15.0	-30.3		
2025-11-16T23:49	5496	514	-16.6	-32.9	269	25
2025-11-16T23:50	5791	494			265	26
2025-11-16T23:50	5808	493	-18.5	-36.5		
2025-11-16T23:51	6138	472			276	30
2025-11-16T23:52	6348	458	-22.6	-35.8		
2025-11-16T23:52	6479	450			277	31
2025-11-16T23:53	6690	437	-25.2	-38.8		
2025-11-16T23:53	6821	429			282	35
2025-11-16T23:54	6988	420			280	37
2025-11-16T23:54	7017	418	-27.7	-34.9		
2025-11-16T23:54	7109	413			284	39
2025-11-16T23:54	7157	410	-28.6	-35.2		
2025-11-16T23:55	7353	399	-29.8	-37.1		
2025-11-16T23:55	7460	393	-30.1	-43.8	288	46
2025-11-16T23:55	7618	384			288	49
2025-11-16T23:56	7824	373			292	51
2025-11-16T23:56	7849	372	-32.7	-47.3		
2025-11-16T23:57	8053	361			285	50
2025-11-16T23:57	8135	357	-33.2	-50.5		
2025-11-16T23:57	8282	350	-33.2	-51.0		
2025-11-16T23:57	8312	348			277	50
2025-11-16T23:58	8534	337	-34.4	-53.3		
2025-11-16T23:58	8689	330			273	59
2025-11-16T23:59	8847	322	-35.2	-56.9		
2025-11-16T23:59	8952	318			270	65
2025-11-17T00:00	9160	308	-37.2	-57.7		
2025-11-17T00:00	9317	301			270	68
2025-11-17T00:00	9433	296	-39.2	-54.1		
2025-11-17T00:01	9529	292	-40.0	-54.8		
2025-11-17T00:01	9680	286			271	69
2025-11-17T00:02	9883	277			270	69
2025-11-17T00:03	10264	262			271	69
2025-11-17T00:03	10358	258	-46.3			
2025-11-17T00:04	10641	247			270	72
2025-11-17T00:04	10981	235	-49.5			
2025-11-17T00:05	11012	234			271	74
2025-11-17T00:05	11307	223	-50.4			
2025-11-17T00:06	11371	221			270	73
2025-11-17T00:07	11752	209			271	72
2025-11-17T00:07	12027	200	-53.1			
2025-11-17T00:08	12135	197			270	73
2025-11-17T00:09	12516	185			270	72
2025-11-17T00:09	12735	179	-56.7			
2025-11-17T00:10	12895	174			270	70
2025-11-17T00:11	13244	165			271	68
2025-11-17T00:11	13324	163	-59.9			
2025-11-17T00:12	13589	156			273	66
2025-11-17T00:12	13723	153	-61.7		270	65
2025-11-17T11:33	26	1007	11.3	9.9	260	0
2025-11-17T11:33	32	1006	11.8	9.4	0	0
2025-11-17T11:33	62	1002	14.2	5.0		
2025-11-17T11:33	111	997	18.5	7.3		
2025-11-17T11:33	132	994			271	4
2025-11-17T11:34	387	965	16.7	5.3		
2025-11-17T11:34	397	964			327	7
2025-11-17T11:35	584	943			314	9
2025-11-17T11:35	631	938	14.8	3.6		
2025-11-17T11:35	708	929	14.1	3.3		
2025-11-17T11:35	759	924			311	13
2025-11-17T11:36	938	904	12.7	1.1		
2025-11-17T11:36	1075	889			306	12
2025-11-17T11:37	1281	868	10.0	-0.8		
2025-11-17T11:37	1293	866			291	14
2025-11-17T11:37	1427	852			287	12
2025-11-17T11:38	1654	829	7.6	-2.7		
2025-11-17T11:38	1676	827			288	12
2025-11-17T11:39	1868	808			278	15
2025-11-17T11:39	1998	795	4.7	-4.1		
2025-11-17T11:40	2192	776			273	14
2025-11-17T11:40	2347	762			268	12
2025-11-17T11:41	2552	742			261	15
2025-11-17T11:41	2605	738	0.5	-9.2		
2025-11-17T11:42	2846	716	-0.9	-11.9		
2025-11-17T11:42	2873	713			253	17
2025-11-17T11:43	3106	693			257	18
2025-11-17T11:43	3138	690	-3.1	-13.4		
2025-11-17T11:43	3393	668	-4.1	-15.1		
2025-11-17T11:44	3431	665			268	24
2025-11-17T11:44	3514	658	-4.8	-16.3		
2025-11-17T11:44	3667	645			264	29
2025-11-17T11:44	3679	644	-5.4	-12.4		
2025-11-17T11:45	3781	636			264	33
2025-11-17T11:45	3818	633	-5.7	-9.8		
2025-11-17T11:45	3918	625	-5.5	-9.7		
2025-11-17T11:45	3944	623			263	36
2025-11-17T11:45	4054	614	-6.3	-11.1		
2025-11-17T11:46	4327	593			260	35
2025-11-17T11:47	4488	581	-8.6	-14.4		
2025-11-17T11:47	4677	567			258	33
2025-11-17T11:48	4847	554	-11.6	-16.0		
2025-11-17T11:48	5008	543			251	35
2025-11-17T11:48	5035	541	-12.5	-17.9		
2025-11-17T11:49	5324	521	-14.8	-19.1		
2025-11-17T11:49	5329	520			251	36
2025-11-17T11:50	5563	505	-15.9	-21.0		
2025-11-17T11:50	5667	498			260	39
2025-11-17T11:50	5789	490	-16.4	-24.6		
2025-11-17T11:51	5852	486	-15.8	-26.9		
2025-11-17T11:51	6010	475			259	44
2025-11-17T11:51	6026	474	-16.0	-28.9		
2025-11-17T11:52	6219	462	-17.5	-29.3		
2025-11-17T11:52	6308	457			263	45
2025-11-17T11:53	6565	441	-19.2	-33.5		
2025-11-17T11:53	6593	440			260	51
2025-11-17T11:54	6949	419			265	52
2025-11-17T11:55	7217	404	-24.8	-37.7		
2025-11-17T11:55	7317	398			264	55
2025-11-17T11:56	7668	380			264	60
2025-11-17T11:56	7807	372	-28.7	-50.8		
2025-11-17T11:57	8046	360			267	64
2025-11-17T11:57	8104	357	-30.6	-48.9		
2025-11-17T11:57	8215	352	-31.0	-45.0		
2025-11-17T11:57	8269	349	-31.6	-43.2		
2025-11-17T11:58	8355	345			267	70
2025-11-17T11:58	8424	341	-32.8	-43.6		
2025-11-17T11:58	8540	336	-33.9	-42.0		
2025-11-17T11:58	8614	332	-34.6	-38.9		
2025-11-17T11:58	8675	329	-35.0	-38.1		
2025-11-17T11:59	8723	327			266	71
2025-11-17T11:59	8917	318	-37.1	-40.8		
2025-11-17T11:59	8984	315	-37.5	-43.2		
2025-11-17T11:59	9030	313	-37.3	-47.7		
2025-11-17T12:00	9064	311			266	70
2025-11-17T12:00	9250	303	-38.7	-49.8		
2025-11-17T12:00	9395	297	-40.0	-50.7		
2025-11-17T12:01	9419	295			265	71
2025-11-17T12:02	9796	280			263	74
2025-11-17T12:02	9949	273	-44.2			
2025-11-17T12:03	10205	263			263	76
2025-11-17T12:04	10623	247			266	74
2025-11-17T12:04	10978	234	-52.6			
2025-11-17T12:05	11015	232			268	75
2025-11-17T12:05	11248	224	-53.4			
2025-11-17T12:06	11351	221			265	79
2025-11-17T12:07	11636	211			264	79
2025-11-17T12:07	11641	211	-54.2			
2025-11-17T12:07	11909	202			265	80
2025-11-17T12:08	12183	194	-55.7			
2025-11-17T12:08	12193	193			264	84
2025-11-17T12:09	12501	184			267	81
2025-11-17T12:10	12554	183	-57.9			
2025-11-17T12:10	12797	176			267	80
2025-11-17T12:11	12902	173	-59.1			
2025-11-17T12:11	13072	168			265	76
2025-11-17T12:12	13354	161			268	75
2025-11-17T12:13	13498	157	-61.5			
2025-11-17T12:13	13543	156			266	73
2025-11-17T12:14	13839	149			262	67
2025-11-17T12:15	14129	142			260	69
2025-11-17T12:15	14208	140	-63.7			
2025-11-17T12:16	14425	135			261	66
2025-11-17T12:17	14707	129	-66.6			
2025-11-17T12:17	14722	129			259	66
2025-11-17T12:18	14995	123			258	68
2025-11-17T12:18	15080	121	-68.5			
2025-11-17T12:19	15299	117			266	71
2025-11-17T12:19	15430	114	-67.7			
2025-11-17T12:20	15626	111			275	65
2025-11-17T12:20	15673	110	-66.5			
2025-11-17T12:20	15802	108	-66.6			
2025-11-17T12:21	15972	105			278	53
2025-11-17T12:21	16105	102	-66.5			
2025-11-17T12:22	16268	100	-66.5			
2025-11-17T12:22	16285	99			271	51
2025-11-17T12:23	16578	95			280	44
2025-11-17T12:24	16791	91			271	37
2025-11-17T12:24	17050	88	-66.1			
2025-11-17T12:24	17056	87			262	39
2025-11-17T12:25	17184	86	-66.1			
2025-11-17T12:25	17206	85			256	36
2025-11-17T12:26	17481	82	-66.6			
2025-11-17T12:26	17547	81			257	36
2025-11-17T12:26	17572	80	-64.8			
2025-11-17T12:27	17890	76			257	39
2025-11-17T12:27	18045	74	-67.4			
2025-11-17T12:28	18210	72	-64.9			
2025-11-17T12:28	18226	72			271	36
2025-11-17T12:28	18347	71	-62.3			
2025-11-17T12:29	18424	70			285	34
2025-11-17T12:29	18460	69	-61.6			
2025-11-17T12:29	18773	66			295	21
2025-11-17T12:30	18917	65	-58.8			
2025-11-17T12:30	19084	63			282	9
2025-11-17T12:31	19367	60			238	4
2025-11-17T12:31	19462	59	-62.0			
2025-11-17T12:32	19631	58			151	4
2025-11-17T12:32	19793	56	-62.5			
2025-11-17T12:33	19982	54			211	11
2025-11-17T12:33	20052	54	-61.8			
2025-11-17T12:33	20215	52			220	17
2025-11-17T12:33	20229	52	-59.7			
2025-11-17T12:34	20522	50	-60.3			
2025-11-17T12:34	20548	50			229	18
2025-11-17T12:35	20818	48			252	17
2025-11-17T12:36	20991	46	-57.3			
2025-11-17T12:36	21076	46	-55.8			
2025-11-17T12:36	21158	45			242	13
2025-11-17T12:37	21506	43			238	13
2025-11-17T12:37	21567	42	-56.0			
2025-11-17T12:38	21658	42			241	9
2025-11-17T12:38	21751	41	-55.6			
2025-11-17T12:39	21954	40			246	13
2025-11-17T12:39	22221	38			252	8
2025-11-17T12:40	22456	37			220	4
2025-11-17T12:40	22631	36			181	7
2025-11-17T12:41	22851	35			217	7
2025-11-17T12:42	23036	34	-56.6			
2025-11-17T12:42	23209	33			239	7
2025-11-17T12:42	23364	32			269	6
2025-11-17T12:43	23548	31			313	7
2025-11-17T12:44	23795	30			283	8
2025-11-17T12:45	24121	28			356	3
2025-11-17T12:45	24255	28			250	3
2025-11-17T12:45	24325	27	-58.2			
2025-11-17T12:45	24372	27			263	4
2025-11-17T12:46	24612	26			356	6
2025-11-17T12:46	24759	26			6	3
2025-11-17T12:47	24883	25	-56.4			
2025-11-17T12:47	25061	24			217	3
2025-11-17T12:48	25272	24			262	5
2025-11-17T12:48	25383	23			241	3
2025-11-17T12:49	25634	22	-57.2		169	2
2025-11-17T12:49	25778	22			77	2
2025-11-17T12:49	25901	21			119	4
2025-11-17T12:50	25987	21	-56.1			
2025-11-17T12:50	26300	20			180	6
2025-11-17T12:51	26556	19	-57.4		223	2
2025-11-17T12:51	26621	19			277	3
2025-11-17T12:52	26861	18			321	8
2025-11-17T12:52	26896	18	-55.0			
2025-11-17T12:52	27075	18			337	5
2025-11-17T12:53	27366	17			59	2
2025-11-17T12:54	27528	17	-57.1		325	1
2025-11-17T23:33	26	1009	10.4	4.1	50	1
2025-11-17T23:33	31	1008	10.8	4.7	111	1
2025-11-17T23:33	54	1005	9.9	4.1		
2025-11-17T23:34	216	986			60	4
2025-11-17T23:34	227	985	8.5	3.1		
2025-11-17T23:34	255	981	10.0	3.1		
2025-11-17T23:34	322	974	10.3	1.4		
2025-11-17T23:34	333	972			312	4
2025-11-17T23:34	454	958			310	3
2025-11-17T23:34	498	953	9.5	-0.1		
2025-11-17T23:35	542	948			322	4
2025-11-17T23:36	871	911			316	5
2025-11-17T23:36	909	907	5.4	-2.0		
2025-11-17T23:36	969	900			297	2
2025-11-17T23:36	1030	893	4.3	-1.9		
2025-11-17T23:36	1047	892			332	5
2025-11-17T23:37	1225	872	2.4	-3.7		
2025-11-17T23:37	1370	857			303	8
2025-11-17T23:37	1505	842	0.3	-5.9		
2025-11-17T23:38	1712	821			298	13
2025-11-17T23:38	1810	811	-2.1	-7.8		
2025-11-17T23:39	1874	804			283	11
2025-11-17T23:39	1922	799	-2.1	-5.8		
2025-11-17T23:39	2050	787	-3.1	-4.7		
2025-11-17T23:39	2134	778			246	8
2025-11-17T23:39	2158	776	-3.8	-3.8		
2025-11-17T23:40	2234	769	-3.8	-3.8		
2025-11-17T23:40	2253	767			220	10
2025-11-17T23:40	2512	742			227	12
2025-11-17T23:41	2626	731	-5.9	-5.9		
2025-11-17T23:41	2664	728	-5.9	-5.9		
2025-11-17T23:41	2696	725	-5.8	-5.8		
2025-11-17T23:41	2734	721			222	11
2025-11-17T23:41	2872	709			222	13
2025-11-17T23:42	3075	690			240	16
2025-11-17T23:42	3147	684	-9.5	-10.0		
2025-11-17T23:42	3265	674			250	18
2025-11-17T23:42	3278	672	-10.7	-13.0		
2025-11-17T23:42	3390	663			258	25
2025-11-17T23:42	3409	661	-11.8	-15.2		
2025-11-17T23:43	3551	649	-12.7	-15.4		
2025-11-17T23:43	3669	639	-13.8	-18.6		
2025-11-17T23:43	3687	638			257	29
2025-11-17T23:43	3794	629	-14.2	-25.2		
2025-11-17T23:44	3951	616			267	36
2025-11-17T23:44	4110	603	-13.0	-25.0		
2025-11-17T23:45	4330	586			264	41
2025-11-17T23:45	4387	582	-14.1	-24.2		
2025-11-17T23:45	4441	577	-13.9	-24.3		
2025-11-17T23:46	4557	569	-14.6	-18.7		
2025-11-17T23:46	4611	565			262	43
2025-11-17T23:46	4621	564	-14.9	-18.8		
2025-11-17T23:46	4686	559	-14.6	-19.2		
2025-11-17T23:46	4723	556	-14.1	-19.4	255	44
2025-11-17T23:47	4991	537	-14.7	-20.4		
2025-11-17T23:47	5007	536			249	46
2025-11-17T23:48	5151	526	-15.5	-19.9		
2025-11-17T23:48	5193	523			252	48
2025-11-17T23:48	5287	516	-16.2	-19.0		
2025-11-17T23:48	5369	511			254	50
2025-11-17T23:48	5375	510	-16.6	-18.9		
2025-11-17T23:49	5575	497	-17.2	-21.2		
2025-11-17T23:49	5669	491	-17.9	-22.4		
2025-11-17T23:49	5675	490			256	51
2025-11-17T23:49	5817	481	-19.2	-23.3		
2025-11-17T23:50	5906	475	-19.2	-26.2		
2025-11-17T23:50	5942	473			257	52
2025-11-17T23:50	6036	467	-18.6	-28.9		
2025-11-17T23:50	6071	465			255	59
2025-11-17T23:51	6205	457			257	57
2025-11-17T23:51	6323	449			258	60
2025-11-17T23:51	6412	444	-21.0	-33.1		
2025-11-17T23:51	6436	443			255	58
2025-11-17T23:52	6579	434			257	62
2025-11-17T23:52	6820	420			257	69
2025-11-17T23:52	6865	418	-23.3	-37.5		
2025-11-17T23:53	7038	408	-24.1	-36.8		
2025-11-17T23:53	7213	398			257	71
2025-11-17T23:54	7459	385	-27.9	-38.1		
2025-11-17T23:54	7606	377			257	70
2025-11-17T23:54	7626	376	-29.3	-34.4		
2025-11-17T23:55	7736	370	-28.2	-31.3		
2025-11-17T23:55	7796	367			259	76
2025-11-17T23:55	8044	354			255	78
2025-11-17T23:56	8192	347	-31.0	-33.6		
2025-11-17T23:56	8378	338	-32.2	-33.6		
2025-11-17T23:56	8401	337			253	80
2025-11-17T23:57	8585	328	-34.0	-35.0		
2025-11-17T23:57	8755	320			253	80
2025-11-17T23:58	8829	317	-35.6	-38.3		
2025-11-17T23:58	8947	312	-36.6	-39.3		
2025-11-17T23:58	8982	310	-36.4	-41.2		
2025-11-17T23:58	9016	309	-36.2	-44.7		
2025-11-17T23:58	9098	305	-37.1	-46.3		
2025-11-17T23:58	9104	305			255	82
2025-11-17T23:59	9159	302	-36.3	-55.5		
2025-11-17T23:59	9294	296			258	83
2025-11-17T23:59	9413	291	-36.7	-58.1		
2025-11-18T00:00	9533	286			259	86
2025-11-18T00:00	9666	281	-38.3	-52.1	256	87
2025-11-18T00:00	9875	272	-39.0	-46.1		
2025-11-18T00:01	9961	269	-40.0	-45.1		
2025-11-18T00:01	10042	266			256	92
2025-11-18T00:02	10289	256	-42.4			
2025-11-18T00:02	10449	250			257	89
2025-11-18T00:03	10875	235			259	92
2025-11-18T00:04	11313	220			259	91
2025-11-18T00:04	11423	216	-52.1			
2025-11-18T00:05	11726	206			258	92
2025-11-18T00:05	11780	204	-54.0			
2025-11-18T00:06	12112	194			258	92
2025-11-18T00:07	12441	184			262	91
2025-11-18T00:07	12521	182	-59.3			
2025-11-18T00:08	12676	177	-59.2			
2025-11-18T00:08	12760	175			264	85
2025-11-18T00:08	12840	173	-58.5			
2025-11-18T00:09	12992	169	-58.8			
2025-11-18T00:09	13074	166			265	82
2025-11-18T00:10	13383	158			262	76
2025-11-18T00:10	13539	155	-58.3			
2025-11-18T00:11	13605	153			261	73
2025-11-18T00:12	14025	143			261	71
2025-11-18T00:13	14391	135			257	70
2025-11-18T00:13	14487	133	-64.5			
2025-11-18T00:13	14577	131	-63.6			
2025-11-18T00:14	14689	128			258	73
2025-11-18T00:14	14923	124	-65.7			
2025-11-18T00:14	14953	123			264	74
2025-11-18T00:15	15229	118			267	67
2025-11-18T00:16	15279	117	-64.9			
2025-11-18T00:16	15552	111			268	65
2025-11-18T00:17	15822	107	-67.8			
2025-11-18T00:18	15888	105			266	63
2025-11-18T00:18	16031	103			268	62
2025-11-18T00:19	16213	100	-68.4			
2025-11-18T00:19	16340	98			271	51
2025-11-18T00:20	16533	95			266	44
2025-11-18T00:20	16592	94	-66.6			
2025-11-18T00:20	16775	91	-65.8			
2025-11-18T00:21	16842	90			256	44
2025-11-18T00:21	16968	88	-65.0			
2025-11-18T00:22	17143	86			253	43
2025-11-18T00:22	17229	84	-65.5			
2025-11-18T00:22	17294	84			249	40
2025-11-18T00:23	17463	81	-64.9			
2025-11-18T00:23	17624	79			256	46
2025-11-18T00:23	17638	79	-65.1			
2025-11-18T00:24	17789	77	-63.0			
2025-11-18T00:24	17861	76			264	37
2025-11-18T00:24	18009	74	-61.7			
2025-11-18T00:24	18026	74			270	36
2025-11-18T00:25	18371	70			281	27
2025-11-18T00:26	18560	68	-62.5			
2025-11-18T00:26	18697	67			288	27
2025-11-18T00:26	18726	66	-59.8			
2025-11-18T00:27	18918	64	-59.0			
2025-11-18T00:27	18999	63			287	21
2025-11-18T00:28	19096	62	-59.3			
2025-11-18T00:28	19258	61	-58.9			
2025-11-18T00:28	19344	60			253	17
2025-11-18T00:29	19674	57	-59.2			
2025-11-18T00:29	19707	57			231	12
2025-11-18T00:30	20037	54			252	11
2025-11-18T00:31	20271	52	-61.8			
2025-11-18T00:31	20378	51			263	15
2025-11-18T00:32	20466	50	-60.4			
2025-11-18T00:32	20630	49			242	15
2025-11-18T00:33	20923	47	-57.4			
2025-11-18T00:33	20975	46			241	15
2025-11-18T00:34	21156	45	-56.5			
2025-11-18T00:34	21286	44			245	14
2025-11-18T00:34	21476	43	-55.6		265	9
2025-11-18T00:35	21705	41			225	5
2025-11-18T00:35	21815	41	-55.8			
2025-11-18T00:35	21846	40			187	4
2025-11-18T00:36	21942	40			149	5
2025-11-18T00:37	22320	37			206	9
2025-11-18T00:37	22437	37	-58.4			
2025-11-18T00:37	22525	36			206	11
2025-11-18T00:38	22773	35	-57.5			
2025-11-18T00:38	22846	34			238	11
2025-11-18T00:39	22976	34	-55.9			
2025-11-18T00:39	23130	33			215	12
2025-11-18T00:39	23311	32			239	12
2025-11-18T00:40	23331	32	-54.1			
2025-11-18T00:40	23617	31	-53.9			
2025-11-18T00:41	23681	30			259	12
2025-11-18T00:41	24024	29			300	7
2025-11-18T00:42	24229	28			356	6
2025-11-18T00:43	24580	26	-58.3			
2025-11-18T00:43	24606	26			275	4
2025-11-18T00:44	24797	25			256	7
2025-11-18T00:44	24873	25	-59.2			
2025-11-18T00:44	25103	24			273	13
2025-11-18T00:45	25371	23			303	5
2025-11-18T00:45	25483	23			275	3
2025-11-18T00:46	25568	22	-56.3			
2025-11-18T00:46	25709	22			0	0
2025-11-18T00:47	26066	21			222	3
2025-11-18T00:48	26312	20			243	3
2025-11-18T00:48	26345	20	-58.4			
2025-11-18T00:48	26444	20			178	6
2025-11-18T00:48	26503	19	-57.5			
2025-11-18T00:49	26841	18	-57.4		210	10
2025-11-18T00:49	27014	18			226	13
2025-11-18T00:50	27162	17	-56.0			
2025-11-18T00:50	27234	17			264	11
2025-11-18T00:51	27459	17	-53.0			
2025-11-18T00:51	27499	17			273	5
2025-11-18T00:51	27656	16			292	7
2025-11-18T00:51	27776	16			266	5
2025-11-18T00:52	27902	16			225	8
2025-11-18T00:52	28115	15			252	10
2025-11-18T00:53	28420	14			267	6
2025-11-18T00:53	28601	14			295	7
2025-11-18T00:54	28839	13			308	8
2025-11-18T00:54	28982	13	-54.5			
2025-11-18T00:54	29033	13			272	8
2025-11-18T00:55	29232	13			297	12
2025-11-18T00:55	29387	12			337	10
2025-11-18T00:56	29598	12			295	9
2025-11-18T00:56	29762	12			337	7
2025-11-18T00:57	29874	11			354	8
2025-11-18T00:57	30106	11			305	5
2025-11-18T00:58	30286	11	-52.6		329	10
2025-11-18T00:58	30466	10			321	7
2025-11-18T00:58	30593	10			289	8
2025-11-18T00:59	31054	10			346	11
2025-11-18T01:00	31188	9	-51.9			
2025-11-18T01:00	31402	9			325	7
2025-11-18T01:01	31548	9			304	10
2025-11-18T01:01	31776	9			323	6
2025-11-18T01:02	32015	8	-48.4		293	5
2025-11-18T01:02	32095	8			309	4
2025-11-18T01:02	32258	8			300	10
2025-11-18T01:03	32513	8			343	14
2025-11-18T01:04	32779	7	-47.4		296	9
2025-11-18T11:33	26	1010	5.9	1.0	30	1
2025-11-18T11:33	32	1009	6.3	1.2	0	0
2025-11-18T11:33	42	1008	7.1	1.6		
2025-11-18T11:33	93	1002	7.1	0.5		
2025-11-18T11:33	111	1000			33	4
2025-11-18T11:33	122	998	7.9	0.6		
2025-11-18T11:34	237	985			346	4
2025-11-18T11:34	377	968	6.8	-0.9		
2025-11-18T11:34	450	959	6.8	-0.9		
2025-11-18T11:35	593	943			61	4
2025-11-18T11:35	655	936	5.6	0.0		
2025-11-18T11:35	777	922			163	2
2025-11-18T11:35	838	915			240	3
2025-11-18T11:35	849	914	4.7	-1.1		
2025-11-18T11:36	945	903			260	2
2025-11-18T11:36	1035	893			274	4
2025-11-18T11:36	1208	874			293	6
2025-11-18T11:37	1236	871	1.1	-3.6		
2025-11-18T11:37	1399	854			282	5
2025-11-18T11:37	1535	839			294	7
2025-11-18T11:38	1735	818	-3.3	-7.1		
2025-11-18T11:38	1795	812			295	10
2025-11-18T11:38	1838	808	-4.0	-8.3		
2025-11-18T11:39	1969	794	-5.1	-9.9		
2025-11-18T11:39	2101	781	-5.2	-11.3		
2025-11-18T11:39	2134	778			278	16
2025-11-18T11:40	2475	744			265	15
2025-11-18T11:41	2715	722	-9.8	-11.0		
2025-11-18T11:41	2826	711			258	16
2025-11-18T11:41	2896	705	-11.4	-13.7		
2025-11-18T11:42	3146	682	-13.3	-18.0		
2025-11-18T11:42	3181	679			269	18
2025-11-18T11:43	3541	647			270	20
2025-11-18T11:44	3697	634	-17.6	-23.1		
2025-11-18T11:44	3898	617			273	23
2025-11-18T11:44	3939	614	-19.4	-24.7		
2025-11-18T11:45	4158	596	-20.8	-25.7		
2025-11-18T11:45	4242	589			280	28
2025-11-18T11:45	4333	582	-22.2	-25.9		
2025-11-18T11:46	4426	575			277	26
2025-11-18T11:46	4598	561	-22.1	-28.9		
2025-11-18T11:46	4686	555			280	31
2025-11-18T11:47	4787	547	-22.9	-31.6		
2025-11-18T11:47	4933	536	-23.5	-33.1		
2025-11-18T11:47	4984	533			267	33
2025-11-18T11:48	5035	529	-23.7	-34.6		
2025-11-18T11:48	5184	518			263	36
2025-11-18T11:49	5386	504	-26.0	-36.7		
2025-11-18T11:49	5426	501			262	38
2025-11-18T11:49	5538	494			261	38
2025-11-18T11:49	5659	485	-27.3	-42.6		
2025-11-18T11:50	5706	482			260	39
2025-11-18T11:50	5781	477	-26.5	-51.0		
2025-11-18T11:50	5874	471			262	46
2025-11-18T11:51	6225	449			254	51
2025-11-18T11:51	6300	444	-27.6	-54.3		
2025-11-18T11:52	6396	438			259	53
2025-11-18T11:52	6465	434	-27.6	-55.8		
2025-11-18T11:52	6516	431	-27.2	-55.5		
2025-11-18T11:52	6556	428			260	57
2025-11-18T11:52	6628	424	-27.5	-57.5		
2025-11-18T11:52	6673	422			260	55
2025-11-18T11:53	6843	412	-28.7	-58.4		
2025-11-18T11:53	6864	411			259	57
2025-11-18T11:53	7016	402			255	60
2025-11-18T11:54	7083	398	-28.9	-63.9		
2025-11-18T11:54	7320	385	-28.2	-68.5		
2025-11-18T11:54	7353	383			258	67
2025-11-18T11:55	7703	365			259	69
2025-11-18T11:56	7738	363	-29.8	-69.6		
2025-11-18T11:56	7998	350	-30.4	-70.0		
2025-11-18T11:56	8043	348			261	73
2025-11-18T11:57	8292	336	-31.1	-70.4		
2025-11-18T11:57	8317	335			261	74
2025-11-18T11:58	8540	324	-33.1	-66.9		
2025-11-18T11:58	8546	324			257	76
2025-11-18T11:58	8807	312	-35.1	-65.4		
2025-11-18T11:59	8950	306			256	80
2025-11-18T11:59	9023	303	-36.9	-64.6		
2025-11-18T11:59	9174	296			256	81
2025-11-18T12:00	9529	281			257	84
2025-11-18T12:00	9610	278	-40.0	-68.9		
2025-11-18T12:01	9916	266			258	88
2025-11-18T12:02	10300	251			259	87
2025-11-18T12:02	10410	247	-44.1			
2025-11-18T12:03	10709	236			261	87
2025-11-18T12:04	11093	223			262	89
2025-11-18T12:04	11244	218			261	84
2025-11-18T12:04	11309	216	-48.2			
2025-11-18T12:05	11571	207	-49.1			
2025-11-18T12:05	11594	206			263	80
2025-11-18T12:06	11889	197	-50.7			
2025-11-18T12:06	11935	196			260	84
2025-11-18T12:07	12040	193	-51.6			
2025-11-18T12:07	12164	189			262	83
2025-11-18T12:08	12461	181	-52.4			
2025-11-18T12:08	12529	179			261	75
2025-11-18T12:09	12833	170	-53.9			
2025-11-18T12:09	12911	168			259	73
2025-11-18T12:10	13283	159			257	71
2025-11-18T12:10	13330	158	-55.8			
2025-11-18T12:11	13666	150			250	72
2025-11-18T12:12	14072	140			252	75
2025-11-18T12:12	14247	136	-61.0			
2025-11-18T12:13	14475	131			255	73
2025-11-18T12:14	14810	124			256	72
2025-11-18T12:14	14987	121	-65.0			
2025-11-18T12:15	15055	119			259	70
2025-11-18T12:15	15236	116	-66.6			
2025-11-18T12:15	15321	114			261	66
2025-11-18T12:16	15392	113	-66.1			
2025-11-18T12:16	15559	110			259	57
2025-11-18T12:17	15717	107	-63.3			
2025-11-18T12:17	15821	105			258	55
2025-11-18T12:18	15922	104	-62.7			
2025-11-18T12:18	15987	103			260	55
2025-11-18T12:18	16017	102	-61.0			
2025-11-18T12:19	16199	99	-59.9		266	49
2025-11-18T12:19	16376	96			267	47
2025-11-18T12:20	16587	93			271	44
2025-11-18T12:20	16675	92	-59.1			
2025-11-18T12:21	16940	88			264	45
2025-11-18T12:22	17274	83	-63.6			
2025-11-18T12:22	17315	83			261	46
2025-11-18T12:23	17586	79			259	49
2025-11-18T12:23	17640	79	-65.7			
2025-11-18T12:23	17742	77			259	52
2025-11-18T12:24	17917	75	-65.0			
2025-11-18T12:24	18059	73			264	44
2025-11-18T12:25	18399	69			261	36
2025-11-18T12:25	18460	69	-66.4			
2025-11-18T12:26	18559	68	-61.9			
2025-11-18T12:26	18596	67			259	36
2025-11-18T12:26	18678	66	-60.8			
2025-11-18T12:26	18754	65	-58.5			
2025-11-18T12:26	18766	65			248	29
2025-11-18T12:27	18941	64	-57.6			
2025-11-18T12:27	18960	63	-57.8		237	27
2025-11-18T23:33	26	1019	6.2	0.7	290	1
2025-11-18T23:33	31	1018	6.1	0.8	0	0
2025-11-18T23:33	62	1014	5.4	0.0		
2025-11-18T23:33	122	1007			281	3
2025-11-18T23:34	237	993			300	3
2025-11-18T23:34	242	992	5.0	-3.1		
2025-11-18T23:34	291	986	5.7	-3.4		
2025-11-18T23:34	356	978			323	5
2025-11-18T23:35	526	958			319	7
2025-11-18T23:35	658	943	3.0	-4.5		
2025-11-18T23:36	846	921			313	12
2025-11-18T23:36	970	907	1.2	-6.4		
2025-11-18T23:37	1195	882			308	14
2025-11-18T23:37	1357	864	-1.8	-10.4		
2025-11-18T23:38	1525	846			300	15
2025-11-18T23:38	1565	842	-3.1	-11.1		
2025-11-18T23:38	1601	838	-2.7	-11.0		
2025-11-18T23:39	1834	814			273	12
2025-11-18T23:39	1902	807	-5.3	-11.2		
2025-11-18T23:39	1996	797	-5.0	-12.6		
2025-11-18T23:39	2049	792			249	13
2025-11-18T23:39	2065	790	-5.4	-13.0		
2025-11-18T23:40	2195	777	-6.3	-11.2		
2025-11-18T23:40	2396	757	-7.7	-15.2		
2025-11-18T23:40	2403	757			242	14
2025-11-18T23:41	2538	743	-8.9	-17.9		
2025-11-18T23:41	2721	726	-10.2	-22.4		
2025-11-18T23:41	2761	722			269	12
2025-11-18T23:41	2795	719	-9.8	-31.6		
2025-11-18T23:42	2878	711	-9.5	-40.5		
2025-11-18T23:42	3043	696			298	12
2025-11-18T23:42	3077	693	-10.0	-44.7		
2025-11-18T23:43	3329	671			298	12
2025-11-18T23:43	3449	660	-11.6	-39.4		
2025-11-18T23:44	3557	651			293	15
2025-11-18T23:44	3725	637	-13.7	-36.3		
2025-11-18T23:45	3905	622			290	15
2025-11-18T23:45	3974	616	-15.6	-38.6		
2025-11-18T23:45	4031	612	-15.3	-40.1		
2025-11-18T23:45	4075	608	-15.2	-43.4		
2025-11-18T23:46	4170	601			273	19
2025-11-18T23:46	4307	590			266	20
2025-11-18T23:46	4312	589	-15.8	-45.3		
2025-11-18T23:47	4526	573	-16.4	-44.3		
2025-11-18T23:47	4618	566			260	29
2025-11-18T23:48	4989	538			263	30
2025-11-18T23:48	5047	534	-21.0	-40.3		
2025-11-18T23:49	5370	511			266	32
2025-11-18T23:49	5406	509	-24.2	-39.9		
2025-11-18T23:49	5536	500	-24.4	-45.7		
2025-11-18T23:50	5628	493			265	29
2025-11-18T23:50	5713	488	-25.0	-44.8		
2025-11-18T23:51	5950	472			256	27
2025-11-18T23:51	5993	469	-26.7	-53.6		
2025-11-18T23:51	6157	458			263	33
2025-11-18T23:52	6272	451	-28.4	-58.2		
2025-11-18T23:52	6484	438	-30.0	-59.4		
2025-11-18T23:52	6490	438			267	33
2025-11-18T23:53	6744	422	-30.9	-62.3		
2025-11-18T23:53	6770	421			266	33
2025-11-18T23:53	6870	415			264	37
2025-11-18T23:54	7030	406	-32.0	-63.1		
2025-11-18T23:54	7046	405			264	39
2025-11-18T23:55	7262	392	-33.6	-64.3		
2025-11-18T23:55	7360	387			262	44
2025-11-18T23:55	7553	376	-35.3	-65.5		
2025-11-18T23:56	7714	368			262	49
2025-11-18T23:56	7799	363	-35.6	-68.6		
2025-11-18T23:57	8063	350			263	54
2025-11-18T23:57	8256	340			263	57
2025-11-18T23:58	8302	338	-39.0	-64.5		
2025-11-18T23:58	8381	334			261	63
2025-11-18T23:58	8425	332	-39.1	-64.6		
2025-11-18T23:59	8621	322			262	67
2025-11-18T23:59	8626	322	-40.0	-65.3		
2025-11-18T23:59	8810	314	-40.7			
2025-11-18T23:59	8895	310			259	69
2025-11-19T00:00	9043	303	-42.7			
2025-11-19T00:00	9124	299	-42.4			
2025-11-19T00:00	9244	294			258	67
2025-11-19T00:01	9543	281			255	70
2025-11-19T00:01	9672	276	-45.0			
2025-11-19T00:02	9780	272			256	73
2025-11-19T00:02	9939	265	-45.7			
2025-11-19T00:03	10208	255			257	70
2025-11-19T00:03	10274	252	-47.1			
2025-11-19T00:03	10428	246	-46.9			
2025-11-19T00:03	10497	244			260	77
2025-11-19T00:04	10786	233			262	77
2025-11-19T00:05	11148	221	-49.5			
2025-11-19T00:05	11196	219			262	72
2025-11-19T00:06	11347	214	-49.6			
2025-11-19T00:06	11409	212			263	75
2025-11-19T00:07	11820	199			262	72
2025-11-19T00:08	12233	187			260	69
2025-11-19T00:08	12289	185	-52.7			
2025-11-19T00:08	12522	179			259	68
2025-11-19T00:09	12816	171	-54.4			
2025-11-19T00:09	12933	168			259	63
2025-11-19T00:10	13296	158	-56.2			
2025-11-19T00:10	13336	157			257	63
2025-11-19T00:11	13644	150	-58.4			
2025-11-19T00:11	13717	148			257	65
2025-11-19T00:12	13888	144	-58.8			
2025-11-19T00:12	14021	141	-58.4			
2025-11-19T00:12	14070	140			259	66
2025-11-19T00:13	14105	139	-58.1			
2025-11-19T00:13	14351	134			261	63
2025-11-19T00:14	14579	129	-61.1			
2025-11-19T00:14	14620	128			264	65
2025-11-19T00:15	14795	125	-61.4			
2025-11-19T00:15	14799	125			269	64
2025-11-19T00:16	14930	122	-61.0			
2025-11-19T00:16	15081	119			270	54
2025-11-19T00:17	15374	114			266	50
2025-11-19T00:17	15480	112	-61.1			
2025-11-19T00:18	15696	108			265	46
2025-11-19T00:19	16005	103			260	47
2025-11-19T00:19	16020	102	-61.1			
2025-11-19T00:20	16319	98			264	50
2025-11-19T00:21	16603	93	-64.8			
2025-11-19T00:21	16641	93			263	53
2025-11-19T00:22	16892	89	-63.2			
2025-11-19T00:22	16968	88			266	41
2025-11-19T00:23	17133	85			268	38
2025-11-19T00:23	17226	84	-61.6			
2025-11-19T00:24	17368	82			275	41
2025-11-19T00:24	17384	82	-61.1			
2025-11-19T00:24	17591	79			266	32
2025-11-19T00:25	17626	79	-59.5			
2025-11-19T00:25	17875	76			264	36
2025-11-19T00:26	17998	74	-61.0			
2025-11-19T00:26	18092	73			272	33
2025-11-19T00:27	18431	69			271	26
2025-11-19T00:27	18485	69	-62.5			
2025-11-19T00:28	18706	66			259	28
2025-11-19T00:29	18893	64	-64.2			
2025-11-19T00:29	18983	63	-63.5			
2025-11-19T00:29	19013	63			265	33
2025-11-19T00:30	19219	61			262	29
2025-11-19T00:30	19290	60	-61.8			
2025-11-19T00:30	19313	60			259	25
2025-11-19T00:30	19396	59			254	21
2025-11-19T00:31	19493	58	-56.9			
2025-11-19T00:31	19668	57			241	19
2025-11-19T00:32	19974	54			246	15
2025-11-19T00:32	19987	54	-57.4			
2025-11-19T00:33	20310	51			255	19
2025-11-19T00:34	20445	50	-58.5			
2025-11-19T00:34	20674	48			257	19
2025-11-19T00:35	20803	47	-60.5			
2025-11-19T00:35	21031	46			260	18
2025-11-19T00:35	21073	45	-61.0			
2025-11-19T00:36	21213	44			254	16
2025-11-19T00:36	21238	44	-59.5			
2025-11-19T00:37	21512	42			268	18
2025-11-19T00:38	21800	40			267	15
2025-11-19T00:38	21893	40	-59.9			
2025-11-19T00:38	21973	39			255	18
2025-11-19T00:39	22332	37			248	12
2025-11-19T00:39	22350	37	-58.5			
2025-11-19T00:40	22592	36			234	10
2025-11-19T00:41	22865	34			245	19
2025-11-19T00:42	23073	33	-56.4			
2025-11-19T00:42	23110	33			245	26
2025-11-19T00:42	23309	32	-52.4			
2025-11-19T00:43	23495	31			270	15
2025-11-19T00:44	23816	29			280	11
2025-11-19T00:44	24083	28			284	7
2025-11-19T00:45	24291	27			240	5
2025-11-19T00:46	24579	26			190	8
2025-11-19T00:46	24826	25	-55.3			
2025-11-19T00:46	24905	25			250	12
2025-11-19T00:47	25194	24			270	15
2025-11-19T00:48	25471	23	-53.2			
2025-11-19T00:48	25501	23			292	12
2025-11-19T00:49	25852	21			286	5
2025-11-19T00:50	26092	21			225	10
2025-11-19T00:50	26187	20	-55.2			
2025-11-19T00:50	26287	20			239	7
2025-11-19T00:51	26444	20			247	3
2025-11-19T00:51	26476	19	-55.3			
2025-11-19T00:51	26543	19			209	1
2025-11-19T00:51	26781	19			285	4
2025-11-19T00:52	26815	18	-56.6			
2025-11-19T00:52	27096	18			257	9
2025-11-19T00:52	27132	18	-55.1			
2025-11-19T00:53	27357	17			291	14
2025-11-19T00:53	27433	17	-53.0			
2025-11-19T00:54	27585	16			322	6
2025-11-19T00:54	27830	16	-53.9			
2025-11-19T00:55	27909	16			283	10
2025-11-19T00:55	28080	15			293	15
2025-11-19T00:56	28302	15			307	12
2025-11-19T00:56	28483	14	-48.6			
2025-11-19T00:57	28717	14			342	12
2025-11-19T00:58	29063	13			339	11
2025-11-19T00:58	29164	13	-49.6			
2025-11-19T00:58	29216	13			323	14
2025-11-19T00:58	29319	13	-48.3			
2025-11-19T00:59	29478	12			321	18
2025-11-19T01:00	29868	12			316	17
2025-11-19T01:00	29978	11	-50.9			
2025-11-19T01:01	30275	11			307	17
2025-11-19T01:01	30522	10			309	22
2025-11-19T01:02	30906	10			310	16
2025-11-19T01:03	30973	10	-50.0			
2025-11-19T01:03	31145	10	-49.2		330	15
2025-11-19T11:33	26	1020	3.7	0.9	0	0
2025-11-19T11:33	32	1020	4.2	0.9	0	0
2025-11-19T11:33	63	1016	6.7	-1.5		
2025-11-19T11:33	74	1014			134	3
2025-11-19T11:33	90	1012	8.9	-1.0		
2025-11-19T11:33	121	1009			116	5
2025-11-19T11:33	143	1006	10.1	-2.2		
2025-11-19T11:34	355	980			158	4
2025-11-19T11:34	372	978	8.6	-3.3		
2025-11-19T11:34	487	965			149	3
2025-11-19T11:35	646	946			139	2
2025-11-19T11:36	986	908			264	2
2025-11-19T11:37	1241	879			311	4
2025-11-19T11:37	1275	876	0.9	-7.4		
2025-11-19T11:37	1369	865			261	2
2025-11-19T11:37	1498	852			271	4
2025-11-19T11:38	1721	828	-3.1	-7.3		
2025-11-19T11:38	1785	821			238	7
2025-11-19T11:38	1828	817	-3.4	-4.4		
2025-11-19T11:39	1865	813	-3.5	-5.3		
2025-11-19T11:39	1907	809	-3.3	-7.3		
2025-11-19T11:39	1964	803			234	8
2025-11-19T11:39	1969	802	-3.5	-8.7		
2025-11-19T11:39	2026	796	-2.2	-16.3		
2025-11-19T11:39	2148	784			251	5
2025-11-19T11:40	2181	781	-3.1	-19.5		
2025-11-19T11:40	2366	763	-3.3	-27.1		
2025-11-19T11:40	2378	762			203	7
2025-11-19T11:40	2477	752	-3.6	-29.0		
2025-11-19T11:41	2605	740			201	7
2025-11-19T11:41	2734	728	-5.2	-31.2		
2025-11-19T11:41	2858	717	-5.5	-33.5		
2025-11-19T11:42	2876	715			221	7
2025-11-19T11:42	2986	705	-5.9	-37.8		
2025-11-19T11:42	3198	686			279	4
2025-11-19T11:42	3216	685	-6.6	-33.3		
2025-11-19T11:43	3309	677	-7.2	-31.8		
2025-11-19T11:43	3390	670	-7.2	-31.8		
2025-11-19T11:43	3486	661			324	3
2025-11-19T11:44	3600	652			314	4
2025-11-19T11:44	3690	644			305	4
2025-11-19T11:44	3848	631	-9.3	-35.4		
2025-11-19T11:44	3904	626			261	5
2025-11-19T11:45	4068	613			269	7
2025-11-19T11:45	4235	600			279	9
2025-11-19T11:45	4240	600	-11.0	-41.7		
2025-11-19T11:46	4562	575	-13.1	-44.9		
2025-11-19T11:46	4605	572			279	9
2025-11-19T11:47	4967	545			272	12
2025-11-19T11:48	5294	522	-19.0	-49.3		
2025-11-19T11:48	5325	520			259	15
2025-11-19T11:49	5686	495			268	19
2025-11-19T11:50	6045	471	-23.5	-54.6	265	18
2025-11-19T11:51	6227	460	-24.3	-55.2		
2025-11-19T11:51	6278	456			264	23
2025-11-19T11:52	6516	442			259	23
2025-11-19T11:53	6883	420			258	25
2025-11-19T11:53	6944	416	-30.4	-55.2		
2025-11-19T11:54	7240	399			254	30
2025-11-19T11:54	7251	398	-32.6	-58.2		
2025-11-19T11:54	7421	389	-33.1	-58.5		
2025-11-19T11:55	7589	380			261	36
2025-11-19T11:55	7766	370	-35.2	-54.6		
2025-11-19T11:55	7811	368			260	42
2025-11-19T11:56	7920	362			261	46
2025-11-19T11:56	8088	354	-35.7	-58.3		
2025-11-19T11:57	8254	345			261	57
2025-11-19T11:57	8377	339	-37.1	-59.4		
2025-11-19T11:57	8486	334	-37.4	-59.6		
2025-11-19T11:58	8596	328			259	56
2025-11-19T11:58	8837	317	-39.3	-64.7		
2025-11-19T11:58	8912	314			258	55
2025-11-19T11:58	8924	313	-40.0	-65.3		
2025-11-19T11:59	9292	297			259	54
2025-11-19T12:00	9680	280			261	59
2025-11-19T12:01	9868	272	-45.8			
2025-11-19T12:01	10064	264			261	67
2025-11-19T12:02	10311	255			260	71
2025-11-19T12:02	10436	250	-48.2			
2025-11-19T12:03	10634	242			260	75
2025-11-19T12:04	11032	228			261	70
2025-11-19T12:04	11230	221			260	70
2025-11-19T12:04	11277	220	-52.3			
2025-11-19T12:05	11350	217			259	72
2025-11-19T12:06	11749	204			259	72
2025-11-19T12:06	11928	198	-54.8			
2025-11-19T12:06	11994	196			261	72
2025-11-19T12:07	12241	189	-55.5			
2025-11-19T12:07	12394	184			260	72
2025-11-19T12:08	12597	179			262	72
2025-11-19T12:09	12930	170	-55.8			
2025-11-19T12:09	13034	167			261	71
2025-11-19T12:10	13362	158			259	74
2025-11-19T12:11	13734	149			264	72
2025-11-19T12:11	13789	148	-60.2			
2025-11-19T12:11	13924	145			266	67
2025-11-19T12:12	14234	138	-60.3			
2025-11-19T12:12	14239	138			267	62
2025-11-19T12:13	14541	131			266	62
2025-11-19T12:14	14841	125			264	56
2025-11-19T12:14	14856	125	-62.7			
2025-11-19T12:14	14952	123	-61.7			
2025-11-19T12:15	15146	119			266	51
2025-11-19T12:15	15183	118	-61.8			
2025-11-19T12:16	15457	113			266	47
2025-11-19T12:16	15585	111	-63.6			
2025-11-19T12:17	15752	108			263	44
2025-11-19T12:18	15920	105	-65.0			
2025-11-19T12:18	16033	103			261	41
2025-11-19T12:19	16197	100	-63.7			
2025-11-19T12:19	16246	99			256	43
2025-11-19T12:20	16561	94			255	42
2025-11-19T12:21	16883	90			255	38
2025-11-19T12:21	17099	86	-65.6			
2025-11-19T12:21	17118	86			266	40
2025-11-19T12:22	17379	83			269	33
2025-11-19T12:22	17443	82	-65.8			
2025-11-19T12:23	17650	79			272	38
2025-11-19T12:23	17727	78	-65.8			
2025-11-19T12:24	17829	77			271	35
2025-11-19T12:24	17957	75	-64.8			
2025-11-19T12:24	18088	73	-64.5			
2025-11-19T12:25	18156	73			256	30
2025-11-19T12:25	18359	70	-63.7			
2025-11-19T12:25	18395	70			252	36
2025-11-19T12:26	18503	69	-60.8			
2025-11-19T12:26	18565	68			254	32
2025-11-19T12:27	18742	66	-61.5			
2025-11-19T12:27	18882	65	-60.9		268	36
2025-11-19T12:28	19197	61			273	27
2025-11-19T12:28	19291	60	-60.5			
2025-11-19T12:29	19478	59			264	31
2025-11-19T12:29	19514	58	-60.8		266	30
2025-11-19T23:33	26	1020	5.1	0.8	320	2
2025-11-19T23:33	33	1020	4.9	0.7	0	0
2025-11-19T23:33	51	1017			306	3
2025-11-19T23:33	113	1010	4.0	0.3	279	2
2025-11-19T23:33	139	1006	4.1	-0.7		
2025-11-19T23:33	172	1002	6.7	-1.2		
2025-11-19T23:34	242	994	7.9	-1.9		
2025-11-19T23:34	356	980	7.7	-2.6		
2025-11-19T23:34	440	970			335	1
2025-11-19T23:34	515	961			153	3
2025-11-19T23:34	520	961	6.3	-0.2		
2025-11-19T23:35	612	950	5.4	0.6		
2025-11-19T23:35	779	931			68	3
2025-11-19T23:35	796	929	4.1	-1.5		
2025-11-19T23:35	846	923	3.9	-3.2		
2025-11-19T23:36	903	917	3.6	-1.2		
2025-11-19T23:36	965	910	3.4	-1.4		
2025-11-19T23:36	981	908			71	1
2025-11-19T23:36	1047	900			216	3
2025-11-19T23:36	1080	897	4.1	0.3		
2025-11-19T23:37	1272	876	2.4	1.8		
2025-11-19T23:37	1325	870			191	8
2025-11-19T23:37	1504	851	0.7	0.7		
2025-11-19T23:38	1539	847			197	9
2025-11-19T23:38	1700	830	-0.2	-0.2		
2025-11-19T23:39	1877	812			205	10
2025-11-19T23:39	1988	801	-2.6	-3.0		
2025-11-19T23:39	2085	791	-3.4	-8.1		
2025-11-19T23:39	2090	790			203	8
2025-11-19T23:39	2115	788	-2.3	-12.6		
2025-11-19T23:39	2140	786	-1.3	-15.5		
2025-11-19T23:40	2233	776	-1.0	-20.6		
2025-11-19T23:40	2393	761			240	9
2025-11-19T23:40	2420	758	-2.2	-22.2		
2025-11-19T23:41	2517	749	-2.3	-11.1		
2025-11-19T23:41	2548	746			224	12
2025-11-19T23:41	2607	741	-3.1	-7.8		
2025-11-19T23:41	2729	729			218	13
2025-11-19T23:42	3103	695			214	13
2025-11-19T23:42	3130	693	-7.5	-7.6		
2025-11-19T23:43	3332	675	-8.7	-8.7		
2025-11-19T23:43	3506	660			194	15
2025-11-19T23:44	3726	642	-10.5	-10.6		
2025-11-19T23:44	3779	638	-10.0	-11.5		
2025-11-19T23:44	3865	630	-10.7	-12.6		
2025-11-19T23:44	3905	627			214	16
2025-11-19T23:44	3939	625	-11.1	-16.0		
2025-11-19T23:45	4154	607	-13.2	-17.5		
2025-11-19T23:45	4311	595			210	16
2025-11-19T23:45	4318	594	-14.5	-17.2		
2025-11-19T23:46	4480	582	-15.7	-19.9		
2025-11-19T23:46	4548	577	-16.1	-23.1		
2025-11-19T23:46	4615	571	-16.8	-23.9		
2025-11-19T23:46	4668	567			210	11
2025-11-19T23:46	4675	567	-17.0	-29.2		
2025-11-19T23:46	4749	561	-17.2	-35.9		
2025-11-19T23:47	4858	553	-17.5	-44.0		
2025-11-19T23:47	4988	544			238	12
2025-11-19T23:48	5405	514			250	14
2025-11-19T23:48	5554	503	-23.8	-41.5		
2025-11-19T23:49	5812	486			254	14
2025-11-19T23:50	6234	458			264	12
2025-11-19T23:50	6393	448	-30.4	-41.2		
2025-11-19T23:51	6529	440	-31.3	-41.2		
2025-11-19T23:51	6557	438			261	10
2025-11-19T23:51	6653	432	-30.9	-52.6		
2025-11-19T23:51	6821	422			271	16
2025-11-19T23:51	6881	418	-30.6	-58.1		
2025-11-19T23:52	6996	411	-29.9	-59.3		
2025-11-19T23:52	7098	406			261	26
2025-11-19T23:53	7330	393	-32.3	-66.3		
2025-11-19T23:53	7385	390			266	28
2025-11-19T23:53	7541	381	-33.5	-64.2		
2025-11-19T23:53	7614	377			267	31
2025-11-19T23:54	7770	369			269	31
2025-11-19T23:54	7899	362			267	31
2025-11-19T23:54	7964	359	-35.4	-73.3		
2025-11-19T23:54	8074	353			264	34
2025-11-19T23:55	8245	344	-37.4	-69.9		
2025-11-19T23:55	8340	340			257	37
2025-11-19T23:56	8496	332	-38.6	-70.8		
2025-11-19T23:56	8581	328			267	39
2025-11-19T23:56	8648	325	-40.0	-71.8		
2025-11-19T23:56	8758	320			267	39
2025-11-19T23:57	8900	313			270	36
2025-11-19T23:57	8981	309	-41.9			
2025-11-19T23:58	9265	296			264	36
2025-11-19T23:58	9346	293	-44.7			
2025-11-19T23:58	9555	284			267	36
2025-11-19T23:59	9657	279			262	37
2025-11-19T23:59	9775	275			266	42
2025-11-20T00:00	9969	267			262	43
2025-11-20T00:00	10236	256	-47.0			
2025-11-20T00:01	10360	251			262	50
2025-11-20T00:02	10747	237	-49.3			
2025-11-20T00:02	10760	237			263	49
2025-11-20T00:03	11148	223			261	42
2025-11-20T00:03	11265	219	-50.7			
2025-11-20T00:03	11442	213			259	46
2025-11-20T00:04	11816	201			255	44
2025-11-20T00:05	11937	197	-53.9			
2025-11-20T00:05	12208	189			257	48
2025-11-20T00:06	12264	187	-54.8			
2025-11-20T00:06	12537	180			261	52
2025-11-20T00:07	12805	172	-55.5			
2025-11-20T00:07	12883	170			263	50
2025-11-20T00:08	13112	164			262	52
2025-11-20T00:08	13200	162	-55.5			
2025-11-20T00:09	13501	154			260	45
2025-11-20T00:09	13514	154	-57.5			
2025-11-20T00:10	13761	148	-58.1			
2025-11-20T00:10	13878	145			257	49
2025-11-20T00:11	14122	140	-59.0			
2025-11-20T00:11	14279	136			262	49
2025-11-20T00:12	14537	131			264	44
2025-11-20T00:12	14793	126	-59.6			
2025-11-20T00:13	14928	123			261	46
2025-11-20T00:13	15033	121	-61.4			
2025-11-20T00:13	15170	118	-61.1			
2025-11-20T00:14	15289	116			262	45
2025-11-20T00:14	15560	111	-61.9			
2025-11-20T00:15	15612	110			255	42
2025-11-20T00:16	15912	105	-62.4			
2025-11-20T00:16	15927	105			255	48
2025-11-20T00:16	16170	101	-63.0			
2025-11-20T00:16	16220	100			256	50
2025-11-20T00:17	16563	94			263	44
2025-11-20T00:18	16597	94	-64.9			
2025-11-20T00:18	16756	91			264	38
2025-11-20T00:18	16804	91	-64.4			
2025-11-20T00:19	17080	87			256	38
2025-11-20T00:20	17405	82			262	36
2025-11-20T00:21	17602	80	-65.0			
2025-11-20T00:21	17733	78			259	29
2025-11-20T00:21	17860	76	-63.9			
2025-11-20T00:22	18074	74			259	36
2025-11-20T00:22	18182	72	-65.0			
2025-11-20T00:23	18295	71	-63.0			
2025-11-20T00:23	18337	71			258	35
2025-11-20T00:23	18391	70	-61.4			
2025-11-20T00:24	18599	68			244	36
2025-11-20T00:24	18774	66			250	38
2025-11-20T00:24	18889	65	-62.2			
2025-11-20T00:25	19094	62			256	37
2025-11-20T00:26	19312	60	-62.0			
2025-11-20T00:26	19363	60			267	31
2025-11-20T00:26	19438	59	-60.6			
2025-11-20T00:27	19631	57			255	20
2025-11-20T00:27	19799	56	-57.9			
2025-11-20T00:28	19969	54			241	22
2025-11-20T00:29	20323	51			262	18
2025-11-20T00:29	20351	51	-59.6			
2025-11-20T00:30	20648	49			257	18
2025-11-20T00:30	20819	47	-60.9			
2025-11-20T00:30	20830	47			266	23
2025-11-20T00:31	21116	45	-60.0			
2025-11-20T00:31	21143	45			259	14
2025-11-20T00:32	21326	44			255	14
2025-11-20T00:32	21561	42			268	22
2025-11-20T00:33	21853	40	-58.6			
2025-11-20T00:33	21899	40			272	16
2025-11-20T00:34	22126	38			252	11
2025-11-20T00:34	22206	38	-57.4			
2025-11-20T00:35	22408	37			233	15
2025-11-20T00:36	22657	35	-57.0		238	16
2025-11-20T00:36	22928	34			250	19
2025-11-20T00:37	23120	33	-56.8			
2025-11-20T00:37	23319	32			254	18
2025-11-20T00:38	23522	31	-55.1			
2025-11-20T00:38	23584	31			268	16
2025-11-20T00:39	23798	30			254	18
2025-11-20T00:39	23843	29	-52.8			
2025-11-20T00:39	24091	28			255	20
2025-11-20T00:39	24160	28	-52.9			
2025-11-20T00:40	24393	27			283	17
2025-11-20T00:41	24639	26			273	8
2025-11-20T00:41	24767	25			273	4
2025-11-20T00:41	24868	25	-51.1			
2025-11-20T00:41	24921	25			212	4
2025-11-20T00:42	25161	24			230	9
2025-11-20T00:43	25576	22			228	9
2025-11-20T00:44	25835	22	-56.5			
2025-11-20T00:44	25924	21			255	11
2025-11-20T00:45	26170	20			283	12
2025-11-20T00:45	26326	20			303	17
2025-11-20T00:46	26688	19			287	14
2025-11-20T00:46	26725	19	-55.0		286	14
2025-11-20T11:33	26	1017	5.6	5.5	60	0
2025-11-20T11:33	31	1016	6.1	5.7	0	0
2025-11-20T11:33	57	1013	9.1	5.1		
2025-11-20T11:33	78	1010	10.8	6.2		
2025-11-20T11:33	95	1008			78	3
2025-11-20T11:34	188	997	10.9	6.3		
2025-11-20T11:34	276	987			134	3
2025-11-20T11:34	429	969			153	2
2025-11-20T11:34	440	967	8.8	5.7		
2025-11-20T11:35	549	955	8.0	3.3		
2025-11-20T11:35	609	948			180	1
2025-11-20T11:35	692	938			166	3
2025-11-20T11:35	810	925			244	3
2025-11-20T11:35	832	923	5.8	1.1		
2025-11-20T11:36	984	906			238	4
2025-11-20T11:36	1118	891			224	4
2025-11-20T11:36	1146	888	3.4	-0.4		
2025-11-20T11:37	1230	878			267	4
2025-11-20T11:37	1314	869	2.0	-3.1		
2025-11-20T11:37	1375	863	1.9	-9.1		
2025-11-20T11:37	1441	856			246	3
2025-11-20T11:37	1505	849	1.6	-13.3		
2025-11-20T11:38	1553	844	1.7	-14.0		
2025-11-20T11:38	1589	840			348	3
2025-11-20T11:38	1636	835	1.1	-11.3		
2025-11-20T11:38	1693	829	1.4	-20.4		
2025-11-20T11:38	1762	822	0.8	-17.0		
2025-11-20T11:38	1821	816	0.4	-17.4		
2025-11-20T11:39	1837	815			258	3
2025-11-20T11:39	1892	809	-0.2	-11.9		
2025-11-20T11:39	1919	806	0.1	-9.6		
2025-11-20T11:39	1962	802	1.9	-16.6		
2025-11-20T11:39	1968	802			256	9
2025-11-20T11:39	2045	794	1.7	-17.2		
2025-11-20T11:39	2117	787			252	7
2025-11-20T11:40	2331	766	-0.6	-20.3		
2025-11-20T11:40	2443	755			245	8
2025-11-20T11:41	2485	752	-1.0	-23.0		
2025-11-20T11:41	2640	737	-1.3	-26.2		
2025-11-20T11:41	2651	736			253	11
2025-11-20T11:42	2800	722			247	10
2025-11-20T11:42	2944	709	-3.4	-29.7		
2025-11-20T11:42	3039	701			266	13
2025-11-20T11:43	3132	693	-4.2	-31.4		
2025-11-20T11:43	3191	687			264	11
2025-11-20T11:43	3316	677	-5.6	-32.5	264	14
2025-11-20T11:44	3493	661			259	10
2025-11-20T11:44	3717	643	-8.1	-36.7		
2025-11-20T11:44	3732	641			270	13
2025-11-20T11:45	3904	627			268	11
2025-11-20T11:46	4191	604	-11.9	-39.6		
2025-11-20T11:46	4222	602			267	15
2025-11-20T11:46	4374	590	-12.3	-42.7		
2025-11-20T11:47	4471	583	-12.2	-46.3		
2025-11-20T11:47	4560	576			261	23
2025-11-20T11:48	4894	551			264	28
2025-11-20T11:48	4905	550	-13.6	-47.3		
2025-11-20T11:49	5094	537			266	27
2025-11-20T11:49	5240	527	-16.2	-49.2		
2025-11-20T11:50	5373	517			263	27
2025-11-20T11:50	5580	503			261	27
2025-11-20T11:50	5622	500	-19.1	-49.4		
2025-11-20T11:51	5716	494			257	27
2025-11-20T11:51	5828	487			260	32
2025-11-20T11:51	5954	478			259	30
2025-11-20T11:52	6235	460	-23.5	-48.7		
2025-11-20T11:52	6272	458			263	29
2025-11-20T11:53	6597	438			258	31
2025-11-20T11:54	6794	426	-28.5	-50.7	258	32
2025-11-20T11:55	7004	414	-29.7	-53.5		
2025-11-20T11:55	7082	409			260	35
2025-11-20T11:56	7367	393			265	39
2025-11-20T11:56	7433	390	-31.4	-53.9		
2025-11-20T11:57	7740	373			265	41
2025-11-20T11:57	7835	368	-34.0	-58.0		
2025-11-20T11:58	8120	353			262	45
2025-11-20T11:58	8328	343	-37.2	-60.5		
2025-11-20T11:59	8514	334			259	48
2025-11-20T11:59	8521	333	-38.5	-61.5		
2025-11-20T11:59	8719	324	-39.3	-60.2		
2025-11-20T12:00	8909	315			261	51
2025-11-20T12:00	8929	314	-40.0	-61.7		
2025-11-20T12:01	9239	300			261	54
2025-11-20T12:02	9609	284			258	57
2025-11-20T12:02	9775	277	-44.6			
2025-11-20T12:03	9976	269			260	58
2025-11-20T12:03	10349	254			261	62
2025-11-20T12:04	10753	239			263	63
2025-11-20T12:05	10948	232			261	64
2025-11-20T12:06	11183	224			263	64
2025-11-20T12:06	11315	219	-52.8			
2025-11-20T12:06	11419	216			259	64
2025-11-20T12:07	11741	205	-54.1			
2025-11-20T12:07	11793	203			264	67
2025-11-20T12:08	12096	194			266	67
2025-11-20T12:09	12407	185			262	69
2025-11-20T12:10	12808	173			265	67
2025-11-20T12:10	12891	171	-57.3			
2025-11-20T12:11	13151	164			265	69
2025-11-20T12:12	13512	155			262	63
2025-11-20T12:12	13608	153	-60.1			
2025-11-20T12:13	13930	145			261	63
2025-11-20T12:14	14334	136			266	64
2025-11-20T12:15	14636	129			265	57
2025-11-20T12:15	14902	124	-62.6			
2025-11-20T12:16	15058	121			261	53
2025-11-20T12:17	15447	113			259	49
2025-11-20T12:17	15662	110	-62.9			
2025-11-20T12:18	15835	107			257	45
2025-11-20T12:18	15926	105	-63.7		261	46
2025-11-20T23:30	26	1015	6.7	4.4	260	2
2025-11-20T23:30	30	1014	6.3	4.1	0	0
2025-11-20T23:30	77	1008			305	3
2025-11-20T23:30	93	1006	5.2	2.0		
2025-11-20T23:30	140	1000	5.8	0.8		
2025-11-20T23:30	161	998	6.7	-0.3		
2025-11-20T23:31	213	992	7.4	-1.8		
2025-11-20T23:31	238	989	8.4	-1.2		
2025-11-20T23:31	244	988			290	7
2025-11-20T23:31	331	978	8.6	2.6		
2025-11-20T23:31	393	970			256	7
2025-11-20T23:31	404	969	8.4	3.8		
2025-11-20T23:31	450	964	9.2	1.1		
2025-11-20T23:32	497	958	9.6	-1.2		
2025-11-20T23:32	534	954	10.1	-2.2		
2025-11-20T23:32	566	950			282	7
2025-11-20T23:33	875	915	8.8	-4.1		
2025-11-20T23:33	886	914			296	12
2025-11-20T23:33	1003	901	8.6	-5.6		
2025-11-20T23:34	1158	885			270	5
2025-11-20T23:34	1337	866	7.1	-8.9		
2025-11-20T23:34	1383	861	7.6	-13.4		
2025-11-20T23:34	1433	856	7.0	-6.7		
2025-11-20T23:35	1462	853			262	7
2025-11-20T23:35	1762	822			273	8
2025-11-20T23:36	2083	790			269	9
2025-11-20T23:38	2435	756	-2.4	-6.8		
2025-11-20T23:38	2447	755			274	10
2025-11-20T23:38	2545	745	-2.8	-8.3		
2025-11-20T23:38	2687	732			268	13
2025-11-20T23:38	2784	723	-3.0	-21.8		
2025-11-20T23:39	2877	715	-3.4	-24.4		
2025-11-20T23:39	2932	710	-2.7	-28.2		
2025-11-20T23:39	3023	702			271	20
2025-11-20T23:40	3160	690	-4.1	-38.3		
2025-11-20T23:40	3365	672			269	21
2025-11-20T23:40	3397	669	-5.0	-33.1		
2025-11-20T23:41	3673	646			264	23
2025-11-20T23:41	3698	644	-6.5	-30.4		
2025-11-20T23:42	3933	625	-7.9	-31.6		
2025-11-20T23:42	3979	621			268	24
2025-11-20T23:43	4231	601	-9.8	-38.0		
2025-11-20T23:43	4296	596			259	27
2025-11-20T23:44	4510	580	-11.9	-46.1		
2025-11-20T23:44	4643	570			258	29
2025-11-20T23:45	4990	544			255	29
2025-11-20T23:46	5365	518			253	31
2025-11-20T23:46	5415	514	-19.2	-51.4		
2025-11-20T23:47	5728	493	-21.8	-47.3		
2025-11-20T23:47	5740	492			257	33
2025-11-20T23:47	5778	489	-21.9	-33.6		
2025-11-20T23:48	6120	467			256	33
2025-11-20T23:49	6395	450	-27.7	-34.7		
2025-11-20T23:49	6425	448	-27.7	-36.7		
2025-11-20T23:49	6461	445	-26.8	-48.5		
2025-11-20T23:49	6479	444			257	39
2025-11-20T23:49	6559	439	-26.8	-53.7		
2025-11-20T23:50	6849	422			257	43
2025-11-20T23:50	6917	418	-28.8	-55.2		
2025-11-20T23:51	7220	401			259	47
2025-11-20T23:52	7377	392	-31.3	-57.2		
2025-11-20T23:52	7582	381			260	47
2025-11-20T23:52	7630	378	-33.0	-58.5		
2025-11-20T23:53	7944	361			256	50
2025-11-20T23:54	8299	343	-37.0	-56.8		
2025-11-20T23:54	8311	343			257	55
2025-11-20T23:55	8578	330	-38.5	-64.1		
2025-11-20T23:55	8638	327			256	57
2025-11-20T23:56	8829	318	-40.0	-65.3		
2025-11-20T23:56	8964	312			256	59
2025-11-20T23:56	9002	310	-40.8			
2025-11-20T23:57	9251	299			255	62
2025-11-20T23:58	9603	284			257	64
2025-11-20T23:59	9929	270			259	69
2025-11-20T23:59	10013	267	-46.7			
2025-11-21T00:00	10237	258			258	73
2025-11-21T00:01	10441	250			257	78
2025-11-21T00:02	10716	240			256	78
2025-11-21T00:02	10753	238	-48.9			
2025-11-21T00:02	10993	230			258	81
2025-11-21T00:03	11276	220			258	85
2025-11-21T00:04	11479	213	-52.1			
2025-11-21T00:05	11590	210			260	82
2025-11-21T00:06	11914	199			262	82
2025-11-21T00:07	12228	190			262	79
2025-11-21T00:07	12460	183	-56.4			
2025-11-21T00:08	12535	181			265	78
2025-11-21T00:09	12837	172			264	75
2025-11-21T00:10	13136	164			260	72
2025-11-21T00:10	13165	164	-58.1			
2025-11-21T00:10	13434	157			259	71
2025-11-21T00:11	13700	150	-61.3			
2025-11-21T00:12	13763	149			260	70
2025-11-21T00:12	14043	142	-62.7			
2025-11-21T00:13	14104	141			261	70
2025-11-21T00:13	14324	136	-62.8			
2025-11-21T00:14	14431	133			263	69
2025-11-21T00:15	14741	127			262	67
2025-11-21T00:15	15044	121			266	62
2025-11-21T00:16	15076	120	-64.6			
2025-11-21T00:16	15210	117			262	57
2025-11-21T00:16	15258	117	-64.7			
2025-11-21T00:17	15412	114			261	57
2025-11-21T00:17	15552	111	-64.2			
2025-11-21T00:17	15597	110			258	52
2025-11-21T00:18	15686	109	-63.3			
2025-11-21T00:18	15905	105			255	51
2025-11-21T00:19	16222	100			254	55
2025-11-21T00:20	16531	95			253	54
2025-11-21T00:20	16581	94	-66.5			
2025-11-21T00:21	16819	90			259	53
2025-11-21T00:22	17035	87	-66.4			
2025-11-21T00:22	17127	86			263	46
2025-11-21T00:23	17212	85	-65.4			
2025-11-21T00:23	17344	83			263	45
2025-11-21T00:24	17603	79			264	38
2025-11-21T00:25	17916	75			252	36
2025-11-21T00:26	18206	72			254	36
2025-11-21T00:26	18231	72	-65.3			
2025-11-21T00:27	18530	68	-63.8		262	35
2025-11-21T00:27	18675	67	-61.9			
2025-11-21T00:27	18694	66			251	31
2025-11-21T00:28	18836	65	-60.8			
2025-11-21T00:28	19061	63			266	27
2025-11-21T00:28	19071	62	-60.3			
2025-11-21T00:29	19357	60			254	20
2025-11-21T00:29	19432	59	-60.2			
2025-11-21T00:30	19714	56			251	29
2025-11-21T00:31	20037	53			257	26
2025-11-21T00:32	20288	51	-63.5			
2025-11-21T00:32	20384	51			263	30
2025-11-21T00:33	20769	47			259	27
2025-11-21T00:34	21022	46	-62.8			
2025-11-21T00:34	21119	45	-62.5			
2025-11-21T00:34	21148	45			277	28
2025-11-21T00:34	21287	44	-60.0			
2025-11-21T00:35	21417	43			263	25
2025-11-21T00:36	21736	41	-57.8		256	27
2025-11-21T00:36	21834	40	-57.1			
2025-11-21T00:37	22007	39	-54.4			
2025-11-21T00:37	22040	39			272	30
2025-11-21T00:38	22449	36			280	24
2025-11-21T00:38	22626	35	-55.2			
2025-11-21T00:39	22796	34			259	16
2025-11-21T00:39	22906	34	-54.3			
2025-11-21T00:40	23161	33	-54.1		234	16
2025-11-21T11:33	26	1012	8.6	5.5	10	1
2025-11-21T11:33	31	1012	9.1	5.3	0	0
2025-11-21T11:33	62	1008	11.6	5.0		
2025-11-21T11:33	67	1007			57	3
2025-11-21T11:33	117	1001	13.0	4.7		
2025-11-21T11:33	153	997			33	8
2025-11-21T11:33	169	995	13.7	4.3		
2025-11-21T11:34	368	972			19	3
2025-11-21T11:34	401	968	12.1	3.1		
2025-11-21T11:34	485	958	12.0	0.7		
2025-11-21T11:35	524	954			324	4
2025-11-21T11:35	597	946	11.7	-1.5		
2025-11-21T11:35	725	931	11.2	-2.6		
2025-11-21T11:35	769	926			297	6
2025-11-21T11:35	813	921	10.7	-3.0		
2025-11-21T11:36	925	909	9.7	-4.7		
2025-11-21T11:36	1088	891			281	7
2025-11-21T11:37	1166	883	7.9	-5.2		
2025-11-21T11:37	1245	874			257	6
2025-11-21T11:37	1261	873	7.0	-1.9		
2025-11-21T11:38	1529	844			268	8
2025-11-21T11:38	1747	822			268	10
2025-11-21T11:38	1780	819	2.5	-2.6		
2025-11-21T11:39	1863	811	2.6	-6.3		
2025-11-21T11:39	1874	809			265	14
2025-11-21T11:40	2222	775			272	12
2025-11-21T11:40	2425	756	-2.7	-9.2		
2025-11-21T11:40	2501	749			273	17
2025-11-21T11:41	2567	742	-3.5	-12.9		
2025-11-21T11:41	2818	719			271	18
2025-11-21T11:42	3074	696	-7.3	-17.8		
2025-11-21T11:42	3146	689			280	21
2025-11-21T11:43	3173	687	-7.5	-22.1		
2025-11-21T11:43	3270	678	-7.8	-23.2	272	22
2025-11-21T11:43	3423	665	-8.6	-27.6		
2025-11-21T11:44	3491	659	-8.5	-31.3		
2025-11-21T11:44	3591	651			275	28
2025-11-21T11:44	3785	635	-9.5	-32.9		
2025-11-21T11:45	3862	628			269	27
2025-11-21T11:45	4074	611	-11.6	-32.4		
2025-11-21T11:46	4172	603			267	27
2025-11-21T11:46	4219	600	-12.9	-27.2		
2025-11-21T11:46	4337	591	-13.9	-25.8		
2025-11-21T11:46	4402	586			264	29
2025-11-21T11:47	4456	581	-14.7	-29.6		
2025-11-21T11:47	4509	577			266	29
2025-11-21T11:47	4536	575	-15.2	-28.2		
2025-11-21T11:48	4787	556	-17.5	-31.3		
2025-11-21T11:48	4825	554			264	31
2025-11-21T11:49	5156	529			263	32
2025-11-21T11:49	5201	526	-21.0	-34.4		
2025-11-21T11:50	5488	506			265	31
2025-11-21T11:50	5494	506	-22.5	-40.9		
2025-11-21T11:50	5606	498	-23.1	-44.0		
2025-11-21T11:50	5704	491			264	32
2025-11-21T11:51	6002	472			258	38
2025-11-21T11:52	6122	464	-25.6	-51.5		
2025-11-21T11:52	6200	459	-25.8	-52.9		
2025-11-21T11:52	6233	457			258	40
2025-11-21T11:53	6567	436			254	43
2025-11-21T11:53	6659	431	-29.0	-58.7		
2025-11-21T11:54	6920	415			258	49
2025-11-21T11:55	7087	405	-31.3	-60.4		
2025-11-21T11:55	7262	396			253	53
2025-11-21T11:56	7472	384	-31.8	-60.7		
2025-11-21T11:56	7616	376			256	59
2025-11-21T11:57	7972	358			254	62
2025-11-21T11:58	8296	341			253	63
2025-11-21T11:59	8499	331	-37.8	-65.2		
2025-11-21T11:59	8636	325			254	64
2025-11-21T11:59	8664	324	-38.7	-58.9		
2025-11-21T12:00	8846	315			254	67
2025-11-21T12:00	8966	310	-39.1	-62.0		
2025-11-21T12:00	9041	306	-39.1	-62.0		
2025-11-21T12:00	9099	304			249	72
2025-11-21T12:01	9140	302	-39.4	-63.4		
2025-11-21T12:01	9352	293	-40.0	-63.9		
2025-11-21T12:01	9437	289			247	77
2025-11-21T12:02	9522	285	-40.6			
2025-11-21T12:02	9697	278			251	80
2025-11-21T12:02	9759	276	-40.9			
2025-11-21T12:03	9889	271			251	85
2025-11-21T12:04	10233	257			251	85
2025-11-21T12:04	10257	256	-44.0			
2025-11-21T12:04	10383	251			251	86
2025-11-21T12:05	10763	238			253	89
2025-11-21T12:05	10783	237	-45.4			
2025-11-21T12:06	11167	223			253	90
2025-11-21T12:07	11433	215	-50.1			
2025-11-21T12:07	11554	211			255	89
2025-11-21T12:08	11900	200			256	90
2025-11-21T12:08	11949	198	-52.8			
2025-11-21T12:09	12196	191			259	85
2025-11-21T12:10	12536	181			258	82
2025-11-21T12:10	12659	177	-54.7			
2025-11-21T12:11	12854	172			257	77
2025-11-21T12:12	13102	165	-57.0			
2025-11-21T12:12	13157	164			256	72
2025-11-21T12:12	13232	162	-57.1			
2025-11-21T12:13	13494	155			251	72
2025-11-21T12:13	13561	154	-58.6			
2025-11-21T12:14	13799	148			255	72
2025-11-21T12:14	13858	147	-59.9			
2025-11-21T12:15	14092	141			255	70
2025-11-21T12:16	14400	135			252	69
2025-11-21T12:17	14568	131	-62.9			
2025-11-21T12:17	14675	129			254	72
2025-11-21T12:18	14912	124	-64.1			
2025-11-21T12:18	14924	124			256	68
2025-11-21T12:19	15270	117			254	65
2025-11-21T12:20	15604	110			253	63
2025-11-21T12:20	15769	107	-68.2			
2025-11-21T12:20	15842	106			260	61
2025-11-21T12:21	15988	104	-67.9			
2025-11-21T12:21	16109	102			263	54
2025-11-21T12:22	16245	99	-67.8			
2025-11-21T12:22	16377	97			257	51
2025-11-21T12:23	16538	95	-67.3			
2025-11-21T12:23	16682	92			261	54
2025-11-21T12:24	16832	90	-66.5			
2025-11-21T12:24	16988	88			261	49
2025-11-21T12:25	17239	84	-67.6			
2025-11-21T12:25	17296	83			262	47
2025-11-21T12:26	17472	81	-67.2			
2025-11-21T12:26	17533	80			261	45
2025-11-21T12:26	17645	79	-66.6			
2025-11-21T12:26	17698	78			263	40
2025-11-21T12:27	17961	75			259	42
2025-11-21T12:27	18019	74	-63.5			
2025-11-21T12:28	18274	71	-64.4			
2025-11-21T12:28	18310	71			254	42
2025-11-21T12:29	18539	68			262	40
2025-11-21T12:29	18564	68	-64.1			
2025-11-21T12:29	18649	67	-62.9			
2025-11-21T12:29	18669	67			259	35
2025-11-21T12:30	18778	65	-62.0			
2025-11-21T12:30	18952	64			249	35
2025-11-21T12:30	19004	63	-60.6			
2025-11-21T12:31	19233	61			250	39
2025-11-21T12:32	19390	59	-61.3			
2025-11-21T12:32	19537	58			259	32
2025-11-21T12:33	19704	56	-59.0			
2025-11-21T12:33	19836	55			262	27
2025-11-21T12:34	20159	52			259	34
2025-11-21T12:34	20182	52	-60.8			
2025-11-21T12:35	20340	51			266	32
2025-11-21T12:35	20379	51	-60.3			
2025-11-21T12:36	20668	48			257	24
2025-11-21T12:37	20956	46			241	25
2025-11-21T12:37	20983	46	-60.8			
2025-11-21T12:37	21138	45	-57.6		257	30
2025-11-21T12:38	21339	43			264	33
2025-11-21T12:38	21356	43	-55.9			
2025-11-21T12:39	21672	41			278	27
2025-11-21T12:39	21717	41	-56.8			
2025-11-21T12:40	21986	39	-55.7			
2025-11-21T12:40	22037	39			279	24
2025-11-21T12:40	22167	38	-56.2			
2025-11-21T12:41	22389	37			258	23
2025-11-21T12:41	22495	36	-54.8			
2025-11-21T12:41	22621	35	-53.0		254	25
2025-11-21T12:42	22936	34	-52.7			
2025-11-21T12:42	22956	34			275	32
2025-11-21T12:43	23289	32			272	22
2025-11-21T12:44	23662	30			276	22
2025-11-21T12:45	23856	29	-54.1			
2025-11-21T12:45	24014	29			289	24
2025-11-21T12:46	24379	27			302	13
2025-11-21T12:47	24499	26	-55.8			
2025-11-21T12:48	24744	25	-56.7		291	11
2025-11-21T12:48	25027	24			286	17
2025-11-21T12:49	25212	24			277	12
2025-11-21T12:49	25380	23			251	12
2025-11-21T12:49	25434	23	-52.9			
2025-11-21T12:50	25636	22			253	4
2025-11-21T12:50	25784	22	-51.7			
2025-11-21T12:51	25875	21			340	3
2025-11-21T12:51	26123	21			284	5
2025-11-21T12:52	26382	20			296	3
2025-11-21T12:52	26480	19	-52.9			
2025-11-21T12:52	26512	19			273	3
2025-11-21T12:53	26715	19			276	9
2025-11-21T12:53	26819	18	-52.2			
2025-11-21T12:54	27109	18			212	9
2025-11-21T12:55	27485	17			239	9
2025-11-21T12:55	27723	16	-53.5			
2025-11-21T12:56	27765	16			227	14
2025-11-21T12:56	27926	16	-54.5		213	14
2025-11-21T12:56	28093	15			228	11
2025-11-21T12:57	28142	15	-49.1			
2025-11-21T12:57	28272	15			261	9
2025-11-21T12:57	28453	14			265	11
2025-11-21T12:58	28731	14			293	13
2025-11-21T12:59	29071	13			347	8
2025-11-21T12:59	29122	13	-52.9			
2025-11-21T12:59	29376	12			9	10
2025-11-21T13:00	29582	12	-55.0			
2025-11-21T13:00	29636	12			31	11
2025-11-21T13:01	29860	12	-50.2		81	1
2025-11-21T13:01	30091	11			318	3
2025-11-21T13:01	30270	11	-51.6			
2025-11-21T13:02	30332	11			309	8
2025-11-21T13:02	30577	10			339	12
2025-11-21T13:03	30838	10	-48.1		8	9
2025-11-21T13:03	30974	10			47	7
2025-11-21T13:03	31041	10			85	8
2025-11-21T13:03	31111	10			102	9
2025-11-21T13:04	31254	9			109	5
2025-11-21T13:04	31326	9			123	6
2025-11-21T13:04	31549	9	-43.6		109	9
2025-11-21T13:05	31701	9			113	5
2025-11-21T13:05	31776	9			99	3
2025-11-21T13:05	31935	8			316	3
2025-11-21T13:06	32097	8			327	7
2025-11-21T13:06	32346	8			339	10
2025-11-21T13:07	32431	8			329	9
2025-11-21T13:07	32517	8			291	8
2025-11-21T13:07	32601	8			295	3
2025-11-21T13:08	32956	7			161	3
2025-11-21T13:08	33159	7	-47.5		141	1
2025-11-21T23:33	26	1020	9.6	6.1	260	0
2025-11-21T23:33	32	1019	9.4	5.9	0	0
2025-11-21T23:33	105	1011	8.7	5.6		
2025-11-21T23:33	165	1003	8.6	4.2		
2025-11-21T23:34	236	995			54	5
2025-11-21T23:34	252	993	10.0	1.6		
2025-11-21T23:34	311	986	9.9	3.0		
2025-11-21T23:34	330	984			77	6
2025-11-21T23:34	385	977	9.3	6.0		
2025-11-21T23:35	540	959			130	4
2025-11-21T23:35	733	937	6.8	3.2		
2025-11-21T23:36	776	932			169	3
2025-11-21T23:36	870	921			234	3
2025-11-21T23:36	923	915	5.6	-0.5		
2025-11-21T23:36	932	914			298	1
2025-11-21T23:36	962	911			328	4
2025-11-21T23:36	1034	903			310	8
2025-11-21T23:37	1105	895			301	6
2025-11-21T23:37	1206	884			306	10
2025-11-21T23:38	1399	863	1.9	-3.8		
2025-11-21T23:38	1414	862			310	12
2025-11-21T23:39	1705	831	0.9	-6.9		
2025-11-21T23:39	1731	828			278	12
2025-11-21T23:39	1920	809	-0.1	-7.8		
2025-11-21T23:40	2043	797			253	10
2025-11-21T23:40	2129	788	-1.6	-9.0		
2025-11-21T23:40	2216	780	-2.0	-8.3		
2025-11-21T23:40	2244	777			244	14
2025-11-21T23:40	2253	776	-1.6	-9.2		
2025-11-21T23:41	2309	771	0.0	-17.7		
2025-11-21T23:41	2443	758	-0.6	-22.0		
2025-11-21T23:41	2493	753			268	13
2025-11-21T23:42	2820	723			294	15
2025-11-21T23:42	2836	721	-2.5	-25.6		
2025-11-21T23:43	3035	703	-2.8	-22.1		
2025-11-21T23:43	3073	700			295	17
2025-11-21T23:43	3211	688	-3.8	-21.9		
2025-11-21T23:44	3397	672			298	16
2025-11-21T23:44	3467	666	-5.8	-24.1		
2025-11-21T23:45	3579	657			290	16
2025-11-21T23:45	3676	648	-6.8	-27.2		
2025-11-21T23:45	3829	636			278	18
2025-11-21T23:45	3833	636	-7.6	-29.1		
2025-11-21T23:46	3979	624			277	16
2025-11-21T23:47	4159	609			273	20
2025-11-21T23:48	4437	588			277	18
2025-11-21T23:48	4536	580	-13.3	-34.5		
2025-11-21T23:49	4739	565			283	20
2025-11-21T23:49	4894	553	-16.1	-36.8		
2025-11-21T23:50	5027	544			279	21
2025-11-21T23:50	5051	542	-16.9	-41.4		
2025-11-21T23:50	5090	539	-16.6	-44.5		
2025-11-21T23:51	5333	522			268	19
2025-11-21T23:51	5506	510			268	22
2025-11-21T23:52	5673	499			279	19
2025-11-21T23:52	5767	492	-21.6	-51.3		
2025-11-21T23:53	5980	478			282	17
2025-11-21T23:54	6272	459			287	19
2025-11-21T23:54	6487	446			285	19
2025-11-21T23:54	6504	445	-28.0	-52.2		
2025-11-21T23:55	6726	431			275	21
2025-11-21T23:55	6930	419	-30.6	-58.1		
2025-11-21T23:56	7071	411			270	22
2025-11-21T23:57	7309	397			266	24
2025-11-21T23:57	7333	396	-34.0	-60.7		
2025-11-21T23:57	7462	389	-34.5	-62.8		
2025-11-21T23:57	7520	385			260	26
2025-11-21T23:57	7588	382	-34.1	-62.5		
2025-11-21T23:58	7691	376			260	30
2025-11-21T23:58	7812	369			256	31
2025-11-21T23:59	7987	360	-36.6	-66.4		
2025-11-21T23:59	8153	352			253	39
2025-11-22T00:00	8325	343	-37.6	-65.1		
2025-11-22T00:00	8417	338	-38.1	-61.2		
2025-11-22T00:00	8450	337			256	46
2025-11-22T00:01	8673	326	-40.0	-60.8		
2025-11-22T00:01	8789	321			258	49
2025-11-22T00:01	8807	320	-41.0			
2025-11-22T00:02	8974	312	-41.2			
2025-11-22T00:02	9141	304			257	56
2025-11-22T00:02	9225	301	-42.1			
2025-11-22T00:03	9371	294			258	57
2025-11-22T00:03	9561	286			256	61
2025-11-22T00:03	9664	282	-43.7			
2025-11-22T00:04	9830	275			251	66
2025-11-22T00:05	10165	261			251	72
2025-11-22T00:05	10302	256	-45.7			
2025-11-22T00:06	10441	251			251	73
2025-11-22T00:07	10731	240	-48.0			
2025-11-22T00:07	10797	238			249	76
2025-11-22T00:08	11089	227	-50.2			
2025-11-22T00:08	11172	224			248	75
2025-11-22T00:09	11485	214	-51.1			
2025-11-22T00:09	11532	212			251	73
2025-11-22T00:10	11852	202			251	78
2025-11-22T00:10	12165	192	-55.0			
2025-11-22T00:11	12227	191			252	73
2025-11-22T00:12	12592	180			254	74
2025-11-22T00:12	12637	179	-57.1			
2025-11-22T00:13	12976	169			254	73
2025-11-22T00:13	13140	165	-58.4			
2025-11-22T00:14	13324	160			255	69
2025-11-22T00:14	13335	160	-59.0			
2025-11-22T00:15	13643	152			254	68
2025-11-22T00:15	13721	150	-60.9			
2025-11-22T00:16	13931	145			254	69
2025-11-22T00:16	14132	141	-63.1			
2025-11-22T00:17	14242	138			255	68
2025-11-22T00:17	14360	136	-63.8			
2025-11-22T00:17	14537	132	-64.6			
2025-11-22T00:18	14587	131			257	68
2025-11-22T00:18	14604	130	-64.2		256	67
2025-11-22T11:33	26	1022	8.3	7.5	40	1
2025-11-22T11:33	31	1022	8.8	7.6	0	0
2025-11-22T11:33	62	1018	11.7	7.4		
2025-11-22T11:33	83	1015			74	3
2025-11-22T11:34	233	997	12.4	6.2		
2025-11-22T11:34	254	995			129	7
2025-11-22T11:34	401	978			146	6
2025-11-22T11:35	709	942			189	2
2025-11-22T11:35	725	940	8.7	3.3		
2025-11-22T11:35	810	931	8.4	1.1		
2025-11-22T11:36	1013	908	6.9	1.6		
2025-11-22T11:36	1047	904			271	2
2025-11-22T11:36	1168	891			279	3
2025-11-22T11:37	1362	870	4.1	1.1		
2025-11-22T11:37	1497	856			237	9
2025-11-22T11:37	1508	855	3.6	0.8		
2025-11-22T11:38	1631	842			233	13
2025-11-22T11:38	1713	833	2.3	-0.6		
2025-11-22T11:39	1962	808			229	14
2025-11-22T11:39	2040	800	-0.5	-1.1		
2025-11-22T11:40	2276	777	-2.2	-2.6		
2025-11-22T11:40	2299	774			223	15
2025-11-22T11:40	2351	769	-1.8	-8.3		
2025-11-22T11:40	2420	763	-1.7	-11.8		
2025-11-22T11:40	2466	758	-0.8	-11.5		
2025-11-22T11:40	2513	754			238	10
2025-11-22T11:40	2536	752	0.3	-14.1		
2025-11-22T11:41	2865	721			257	11
2025-11-22T11:42	2973	712	-2.7	-23.8		
2025-11-22T11:42	3078	702	-3.1	-24.1		
2025-11-22T11:42	3198	692			259	10
2025-11-22T11:43	3525	663			269	13
2025-11-22T11:44	3869	635			274	14
2025-11-22T11:45	3929	630	-9.1	-31.1		
2025-11-22T11:45	4123	614			282	14
2025-11-22T11:46	4297	600			278	11
2025-11-22T11:46	4483	586	-12.8	-34.8	281	14
2025-11-22T11:47	4812	561			289	16
2025-11-22T11:48	5089	541			278	11
2025-11-22T11:48	5196	533	-17.6	-41.1		
2025-11-22T11:49	5371	521			278	12
2025-11-22T11:49	5507	512	-20.2	-44.0		
2025-11-22T11:50	5700	498			276	11
2025-11-22T11:50	5835	489			275	11
2025-11-22T11:51	6172	467			268	14
2025-11-22T11:52	6347	456	-27.3	-50.6		
2025-11-22T11:52	6477	448			284	13
2025-11-22T11:53	6614	439			273	12
2025-11-22T11:53	6850	425	-30.9	-55.6		
2025-11-22T11:54	6969	418			271	13
2025-11-22T11:54	7124	409			264	16
2025-11-22T11:55	7448	390			286	18
2025-11-22T11:55	7467	389	-35.3	-60.2		
2025-11-22T11:56	7659	379			270	22
2025-11-22T11:57	8008	360			274	20
2025-11-22T11:57	8048	358	-39.3	-64.7		
2025-11-22T11:57	8168	352	-40.0	-65.3		
2025-11-22T11:57	8244	348			265	21
2025-11-22T11:58	8358	342			269	25
2025-11-22T11:58	8470	336	-40.9			
2025-11-22T11:58	8530	333			261	25
2025-11-22T11:58	8580	331	-40.7			
2025-11-22T11:59	8685	326			262	28
2025-11-22T11:59	8788	321	-41.4			
2025-11-22T11:59	8794	321			258	29
2025-11-22T11:59	8934	314			256	33
2025-11-22T12:00	9304	297			262	34
2025-11-22T12:01	9559	286	-46.2			
2025-11-22T12:01	9678	281			260	34
2025-11-22T12:02	9848	274	-46.7			
2025-11-22T12:02	9944	270			259	41
2025-11-22T12:03	10116	263	-47.7			
2025-11-22T12:03	10309	256			259	41
2025-11-22T12:04	10668	242			260	46
2025-11-22T12:05	10897	234	-49.6			
2025-11-22T12:05	10991	230			262	42
2025-11-22T12:06	11244	222			257	46
2025-11-22T12:07	11593	210	-50.8			
2025-11-22T12:07	11605	210			255	53
2025-11-22T12:08	11870	201	-51.8			
2025-11-22T12:08	11932	199			253	57
2025-11-22T12:08	12069	195			253	60
2025-11-22T12:09	12394	186			259	55
2025-11-22T12:10	12561	181	-53.4			
2025-11-22T12:10	12803	174			262	51
2025-11-22T12:12	13198	164			259	54
2025-11-22T12:12	13513	156			260	55
2025-11-22T12:13	13729	151			259	54
2025-11-22T12:14	14032	143	-59.0			
2025-11-22T12:14	14037	143			259	56
2025-11-22T12:15	14339	137			262	51
2025-11-22T12:16	14613	131			255	49
2025-11-22T12:16	14647	130	-61.2			
2025-11-22T12:17	14863	125			258	50
2025-11-22T12:18	15128	120			260	51
2025-11-22T12:18	15155	120	-63.3			
2025-11-22T12:18	15257	118			262	50
2025-11-22T12:19	15335	116	-63.3			
2025-11-22T12:19	15578	112			258	44
2025-11-22T12:19	15589	111	-64.3			
2025-11-22T12:20	15896	106			260	52
2025-11-22T12:21	16086	103	-64.6			
2025-11-22T12:21	16194	101			265	47
2025-11-22T12:22	16435	97	-64.9		264	40
2025-11-22T12:23	16589	95			267	40
2025-11-22T12:23	16766	92			273	40
2025-11-22T12:23	16785	92	-62.9			
2025-11-22T12:24	16909	90			278	39
2025-11-22T12:24	17181	86			272	31
2025-11-22T12:25	17501	82			256	31
2025-11-22T12:26	17745	78	-64.9			
2025-11-22T12:26	17838	77			253	31
2025-11-22T12:27	18038	75			253	36
2025-11-22T12:27	18081	74	-65.8			
2025-11-22T12:28	18402	70			263	34
2025-11-22T12:28	18561	69			259	29
2025-11-22T12:29	18821	66	-61.8			
2025-11-22T12:29	18896	65			265	29
2025-11-22T12:30	19226	62			268	24
2025-11-22T12:30	19234	61	-64.5			
2025-11-22T12:31	19410	60	-63.0			
2025-11-22T12:31	19512	59			258	29
2025-11-22T12:32	19706	57			265	28
2025-11-22T12:32	19727	57	-61.6			
2025-11-22T12:33	20031	54			275	27
2025-11-22T12:33	20146	53	-61.7			
2025-11-22T12:33	20192	53			274	33
2025-11-22T12:34	20373	51			273	30
2025-11-22T12:35	20660	49			269	27
2025-11-22T12:35	20842	47	-58.6			
2025-11-22T12:36	20989	46			268	25
2025-11-22T12:36	21016	46	-58.1			
2025-11-22T12:37	21250	44			269	29
2025-11-22T12:37	21351	44	-56.7			
2025-11-22T12:38	21558	42			261	24
2025-11-22T12:38	21791	41	-53.9			
2025-11-22T12:39	21923	40			264	31
2025-11-22T12:39	22198	38			261	27
2025-11-22T12:40	22384	37	-52.9			
2025-11-22T12:40	22489	37			267	22
2025-11-22T12:41	22795	35			262	22
2025-11-22T12:42	22983	34			276	22
2025-11-22T12:42	23177	33			290	18
2025-11-22T12:43	23538	31			291	19
2025-11-22T12:44	23900	29			273	21
2025-11-22T12:45	24119	28	-55.0			
2025-11-22T12:45	24258	28			266	20
2025-11-22T12:46	24611	26			251	19
2025-11-22T12:47	24781	26	-54.8			
2025-11-22T12:47	24960	25			253	16
2025-11-22T12:48	25066	25	-51.8			
2025-11-22T12:48	25334	24			279	16
2025-11-22T12:49	25523	23	-52.4		303	17
2025-11-22T23:33	26	1022	9.6	6.7	300	1
2025-11-22T23:33	32	1022	9.6	6.3	0	0
2025-11-22T23:33	70	1017			298	3
2025-11-22T23:33	133	1009	8.3	5.2		
2025-11-22T23:33	167	1005	10.2	6.9		
2025-11-22T23:34	226	998			22	6
2025-11-22T23:34	285	991	10.3	7.4		
2025-11-22T23:34	379	980	10.7	8.3		
2025-11-22T23:34	420	975			77	6
2025-11-22T23:35	571	958			100	4
2025-11-22T23:35	699	943	8.6	7.5		
2025-11-22T23:35	753	937			109	5
2025-11-22T23:35	842	927			119	3
2025-11-22T23:36	886	922			70	2
2025-11-22T23:36	952	915	7.2	6.8		
2025-11-22T23:36	1025	907	7.3	7.2		
2025-11-22T23:36	1047	904			161	3
2025-11-22T23:36	1170	891	6.4	6.4		
2025-11-22T23:36	1176	890			151	7
2025-11-22T23:37	1337	873			192	7
2025-11-22T23:37	1432	863			204	7
2025-11-22T23:37	1465	859	5.4	5.0		
2025-11-22T23:37	1516	854			220	10
2025-11-22T23:38	1639	841			216	7
2025-11-22T23:38	1657	840	3.9	3.8		
2025-11-22T23:38	1863	818			219	7
2025-11-22T23:39	2010	804			216	8
2025-11-22T23:39	2083	796	1.0	0.4		
2025-11-22T23:39	2131	792			207	13
2025-11-22T23:39	2243	781	0.6	-0.9		
2025-11-22T23:40	2398	766	0.5	-1.6		
2025-11-22T23:40	2466	759			205	12
2025-11-22T23:40	2599	747			197	13
2025-11-22T23:41	2616	745	-0.2	-10.7		
2025-11-22T23:41	2652	742	0.4	-17.4		
2025-11-22T23:41	2903	719	-0.6	-37.9		
2025-11-22T23:41	2972	713			231	12
2025-11-22T23:42	3154	696			237	13
2025-11-22T23:43	3338	680			235	12
2025-11-22T23:43	3355	679	-3.0	-37.5		
2025-11-22T23:43	3558	662			244	12
2025-11-22T23:44	3758	645			244	11
2025-11-22T23:44	3921	632	-7.5	-40.8		
2025-11-22T23:44	3988	626			238	16
2025-11-22T23:45	4313	601			237	15
2025-11-22T23:46	4519	585			231	15
2025-11-22T23:46	4666	573	-13.8	-42.4		
2025-11-22T23:47	4710	570			244	15
2025-11-22T23:47	4905	556			247	12
2025-11-22T23:48	5082	543			244	15
2025-11-22T23:48	5200	534	-17.3	-50.0		
2025-11-22T23:48	5312	526			247	15
2025-11-22T23:49	5519	512			247	17
2025-11-22T23:49	5652	503	-20.5	-50.5		
2025-11-22T23:49	5706	499			249	19
2025-11-22T23:50	5890	487			261	19
2025-11-22T23:50	5941	483	-22.1	-59.2		
2025-11-22T23:50	6003	479			261	21
2025-11-22T23:51	6134	471			261	22
2025-11-22T23:51	6330	458	-24.2	-51.7		
2025-11-22T23:51	6410	453	-24.6	-43.9		
2025-11-22T23:52	6467	450	-25.2	-36.5		
2025-11-22T23:52	6498	448			264	27
2025-11-22T23:52	6761	432	-27.6	-38.1		
2025-11-22T23:53	6821	428			268	27
2025-11-22T23:53	6881	425	-27.5	-44.6		
2025-11-22T23:53	7059	414	-27.7	-52.0	279	33
2025-11-22T23:53	7145	410	-27.5	-50.8		
2025-11-22T23:54	7183	407			279	36
2025-11-22T23:54	7398	395			283	38
2025-11-22T23:54	7502	390			284	36
2025-11-22T23:55	7700	379	-32.6	-44.4		
2025-11-22T23:55	7835	372			280	36
2025-11-22T23:56	8033	361			279	37
2025-11-22T23:57	8302	347			280	39
2025-11-22T23:57	8410	342	-39.2	-44.2		
2025-11-22T23:57	8530	336	-40.0	-44.4		
2025-11-22T23:58	8665	330			276	41
2025-11-22T23:58	8969	315			273	42
2025-11-22T23:59	9205	304	-45.9			
2025-11-22T23:59	9259	302			271	40
2025-11-23T00:00	9477	292			274	38
2025-11-23T00:01	9846	276	-50.6		269	43
2025-11-23T00:02	10193	261			269	54
2025-11-23T00:03	10534	248			267	62
2025-11-23T00:03	10640	244	-50.8			
2025-11-23T00:04	10871	236			267	58
2025-11-23T00:04	11006	231	-52.3			
2025-11-23T00:04	11044	229			267	62
2025-11-23T00:05	11250	222			269	59
2025-11-23T00:05	11443	216	-52.6			
2025-11-23T00:05	11513	213			271	62
2025-11-23T00:06	11703	207			269	63
2025-11-23T00:06	11734	206	-52.6			
2025-11-23T00:07	12031	197	-52.6			
2025-11-23T00:07	12090	195			271	64
2025-11-23T00:08	12467	184	-52.8		271	67
2025-11-23T11:33	26	1018	10.2	9.7	260	1
2025-11-23T11:33	31	1018	10.7	10.4	0	0
2025-11-23T11:33	42	1017			279	3
2025-11-23T11:33	58	1015	11.8	10.4		
2025-11-23T11:33	69	1013			260	5
2025-11-23T11:33	96	1010	12.2	10.4		
2025-11-23T11:33	134	1006			264	1
2025-11-23T11:33	173	1001	12.4	10.6		
2025-11-23T11:34	248	992	12.5	10.2		
2025-11-23T11:34	270	989			42	3
2025-11-23T11:34	355	979			46	2
2025-11-23T11:34	500	962	10.6	10.6		
2025-11-23T11:35	556	956			343	3
2025-11-23T11:35	613	949			3	3
2025-11-23T11:35	688	941			306	4
2025-11-23T11:35	704	939	9.5	9.0		
2025-11-23T11:36	837	924			351	2
2025-11-23T11:36	982	908	7.2	7.2		
2025-11-23T11:36	1062	899	7.5	7.5		
2025-11-23T11:36	1121	893			234	2
2025-11-23T11:36	1139	891	6.6	5.7		
2025-11-23T11:37	1224	882	6.2	2.8		
2025-11-23T11:37	1301	873	7.1	0.3		
2025-11-23T11:37	1365	866			224	5
2025-11-23T11:37	1370	866	8.0	-6.2		
2025-11-23T11:37	1455	857	8.1	-14.8		
2025-11-23T11:37	1477	855			203	5
2025-11-23T11:38	1571	845			248	6
2025-11-23T11:38	1638	838	7.7	-21.0		
2025-11-23T11:38	1718	830			230	4
2025-11-23T11:39	1973	805			235	6
2025-11-23T11:39	2046	797	4.6	-22.4		
2025-11-23T11:39	2099	792			222	3
2025-11-23T11:40	2175	785			265	4
2025-11-23T11:40	2309	772	3.1	-29.5		
2025-11-23T11:40	2314	771			233	6
2025-11-23T11:40	2458	758			229	7
2025-11-23T11:41	2571	747	1.4	-29.4		
2025-11-23T11:41	2592	745			215	7
2025-11-23T11:42	2908	716			242	7
2025-11-23T11:43	3146	695	-0.9	-38.2		
2025-11-23T11:43	3227	688			220	10
2025-11-23T11:43	3391	674	-2.7	-39.5		
2025-11-23T11:43	3397	674			229	9
2025-11-23T11:44	3649	652			232	8
2025-11-23T11:44	3755	644	-5.4	-41.4		
2025-11-23T11:45	3812	639			222	7
2025-11-23T11:45	3903	632			202	5
2025-11-23T11:45	3975	626			240	5
2025-11-23T11:45	4039	621	-6.7	-45.0		
2025-11-23T11:46	4159	611			231	5
2025-11-23T11:46	4360	596			271	7
2025-11-23T11:47	4471	587			247	7
2025-11-23T11:47	4611	576			275	6
2025-11-23T11:47	4756	566			281	7
2025-11-23T11:48	4821	561	-12.5	-42.8		
2025-11-23T11:48	4854	558			285	7
2025-11-23T11:48	4908	554	-12.9	-31.2		
2025-11-23T11:48	5015	547			266	9
2025-11-23T11:49	5122	539			261	9
2025-11-23T11:49	5315	525			250	9
2025-11-23T11:49	5414	518	-17.2	-29.7		
2025-11-23T11:50	5567	508			258	11
2025-11-23T11:50	5692	499	-19.2	-30.5		
2025-11-23T11:51	5796	493	-19.7	-28.2		
2025-11-23T11:51	5877	487			255	16
2025-11-23T11:51	6017	478	-20.9	-41.4		
2025-11-23T11:52	6189	467			246	17
2025-11-23T11:52	6350	457			243	18
2025-11-23T11:53	6470	449	-24.2	-53.2		
2025-11-23T11:53	6680	437			242	19
2025-11-23T11:54	6908	423	-27.8	-47.8		
2025-11-23T11:54	7017	417			241	20
2025-11-23T11:55	7314	400	-30.9	-44.5		
2025-11-23T11:55	7374	396			250	23
2025-11-23T11:55	7386	396	-31.5	-40.7		
2025-11-23T11:56	7468	391	-32.3	-38.3		
2025-11-23T11:56	7531	388			254	21
2025-11-23T11:56	7639	382			256	23
2025-11-23T11:56	7696	378	-34.4	-38.2		
2025-11-23T11:57	7895	368	-36.0	-37.4		
2025-11-23T11:57	7947	365			266	21
2025-11-23T11:58	8096	357	-37.3	-38.8		
2025-11-23T11:58	8125	356			252	23
2025-11-23T11:58	8384	343	-38.8	-40.4		
2025-11-23T11:59	8450	339			263	25
2025-11-23T11:59	8550	335	-40.0	-42.0		
2025-11-23T11:59	8658	329			256	27
2025-11-23T12:00	8939	316	-43.4			
2025-11-23T12:00	8969	315			259	29
2025-11-23T12:00	9101	308	-43.9			
2025-11-23T12:01	9321	299			257	31
2025-11-23T12:01	9440	293	-44.4			
2025-11-23T12:02	9547	289			256	37
2025-11-23T12:02	9620	286	-44.1			
2025-11-23T12:03	9928	273			259	36
2025-11-23T12:03	9980	270	-45.1			
2025-11-23T12:03	10154	264			269	41
2025-11-23T12:04	10339	256			266	44
2025-11-23T12:04	10484	251	-45.4			
2025-11-23T12:04	10541	249			263	45
2025-11-23T12:05	10637	245	-45.6			
2025-11-23T12:05	10878	236			260	46
2025-11-23T12:06	10948	234	-47.0			
2025-11-23T12:06	11230	224	-46.6			
2025-11-23T12:06	11242	224			258	54
2025-11-23T12:07	11432	217			260	61
2025-11-23T12:07	11529	214	-48.3			
2025-11-23T12:08	11832	204			260	64
2025-11-23T12:08	12055	198	-51.0			
2025-11-23T12:09	12211	193			259	65
2025-11-23T12:10	12585	182	-53.2		259	68
2025-11-23T12:11	12899	173	-55.2			
2025-11-23T12:11	12961	172			264	72
2025-11-23T12:12	13302	163	-56.6		268	71
2025-11-23T12:13	13696	153			271	70
2025-11-23T12:13	13759	151	-57.7		271	68
2025-11-23T23:33	26	1017	10.5	8.4	290	2
2025-11-23T23:33	31	1016	10.1	7.3	0	0
2025-11-23T23:33	48	1014	9.6	7.4		
2025-11-23T23:33	90	1009	10.0	7.6		
2025-11-23T23:33	117	1006			300	4
2025-11-23T23:33	127	1004	10.0	7.2		
2025-11-23T23:33	155	1001	11.9	7.8		
2025-11-23T23:34	275	987			308	4
2025-11-23T23:34	292	985	11.6	6.7		
2025-11-23T23:34	495	961	10.0	6.0		
2025-11-23T23:35	561	953	9.6	5.8		
2025-11-23T23:35	609	948	9.3	6.4		
2025-11-23T23:35	634	945			54	4
2025-11-23T23:35	676	940	9.3	1.9		
2025-11-23T23:35	792	927			48	3
2025-11-23T23:35	901	915			56	5
2025-11-23T23:36	920	913	8.0	0.0		
2025-11-23T23:36	1044	899	7.4	-1.8		
2025-11-23T23:36	1131	890	7.1	-2.6		
2025-11-23T23:36	1155	887			60	4
2025-11-23T23:36	1190	884	7.4	-4.4		
2025-11-23T23:37	1271	875			83	5
2025-11-23T23:37	1396	862			60	2
2025-11-23T23:37	1413	860	6.5	-6.8		
2025-11-23T23:37	1492	852			341	3
2025-11-23T23:38	1604	840	5.8	-7.4		
2025-11-23T23:38	1697	831			272	2
2025-11-23T23:38	1928	807	4.2	-14.6		
2025-11-23T23:39	2010	799	4.1	-19.5		
2025-11-23T23:39	2050	795			280	4
2025-11-23T23:39	2107	790	4.0	-22.0		
2025-11-23T23:40	2353	766	2.1	-24.4		
2025-11-23T23:40	2359	766			286	5
2025-11-23T23:40	2423	760	2.2	-28.8		
2025-11-23T23:40	2494	753			279	6
2025-11-23T23:40	2535	749	1.6	-28.0		
2025-11-23T23:40	2600	743			259	7
2025-11-23T23:41	2773	727			264	9
2025-11-23T23:41	2798	725	0.9	-34.6		
2025-11-23T23:41	2921	714			253	11
2025-11-23T23:42	3061	701	-0.8	-35.9		
2025-11-23T23:42	3220	688	-1.8	-38.8		
2025-11-23T23:42	3288	682			259	10
2025-11-23T23:42	3294	681	-1.3	-41.2		
2025-11-23T23:43	3538	661	-1.9	-33.3		
2025-11-23T23:43	3651	651			266	12
2025-11-23T23:43	3726	645	-2.9	-23.9		
2025-11-23T23:44	3966	626	-5.1	-26.4		
2025-11-23T23:44	4031	621			258	11
2025-11-23T23:45	4164	610	-6.1	-31.0		
2025-11-23T23:45	4403	592			248	16
2025-11-23T23:45	4483	586	-8.8	-21.5		
2025-11-23T23:46	4777	564			258	17
2025-11-23T23:46	4809	561	-11.4	-23.2		
2025-11-23T23:47	5156	536			258	17
2025-11-23T23:48	5457	515	-16.4	-29.6		
2025-11-23T23:48	5541	510			240	18
2025-11-23T23:49	5680	500	-17.9	-31.3		
2025-11-23T23:49	5809	492	-18.5	-32.5		
2025-11-23T23:49	5862	488			233	21
2025-11-23T23:49	5911	485	-17.0	-42.5		
2025-11-23T23:49	5995	480			238	27
2025-11-23T23:50	6209	466	-18.4	-47.3		
2025-11-23T23:50	6275	462			245	31
2025-11-23T23:51	6646	439			248	32
2025-11-23T23:52	6824	429			246	31
2025-11-23T23:52	6944	422	-25.0	-47.0		
2025-11-23T23:52	6976	420			246	31
2025-11-23T23:52	7106	413			250	30
2025-11-23T23:53	7433	394			243	30
2025-11-23T23:53	7439	394	-29.6	-43.0		
2025-11-23T23:54	7652	382			246	30
2025-11-23T23:54	7749	377			246	33
2025-11-23T23:55	7903	369	-33.4	-41.9		
2025-11-23T23:55	7909	369			251	30
2025-11-23T23:55	8122	358			249	29
2025-11-23T23:55	8156	356	-35.6	-44.0		
2025-11-23T23:56	8308	348	-36.6	-46.5		
2025-11-23T23:56	8516	338			250	30
2025-11-23T23:56	8658	331	-40.0	-47.4		
2025-11-23T23:57	8733	327			251	27
2025-11-23T23:58	9090	310			251	30
2025-11-23T23:59	9411	296			256	30
2025-11-23T23:59	9565	289			253	33
2025-11-23T23:59	9571	289	-48.3			
2025-11-24T00:00	9872	276	-50.1			
2025-11-24T00:00	9885	275			262	38
2025-11-24T00:00	9978	271	-49.0			
2025-11-24T00:00	10132	265			265	48
2025-11-24T00:01	10224	261	-48.7			
2025-11-24T00:01	10488	251			265	49
2025-11-24T00:02	10833	238	-50.4			
2025-11-24T00:02	10840	238			268	54
2025-11-24T00:03	10949	234			267	55
2025-11-24T00:03	11198	225	-50.9			
2025-11-24T00:04	11335	220			269	57
2025-11-24T00:05	11742	207			262	58
2025-11-24T00:05	11783	206	-52.4			
2025-11-24T00:05	12042	198			262	61
2025-11-24T00:05	12120	195	-52.8			
2025-11-24T00:06	12370	188	-53.2			
2025-11-24T00:06	12471	185			263	68
2025-11-24T00:07	12852	174	-54.7			
2025-11-24T00:07	12892	173			267	72
2025-11-24T00:08	13049	169	-55.3		268	74
2025-11-24T11:33	26	1013	8.0	6.5	0	0
2025-11-24T11:33	30	1012	8.5	7.0	0	0
2025-11-24T11:33	49	1010	10.9	7.2		
2025-11-24T11:33	86	1006			162	3
2025-11-24T11:33	92	1005	14.2	9.6		
2025-11-24T11:34	219	990	14.6	4.9		
2025-11-24T11:34	274	984			175	4
2025-11-24T11:34	339	976	13.5	6.1		
2025-11-24T11:34	394	970			175	4
2025-11-24T11:34	516	956	12.2	5.4		
2025-11-24T11:35	553	951			182	1
2025-11-24T11:35	732	931	11.0	-0.8		
2025-11-24T11:35	906	912			132	3
2025-11-24T11:36	918	911	9.5	-1.8		
2025-11-24T11:36	1029	899	8.6	-2.4		
2025-11-24T11:36	1117	889	8.4	-5.5		
2025-11-24T11:36	1278	872			155	4
2025-11-24T11:37	1285	871	7.1	-7.0		
2025-11-24T11:37	1352	864	6.4	-4.1		
2025-11-24T11:37	1446	854			155	4
2025-11-24T11:37	1535	845	5.0	-8.5		
2025-11-24T11:38	1670	831			170	4
2025-11-24T11:38	1768	821	3.4	-11.8	182	2
2025-11-24T11:38	1924	805	2.9	-6.2		
2025-11-24T11:38	1943	804			246	3
2025-11-24T11:38	1987	799	3.0	-14.7		
2025-11-24T11:39	2162	782			225	4
2025-11-24T11:39	2191	779	1.9	-20.0		
2025-11-24T11:39	2268	772			225	6
2025-11-24T11:39	2280	771	1.8	-10.7		
2025-11-24T11:39	2399	759	1.8	-17.7		
2025-11-24T11:40	2455	754			255	9
2025-11-24T11:40	2729	729			258	9
2025-11-24T11:41	2845	718	-2.4	-19.3		
2025-11-24T11:41	2877	715			268	9
2025-11-24T11:41	2991	705			246	10
2025-11-24T11:42	3143	692	-4.3	-22.4		
2025-11-24T11:42	3219	685			238	14
2025-11-24T11:42	3362	673	-6.1	-18.1		
2025-11-24T11:43	3466	664			249	17
2025-11-24T11:43	3533	658	-7.1	-14.0		
2025-11-24T11:43	3607	652			250	19
2025-11-24T11:43	3637	649	-7.1	-14.2		
2025-11-24T11:43	3712	643	-7.1	-15.3		
2025-11-24T11:43	3792	637			250	24
2025-11-24T11:44	3817	635	-7.7	-11.9		
2025-11-24T11:44	3866	631	-7.6	-8.1		
2025-11-24T11:44	3939	625	-7.7	-8.0		
2025-11-24T11:44	3988	621	-6.9	-8.4		
2025-11-24T11:44	4000	620			255	19
2025-11-24T11:45	4246	600	-8.1	-10.3		
2025-11-24T11:45	4350	593			264	23
2025-11-24T11:46	4693	567			258	25
2025-11-24T11:46	4716	565	-11.6	-12.9		
2025-11-24T11:47	4907	551	-12.7	-14.6		
2025-11-24T11:47	5030	542			251	25
2025-11-24T11:47	5041	541	-13.6	-15.3		
2025-11-24T11:48	5272	525	-15.5	-16.8		
2025-11-24T11:48	5355	519			258	27
2025-11-24T11:49	5591	503	-17.6	-19.2		
2025-11-24T11:49	5707	496			257	32
2025-11-24T11:50	5947	480			256	28
2025-11-24T11:50	6041	474	-21.5	-22.5		
2025-11-24T11:50	6196	464			259	29
2025-11-24T11:50	6217	463	-22.2	-25.4		
2025-11-24T11:51	6390	452	-23.6	-28.0		
2025-11-24T11:51	6487	446			261	32
2025-11-24T11:51	6516	444	-24.5	-29.4		
2025-11-24T11:52	6598	439	-24.7	-33.9		
2025-11-24T11:52	6840	425			263	36
2025-11-24T11:53	6931	419	-27.6	-35.3		
2025-11-24T11:53	7131	408	-29.4	-36.7		
2025-11-24T11:53	7185	405			260	37
2025-11-24T11:54	7511	387	-32.6	-40.5		
2025-11-24T11:54	7554	384			263	40
2025-11-24T11:55	7676	378	-33.8	-45.1		
2025-11-24T11:55	7712	376			266	41
2025-11-24T11:55	7762	373	-33.8	-51.0		
2025-11-24T11:55	7849	368			267	44
2025-11-24T11:55	7919	365	-34.8	-55.8		
2025-11-24T11:55	7983	361			262	42
2025-11-24T11:56	8029	359	-34.7	-61.2		
2025-11-24T11:56	8176	351			264	49
2025-11-24T11:56	8234	349	-35.4	-57.1		
2025-11-24T11:56	8340	343			266	48
2025-11-24T11:57	8435	339			268	46
2025-11-24T11:57	8468	337	-36.5	-62.6		
2025-11-24T11:57	8530	334	-35.5	-65.6		
2025-11-24T11:57	8681	327			268	58
2025-11-24T11:57	8718	325	-35.3	-68.4		
2025-11-24T11:58	8951	314			265	57
2025-11-24T11:59	9232	302			266	55
2025-11-24T11:59	9339	297	-40.0	-66.9		
2025-11-24T12:00	9519	289			267	60
2025-11-24T12:00	9868	275			266	62
2025-11-24T12:01	10250	260			269	62
2025-11-24T12:02	10328	257	-45.2			
2025-11-24T12:02	10480	251			270	65
2025-11-24T12:03	10737	241	-46.7			
2025-11-24T12:03	10744	241			270	65
2025-11-24T12:03	10865	237			271	67
2025-11-24T12:04	11241	224			271	68
2025-11-24T12:05	11593	212			268	65
2025-11-24T12:05	11796	205	-49.6			
2025-11-24T12:06	11978	200			266	69
2025-11-24T12:07	12340	189			268	72
2025-11-24T12:07	12391	187	-52.9			
2025-11-24T12:08	12692	179			267	70
2025-11-24T12:09	12927	172			266	68
2025-11-24T12:10	13284	163			268	70
2025-11-24T12:10	13363	161	-56.0			
2025-11-24T12:10	13550	156			262	64
2025-11-24T12:11	13623	155	-56.2			
2025-11-24T12:11	13852	149			263	69
2025-11-24T12:12	14245	140			261	69
2025-11-24T12:13	14434	136	-60.7			
2025-11-24T12:13	14574	133	-60.3			
2025-11-24T12:13	14616	132			259	64
2025-11-24T12:14	14868	127	-62.2			
2025-11-24T12:14	14902	126			262	64
2025-11-24T12:14	15048	123			263	61
2025-11-24T12:14	15125	122	-62.1			
2025-11-24T12:15	15181	120			266	60
2025-11-24T12:15	15300	118	-61.2			
2025-11-24T12:16	15500	114			269	53
2025-11-24T12:17	15817	109			269	46
2025-11-24T12:17	16012	105			263	40
2025-11-24T12:17	16137	103	-63.8			
2025-11-24T12:18	16380	99			257	43
2025-11-24T12:19	16732	94			249	46
2025-11-24T12:19	16821	92	-67.4			
2025-11-24T12:20	16920	91			254	46
2025-11-24T12:20	16967	90	-64.8			
2025-11-24T12:20	17055	89	-62.4			
2025-11-24T12:20	17075	88			252	38
2025-11-24T12:21	17355	84			250	43
2025-11-24T12:22	17638	81			258	40
2025-11-24T12:22	17687	80	-64.1		259	39
2025-11-24T23:33	26	1011	8.1	5.9	270	0
2025-11-24T23:33	33	1010	8.0	6.3	0	0
2025-11-24T23:33	100	1002	7.5	5.8		
2025-11-24T23:33	155	995	11.8	6.5		
2025-11-24T23:34	251	984	12.6	6.4		
2025-11-24T23:34	343	973			135	2
2025-11-24T23:34	384	969	12.3	6.1		
2025-11-24T23:34	419	964	12.2	6.7		
2025-11-24T23:34	455	960			154	2
2025-11-24T23:34	476	958	12.0	2.2		
2025-11-24T23:35	568	947	11.3	1.8		
2025-11-24T23:35	635	940			114	3
2025-11-24T23:35	693	933	10.3	6.6		
2025-11-24T23:35	730	929			151	6
2025-11-24T23:35	799	921	9.2	7.0		
2025-11-24T23:36	916	909			144	6
2025-11-24T23:36	1094	889	6.8	6.2	168	3
2025-11-24T23:37	1226	875			168	4
2025-11-24T23:37	1451	851	4.1	2.8		
2025-11-24T23:38	1515	845	3.7	1.6		
2025-11-24T23:38	1561	840	4.3	-4.2		
2025-11-24T23:38	1567	839			166	4
2025-11-24T23:38	1690	827			165	3
2025-11-24T23:38	1719	824	3.6	-8.4		
2025-11-24T23:38	1785	817			206	4
2025-11-24T23:39	1824	813	2.9	-6.2		
2025-11-24T23:39	1884	807			215	5
2025-11-24T23:39	1999	796			248	7
2025-11-24T23:39	2065	789	1.9	-9.1		
2025-11-24T23:40	2327	764			238	9
2025-11-24T23:41	2650	734			251	9
2025-11-24T23:42	2896	711	-5.6	-8.3		
2025-11-24T23:42	2976	704			265	11
2025-11-24T23:43	3135	690	-5.1	-5.1		
2025-11-24T23:43	3220	682			241	17
2025-11-24T23:44	3513	657	-5.8	-5.8		
2025-11-24T23:44	3548	654			241	23
2025-11-24T23:44	3775	635			235	23
2025-11-24T23:45	3935	623			232	26
2025-11-24T23:46	4291	595			234	23
2025-11-24T23:46	4315	593	-10.4	-10.4		
2025-11-24T23:47	4649	568			239	26
2025-11-24T23:47	4787	557	-14.3	-15.3		
2025-11-24T23:48	4987	543			248	25
2025-11-24T23:49	5324	519			248	29
2025-11-24T23:50	5686	494			249	33
2025-11-24T23:50	5819	486	-21.4	-22.0		
2025-11-24T23:51	5900	480	-21.6	-23.3		
2025-11-24T23:51	6061	470			252	33
2025-11-24T23:52	6412	448	-25.4	-28.8	256	34
2025-11-24T23:53	6757	427			254	33
2025-11-24T23:54	6993	413	-29.9	-31.9		
2025-11-24T23:54	7102	407			252	34
2025-11-24T23:54	7169	403	-30.9	-33.1		
2025-11-24T23:54	7249	399	-31.2	-35.0		
2025-11-24T23:54	7255	398			255	41
2025-11-24T23:55	7451	387			256	45
2025-11-24T23:55	7463	387	-32.3	-39.1		
2025-11-24T23:55	7605	379	-32.5	-40.0		
2025-11-24T23:56	7669	376	-32.8	-40.5		
2025-11-24T23:56	7755	371	-33.2	-42.9		
2025-11-24T23:56	7766	370			252	54
2025-11-24T23:56	7896	364			252	57
2025-11-24T23:56	7934	362	-34.2	-46.1		
2025-11-24T23:57	8011	358	-34.5	-46.7		
2025-11-24T23:57	8039	356			251	57
2025-11-24T23:57	8233	347	-35.1	-50.6		
2025-11-24T23:57	8319	342			254	61
2025-11-24T23:58	8535	332	-35.8	-52.2		
2025-11-24T23:58	8687	325			253	69
2025-11-24T23:59	8766	321	-36.3	-53.6		
2025-11-24T23:59	9083	307			256	77
2025-11-25T00:00	9304	297	-39.4	-53.1		
2025-11-25T00:00	9386	293	-40.0	-52.9		
2025-11-25T00:00	9413	292			257	81
2025-11-25T00:01	9813	275			257	82
2025-11-25T00:02	10101	264	-44.3		255	79
2025-11-25T00:02	10217	259			255	76
2025-11-25T00:03	10585	245			256	77
2025-11-25T00:04	10882	235	-47.0			
2025-11-25T00:04	10888	234			255	82
2025-11-25T00:05	11160	225			256	79
2025-11-25T00:06	11528	213			256	82
2025-11-25T00:06	11578	211	-48.5			
2025-11-25T00:07	11909	201			260	84
2025-11-25T00:08	12129	194	-51.1			
2025-11-25T00:08	12321	188			262	89
2025-11-25T00:09	12733	177			261	87
2025-11-25T00:10	13059	168			263	81
2025-11-25T00:10	13102	167	-56.8			
2025-11-25T00:11	13413	159			261	78
2025-11-25T00:11	13521	156	-58.4			
2025-11-25T00:12	13761	150			261	80
2025-11-25T00:12	13796	149	-59.7			
2025-11-25T00:13	14120	142			263	76
2025-11-25T00:14	14450	134	-61.3			
2025-11-25T00:14	14474	134			263	75
2025-11-25T00:15	14835	126			264	72
2025-11-25T00:15	14890	125	-62.7			
2025-11-25T00:15	15088	121	-62.9			
2025-11-25T00:15	15094	121			267	68
2025-11-25T00:16	15387	115	-64.2			
2025-11-25T00:16	15402	115			266	59
2025-11-25T00:17	15636	111	-63.4			
2025-11-25T00:17	15737	109	-62.6			
2025-11-25T00:17	15756	109			259	50
2025-11-25T00:18	15916	106	-60.7			
2025-11-25T00:18	15938	106			250	44
2025-11-25T00:18	16093	103	-61.0			
2025-11-25T00:19	16178	102			249	43
2025-11-25T00:19	16190	101	-60.8			
2025-11-25T00:19	16340	99	-61.2			
2025-11-25T00:20	16518	96			249	43
2025-11-25T00:21	16855	91			255	40
2025-11-25T00:22	17215	86			252	39
2025-11-25T00:22	17292	85	-65.3			
2025-11-25T00:23	17581	81			260	38
2025-11-25T00:23	17717	79	-65.2			
2025-11-25T00:23	17741	79			261	35
2025-11-25T00:24	17895	77	-57.2			
2025-11-25T00:24	18000	76			236	26
2025-11-25T00:25	18266	72	-58.0			
2025-11-25T00:25	18275	72			241	24
2025-11-25T00:25	18460	70			241	20
2025-11-25T00:26	18559	69	-59.3			
2025-11-25T00:26	18814	66			235	24
2025-11-25T00:27	19154	63			246	26
2025-11-25T00:28	19311	61	-62.9			
2025-11-25T00:28	19385	61			256	25
2025-11-25T00:28	19484	60	-62.6			
2025-11-25T00:29	19560	59			272	25
2025-11-25T00:29	19571	59	-57.7			
2025-11-25T00:29	19714	57	-56.5			
2025-11-25T00:29	19825	56			288	24
2025-11-25T00:30	20065	54	-53.8			
2025-11-25T00:30	20076	54			272	15
2025-11-25T00:31	20344	52			260	14
2025-11-25T00:31	20479	51	-54.7			
2025-11-25T00:31	20493	51			265	14
2025-11-25T00:32	20672	49			251	16
2025-11-25T00:33	20990	47			285	11
2025-11-25T00:33	21018	47	-53.2			
2025-11-25T00:34	21242	45			262	3
2025-11-25T00:34	21370	44	-54.0			
2025-11-25T00:34	21532	43			217	6
2025-11-25T00:35	21636	43			205	5
2025-11-25T00:35	21664	42	-53.0			
2025-11-25T00:35	21759	42			194	6
2025-11-25T00:36	21961	40			197	5
2025-11-25T00:36	22092	40	-53.9			
2025-11-25T00:36	22158	39			271	6
2025-11-25T00:37	22336	38			275	4
2025-11-25T00:37	22494	37			229	7
2025-11-25T00:38	22759	36			214	3
2025-11-25T00:38	22918	35	-54.4			
2025-11-25T00:38	22977	35			135	4
2025-11-25T00:39	23108	34	-55.6			
2025-11-25T00:39	23127	34			131	7
2025-11-25T00:39	23242	33	-53.9			
2025-11-25T00:40	23458	32			185	10
2025-11-25T00:41	23763	31	-53.2			
2025-11-25T00:41	23828	30			142	10
2025-11-25T00:41	24024	29			186	5
2025-11-25T00:42	24203	29			170	4
2025-11-25T00:42	24386	28			140	8
2025-11-25T00:43	24479	27	-52.0			
2025-11-25T00:43	24744	26			144	6
2025-11-25T00:44	25150	25			179	8
2025-11-25T00:44	25203	24	-53.8			
2025-11-25T00:45	25414	24			204	7
2025-11-25T00:46	25693	23			159	4
2025-11-25T00:46	25805	22			130	6
2025-11-25T00:46	25890	22	-56.5			
2025-11-25T00:47	26217	21			116	12
2025-11-25T00:48	26437	20			130	10
2025-11-25T00:48	26496	20	-56.2			
2025-11-25T00:48	26628	20			114	12
2025-11-25T00:49	27032	18			117	17
2025-11-25T00:49	27103	18	-55.6			
2025-11-25T00:50	27318	18			131	16
2025-11-25T00:51	27650	17			128	12
2025-11-25T00:51	27841	16	-58.9			
2025-11-25T00:52	28121	15			113	16
2025-11-25T00:52	28332	15	-57.5			
2025-11-25T00:53	28545	14			116	9
2025-11-25T00:54	28957	14			114	8
2025-11-25T00:54	29145	13	-56.5		78	4
2025-11-25T00:54	29194	13			50	3
2025-11-25T00:55	29445	13	-53.5		70	7
2025-11-25T00:55	29547	12			83	6
2025-11-25T00:56	29761	12			57	9
2025-11-25T00:56	30036	11	-52.0			
2025-11-25T00:57	30211	11			58	14
2025-11-25T00:57	30392	11	-48.3			
2025-11-25T00:58	30702	10			43	12
2025-11-25T00:58	30766	10	-49.9			
2025-11-25T00:58	30897	10	-47.2		56	10
2025-11-25T00:59	31166	10			41	7
2025-11-25T01:00	31591	9			27	7
2025-11-25T01:01	31814	9			27	9
2025-11-25T01:01	32123	8	-48.9		59	12
2025-11-25T01:02	32445	8	-49.4			
2025-11-25T01:02	32529	8			20	10
2025-11-25T01:03	32734	8	-44.7		14	15
2025-11-25T11:33	26	1006	5.6	5.6	0	0
2025-11-25T11:33	32	1006	6.1	6.1	0	0
2025-11-25T11:33	69	1001	9.1	8.0		
2025-11-25T11:33	86	999			307	3
2025-11-25T11:33	137	993	10.0	7.6		
2025-11-25T11:34	217	983	10.7	5.7		
2025-11-25T11:34	262	978			282	8
2025-11-25T11:34	368	966	10.3	3.8		
2025-11-25T11:34	385	964			265	5
2025-11-25T11:34	491	952			290	6
2025-11-25T11:35	686	930			271	5
2025-11-25T11:35	798	917			257	5
2025-11-25T11:35	803	916	7.1	3.0		
2025-11-25T11:36	894	906	6.6	3.2		
2025-11-25T11:36	1030	891			244	6
2025-11-25T11:36	1126	881	5.8	1.3		
2025-11-25T11:36	1155	878			268	7
2025-11-25T11:37	1241	869	5.3	0.7		
2025-11-25T11:37	1317	861			286	8
2025-11-25T11:37	1323	860	5.1	-0.7		
2025-11-25T11:37	1453	846			289	8
2025-11-25T11:37	1554	836	3.6	-1.2		
2025-11-25T11:38	1560	835			284	10
2025-11-25T11:38	1670	824	3.7	-3.1		
2025-11-25T11:38	1675	823			292	10
2025-11-25T11:38	1721	819	4.7	-4.1		
2025-11-25T11:38	1871	804	4.0	-5.2		
2025-11-25T11:39	2024	789			277	12
2025-11-25T11:39	2172	775			285	10
2025-11-25T11:40	2300	762	0.2	-5.6	274	14
2025-11-25T11:40	2498	744	-1.4	-8.2		
2025-11-25T11:41	2639	731			263	14
2025-11-25T11:41	2661	729	-2.2	-17.5		
2025-11-25T11:41	2722	723	-2.4	-21.8		
2025-11-25T11:42	2959	702			265	15
2025-11-25T11:42	3097	690			263	19
2025-11-25T11:42	3181	682	-5.8	-24.7		
2025-11-25T11:42	3202	680			255	16
2025-11-25T11:43	3372	666	-7.4	-25.5		
2025-11-25T11:43	3399	663			265	19
2025-11-25T11:43	3482	656	-7.6	-32.2		
2025-11-25T11:44	3726	636			252	20
2025-11-25T11:44	3787	631	-9.9	-30.4		
2025-11-25T11:45	4071	608			251	20
2025-11-25T11:46	4334	587	-14.9	-30.2		
2025-11-25T11:46	4380	584			257	19
2025-11-25T11:46	4513	574	-15.7	-24.5		
2025-11-25T11:47	4604	567			255	21
2025-11-25T11:47	4738	557	-16.9	-27.9		
2025-11-25T11:47	4787	553	-16.5	-29.4		
2025-11-25T11:47	4884	546			249	18
2025-11-25T11:48	4973	540	-17.4	-30.9		
2025-11-25T11:48	5009	537			252	19
2025-11-25T11:48	5103	530			254	19
2025-11-25T11:48	5214	522			254	19
2025-11-25T11:49	5462	505	-21.4	-30.0		
2025-11-25T11:49	5497	503			254	24
2025-11-25T11:50	5715	488			256	30
2025-11-25T11:50	5848	479	-23.2	-39.0		
2025-11-25T11:50	5859	479			253	35
2025-11-25T11:50	5922	474	-22.5	-50.4		
2025-11-25T11:51	6084	464			250	45
2025-11-25T11:51	6153	460	-23.2	-56.7		
2025-11-25T11:51	6249	454			249	49
2025-11-25T11:51	6329	449	-23.5	-56.9		
2025-11-25T11:52	6616	431			245	56
2025-11-25T11:52	6691	427	-25.3	-61.4		
2025-11-25T11:53	6914	414			244	60
2025-11-25T11:53	6998	409	-27.0	-62.6		
2025-11-25T11:54	7106	403			244	62
2025-11-25T11:54	7329	391			245	60
2025-11-25T11:54	7428	385	-30.3	-61.9		
2025-11-25T11:55	7542	379			245	62
2025-11-25T11:55	7722	370	-31.2	-60.3		
2025-11-25T11:56	7828	364			245	70
2025-11-25T11:56	7864	362	-31.4	-62.7		
2025-11-25T11:56	7981	356			247	66
2025-11-25T11:56	8098	351	-33.0	-63.8		
2025-11-25T11:57	8213	345			246	68
2025-11-25T11:57	8310	340	-33.5	-64.2		
2025-11-25T11:57	8430	334			249	70
2025-11-25T11:57	8576	327			249	71
2025-11-25T11:58	8984	309			250	74
2025-11-25T11:59	9060	305	-37.4	-64.9		
2025-11-25T11:59	9376	292	-39.5	-66.5		
2025-11-25T11:59	9382	291			248	73
2025-11-25T12:00	9455	288	-40.0	-66.9		
2025-11-25T12:00	9741	276	-42.1		249	75
2025-11-25T12:01	10050	264	-42.6			
2025-11-25T12:01	10139	261			251	77
2025-11-25T12:02	10201	258	-42.6			
2025-11-25T12:02	10355	253			253	79
2025-11-25T12:03	10578	244	-44.3			
2025-11-25T12:03	10728	239			255	80
2025-11-25T12:04	11129	225			257	82
2025-11-25T12:05	11461	214	-47.2			
2025-11-25T12:05	11528	212			257	84
2025-11-25T12:06	11919	200			258	80
2025-11-25T12:07	12289	189			258	79
2025-11-25T12:08	12570	180			260	78
2025-11-25T12:08	12743	176	-53.4			
2025-11-25T12:09	12957	170			257	73
2025-11-25T12:10	13311	161			263	69
2025-11-25T12:10	13525	156	-56.3			
2025-11-25T12:11	13679	152			258	68
2025-11-25T12:12	14056	143			260	68
2025-11-25T12:12	14092	142	-59.2			
2025-11-25T12:13	14470	134			263	61
2025-11-25T12:13	14522	133	-59.7			
2025-11-25T12:13	14569	132	-59.6		265	60
2025-11-25T23:33	26	1010	6.0	6.0	290	1
2025-11-25T23:33	31	1010	6.4	6.4	0	0
2025-11-25T23:33	56	1007	5.5	5.5		
2025-11-25T23:33	75	1004			234	3
2025-11-25T23:33	115	999	5.0	5.0		
2025-11-25T23:33	137	997			297	4
2025-11-25T23:33	180	991	10.5	5.5		
2025-11-25T23:34	225	986			342	2
2025-11-25T23:34	314	976	11.3	4.1		
2025-11-25T23:34	418	964			109	1
2025-11-25T23:35	556	948			34	3
2025-11-25T23:35	562	947	10.0	2.1		
2025-11-25T23:35	756	925			60	3
2025-11-25T23:36	1093	888			279	1
2025-11-25T23:36	1116	885	5.5	-0.6		
2025-11-25T23:37	1438	851			302	2
2025-11-25T23:38	1584	836	1.7	-2.8		
2025-11-25T23:38	1777	816			337	4
2025-11-25T23:38	1817	812	0.6	-5.4		
2025-11-25T23:39	1938	800			334	4
2025-11-25T23:39	1949	799	0.3	-7.2		
2025-11-25T23:39	2172	777			308	5
2025-11-25T23:40	2334	761			332	5
2025-11-25T23:40	2487	746			3	7
2025-11-25T23:41	2702	726	-5.7	-8.4		
2025-11-25T23:41	2843	713			352	11
2025-11-25T23:41	2937	705	-7.2	-10.2		
2025-11-25T23:42	3006	699			344	8
2025-11-25T23:42	3139	687			337	8
2025-11-25T23:42	3287	674	-9.6	-12.6		
2025-11-25T23:43	3366	667			321	9
2025-11-25T23:43	3384	665	-9.8	-16.5		
2025-11-25T23:43	3525	653	-10.6	-21.6		
2025-11-25T23:43	3549	651			325	9
2025-11-25T23:44	3713	637			321	12
2025-11-25T23:44	3725	636	-11.5	-22.1		
2025-11-25T23:45	4099	606			318	10
2025-11-25T23:45	4316	589			312	9
2025-11-25T23:46	4517	573	-17.8	-25.3		
2025-11-25T23:46	4705	559			304	11
2025-11-25T23:47	4884	546			304	12
2025-11-25T23:47	4990	538	-21.8	-28.4		
2025-11-25T23:48	5263	518			301	12
2025-11-25T23:48	5314	515	-24.7	-29.6		
2025-11-25T23:48	5442	506			304	11
2025-11-25T23:48	5513	501	-26.4	-32.9		
2025-11-25T23:49	5584	496	-26.7	-35.8		
2025-11-25T23:49	5757	484			310	14
2025-11-25T23:49	5931	472	-29.5	-39.6		
2025-11-25T23:50	5985	469			292	15
2025-11-25T23:50	6050	465	-30.2	-39.5		
2025-11-25T23:51	6323	447			275	20
2025-11-25T23:51	6418	441	-32.1	-39.9		
2025-11-25T23:51	6491	437	-32.0	-41.1		
2025-11-25T23:51	6538	434			264	24
2025-11-25T23:51	6590	431	-31.3	-44.9		
2025-11-25T23:52	6696	424	-31.7	-47.2		
2025-11-25T23:52	6835	416			254	35
2025-11-25T23:52	6953	409			256	41
2025-11-25T23:53	6995	407	-31.1	-60.2		
2025-11-25T23:53	7124	399	-30.9	-65.3		
2025-11-25T23:53	7168	397			250	47
2025-11-25T23:53	7225	394	-30.7	-65.2		
2025-11-25T23:53	7321	388			248	50
2025-11-25T23:54	7616	373			249	47
2025-11-25T23:54	7629	372	-32.1	-66.2		
2025-11-25T23:55	7927	357			259	49
2025-11-25T23:56	8225	342			265	51
2025-11-25T23:56	8246	341	-32.8	-66.7		
2025-11-25T23:56	8404	333	-33.4	-67.1		
2025-11-25T23:56	8430	332			263	55
2025-11-25T23:57	8631	323	-34.2	-64.7		
2025-11-25T23:57	8792	315	-35.1	-68.3		
2025-11-25T23:57	8798	315			263	59
2025-11-25T23:58	8918	309			260	61
2025-11-25T23:58	8936	309	-35.2	-65.4		
2025-11-25T23:58	9082	302			260	64
2025-11-25T23:58	9198	297	-36.8	-69.5		
2025-11-25T23:59	9451	287			262	66
2025-11-25T23:59	9626	279	-37.3	-67.0		
2025-11-26T00:00	9815	272			259	70
2025-11-26T00:01	10064	262			260	70
2025-11-26T00:01	10193	257			259	71
2025-11-26T00:01	10322	252	-40.0	-68.9		
2025-11-26T00:01	10380	250			260	71
2025-11-26T00:02	10632	241			261	73
2025-11-26T00:03	11070	226			261	76
2025-11-26T00:04	11492	212			261	74
2025-11-26T00:05	11901	200			262	76
2025-11-26T00:06	12308	188			258	67
2025-11-26T00:06	12430	184	-49.0			
2025-11-26T00:07	12745	175			258	69
2025-11-26T00:08	13204	163			263	73
2025-11-26T00:09	13665	152			265	67
2025-11-26T00:09	13918	146	-57.3			
2025-11-26T00:10	14102	142			264	60
2025-11-26T00:11	14347	136	-58.9		267	59
2025-11-26T11:33	26	1018	8.4	5.9	120	1
2025-11-26T11:33	31	1018	8.9	6.0	0	0
2025-11-26T11:33	53	1015	11.2	6.5		
2025-11-26T11:33	70	1013			103	3
2025-11-26T11:33	110	1008	11.6	5.2		
2025-11-26T11:34	273	989	11.0	3.3		
2025-11-26T11:34	291	987			29	4
2025-11-26T11:34	463	966	10.0	2.1		
2025-11-26T11:34	537	958			19	5
2025-11-26T11:35	706	939			22	9
2025-11-26T11:36	1048	900	5.7	-1.2		
2025-11-26T11:36	1051	900			2	8
2025-11-26T11:37	1403	862			342	10
2025-11-26T11:38	1569	844	1.8	-2.9		
2025-11-26T11:38	1727	828	0.5	-1.4	309	5
2025-11-26T11:39	1884	812	-0.7	-1.1		
2025-11-26T11:39	1905	810			300	5
2025-11-26T11:39	2045	796	-1.5	-4.8		
2025-11-26T11:39	2121	788	-2.4	-5.1		
2025-11-26T11:40	2156	785			342	6
2025-11-26T11:40	2176	783	-2.6	-7.9		
2025-11-26T11:40	2199	781	-2.5	-9.9		
2025-11-26T11:40	2213	779	-2.7	-10.7		
2025-11-26T11:40	2241	777	-2.2	-17.5		
2025-11-26T11:40	2318	769	-1.4	-30.3		
2025-11-26T11:40	2348	766	-0.6	-33.9		
2025-11-26T11:41	2385	763			1	8
2025-11-26T11:41	2405	761	0.1	-37.4		
2025-11-26T11:41	2520	750	-0.1	-40.4		
2025-11-26T11:42	2749	729			4	11
2025-11-26T11:42	2821	722	-2.0	-38.9		
2025-11-26T11:43	3194	689			3	12
2025-11-26T11:43	3331	677	-5.3	-41.3		
2025-11-26T11:44	3649	650			358	12
2025-11-26T11:44	3730	643	-8.6	-35.9		
2025-11-26T11:45	4076	615			342	11
2025-11-26T11:45	4122	611	-11.0	-41.7		
2025-11-26T11:46	4450	585			348	12
2025-11-26T11:46	4647	570	-15.1	-42.1		
2025-11-26T11:46	4690	567			347	13
2025-11-26T11:47	4919	550			337	13
2025-11-26T11:47	4989	545	-17.2	-46.4		
2025-11-26T11:48	5244	526			337	14
2025-11-26T11:48	5355	519	-19.9	-48.4		
2025-11-26T11:49	5581	503			329	14
2025-11-26T11:50	5934	479			321	15
2025-11-26T11:51	6319	455			319	14
2025-11-26T11:52	6519	442	-29.1	-61.0		
2025-11-26T11:52	6590	438			312	16
2025-11-26T11:53	6977	414			312	16
2025-11-26T11:53	7113	406			305	15
2025-11-26T11:53	7240	399			299	15
2025-11-26T11:54	7318	395	-34.8	-65.1		
2025-11-26T11:54	7397	390			293	20
2025-11-26T11:55	7668	375			287	23
2025-11-26T11:55	7899	363			293	27
2025-11-26T11:55	7949	360	-38.6	-67.9		
2025-11-26T11:56	8053	355			293	27
2025-11-26T11:56	8179	348	-38.7	-70.8		
2025-11-26T11:56	8195	348			294	30
2025-11-26T11:57	8418	336			286	32
2025-11-26T11:57	8467	334	-39.0	-71.1		
2025-11-26T11:57	8537	331			283	39
2025-11-26T11:58	8663	325	-39.6	-68.7		
2025-11-26T11:58	8765	320			277	40
2025-11-26T11:58	8951	311	-39.9	-68.9		
2025-11-26T11:58	8969	310	-40.0	-68.9		
2025-11-26T11:59	9014	308			274	42
2025-11-26T11:59	9297	296			278	49
2025-11-26T11:59	9311	295	-40.7			
2025-11-26T12:00	9544	285			275	52
2025-11-26T12:01	9873	272			275	56
2025-11-26T12:01	10000	267			273	53
2025-11-26T12:01	10025	266	-43.8			
2025-11-26T12:01	10154	261			271	60
2025-11-26T12:02	10499	248			270	65
2025-11-26T12:03	10630	243	-45.1			
2025-11-26T12:03	10668	241			271	62
2025-11-26T12:04	10986	230	-45.1			
2025-11-26T12:04	11007	229			271	66
2025-11-26T12:04	11197	223	-46.2			
2025-11-26T12:04	11291	220			268	68
2025-11-26T12:05	11701	207			271	74
2025-11-26T12:06	12130	193			273	75
2025-11-26T12:07	12438	185			271	73
2025-11-26T12:08	12667	178	-52.4		269	73
2025-11-26T23:33	26	1021	8.7	5.6	290	1
2025-11-26T23:33	31	1020	8.6	5.5	0	0
2025-11-26T23:33	70	1015			312	3
2025-11-26T23:33	92	1012	7.9	4.8		
2025-11-26T23:33	135	1007	10.0	4.4		
2025-11-26T23:33	140	1007			332	6
2025-11-26T23:34	240	995	10.4	3.7		
2025-11-26T23:34	257	993			298	2
2025-11-26T23:34	440	971			85	3
2025-11-26T23:34	501	964	9.0	5.2		
2025-11-26T23:35	577	955			106	4
2025-11-26T23:35	623	950	8.5	4.1		
2025-11-26T23:35	698	941	7.9	3.7		
2025-11-26T23:35	808	929			147	4
2025-11-26T23:36	849	924	6.8	-1.9		
2025-11-26T23:36	884	920			145	3
2025-11-26T23:37	1131	893	4.5	-2.4		
2025-11-26T23:37	1152	890			141	4
2025-11-26T23:37	1237	881			151	6
2025-11-26T23:37	1298	875	2.9	-0.9		
2025-11-26T23:37	1328	871			151	8
2025-11-26T23:37	1380	866	2.5	-3.0		
2025-11-26T23:38	1529	850	1.5	-5.6		
2025-11-26T23:38	1642	838			176	8
2025-11-26T23:39	1871	814	-1.8	-4.0		
2025-11-26T23:39	1889	813			199	7
2025-11-26T23:39	1931	808	-2.3	-2.3		
2025-11-26T23:39	1977	804			209	6
2025-11-26T23:40	2228	779	-4.4	-4.9		
2025-11-26T23:40	2250	776	-4.1	-6.6		
2025-11-26T23:40	2283	773	-1.8	-17.5		
2025-11-26T23:40	2288	773			204	6
2025-11-26T23:40	2299	771	-0.5	-24.8		
2025-11-26T23:40	2310	770	0.4	-24.9		
2025-11-26T23:41	2454	757			218	12
2025-11-26T23:41	2470	755	0.1	-31.8		
2025-11-26T23:41	2641	739	-1.0	-44.8		
2025-11-26T23:42	2779	726			220	11
2025-11-26T23:42	2930	713	-2.1	-35.0		
2025-11-26T23:42	2946	711			209	9
2025-11-26T23:43	3137	694			198	10
2025-11-26T23:43	3299	680	-4.4	-31.5		
2025-11-26T23:44	3334	677			210	9
2025-11-26T23:44	3427	669			234	8
2025-11-26T23:44	3473	665	-5.0	-39.0		
2025-11-26T23:45	3614	653			241	11
2025-11-26T23:45	3705	646			231	9
2025-11-26T23:46	3965	625			231	11
2025-11-26T23:46	4222	604			238	10
2025-11-26T23:47	4340	595	-12.4	-42.7		
2025-11-26T23:47	4393	591			236	10
2025-11-26T23:47	4461	585	-12.6	-49.2		
2025-11-26T23:48	4586	576			223	14
2025-11-26T23:49	4850	556			223	14
2025-11-26T23:49	5049	542			225	15
2025-11-26T23:49	5070	540	-17.6	-52.7		
2025-11-26T23:50	5363	519			237	17
2025-11-26T23:51	5683	497			243	19
2025-11-26T23:52	5935	481			238	19
2025-11-26T23:52	5978	478	-24.6	-66.1		
2025-11-26T23:53	6163	466			245	22
2025-11-26T23:53	6268	459	-25.4	-66.7		
2025-11-26T23:53	6305	457			250	22
2025-11-26T23:54	6628	437			250	23
2025-11-26T23:54	6754	429	-28.6	-60.6		
2025-11-26T23:55	6945	418			258	27
2025-11-26T23:56	7196	403	-31.0	-62.4		
2025-11-26T23:56	7270	399			264	28
2025-11-26T23:56	7379	393	-31.8	-60.7		
2025-11-26T23:57	7609	380			265	32
2025-11-26T23:57	7748	373	-32.9	-63.7		
2025-11-26T23:58	7845	368	-32.2	-66.2		
2025-11-26T23:58	7966	362			274	32
2025-11-26T23:59	8287	345			279	40
2025-11-26T23:59	8315	344	-35.7	-65.8		
2025-11-27T00:00	8621	329	-37.1	-66.8		
2025-11-27T00:00	8628	329			275	49
2025-11-27T00:00	8726	324	-36.5	-66.4		
2025-11-27T00:00	8815	320	-36.9	-66.7		
2025-11-27T00:01	8866	318			271	60
2025-11-27T00:01	8995	312	-37.1	-63.0		
2025-11-27T00:02	9238	301			271	64
2025-11-27T00:02	9368	295	-38.7	-68.0		
2025-11-27T00:02	9500	290			266	70
2025-11-27T00:03	9654	283			267	75
2025-11-27T00:03	9933	272			265	83
2025-11-27T00:04	9977	270	-40.0	-65.3		
2025-11-27T00:04	10075	266			266	86
2025-11-27T00:04	10284	258	-41.7			
2025-11-27T00:05	10446	252			264	88
2025-11-27T00:06	10811	239			261	89
2025-11-27T00:06	10817	239	-45.3			
2025-11-27T00:07	11117	228	-46.1			
2025-11-27T00:07	11140	227			263	89
2025-11-27T00:08	11477	216			264	89
2025-11-27T00:09	11779	206			265	88
2025-11-27T00:10	12122	196			266	88
2025-11-27T00:11	12421	187	-53.8			
2025-11-27T00:11	12470	185			266	87
2025-11-27T00:12	12845	175			267	87
2025-11-27T00:12	13002	171	-57.1			
2025-11-27T00:13	13207	165			265	86
2025-11-27T00:14	13558	156			262	85
2025-11-27T00:14	13640	154	-61.6			
2025-11-27T00:15	13900	148			264	84
2025-11-27T00:16	14180	141			266	82
2025-11-27T00:16	14218	140	-63.8			
2025-11-27T00:17	14496	134			265	77
2025-11-27T00:17	14653	131	-66.0			
2025-11-27T00:18	14739	129			264	72
2025-11-27T00:19	15026	123			264	73
2025-11-27T00:19	15113	121	-65.3			
2025-11-27T00:19	15246	118			268	68
2025-11-27T00:20	15350	116	-65.8			
2025-11-27T00:20	15543	113			267	62
2025-11-27T00:21	15726	109			269	61
2025-11-27T00:21	15897	106	-66.2			
2025-11-27T00:22	16072	103			268	52
2025-11-27T00:22	16178	102	-67.3			
2025-11-27T00:23	16314	99			264	47
2025-11-27T00:23	16478	97			269	47
2025-11-27T00:23	16502	96	-65.1			
2025-11-27T00:24	16673	94	-64.6		269	39
2025-11-27T00:24	16912	90			256	34
2025-11-27T00:25	17155	86	-65.1			
2025-11-27T00:25	17177	86			251	37
2025-11-27T00:26	17341	84	-64.8			
2025-11-27T00:26	17474	82			255	35
2025-11-27T00:27	17747	78			259	32
2025-11-27T00:28	17904	76			259	31
2025-11-27T00:28	17918	76	-65.2			
2025-11-27T00:28	18033	75			253	26
2025-11-27T00:28	18050	75	-64.7			
2025-11-27T00:29	18238	72	-65.3			
2025-11-27T00:29	18420	70			243	24
2025-11-27T00:30	18607	68	-63.9			
2025-11-27T00:30	18615	68			231	25
2025-11-27T00:30	18726	67	-63.5			
2025-11-27T00:30	18772	66			242	27
2025-11-27T00:31	18847	66	-60.0			
2025-11-27T00:31	18933	65			237	23
2025-11-27T00:32	19163	62	-59.0			
2025-11-27T00:32	19242	62			240	18
2025-11-27T00:33	19575	58			258	21
2025-11-27T00:33	19664	58	-59.5			
2025-11-27T00:33	19704	57			264	20
2025-11-27T00:34	19817	56	-57.9			
2025-11-27T00:34	19928	55			247	10
2025-11-27T00:34	20077	54	-59.3			
2025-11-27T00:35	20195	53			211	14
2025-11-27T00:35	20256	52	-59.2			
2025-11-27T00:35	20477	51	-60.2			
2025-11-27T00:36	20527	50			227	16
2025-11-27T00:37	20859	48			236	10
2025-11-27T00:37	20871	47	-58.7			
2025-11-27T00:37	20994	47			183	7
2025-11-27T00:37	21045	46	-57.8			
2025-11-27T00:38	21239	45			179	9
2025-11-27T00:39	21601	42			187	8
2025-11-27T00:39	21749	41			202	6
2025-11-27T00:40	21884	40	-60.5			
2025-11-27T00:40	22042	39			121	8
2025-11-27T00:41	22347	37			154	10
2025-11-27T00:41	22432	37	-59.3			
2025-11-27T00:41	22536	36			180	6
2025-11-27T00:42	22747	35			184	7
2025-11-27T00:43	22983	34			138	10
2025-11-27T00:43	23169	33	-58.6			
2025-11-27T00:44	23326	32			133	15
2025-11-27T00:44	23670	30			145	9
2025-11-27T00:45	23837	30			101	11
2025-11-27T00:46	24212	28			111	16
2025-11-27T00:46	24327	27	-59.2			
2025-11-27T00:47	24466	27			125	20
2025-11-27T00:47	24754	26			124	19
2025-11-27T00:48	25055	24			130	14
2025-11-27T00:49	25161	24	-56.4			
2025-11-27T00:49	25378	23			133	12
2025-11-27T00:50	25548	23			110	12
2025-11-27T00:50	25689	22			103	16
2025-11-27T00:50	25749	22	-56.1			
2025-11-27T00:51	25925	21			112	15
2025-11-27T00:52	26326	20			116	16
2025-11-27T00:52	26587	19	-56.6			
2025-11-27T00:52	26652	19			112	15
2025-11-27T00:53	27071	18			99	15
2025-11-27T00:54	27481	17			95	15
2025-11-27T00:56	27923	16			89	14
2025-11-27T00:57	28352	15			66	16
2025-11-27T00:57	28625	14	-52.5			
2025-11-27T00:57	28719	14			71	22
2025-11-27T00:59	29155	13			67	22
2025-11-27T00:59	29360	12			74	20
2025-11-27T00:59	29411	12	-51.9			
2025-11-27T00:59	29463	12			79	25
2025-11-27T01:00	29908	11			57	22
2025-11-27T01:01	30083	11			62	23
2025-11-27T01:01	30203	11	-48.4		56	30
2025-11-27T01:02	30638	10			67	30
2025-11-27T01:03	30973	10			79	30
2025-11-27T01:03	31043	10	-46.5			
2025-11-27T01:03	31111	10			80	22
2025-11-27T01:04	31399	9			64	25
2025-11-27T01:05	31624	9	-39.4		63	25
2025-11-27T01:05	31785	9			61	30
2025-11-27T01:06	32113	8			65	24
2025-11-27T01:06	32199	8	-36.6			
2025-11-27T01:07	32479	8	-35.4		52	33
2025-11-27T11:33	26	1011	11.4	11.4	0	0
2025-11-27T11:33	32	1011	11.7	11.7	0	0
2025-11-27T11:33	51	1009	12.2	11.6		
2025-11-27T11:33	67	1007	12.5	10.7		
2025-11-27T11:33	72	1006			319	3
2025-11-27T11:33	90	1004	13.9	9.5		
2025-11-27T11:33	113	1001			154	1
2025-11-27T11:34	244	986	13.6	9.1		
2025-11-27T11:34	287	981			170	3
2025-11-27T11:34	291	980	14.0	8.8		
2025-11-27T11:34	442	963			197	6
2025-11-27T11:35	547	951	12.4	8.1		
2025-11-27T11:35	634	941			181	9
2025-11-27T11:35	696	934	11.2	8.2		
2025-11-27T11:36	917	910			187	10
2025-11-27T11:37	1200	879			194	11
2025-11-27T11:37	1228	876	6.9	6.8		
2025-11-27T11:38	1502	847			201	13
2025-11-27T11:39	1719	825			211	14
2025-11-27T11:40	2019	795			219	15
2025-11-27T11:40	2050	792	1.6	1.6		
2025-11-27T11:40	2223	775			208	14
2025-11-27T11:41	2481	750	-1.4	-1.4		
2025-11-27T11:41	2525	746			209	16
2025-11-27T11:42	2707	729	-2.8	-2.8		
2025-11-27T11:42	2819	719			213	21
2025-11-27T11:43	2925	709	-3.8	-4.5		
2025-11-27T11:43	2976	705	-4.1	-4.9		
2025-11-27T11:43	2991	704	-4.7	-5.7		
2025-11-27T11:43	3130	691			222	18
2025-11-27T11:43	3136	691	-5.9	-8.3		
2025-11-27T11:44	3207	684	-6.5	-12.0		
2025-11-27T11:44	3261	680			229	20
2025-11-27T11:44	3310	676	-7.4	-13.6		
2025-11-27T11:44	3386	669	-8.1	-15.3		
2025-11-27T11:44	3428	665			235	19
2025-11-27T11:44	3433	665	-8.6	-21.0		
2025-11-27T11:45	3525	657	-9.4	-22.0		
2025-11-27T11:45	3573	653	-9.8	-19.5		
2025-11-27T11:45	3635	648	-9.9	-18.6		
2025-11-27T11:45	3678	644			236	20
2025-11-27T11:45	3731	640	-10.7	-22.6		
2025-11-27T11:46	3805	634	-11.1	-22.9		
2025-11-27T11:46	3978	619			231	20
2025-11-27T11:46	3983	619	-11.9	-22.0		
2025-11-27T11:46	4052	614	-11.7	-16.8		
2025-11-27T11:47	4209	601			234	20
2025-11-27T11:47	4268	596	-13.1	-15.4		
2025-11-27T11:47	4317	593	-13.4	-16.7		
2025-11-27T11:47	4372	588	-13.6	-23.5		
2025-11-27T11:48	4511	578	-14.6	-27.7		
2025-11-27T11:48	4533	576			246	24
2025-11-27T11:48	4713	562	-15.5	-28.5		
2025-11-27T11:49	4869	551	-16.9	-30.8		
2025-11-27T11:49	4875	550			244	23
2025-11-27T11:49	4943	546	-16.3	-37.7		
2025-11-27T11:50	5210	526			252	24
2025-11-27T11:51	5540	504			247	23
2025-11-27T11:51	5751	489	-23.2	-43.3		
2025-11-27T11:52	5852	483			251	26
2025-11-27T11:53	6070	468	-25.3	-44.4		
2025-11-27T11:53	6144	464			247	24
2025-11-27T11:53	6306	453			245	27
2025-11-27T11:54	6390	448	-26.8	-47.7		
2025-11-27T11:54	6555	438			253	27
2025-11-27T11:54	6560	438	-28.1	-48.1		
2025-11-27T11:55	6820	422	-29.7	-49.4		
2025-11-27T11:55	6839	421			247	28
2025-11-27T11:56	7143	403			250	30
2025-11-27T11:57	7359	391	-33.8	-54.2		
2025-11-27T11:57	7372	390			254	34
2025-11-27T11:57	7518	382	-34.8	-55.8		
2025-11-27T11:58	7637	376			261	40
2025-11-27T11:58	7752	370	-36.1	-56.8		
2025-11-27T11:58	7831	365	-35.4	-55.5		
2025-11-27T11:59	7933	360			261	47
2025-11-27T11:59	7974	358	-35.1	-56.9		
2025-11-27T11:59	8071	353			257	53
2025-11-27T11:59	8151	349	-34.8	-57.6		
2025-11-27T11:59	8235	345	-35.0	-55.9		
2025-11-27T12:00	8420	336			254	69
2025-11-27T12:00	8525	331	-35.3	-56.2		
2025-11-27T12:01	8741	321			256	72
2025-11-27T12:01	8752	320	-36.6	-55.7		
2025-11-27T12:02	8994	309	-37.0	-54.8		
2025-11-27T12:02	9045	307			255	79
2025-11-27T12:02	9183	301	-37.4	-55.7		
2025-11-27T12:03	9326	295			255	79
2025-11-27T12:03	9389	292	-38.2	-57.1		
2025-11-27T12:04	9627	282			256	84
2025-11-27T12:04	9799	275	-38.8	-58.3		
2025-11-27T12:05	9821	274			254	90
2025-11-27T12:05	10040	265	-40.0	-58.5		
2025-11-27T12:05	10138	262			254	91
2025-11-27T12:06	10456	250			255	94
2025-11-27T12:08	10806	237			255	98
2025-11-27T12:09	11125	226			258	97
2025-11-27T12:10	11417	216			258	94
2025-11-27T12:10	11506	213	-47.8			
2025-11-27T12:10	11609	210			259	97
2025-11-27T12:11	11883	202			260	98
2025-11-27T12:12	12106	195			258	100
2025-11-27T12:12	12171	193	-51.1			
2025-11-27T12:13	12329	188			258	99
2025-11-27T12:14	12599	180			261	99
2025-11-27T12:15	12895	172			260	99
2025-11-27T12:16	13142	166	-57.8			
2025-11-27T12:16	13209	164			260	99
2025-11-27T12:17	13502	156			261	100
2025-11-27T12:18	13785	149			262	100
2025-11-27T12:19	14035	143	-65.4			
2025-11-27T12:19	14082	142			263	96
2025-11-27T12:20	14252	138			264	94
2025-11-27T12:21	14526	132			265	92
2025-11-27T12:21	14621	130	-69.0			
2025-11-27T12:22	14835	126			263	84
2025-11-27T12:22	14913	124	-69.3			
2025-11-27T12:22	15028	122			261	73
2025-11-27T12:23	15134	119	-68.2			
2025-11-27T12:23	15212	118	-67.8			
2025-11-27T12:23	15343	115			260	63
2025-11-27T12:23	15369	115	-66.3			
2025-11-27T12:24	15650	110			258	58
2025-11-27T12:25	15819	107	-65.6			
2025-11-27T12:25	15967	104			254	55
2025-11-27T12:25	16014	103	-65.6			
2025-11-27T12:26	16132	101	-65.4			
2025-11-27T12:26	16273	99			248	59
2025-11-27T12:27	16341	98	-64.3			
2025-11-27T12:27	16524	95			254	60
2025-11-27T12:27	16544	95	-63.7			
2025-11-27T12:28	16716	92	-62.0			
2025-11-27T12:28	16812	91			259	52
2025-11-27T12:29	17083	87	-62.2			
2025-11-27T12:29	17140	86			263	44
2025-11-27T12:29	17227	85	-60.7			
2025-11-27T12:30	17384	83			254	38
2025-11-27T12:30	17506	81	-62.2			
2025-11-27T12:31	17773	78	-64.3			
2025-11-27T12:31	17794	77			246	39
2025-11-27T12:31	17961	75	-61.8			
2025-11-27T12:32	18162	73			244	40
2025-11-27T12:32	18319	71	-62.8			
2025-11-27T12:33	18439	70	-62.0			
2025-11-27T12:33	18466	69			249	38
2025-11-27T12:33	18557	68	-61.4			
2025-11-27T12:34	18639	67			258	36
2025-11-27T12:34	18706	67	-57.8			
2025-11-27T12:34	18791	66	-55.9			
2025-11-27T12:35	18939	64			257	14
2025-11-27T12:35	18958	64	-54.9			
2025-11-27T12:35	19091	63			247	10
2025-11-27T12:36	19303	61			242	13
2025-11-27T12:37	19624	58			226	13
2025-11-27T12:37	19668	57	-58.8			
2025-11-27T12:38	19957	55			210	12
2025-11-27T12:39	20256	52			227	13
2025-11-27T12:39	20427	51	-62.6			
2025-11-27T12:40	20597	49			232	12
2025-11-27T12:40	20788	48	-64.8			
2025-11-27T12:41	20916	47			229	14
2025-11-27T12:41	20930	47	-62.3			
2025-11-27T12:42	21173	45			228	18
2025-11-27T12:42	21355	44			239	13
2025-11-27T12:43	21513	43			223	7
2025-11-27T12:43	21677	41			184	9
2025-11-27T12:44	21874	40			195	14
2025-11-27T12:45	22096	39	-60.8			
2025-11-27T12:45	22193	38			170	17
2025-11-27T12:46	22512	36			186	17
2025-11-27T12:46	22650	35	-60.7			
2025-11-27T12:47	22863	34			199	12
2025-11-27T12:48	23107	33			215	11
2025-11-27T12:48	23356	32			260	4
2025-11-27T12:49	23537	31	-60.8			
2025-11-27T12:49	23617	30			183	5
2025-11-27T12:49	23764	30			186	5
2025-11-27T12:50	23914	29	-60.7		139	3
2025-11-27T12:50	24085	28			144	10
2025-11-27T12:51	24334	27			168	9
2025-11-27T12:52	24478	26			160	5
2025-11-27T12:52	24672	26	-58.5		66	4
2025-11-27T12:53	25074	24			105	10
2025-11-27T12:54	25233	23	-58.8			
2025-11-27T12:54	25287	23			112	8
2025-11-27T12:54	25450	23			113	14
2025-11-27T12:55	25793	21			146	9
2025-11-27T12:56	25945	21			133	12
2025-11-27T12:56	26197	20			138	8
2025-11-27T12:57	26387	20			128	8
2025-11-27T12:57	26489	19	-53.8			
2025-11-27T12:57	26554	19			164	7
2025-11-27T12:58	26728	19			145	6
2025-11-27T12:58	26865	18			154	9
2025-11-27T12:58	26971	18			148	5
2025-11-27T12:59	27081	18	-54.8		179	7
2025-11-27T12:59	27193	17			172	6
2025-11-27T12:59	27383	17			169	10
2025-11-27T13:00	27535	16			186	4
2025-11-27T13:00	27575	16			198	3
2025-11-27T13:00	27737	16			171	5
2025-11-27T13:01	27983	15			160	6
2025-11-27T13:01	28070	15			198	2
2025-11-27T13:02	28374	14			164	3
2025-11-27T13:03	28790	13			100	2
2025-11-27T13:03	28885	13			119	3
2025-11-27T13:04	29130	13	-54.8		69	6
2025-11-27T13:04	29286	12			54	8
2025-11-27T13:04	29390	12			81	10
2025-11-27T13:05	29549	12			44	11
2025-11-27T13:05	29714	12			74	10
2025-11-27T13:05	29831	11			73	8
2025-11-27T13:06	29942	11	-49.7			
2025-11-27T13:06	30061	11			37	12
2025-11-27T13:06	30181	11			38	14
2025-11-27T13:07	30303	11			43	11
2025-11-27T13:07	30626	10			22	17
2025-11-27T13:08	30757	10			35	17
2025-11-27T13:08	30895	10			44	20
2025-11-27T13:09	31106	9	-43.4		23	17
2025-11-27T13:09	31323	9			34	14
2025-11-27T13:10	31703	9			26	23
2025-11-27T13:11	31939	8	-44.8			
2025-11-27T13:11	32022	8			35	22
2025-11-27T13:11	32187	8			18	25
2025-11-27T13:12	32439	8			36	22
2025-11-27T13:12	32712	7			43	21
2025-11-27T13:13	32804	7	-41.7			
2025-11-27T13:13	32892	7			32	26
2025-11-27T13:14	33188	7			37	24
2025-11-27T13:14	33286	7	-39.2			
2025-11-27T13:14	33491	7			21	36
2025-11-27T13:15	33596	7	-34.4			
2025-11-27T13:15	33736	6	-35.3		27	40
2025-11-27T23:33	26	1003	11.2	9.5	270	1
2025-11-27T23:33	32	1002	11.0	8.8	0	0
2025-11-27T23:33	86	996			291	3
2025-11-27T23:33	121	992	9.9	7.5		
2025-11-27T23:33	167	986			299	6
2025-11-27T23:33	190	983	11.2	6.7		
2025-11-27T23:34	237	978	12.0	7.3		
2025-11-27T23:34	260	975	12.5	7.6		
2025-11-27T23:34	289	972	13.6	7.6		
2025-11-27T23:34	318	968			260	6
2025-11-27T23:34	456	953	13.2	4.1		
2025-11-27T23:35	540	943			288	6
2025-11-27T23:35	642	932			288	8
2025-11-27T23:35	733	922	11.1	2.9		
2025-11-27T23:35	823	912			283	8
2025-11-27T23:36	1033	889	9.1	2.0		
2025-11-27T23:36	1093	882			276	5
2025-11-27T23:37	1219	869			275	4
2025-11-27T23:37	1308	860			262	6
2025-11-27T23:37	1504	839			281	6
2025-11-27T23:38	1546	835	4.6	0.9		
2025-11-27T23:38	1714	818			285	7
2025-11-27T23:38	1720	817	3.7	-1.1		
2025-11-27T23:38	1859	803	2.4	-1.9		
2025-11-27T23:39	1948	795	2.3	-4.9		
2025-11-27T23:39	2044	785			279	16
2025-11-27T23:39	2180	772			281	17
2025-11-27T23:39	2186	771	0.6	-7.9		
2025-11-27T23:40	2476	744	-1.2	-11.6		
2025-11-27T23:40	2525	739			280	19
2025-11-27T23:40	2562	736	-1.0	-19.1		
2025-11-27T23:41	2716	722	-2.2	-21.1		
2025-11-27T23:41	2756	718			258	19
2025-11-27T23:41	2771	717	-2.6	-22.0		
2025-11-27T23:41	2813	713	-1.8	-29.5		
2025-11-27T23:42	2960	700			252	21
2025-11-27T23:42	3088	689	-3.7	-40.2		
2025-11-27T23:43	3262	674			252	19
2025-11-27T23:43	3441	659	-6.4	-42.1		
2025-11-27T23:44	3570	648			247	19
2025-11-27T23:44	3643	642	-7.6	-45.6		
2025-11-27T23:44	3808	628	-8.3	-46.1		
2025-11-27T23:44	3827	627			251	24
2025-11-27T23:45	4018	611	-8.8	-50.1		
2025-11-27T23:45	4101	605	-8.6	-46.3		
2025-11-27T23:45	4187	598			266	29
2025-11-27T23:46	4513	573			266	30
2025-11-27T23:46	4524	572	-12.2	-46.3		
2025-11-27T23:47	4822	550			262	31
2025-11-27T23:48	5142	527			258	31
2025-11-27T23:49	5308	516	-18.7	-51.1		
2025-11-27T23:49	5457	506			253	31
2025-11-27T23:50	5782	484			250	31
2025-11-27T23:51	5910	475			252	33
2025-11-27T23:51	5985	470	-25.0	-53.8		
2025-11-27T23:52	6175	458			249	35
2025-11-27T23:52	6263	453	-27.2	-57.3		
2025-11-27T23:52	6360	447	-27.3	-57.4	254	38
2025-11-27T23:53	6601	432	-28.5	-58.3		
2025-11-27T23:53	6606	432			256	42
2025-11-27T23:53	6781	421	-29.7	-59.2		
2025-11-27T23:54	6859	417			258	43
2025-11-27T23:54	6977	410	-29.4	-61.2		
2025-11-27T23:55	7117	402	-28.4	-60.5		
2025-11-27T23:55	7158	400			255	54
2025-11-27T23:55	7254	394	-28.0	-60.2		
2025-11-27T23:55	7351	389			251	61
2025-11-27T23:56	7434	385	-28.3	-63.5		
2025-11-27T23:56	7690	371	-29.7	-64.5		
2025-11-27T23:56	7710	370			247	61
2025-11-27T23:57	7805	365	-30.1	-64.8		
2025-11-27T23:57	7926	359			247	64
2025-11-27T23:57	8062	352	-32.1	-66.2		
2025-11-27T23:58	8343	338			245	68
2025-11-27T23:58	8491	331	-34.5	-67.9		
2025-11-27T23:59	8752	319			247	70
2025-11-27T23:59	8811	316	-36.2	-69.1		
2025-11-27T23:59	9006	308	-36.9	-69.6		
2025-11-28T00:00	9069	305			249	73
2025-11-28T00:00	9321	294			252	75
2025-11-28T00:00	9353	292	-38.0	-67.5		
2025-11-28T00:01	9630	281			250	79
2025-11-28T00:02	9809	274	-40.0	-66.9		
2025-11-28T00:02	9972	267			248	80
2025-11-28T00:03	10346	253			249	86
2025-11-28T00:04	10741	238			249	88
2025-11-28T00:05	11141	225			252	88
2025-11-28T00:05	11253	221	-47.4			
2025-11-28T00:06	11555	211			250	92
2025-11-28T00:07	11832	202	-49.5			
2025-11-28T00:07	11985	197			252	93
2025-11-28T00:08	12377	186			255	92
2025-11-28T00:09	12714	176	-55.7			
2025-11-28T00:09	12759	175			255	86
2025-11-28T00:10	13146	165			252	84
2025-11-28T00:11	13526	155			252	85
2025-11-28T00:11	13551	154	-61.8			
2025-11-28T00:12	13885	146			252	85
2025-11-28T00:13	14141	140	-64.6			
2025-11-28T00:13	14219	138			255	80
2025-11-28T00:14	14507	132			257	77
2025-11-28T00:15	14791	126			258	76
2025-11-28T00:15	14884	124	-68.8			
2025-11-28T00:16	15035	121	-68.7			
2025-11-28T00:16	15066	120			253	70
2025-11-28T00:17	15253	117	-67.9		254	69
2025-11-28T00:18	15557	111			252	66
2025-11-28T00:18	15633	109	-68.3			
2025-11-28T00:18	15838	106			253	62
2025-11-28T00:19	15844	106	-68.3			
2025-11-28T00:19	16085	102	-66.1			
2025-11-28T00:19	16121	101			252	60
2025-11-28T00:20	16280	98	-65.4			
2025-11-28T00:20	16391	97			251	57
2025-11-28T00:21	16418	96	-64.2			
2025-11-28T00:21	16519	95			253	59
2025-11-28T00:21	16638	93			257	56
2025-11-28T00:22	16790	90	-63.8			
2025-11-28T00:22	16923	89			263	55
2025-11-28T00:23	17042	87	-64.2			
2025-11-28T00:23	17263	84	-63.9			
2025-11-28T00:23	17295	83			263	43
2025-11-28T00:23	17363	82	-57.6			
2025-11-28T00:24	17456	81			263	32
2025-11-28T00:24	17578	80			273	21
2025-11-28T00:24	17823	77			258	25
2025-11-28T00:24	17871	76	-60.3			
2025-11-28T00:25	18109	73	-61.3		252	17
2025-11-28T00:25	18254	71			232	17
2025-11-28T00:25	18300	71	-60.8			
2025-11-28T00:26	18624	67			239	18
2025-11-28T00:27	18882	65	-64.5			
2025-11-28T00:27	18929	64			253	25
2025-11-28T00:28	19084	62	-64.9			
2025-11-28T00:28	19133	62			249	29
2025-11-28T00:28	19254	61	-60.8			
2025-11-28T00:29	19422	59			231	27
2025-11-28T00:30	19776	56			235	30
2025-11-28T00:30	19878	55	-62.0			
2025-11-28T00:31	20104	53			240	30
2025-11-28T00:31	20140	53	-61.5			
2025-11-28T00:32	20346	51	-59.8			
2025-11-28T00:32	20431	50			252	21
2025-11-28T00:33	20775	48			249	14
2025-11-28T00:33	20830	47	-62.0			
2025-11-28T00:34	21164	45			227	17
2025-11-28T00:34	21249	44	-63.0			
2025-11-28T00:34	21361	43			221	18
2025-11-28T00:35	21567	42	-60.8		233	22
2025-11-28T00:36	21793	40			227	15
2025-11-28T00:36	21998	39	-59.7			
2025-11-28T00:37	22161	38	-57.2		235	13
2025-11-28T00:37	22377	37			221	11
2025-11-28T00:38	22514	36	-58.9			
2025-11-28T00:38	22694	35			184	15
2025-11-28T00:39	22877	34			183	16
2025-11-28T00:39	22953	34	-58.3			
2025-11-28T00:39	23101	33			182	19
2025-11-28T00:40	23479	31			233	10
2025-11-28T00:41	23876	29			258	12
2025-11-28T00:42	23941	29	-60.1			
2025-11-28T00:42	24165	28			244	11
2025-11-28T00:43	24557	26			253	7
2025-11-28T00:44	24826	25	-62.0			
2025-11-28T00:44	24949	24			233	9
2025-11-28T00:45	25161	24			225	11
2025-11-28T00:45	25407	23			290	9
2025-11-28T00:45	25463	22	-58.6			
2025-11-28T00:46	25575	22			273	5
2025-11-28T00:46	25748	21	-58.7			
2025-11-28T00:47	25899	21			51	4
2025-11-28T00:47	26022	21	-57.8			
2025-11-28T00:47	26145	20			125	4
2025-11-28T00:47	26240	20			170	5
2025-11-28T00:48	26434	19			133	6
2025-11-28T00:48	26634	19			146	4
2025-11-28T00:49	26704	18			126	4
2025-11-28T00:49	26879	18			185	7
2025-11-28T00:49	27057	17			161	4
2025-11-28T00:50	27169	17			146	3
2025-11-28T00:50	27281	17			183	2
2025-11-28T00:50	27394	17			179	6
2025-11-28T00:51	27589	16	-56.3		152	6
2025-11-28T00:52	27918	15			178	9
2025-11-28T00:52	28129	15			181	5
2025-11-28T00:53	28348	14	-57.9			
2025-11-28T00:53	28393	14			148	7
2025-11-28T00:53	28572	14			185	3
2025-11-28T00:53	28618	14	-54.6			
2025-11-28T00:54	28715	13			110	3
2025-11-28T00:54	28860	13			96	2
2025-11-28T00:54	29008	13			110	3
2025-11-28T00:54	29107	13	-53.7		161	2
2025-11-28T00:55	29211	12			38	4
2025-11-28T00:55	29318	12			23	4
2025-11-28T00:55	29421	12			85	3
2025-11-28T00:55	29533	12			39	4
2025-11-28T00:56	29700	12			38	9
2025-11-28T00:56	29757	11	-51.0			
2025-11-28T00:56	29873	11			45	3
2025-11-28T00:57	30051	11			159	3
2025-11-28T00:57	30167	11			103	4
2025-11-28T00:57	30294	11			129	2
2025-11-28T00:58	30484	10			67	6
2025-11-28T00:58	30617	10			48	8
2025-11-28T00:58	30743	10			79	5
2025-11-28T00:59	30811	10			77	6
2025-11-28T00:59	30879	10	-49.2			
2025-11-28T00:59	30947	10			43	9
2025-11-28T00:59	31155	9			48	14
2025-11-28T01:00	31381	9			48	10
2025-11-28T01:01	31609	9			34	11
2025-11-28T01:01	31768	8	-42.1		21	16
2025-11-28T01:02	32274	8			41	16
2025-11-28T01:02	32448	8	-40.8			
2025-11-28T01:03	32808	7	-38.7		29	16
2025-11-28T11:30	26	1009	7.6	1.7	0	0
2025-11-28T11:30	29	1009	7.4	1.3	0	0
2025-11-28T11:30	41	1007	7.5	0.2		
2025-11-28T11:30	69	1004	11.0	-1.4		
2025-11-28T11:30	73	1003			288	3
2025-11-28T11:30	78	1003	12.0	-0.8		
2025-11-28T11:31	181	990			305	5
2025-11-28T11:31	238	984	11.2	-1.2		
2025-11-28T11:31	464	957	10.5	-2.5		
2025-11-28T11:32	496	954			302	13
2025-11-28T11:32	609	941	9.6	-3.7		
2025-11-28T11:33	815	917			306	16
2025-11-28T11:34	1128	883			298	18
2025-11-28T11:34	1391	855	3.8	-7.3		
2025-11-28T11:35	1438	850			289	16
2025-11-28T11:35	1613	832	2.9	-6.5		
2025-11-28T11:35	1683	825			263	12
2025-11-28T11:36	1983	795			245	10
2025-11-28T11:37	2175	776	-2.2	-5.3		
2025-11-28T11:37	2283	765			243	13
2025-11-28T11:37	2309	763	-3.4	-7.0		
2025-11-28T11:38	2357	758	-3.3	-10.0		
2025-11-28T11:38	2411	753	-2.4	-12.2		
2025-11-28T11:38	2494	745	-2.7	-13.6		
2025-11-28T11:38	2611	734			270	15
2025-11-28T11:39	2797	717	-4.8	-23.3		
2025-11-28T11:39	2946	704			285	20
2025-11-28T11:39	2973	701	-5.2	-27.9		
2025-11-28T11:40	3267	676			279	21
2025-11-28T11:41	3590	648			274	22
2025-11-28T11:42	3659	642	-8.7	-31.4		
2025-11-28T11:42	3891	623	-9.9	-29.2		
2025-11-28T11:42	3913	621			278	24
2025-11-28T11:43	4032	612	-10.9	-25.1		
2025-11-28T11:43	4169	601			280	27
2025-11-28T11:44	4400	583	-13.3	-26.2		
2025-11-28T11:44	4493	576			273	28
2025-11-28T11:45	4715	560			271	30
2025-11-28T11:46	4931	544	-16.7	-33.5		
2025-11-28T11:46	5032	536			268	32
2025-11-28T11:47	5301	517	-19.3	-36.2		
2025-11-28T11:47	5367	513			266	34
2025-11-28T11:48	5636	495	-20.9	-49.2		
2025-11-28T11:48	5698	490			269	34
2025-11-28T11:49	6045	468			269	35
2025-11-28T11:49	6146	461	-24.0	-51.5		
2025-11-28T11:50	6335	450	-24.4	-55.3		
2025-11-28T11:50	6365	448			268	39
2025-11-28T11:50	6519	438	-25.5	-54.2		
2025-11-28T11:51	6715	426			268	40
2025-11-28T11:52	7037	408			265	42
2025-11-28T11:52	7067	406	-29.9	-51.8		
2025-11-28T11:53	7408	387			266	43
2025-11-28T11:53	7470	384	-33.3	-53.8		
2025-11-28T11:54	7771	368			267	45
2025-11-28T11:55	8110	350			263	49
2025-11-28T11:55	8115	350	-37.1	-59.4		
2025-11-28T11:56	8432	334	-37.8	-62.2		
2025-11-28T11:56	8437	334			268	51
2025-11-28T11:56	8537	329	-38.4	-64.0		
2025-11-28T11:57	8771	318			265	53
2025-11-28T11:57	8776	318	-40.0	-66.9		
2025-11-28T11:58	9100	303			260	54
2025-11-28T11:58	9174	300	-42.4			
2025-11-28T11:58	9278	295			261	58
2025-11-28T11:59	9532	284			261	60
2025-11-28T12:00	9636	280	-43.2			
2025-11-28T12:00	9787	274			262	64
2025-11-28T12:01	10058	263			261	67
2025-11-28T12:01	10106	261	-44.6			
2025-11-28T12:02	10378	251			256	70
2025-11-28T12:03	10682	239			254	72
2025-11-28T12:04	10968	229			255	77
2025-11-28T12:05	11100	225	-48.4			
2025-11-28T12:05	11242	220			256	80
2025-11-28T12:06	11315	217	-48.5			
2025-11-28T12:06	11513	211			256	81
2025-11-28T12:07	11794	202			256	80
2025-11-28T12:08	11978	196	-52.7			
2025-11-28T12:08	12074	193			257	78
2025-11-28T12:09	12367	185			262	80
2025-11-28T12:10	12429	183	-53.3			
2025-11-28T12:10	12663	176			261	78
2025-11-28T12:11	12800	173	-54.8			
2025-11-28T12:11	12966	168			259	79
2025-11-28T12:12	13267	160			259	78
2025-11-28T12:12	13322	159	-57.7			
2025-11-28T12:13	13562	153			263	74
2025-11-28T12:14	13731	149	-59.5			
2025-11-28T12:14	13816	147			263	71
2025-11-28T12:15	13911	145	-60.4			
2025-11-28T12:15	14069	141			262	69
2025-11-28T12:16	14344	135			262	67
2025-11-28T12:17	14553	130	-61.8			
2025-11-28T12:17	14629	129			260	63
2025-11-28T12:18	14931	123			261	61
2025-11-28T12:19	15236	117			261	56
2025-11-28T12:20	15481	112	-63.7			
2025-11-28T12:20	15525	111			257	54
2025-11-28T12:21	15831	106			255	55
2025-11-28T12:22	15915	104	-63.1			
2025-11-28T12:22	16150	101			255	57
2025-11-28T12:23	16478	95			256	58
2025-11-28T12:24	16624	93	-67.1			
2025-11-28T12:24	16804	90			257	54
2025-11-28T12:25	17118	86			257	50
2025-11-28T12:26	17259	84	-69.1			
2025-11-28T12:26	17403	82			254	51
2025-11-28T12:27	17582	79	-67.8			
2025-11-28T12:27	17666	78			265	51
2025-11-28T12:28	17921	75			275	49
2025-11-28T12:29	18212	71			270	37
2025-11-28T12:29	18237	71	-65.6			
2025-11-28T12:30	18453	69	-64.6			
2025-11-28T12:30	18533	68			264	29
2025-11-28T12:31	18617	67	-63.5			
2025-11-28T12:31	18851	64			245	27
2025-11-28T12:32	19091	62	-64.6			
2025-11-28T12:32	19163	61			243	34
2025-11-28T12:33	19501	58			249	39
2025-11-28T12:34	19800	55	-65.3			
2025-11-28T12:34	19857	55			259	37
2025-11-28T12:35	20099	52	-61.8		265	31
2025-11-28T12:35	20192	52	-59.9			
2025-11-28T12:36	20267	51			259	28
2025-11-28T12:36	20454	50	-59.8			
2025-11-28T12:37	20519	49			256	32
2025-11-28T12:37	20719	48	-56.7			
2025-11-28T12:38	20879	46			245	22
2025-11-28T12:38	21114	45			240	23
2025-11-28T12:39	21373	43	-59.1			
2025-11-28T12:39	21492	42			231	25
2025-11-28T12:40	21857	40			237	29
2025-11-28T12:40	21887	39	-62.0			
2025-11-28T12:41	22195	38			250	29
2025-11-28T12:42	22505	36			267	26
2025-11-28T12:43	22741	34	-56.2			
2025-11-28T12:43	22760	34			275	14
2025-11-28T12:44	23002	33			268	10
2025-11-28T12:44	23295	32	-59.1			
2025-11-28T12:44	23336	31			247	12
2025-11-28T12:45	23498	31	-57.5			
2025-11-28T12:46	23710	30			235	11
2025-11-28T12:46	23904	29	-57.7			
2025-11-28T12:47	24084	28			226	14
2025-11-28T12:47	24247	27	-56.5			
2025-11-28T12:47	24363	27			269	9
2025-11-28T12:48	24533	26			308	5
2025-11-28T12:49	24908	24			254	10
2025-11-28T12:49	25148	24	-59.3			
2025-11-28T12:50	25310	23			239	11
2025-11-28T12:50	25419	23	-58.6			
2025-11-28T12:51	25705	22			246	12
2025-11-28T12:51	25880	21	-59.2			
2025-11-28T12:52	25941	21			243	12
2025-11-28T12:52	26187	20			263	19
2025-11-28T12:53	26381	19			265	14
2025-11-28T12:53	26614	19			266	13
2025-11-28T12:54	26786	18	-55.5			
2025-11-28T12:54	26859	18			255	11
2025-11-28T12:55	27150	17			278	12
2025-11-28T12:55	27422	16	-53.3			
2025-11-28T12:56	27577	16			276	6
2025-11-28T12:56	27687	16	-53.5		297	5
2025-11-28T23:43	26	1015	9.0	0.7	310	2
2025-11-28T23:43	32	1015	9.0	0.7	0	0
2025-11-28T23:43	69	1010			300	3
2025-11-28T23:43	183	996	7.3	-0.7		
2025-11-28T23:44	265	986			301	2
2025-11-28T23:44	282	984	6.7	-1.5		
2025-11-28T23:44	491	960			71	3
2025-11-28T23:45	552	953	5.5	-3.3		
2025-11-28T23:45	659	940			65	4
2025-11-28T23:45	755	929	4.4	-4.6		
2025-11-28T23:45	790	925			24	3
2025-11-28T23:45	848	918			335	4
2025-11-28T23:46	935	909	3.7	-6.9		
2025-11-28T23:46	952	907			322	6
2025-11-28T23:46	970	905	4.3	-7.5		
2025-11-28T23:46	993	902	4.4	-8.7		
2025-11-28T23:46	1023	899	6.1	-10.2		
2025-11-28T23:46	1084	892			270	10
2025-11-28T23:46	1183	881	5.3	-3.5		
2025-11-28T23:47	1412	857	3.1	-0.4		
2025-11-28T23:47	1447	853			242	10
2025-11-28T23:48	1591	838	1.3	1.3		
2025-11-28T23:48	1687	828			247	10
2025-11-28T23:48	1693	828	1.1	-1.5		
2025-11-28T23:48	1775	819	0.7	-5.1		
2025-11-28T23:49	1917	805	-0.4	-9.3		
2025-11-28T23:49	1983	799	-0.4	-15.1		
2025-11-28T23:49	2016	795			273	11
2025-11-28T23:49	2027	794	-0.2	-19.4		
2025-11-28T23:49	2228	775	0.2	-26.9		
2025-11-28T23:50	2327	765			302	9
2025-11-28T23:50	2505	748	-0.6	-29.7		
2025-11-28T23:51	2626	737			273	10
2025-11-28T23:51	2632	736	-1.2	-29.0		
2025-11-28T23:51	2747	726			281	9
2025-11-28T23:51	2793	722	-1.8	-28.5		
2025-11-28T23:52	3098	694			281	10
2025-11-28T23:52	3253	680	-5.5	-24.4		
2025-11-28T23:53	3324	674			278	12
2025-11-28T23:53	3582	652	-7.2	-27.5		
2025-11-28T23:54	3684	644			276	17
2025-11-28T23:54	3832	632	-9.4	-25.8		
2025-11-28T23:55	4058	613			271	17
2025-11-28T23:55	4285	595	-12.3	-33.7		
2025-11-28T23:56	4412	586	-11.5	-42.1		
2025-11-28T23:56	4431	584			277	21
2025-11-28T23:56	4732	561	-14.2	-41.4		
2025-11-28T23:57	4792	557			276	20
2025-11-28T23:58	5142	532			282	20
2025-11-28T23:58	5337	518	-17.5	-48.2		
2025-11-28T23:59	5480	508			279	22
2025-11-28T23:59	5562	503	-18.9	-51.2		
2025-11-29T00:00	5831	485			284	25
2025-11-29T00:00	6080	469	-22.2	-53.6		
2025-11-29T00:01	6197	461			289	26
2025-11-29T00:02	6563	439	-25.5	-50.2		
2025-11-29T00:02	6576	438			281	29
2025-11-29T00:02	6712	430	-26.5	-55.0		
2025-11-29T00:03	6939	416			289	30
2025-11-29T00:03	7118	406			283	34
2025-11-29T00:03	7143	405	-29.8	-54.7		
2025-11-29T00:04	7487	385			284	32
2025-11-29T00:05	7854	366			288	33
2025-11-29T00:05	7890	364	-36.4	-54.3		
2025-11-29T00:06	8209	347			281	36
2025-11-29T00:06	8245	345	-38.6	-60.6		
2025-11-29T00:07	8424	337	-40.0	-60.0		
2025-11-29T00:07	8583	329			277	38
2025-11-29T00:08	8800	318	-42.0			
2025-11-29T00:08	8935	312			276	42
2025-11-29T00:08	9114	304	-43.6			
2025-11-29T00:09	9350	293			274	46
2025-11-29T00:10	9709	278	-46.4			
2025-11-29T00:10	9761	276			272	47
2025-11-29T00:10	9977	267	-47.6			
2025-11-29T00:11	10158	260			268	51
2025-11-29T00:11	10283	255	-48.9			
2025-11-29T00:12	10563	244			264	56
2025-11-29T00:12	10576	244	-50.1			
2025-11-29T00:13	10817	235			262	57
2025-11-29T00:13	11127	224	-52.2			
2025-11-29T00:14	11218	221			267	58
2025-11-29T00:14	11514	211	-51.5			
2025-11-29T00:14	11554	210			264	62
2025-11-29T00:15	11900	199			264	68
2025-11-29T00:16	12017	195	-51.7			
2025-11-29T00:16	12305	187			267	72
2025-11-29T00:16	12370	185	-52.6			
2025-11-29T00:17	12699	176			264	70
2025-11-29T00:18	12829	172	-54.7			
2025-11-29T00:18	12965	169	-54.1			
2025-11-29T00:18	13084	165			264	75
2025-11-29T00:19	13364	158	-56.0			
2025-11-29T00:19	13410	157			264	73
2025-11-29T00:20	13710	150			266	72
2025-11-29T00:21	13846	147	-58.8			
2025-11-29T00:21	14071	141			264	70
2025-11-29T00:22	14176	139	-60.2			
2025-11-29T00:22	14418	134			262	68
2025-11-29T00:23	14748	127	-62.6			
2025-11-29T00:23	14765	127			263	68
2025-11-29T00:24	15080	120			266	66
2025-11-29T00:25	15404	114			266	61
2025-11-29T00:26	15545	111	-65.2			
2025-11-29T00:26	15732	108			269	61
2025-11-29T00:26	15792	107	-66.2			
2025-11-29T00:27	16050	103			268	54
2025-11-29T00:28	16346	98			263	51
2025-11-29T00:29	16643	93			264	51
2025-11-29T00:30	16873	89	-67.8			
2025-11-29T00:30	16963	88			262	51
2025-11-29T00:31	17244	84			264	52
2025-11-29T00:31	17309	83	-68.9			
2025-11-29T00:32	17564	80	-69.5			
2025-11-29T00:32	17581	80			270	56
2025-11-29T00:33	17915	75			279	49
2025-11-29T00:33	18022	74	-68.2			
2025-11-29T00:34	18150	72	-68.1			
2025-11-29T00:34	18164	72			275	40
2025-11-29T00:34	18389	70			282	36
2025-11-29T00:34	18404	69	-65.3			
2025-11-29T00:35	18639	67			270	28
2025-11-29T00:36	18930	64	-65.9			
2025-11-29T00:36	18987	63			249	29
2025-11-29T00:37	19335	60			237	36
2025-11-29T00:38	19530	58	-66.9			
2025-11-29T00:38	19582	57			249	40
2025-11-29T00:38	19647	57	-64.5			
2025-11-29T00:38	19780	55			254	32
2025-11-29T00:39	20006	53	-65.5			
2025-11-29T00:39	20133	52			267	34
2025-11-29T00:40	20334	51	-65.6			
2025-11-29T00:40	20356	50			274	32
2025-11-29T00:41	20556	49	-62.3			
2025-11-29T00:41	20567	49			257	24
2025-11-29T00:42	20896	46			248	29
2025-11-29T00:42	21072	45	-61.3			
2025-11-29T00:43	21227	44			260	32
2025-11-29T00:43	21370	43			260	34
2025-11-29T00:43	21430	42	-58.6			
2025-11-29T00:44	21659	41			259	27
2025-11-29T00:44	21752	40	-57.1			
2025-11-29T00:45	21978	39	-56.8		255	29
2025-11-29T00:46	22347	37			246	23
2025-11-29T00:46	22470	36	-57.0			
2025-11-29T00:47	22612	35			249	25
2025-11-29T00:48	23022	33			219	20
2025-11-29T00:48	23101	33	-58.1			
2025-11-29T00:49	23415	31			228	22
2025-11-29T00:49	23515	30	-60.3			
2025-11-29T00:50	23788	29			229	23
2025-11-29T00:51	24163	27	-57.8		241	25
2025-11-29T00:51	24374	27			250	24
2025-11-29T00:52	24498	26	-54.4			
2025-11-29T00:52	24777	25			253	18
2025-11-29T00:53	24879	25	-53.8			
2025-11-29T00:53	25041	24	-52.3			
2025-11-29T00:53	25205	23			263	12
2025-11-29T00:54	25540	22			274	11
2025-11-29T00:55	25716	22			268	11
2025-11-29T00:56	26139	20			284	11
2025-11-29T00:56	26267	20	-59.0			
2025-11-29T00:57	26527	19			293	13
2025-11-29T00:57	26728	18	-58.3			
2025-11-29T00:57	26836	18			319	6
2025-11-29T00:58	27045	17	-60.3			
2025-11-29T00:58	27154	17			264	4
2025-11-29T00:59	27305	17			245	6
2025-11-29T00:59	27378	17	-57.5			
2025-11-29T00:59	27614	16	-54.4		264	8
2025-11-29T01:00	27738	16			262	9
2025-11-29T01:00	27903	15			290	13
2025-11-29T01:01	28036	15	-52.1			
2025-11-29T01:01	28164	15			305	8
2025-11-29T01:01	28389	14			335	3
2025-11-29T01:02	28528	14			51	3
2025-11-29T01:02	28619	14			322	5
2025-11-29T01:02	28766	13			316	10
2025-11-29T01:03	28964	13			327	4
2025-11-29T01:03	29062	13	-52.7		301	5
2025-11-29T01:03	29218	12			343	10
2025-11-29T01:04	29324	12			350	9
2025-11-29T01:04	29488	12			337	11
2025-11-29T01:04	29593	12			1	11
2025-11-29T01:04	29650	12	-49.8			
2025-11-29T01:05	29826	11			348	13
2025-11-29T01:05	30059	11	-49.8			
2025-11-29T01:06	30241	11			18	14
2025-11-29T01:06	30431	10			23	12
2025-11-29T01:07	30630	10			50	11
2025-11-29T01:07	30823	10	-48.8		80	6
2025-11-29T01:07	30893	10			83	7
2025-11-29T01:07	30962	10			61	6
2025-11-29T01:08	31033	9			18	8
2025-11-29T01:08	31102	9			5	11
2025-11-29T01:08	31249	9			30	10
2025-11-29T01:08	31395	9	-45.6			
2025-11-29T01:09	31624	9			39	13
2025-11-29T01:09	31702	9	-45.7		22	9
2025-11-29T01:09	31783	8			9	10
2025-11-29T01:10	31863	8	-44.4			
2025-11-29T01:10	32024	8			32	15
2025-11-29T01:10	32108	8	-42.9			
2025-11-29T01:10	32193	8			33	12
2025-11-29T01:11	32278	8			10	13
2025-11-29T01:11	32456	8	-39.6			
2025-11-29T01:11	32637	7			16	20
2025-11-29T01:12	32730	7			12	16
2025-11-29T01:12	32930	7	-40.6		24	17
2025-11-29T11:33	26	1016	8.0	4.9	10	1
2025-11-29T11:33	32	1015	8.5	4.7	0	0
2025-11-29T11:33	61	1012	10.8	4.9		
2025-11-29T11:33	97	1008			32	3
2025-11-29T11:33	102	1007	11.5	4.2		
2025-11-29T11:33	182	997			102	6
2025-11-29T11:34	279	986	10.8	4.5		
2025-11-29T11:34	441	967			81	7
2025-11-29T11:35	561	953	8.5	3.5		
2025-11-29T11:35	630	945			101	5
2025-11-29T11:35	712	936			105	3
2025-11-29T11:35	796	926			138	4
2025-11-29T11:35	864	918			168	3
2025-11-29T11:36	932	911			207	3
2025-11-29T11:36	1056	897			207	3
2025-11-29T11:36	1068	896	4.8	2.8		
2025-11-29T11:37	1244	877	4.0	3.3	235	10
2025-11-29T11:37	1320	868	4.1	1.8		
2025-11-29T11:38	1586	840			231	10
2025-11-29T11:38	1732	825			225	15
2025-11-29T11:38	1764	822	1.0	-2.2		
2025-11-29T11:38	1870	811	0.5	-4.9		
2025-11-29T11:39	1929	805	0.8	-11.0	209	16
2025-11-29T11:39	2039	794	1.0	-15.5		
2025-11-29T11:39	2100	788			226	15
2025-11-29T11:40	2246	774			229	13
2025-11-29T11:40	2289	770	-1.0	-17.2		
2025-11-29T11:40	2333	766	-0.7	-17.4		
2025-11-29T11:40	2408	759			227	16
2025-11-29T11:40	2496	750	-1.4	-15.3		
2025-11-29T11:41	2670	734			236	12
2025-11-29T11:41	2700	731	-2.1	-19.1		
2025-11-29T11:41	2796	723	-2.8	-18.4		
2025-11-29T11:42	2984	706			248	14
2025-11-29T11:42	3068	698	-4.0	-24.9		
2025-11-29T11:43	3230	684			268	14
2025-11-29T11:43	3287	679	-4.9	-30.0		
2025-11-29T11:43	3345	674	-4.2	-32.5		
2025-11-29T11:44	3539	658			278	16
2025-11-29T11:44	3657	648	-5.5	-31.4		
2025-11-29T11:44	3663	647			275	20
2025-11-29T11:45	3873	630	-6.2	-32.9		
2025-11-29T11:45	4002	620			282	18
2025-11-29T11:46	4220	603			279	19
2025-11-29T11:46	4329	594	-9.1	-31.1		
2025-11-29T11:46	4468	584			273	19
2025-11-29T11:47	4755	562	-12.1	-32.2		
2025-11-29T11:47	4787	560			277	19
2025-11-29T11:48	5057	540			274	21
2025-11-29T11:49	5156	533			271	23
2025-11-29T11:49	5334	521			270	25
2025-11-29T11:50	5541	507	-17.4	-36.1		
2025-11-29T11:50	5661	499			268	27
2025-11-29T11:51	5989	477	-21.4	-38.4	272	26
2025-11-29T11:52	6116	469	-21.9	-41.6		
2025-11-29T11:52	6127	468			273	26
2025-11-29T11:52	6241	461			276	28
2025-11-29T11:53	6487	446			274	25
2025-11-29T11:54	6805	427	-28.3	-43.4		
2025-11-29T11:54	6822	426			278	28
2025-11-29T11:54	7093	410	-30.6	-45.4		
2025-11-29T11:55	7159	406			275	27
2025-11-29T11:55	7360	395			277	26
2025-11-29T11:55	7408	392	-32.2	-52.9		
2025-11-29T11:56	7617	380	-33.5	-53.9		
2025-11-29T11:56	7709	375			277	26
2025-11-29T11:57	7950	363	-35.7	-57.3		
2025-11-29T11:57	8037	358			271	28
2025-11-29T11:58	8210	349			269	30
2025-11-29T11:58	8341	343			270	28
2025-11-29T11:58	8432	338	-39.5	-56.9		
2025-11-29T11:59	8552	332	-40.0	-60.0		
2025-11-29T11:59	8701	325			279	30
2025-11-29T12:00	9056	309			273	33
2025-11-29T12:00	9191	302	-44.1			
2025-11-29T12:01	9313	297			267	39
2025-11-29T12:02	9611	284			265	42
2025-11-29T12:02	9769	277	-45.4			
2025-11-29T12:02	9886	273			265	43
2025-11-29T12:03	10011	267			261	43
2025-11-29T12:04	10296	256	-48.3			
2025-11-29T12:04	10308	256			266	46
2025-11-29T12:05	10693	241	-47.5		263	50
2025-11-29T12:05	11016	230			261	55
2025-11-29T12:05	11029	229	-47.5			
2025-11-29T12:06	11228	222	-48.1			
2025-11-29T12:06	11262	221			260	52
2025-11-29T12:06	11376	218	-48.1			
2025-11-29T12:06	11428	216			261	57
2025-11-29T12:07	11551	212	-47.2			
2025-11-29T12:07	11719	207	-47.7			
2025-11-29T12:07	11793	204			262	60
2025-11-29T12:08	11901	201	-47.9			
2025-11-29T12:08	12034	197	-48.1			
2025-11-29T12:08	12156	193			263	63
2025-11-29T12:09	12429	185	-49.7			
2025-11-29T12:09	12520	183			262	63
2025-11-29T12:10	12654	179	-51.1			
2025-11-29T12:10	12888	173			264	65
2025-11-29T12:11	13197	165	-52.7			
2025-11-29T12:11	13328	161			263	65
2025-11-29T12:12	13628	154	-54.5			
2025-11-29T12:12	13744	151			264	68
2025-11-29T12:14	14080	144			266	66
2025-11-29T12:15	14362	137			267	63
2025-11-29T12:15	14654	131			266	63
2025-11-29T12:16	14946	125			263	64
2025-11-29T12:16	14951	125	-62.8			
2025-11-29T12:17	15234	119			266	62
2025-11-29T12:18	15447	115	-64.8			
2025-11-29T12:18	15525	114			264	61
2025-11-29T12:19	15829	108			263	60
2025-11-29T12:20	16058	104	-68.2			
2025-11-29T12:20	16150	102			265	58
2025-11-29T12:21	16547	96			262	59
2025-11-29T12:22	16955	89	-72.6			
2025-11-29T12:22	16969	89			268	55
2025-11-29T12:23	17260	85			273	55
2025-11-29T12:24	17358	83			269	53
2025-11-29T12:24	17394	83	-71.7			
2025-11-29T12:24	17516	81	-70.8			
2025-11-29T12:25	17621	80			276	52
2025-11-29T12:25	17739	78	-69.3			
2025-11-29T12:26	17833	77			278	45
2025-11-29T12:26	17951	76			276	43
2025-11-29T12:27	18022	75	-69.1			
2025-11-29T12:27	18059	74	-68.2		278	45
2025-11-29T23:33	26	1017	7.3	3.0	310	1
2025-11-29T23:33	32	1016	7.4	3.1	0	0
2025-11-29T23:33	63	1012	6.5	2.8		
2025-11-29T23:33	80	1010			288	3
2025-11-29T23:33	108	1007	6.7	2.6		
2025-11-29T23:33	158	1001	10.6	4.1		
2025-11-29T23:33	180	998			345	2
2025-11-29T23:34	246	990	10.4	4.3		
2025-11-29T23:34	404	972			15	4
2025-11-29T23:34	489	962	8.6	5.7		
2025-11-29T23:34	523	958			22	1
2025-11-29T23:35	684	939			130	3
2025-11-29T23:35	799	926			143	1
2025-11-29T23:35	833	922	6.3	4.6		
2025-11-29T23:36	1067	896	4.9	1.6		
2025-11-29T23:36	1111	891	5.7	-1.7		
2025-11-29T23:36	1139	888			273	3
2025-11-29T23:36	1145	888	7.7	-8.8		
2025-11-29T23:36	1195	882	8.2	-10.2		
2025-11-29T23:37	1250	877			309	4
2025-11-29T23:37	1283	873	8.2	-14.1		
2025-11-29T23:37	1381	863			292	4
2025-11-29T23:37	1402	860	7.9	-15.7		
2025-11-29T23:37	1535	847	8.1	-18.7	299	3
2025-11-29T23:38	1661	834	7.4	-19.3		
2025-11-29T23:38	1887	811			297	2
2025-11-29T23:39	1975	802	4.7	-21.4		
2025-11-29T23:39	2050	795			280	4
2025-11-29T23:39	2061	794	4.8	-22.3		
2025-11-29T23:39	2187	782			268	5
2025-11-29T23:40	2342	767	3.3	-23.5		
2025-11-29T23:40	2527	750	1.8	-23.8		
2025-11-29T23:40	2533	749			292	9
2025-11-29T23:41	2741	730			292	9
2025-11-29T23:41	2765	728	0.9	-28.5		
2025-11-29T23:41	2899	716	0.4	-26.7	285	12
2025-11-29T23:42	3182	691			281	13
2025-11-29T23:43	3451	667			268	11
2025-11-29T23:44	3647	651	-5.8	-32.6		
2025-11-29T23:44	3803	638			270	14
2025-11-29T23:45	4137	611			276	16
2025-11-29T23:45	4234	604	-10.4	-33.6		
2025-11-29T23:46	4480	585			270	17
2025-11-29T23:47	4712	567	-14.1	-31.7		
2025-11-29T23:47	4821	559			265	19
2025-11-29T23:47	4980	547	-16.3	-32.7		
2025-11-29T23:48	5051	542	-16.2	-36.9		
2025-11-29T23:48	5111	538			277	19
2025-11-29T23:48	5220	530	-17.3	-33.5		
2025-11-29T23:49	5363	520			275	21
2025-11-29T23:49	5400	517	-18.3	-35.3		
2025-11-29T23:49	5657	500	-20.1	-35.9		
2025-11-29T23:50	5726	495			282	24
2025-11-29T23:51	6079	472			276	27
2025-11-29T23:51	6250	461			273	25
2025-11-29T23:51	6308	458	-24.6	-41.2		
2025-11-29T23:51	6344	455			270	27
2025-11-29T23:52	6517	445			275	27
2025-11-29T23:52	6721	432			281	30
2025-11-29T23:52	6752	430	-27.3	-48.1		
2025-11-29T23:53	7082	411			279	32
2025-11-29T23:54	7303	398			278	31
2025-11-29T23:54	7350	396	-30.7	-54.3		
2025-11-29T23:55	7661	379			284	31
2025-11-29T23:55	7725	375	-33.1	-57.3		
2025-11-29T23:55	7850	369			279	32
2025-11-29T23:56	7939	364	-34.4	-59.5		
2025-11-29T23:56	8009	360	-34.3	-59.5		
2025-11-29T23:56	8208	350			286	31
2025-11-29T23:57	8334	344			283	32
2025-11-29T23:58	8713	325			280	37
2025-11-29T23:58	8746	324	-40.0	-60.0		
2025-11-29T23:59	9095	308			277	36
2025-11-30T00:00	9418	293	-45.0			
2025-11-30T00:00	9480	291			270	39
2025-11-30T00:01	9773	278	-46.6			
2025-11-30T00:01	9851	275			271	42
2025-11-30T00:01	9999	269	-47.1			
2025-11-30T00:02	10204	260			268	44
2025-11-30T00:02	10326	256	-47.3			
2025-11-30T00:03	10524	248			267	52
2025-11-30T00:03	10537	248	-46.5			
2025-11-30T00:03	10775	239			268	54
2025-11-30T00:03	10799	238	-46.5			
2025-11-30T00:04	10989	231			266	54
2025-11-30T00:04	11041	230	-45.8			
2025-11-30T00:04	11135	226			269	55
2025-11-30T00:05	11485	215			267	58
2025-11-30T00:06	11652	209	-46.0			
2025-11-30T00:06	11903	202			266	59
2025-11-30T00:07	12059	197	-47.7			
2025-11-30T00:07	12183	193			265	62
2025-11-30T00:07	12408	187			269	61
2025-11-30T00:08	12579	182	-48.6		269	58
2025-11-30T11:33	26	1016	6.3	5.7	140	0
2025-11-30T11:33	31	1015	6.8	5.3	0	0
2025-11-30T11:33	69	1011	10.7	4.4		
2025-11-30T11:33	99	1007	13.1	5.5		
2025-11-30T11:33	128	1003			11	3
2025-11-30T11:34	258	988			332	1
2025-11-30T11:34	264	987	12.5	5.0		
2025-11-30T11:35	590	949			189	2
2025-11-30T11:35	697	937	8.8	5.9		
2025-11-30T11:35	703	937			162	3
2025-11-30T11:35	753	931	8.5	5.4		
2025-11-30T11:35	838	922			230	3
2025-11-30T11:35	844	921	8.1	3.9		
2025-11-30T11:36	894	916	8.5	-1.6		
2025-11-30T11:36	933	911			247	2
2025-11-30T11:36	977	906	8.6	-8.4		
2025-11-30T11:36	1084	895	10.6	-14.2		
2025-11-30T11:37	1270	875			70	2
2025-11-30T11:37	1350	867			132	3
2025-11-30T11:37	1396	862	9.0	-18.0		
2025-11-30T11:38	1560	845			194	5
2025-11-30T11:38	1671	834			241	6
2025-11-30T11:38	1689	832	8.6	-13.8		
2025-11-30T11:38	1730	828	9.3	-16.9		
2025-11-30T11:39	2027	799			233	9
2025-11-30T11:39	2131	789	6.5	-19.1		
2025-11-30T11:40	2364	766			238	9
2025-11-30T11:41	2673	738			243	10
2025-11-30T11:41	2899	717	-0.5	-24.0		
2025-11-30T11:41	2905	717			254	10
2025-11-30T11:42	3117	698	-1.5	-27.3		
2025-11-30T11:42	3278	684			271	13
2025-11-30T11:43	3484	666	-3.3	-28.7		
2025-11-30T11:43	3630	654			255	13
2025-11-30T11:43	3680	650	-4.6	-28.1		
2025-11-30T11:44	3761	643			256	12
2025-11-30T11:45	4086	617			258	12
2025-11-30T11:45	4257	604			248	14
2025-11-30T11:46	4516	584			256	14
2025-11-30T11:46	4599	577			251	16
2025-11-30T11:46	4646	574	-12.7	-32.7		
2025-11-30T11:47	4925	553			250	16
2025-11-30T11:48	5050	544	-15.8	-34.7		
2025-11-30T11:48	5186	534	-16.1	-36.2		
2025-11-30T11:48	5254	529			250	17
2025-11-30T11:49	5523	511			242	18
2025-11-30T11:50	5857	488	-21.5	-39.5		
2025-11-30T11:50	5863	488			248	18
2025-11-30T11:51	6054	475			257	19
2025-11-30T11:51	6298	460	-24.3	-44.3		
2025-11-30T11:52	6397	453			249	21
2025-11-30T11:53	6748	432	-27.8	-46.5	258	23
2025-11-30T11:54	7119	410			253	25
2025-11-30T11:54	7227	404			250	25
2025-11-30T11:54	7374	396			246	25
2025-11-30T11:55	7534	387			244	25
2025-11-30T11:55	7577	384	-34.4	-51.0		
2025-11-30T11:56	7864	369			249	28
2025-11-30T11:56	7888	368	-36.8	-53.0		
2025-11-30T11:56	8062	358			248	26
2025-11-30T11:56	8110	356	-38.3	-59.4		
2025-11-30T11:57	8394	341	-40.0	-63.9		
2025-11-30T11:57	8418	340			247	29
2025-11-30T11:57	8430	340	-40.0	-65.3		
2025-11-30T11:58	8584	332	-40.8			
2025-11-30T11:58	8644	329	-39.3			
2025-11-30T11:58	8698	327			253	32
2025-11-30T11:58	8816	321			260	32
2025-11-30T11:59	9031	311	-40.5			
2025-11-30T11:59	9193	304			255	37
2025-11-30T12:00	9469	292			257	39
2025-11-30T12:01	9653	284	-42.8			
2025-11-30T12:01	9787	278			257	41
2025-11-30T12:02	10163	263			255	44
2025-11-30T12:02	10379	255	-43.9			
2025-11-30T12:03	10549	248			258	51
2025-11-30T12:03	10715	242	-44.0			
2025-11-30T12:04	10956	234			260	53
2025-11-30T12:04	11153	227			260	56
2025-11-30T12:04	11175	226	-44.8			
2025-11-30T12:05	11584	213			261	58
2025-11-30T12:06	11880	203	-46.8			
2025-11-30T12:06	11941	202			259	55
2025-11-30T12:07	12228	193			259	53
2025-11-30T12:07	12359	189	-48.6			
2025-11-30T12:08	12629	182			257	51
2025-11-30T12:08	12752	178	-50.8			
2025-11-30T12:09	13036	171			254	54
2025-11-30T12:10	13285	164			257	56
2025-11-30T12:10	13536	158			258	51
2025-11-30T12:10	13556	157	-55.9			
2025-11-30T12:11	13952	148			262	54
2025-11-30T12:11	14089	145			264	52
2025-11-30T12:12	14270	140	-58.9			
2025-11-30T12:12	14412	137			260	46
2025-11-30T12:13	14510	135	-59.9			
2025-11-30T12:13	14690	131			252	46
2025-11-30T12:13	14711	131	-59.9			
2025-11-30T12:14	14994	125			254	47
2025-11-30T12:14	15039	124	-61.7			
2025-11-30T12:15	15303	119			254	46
2025-11-30T12:16	15486	116			256	47
2025-11-30T12:16	15622	113	-64.3		260	49
2025-11-30T23:33	26	1014	5.5	4.6	260	2
2025-11-30T23:33	31	1013	6.0	4.3	0	0
2025-11-30T23:33	36	1012	6.4	4.9		
2025-11-30T23:33	57	1010	5.4	4.4	259	3
2025-11-30T23:33	82	1007			278	8
2025-11-30T23:33	87	1006	5.5	3.3		
2025-11-30T23:33	112	1003	7.5	2.6		
2025-11-30T23:33	158	998	9.4	1.3		
2025-11-30T23:34	191	994			281	6
2025-11-30T23:34	235	988	10.7	3.9		
2025-11-30T23:34	360	974	10.3	5.5		
2025-11-30T23:34	418	967			231	10
2025-11-30T23:34	460	962	11.0	4.0		
2025-11-30T23:35	553	951			227	15
2025-11-30T23:35	571	949	11.8	0.3		
2025-11-30T23:35	748	930	11.1	-4.2		
2025-11-30T23:35	783	926			245	12
2025-11-30T23:36	997	902	10.8	-9.0		
2025-11-30T23:36	1065	895			286	7
2025-11-30T23:36	1111	890	10.3	-10.5		
2025-11-30T23:37	1267	873	10.2	-13.8		
2025-11-30T23:37	1324	867	11.1	-17.3		
2025-11-30T23:37	1387	861	11.6	-19.0		
2025-11-30T23:37	1410	858			263	9
2025-11-30T23:37	1426	857	12.1	-18.7		
2025-11-30T23:38	1608	838			276	9
2025-11-30T23:38	1780	821			266	11
2025-11-30T23:39	1903	809	8.2	-18.6		
2025-11-30T23:39	2121	788			257	10
2025-11-30T23:40	2456	756	4.0	-22.0		
2025-11-30T23:40	2462	755			263	14
2025-11-30T23:41	2796	724			262	15
2025-11-30T23:42	2959	710	-0.4	-26.4		
2025-11-30T23:42	3147	693			272	18
2025-11-30T23:43	3535	660			271	15
2025-11-30T23:43	3567	657	-5.6	-28.2		
2025-11-30T23:44	3926	628			257	16
2025-11-30T23:45	4315	597	-11.5	-33.7	250	18
2025-11-30T23:46	4692	568			254	19
2025-11-30T23:47	4873	555			255	22
2025-11-30T23:47	4939	550	-16.7	-36.1		
2025-11-30T23:47	5071	540			253	23
2025-11-30T23:47	5107	538	-17.3	-40.8		
2025-11-30T23:48	5161	534	-17.0	-42.5		
2025-11-30T23:48	5356	520	-18.2	-39.9		
2025-11-30T23:48	5426	515			259	26
2025-11-30T23:49	5685	497	-20.7	-37.8		
2025-11-30T23:49	5721	495			251	27
2025-11-30T23:49	5857	486			247	30
2025-11-30T23:50	5994	477	-22.9	-30.3		
2025-11-30T23:51	6211	463			247	29
2025-11-30T23:51	6272	459	-25.3	-31.3		
2025-11-30T23:51	6361	454	-25.8	-32.0		
2025-11-30T23:51	6475	447			247	31
2025-11-30T23:52	6540	443	-27.4	-33.0		
2025-11-30T23:52	6626	437			250	32
2025-11-30T23:52	6654	436	-28.6	-34.1		
2025-11-30T23:52	6803	427	-30.0	-33.6		
2025-11-30T23:52	6814	426			250	31
2025-11-30T23:53	7044	412			249	31
2025-11-30T23:53	7089	410	-32.4	-42.7		
2025-11-30T23:54	7231	402	-33.5	-47.6		
2025-11-30T23:54	7323	396			251	27
2025-11-30T23:54	7431	390			246	30
2025-11-30T23:54	7527	385	-34.9	-53.1		
2025-11-30T23:55	7642	379	-34.6	-57.4		
2025-11-30T23:55	7790	371			260	30
2025-11-30T23:56	7970	361	-37.1	-60.4		
2025-11-30T23:56	8082	355			254	28
2025-11-30T23:56	8304	344			253	31
2025-11-30T23:57	8352	342	-39.1	-63.2		
2025-11-30T23:57	8419	338			258	35
2025-11-30T23:57	8560	331	-39.6	-68.7		
2025-11-30T23:57	8607	329	-40.0	-68.9		
2025-11-30T23:57	8634	328			255	35
2025-11-30T23:58	8942	313	-41.6			
2025-11-30T23:58	9028	309			258	38
2025-11-30T23:59	9210	301	-43.6			
2025-11-30T23:59	9414	292			259	40
